<?xml version="1.0" encoding="UTF-8" standalone="no" ?>
<gpx xmlns="http://www.topografix.com/GPX/1/1" xmlns:xsi="http://www.w3.org/2001/XMLSchema-instance" xsi:schemaLocation="http://www.topografix.com/GPX/1/1 http://www.topografix.com/GPX/1/1/gpx.xsd" version="1.1" creator="VisuGPX - https://www.visugpx.com">
  <metadata>
    <name>Roc des Arces - Col des Annes</name>
    <desc><![CDATA[Sortie VTT - 1ere pour Alexis & Thomas Junior !]]></desc>
  </metadata>
  <trk>
    <name><![CDATA[001-2011/06/04-10:21:08]]></name>
    <trkseg>
      <trkpt lat="45.94655" lon="6.46544">
        <ele>1387</ele>
        <time>2011-06-04T08:21:08Z</time>
      </trkpt>
      <trkpt lat="45.9464" lon="6.46509">
        <ele>1387</ele>
        <time>2011-06-04T08:21:28Z</time>
      </trkpt>
      <trkpt lat="45.9464" lon="6.46494">
        <ele>1385</ele>
        <time>2011-06-04T08:21:31Z</time>
      </trkpt>
      <trkpt lat="45.94636" lon="6.46481">
        <ele>1383</ele>
        <time>2011-06-04T08:21:33Z</time>
      </trkpt>
      <trkpt lat="45.94632" lon="6.46473">
        <ele>1381</ele>
        <time>2011-06-04T08:21:35Z</time>
      </trkpt>
      <trkpt lat="45.94629" lon="6.4647">
        <ele>1377</ele>
        <time>2011-06-04T08:21:39Z</time>
      </trkpt>
      <trkpt lat="45.9463" lon="6.46469">
        <ele>1371</ele>
        <time>2011-06-04T08:21:45Z</time>
      </trkpt>
      <trkpt lat="45.9463" lon="6.46466">
        <ele>1370</ele>
        <time>2011-06-04T08:21:55Z</time>
      </trkpt>
      <trkpt lat="45.94631" lon="6.46464">
        <ele>1370</ele>
        <time>2011-06-04T08:21:58Z</time>
      </trkpt>
      <trkpt lat="45.94633" lon="6.46463">
        <ele>1370</ele>
        <time>2011-06-04T08:22:04Z</time>
      </trkpt>
      <trkpt lat="45.94635" lon="6.46464">
        <ele>1371</ele>
        <time>2011-06-04T08:22:06Z</time>
      </trkpt>
      <trkpt lat="45.94637" lon="6.46466">
        <ele>1372</ele>
        <time>2011-06-04T08:22:08Z</time>
      </trkpt>
      <trkpt lat="45.9464" lon="6.46467">
        <ele>1372</ele>
        <time>2011-06-04T08:22:10Z</time>
      </trkpt>
      <trkpt lat="45.94642" lon="6.46469">
        <ele>1373</ele>
        <time>2011-06-04T08:22:12Z</time>
      </trkpt>
      <trkpt lat="45.94644" lon="6.46471">
        <ele>1374</ele>
        <time>2011-06-04T08:22:14Z</time>
      </trkpt>
      <trkpt lat="45.94647" lon="6.46472">
        <ele>1375</ele>
        <time>2011-06-04T08:22:16Z</time>
      </trkpt>
      <trkpt lat="45.9465" lon="6.46475">
        <ele>1376</ele>
        <time>2011-06-04T08:22:18Z</time>
      </trkpt>
      <trkpt lat="45.94652" lon="6.46478">
        <ele>1377</ele>
        <time>2011-06-04T08:22:20Z</time>
      </trkpt>
      <trkpt lat="45.94654" lon="6.4648">
        <ele>1377</ele>
        <time>2011-06-04T08:22:22Z</time>
      </trkpt>
      <trkpt lat="45.94657" lon="6.46481">
        <ele>1378</ele>
        <time>2011-06-04T08:22:24Z</time>
      </trkpt>
      <trkpt lat="45.94659" lon="6.46478">
        <ele>1379</ele>
        <time>2011-06-04T08:22:26Z</time>
      </trkpt>
      <trkpt lat="45.9466" lon="6.46473">
        <ele>1380</ele>
        <time>2011-06-04T08:22:28Z</time>
      </trkpt>
      <trkpt lat="45.9466" lon="6.46469">
        <ele>1380</ele>
        <time>2011-06-04T08:22:30Z</time>
      </trkpt>
      <trkpt lat="45.94662" lon="6.46465">
        <ele>1381</ele>
        <time>2011-06-04T08:22:32Z</time>
      </trkpt>
      <trkpt lat="45.94663" lon="6.46461">
        <ele>1381</ele>
        <time>2011-06-04T08:22:34Z</time>
      </trkpt>
      <trkpt lat="45.94665" lon="6.46457">
        <ele>1381</ele>
        <time>2011-06-04T08:22:36Z</time>
      </trkpt>
      <trkpt lat="45.94668" lon="6.46453">
        <ele>1382</ele>
        <time>2011-06-04T08:22:38Z</time>
      </trkpt>
      <trkpt lat="45.9467" lon="6.4645">
        <ele>1383</ele>
        <time>2011-06-04T08:22:40Z</time>
      </trkpt>
      <trkpt lat="45.94673" lon="6.46447">
        <ele>1384</ele>
        <time>2011-06-04T08:22:42Z</time>
      </trkpt>
      <trkpt lat="45.94676" lon="6.46444">
        <ele>1384</ele>
        <time>2011-06-04T08:22:44Z</time>
      </trkpt>
      <trkpt lat="45.94679" lon="6.4644">
        <ele>1385</ele>
        <time>2011-06-04T08:22:46Z</time>
      </trkpt>
      <trkpt lat="45.94681" lon="6.46438">
        <ele>1385</ele>
        <time>2011-06-04T08:22:48Z</time>
      </trkpt>
      <trkpt lat="45.94684" lon="6.46435">
        <ele>1385</ele>
        <time>2011-06-04T08:22:50Z</time>
      </trkpt>
      <trkpt lat="45.94686" lon="6.46432">
        <ele>1385</ele>
        <time>2011-06-04T08:22:52Z</time>
      </trkpt>
      <trkpt lat="45.94689" lon="6.46428">
        <ele>1385</ele>
        <time>2011-06-04T08:22:54Z</time>
      </trkpt>
      <trkpt lat="45.94691" lon="6.46425">
        <ele>1385</ele>
        <time>2011-06-04T08:22:56Z</time>
      </trkpt>
      <trkpt lat="45.94694" lon="6.46423">
        <ele>1385</ele>
        <time>2011-06-04T08:22:58Z</time>
      </trkpt>
      <trkpt lat="45.94697" lon="6.46422">
        <ele>1385</ele>
        <time>2011-06-04T08:23:00Z</time>
      </trkpt>
      <trkpt lat="45.94699" lon="6.46419">
        <ele>1385</ele>
        <time>2011-06-04T08:23:02Z</time>
      </trkpt>
      <trkpt lat="45.94702" lon="6.46416">
        <ele>1385</ele>
        <time>2011-06-04T08:23:04Z</time>
      </trkpt>
      <trkpt lat="45.94705" lon="6.46412">
        <ele>1385</ele>
        <time>2011-06-04T08:23:06Z</time>
      </trkpt>
      <trkpt lat="45.94707" lon="6.46409">
        <ele>1385</ele>
        <time>2011-06-04T08:23:08Z</time>
      </trkpt>
      <trkpt lat="45.94709" lon="6.46405">
        <ele>1385</ele>
        <time>2011-06-04T08:23:10Z</time>
      </trkpt>
      <trkpt lat="45.94711" lon="6.46402">
        <ele>1385</ele>
        <time>2011-06-04T08:23:12Z</time>
      </trkpt>
      <trkpt lat="45.94713" lon="6.46398">
        <ele>1385</ele>
        <time>2011-06-04T08:23:14Z</time>
      </trkpt>
      <trkpt lat="45.94715" lon="6.46394">
        <ele>1385</ele>
        <time>2011-06-04T08:23:16Z</time>
      </trkpt>
      <trkpt lat="45.94717" lon="6.46391">
        <ele>1385</ele>
        <time>2011-06-04T08:23:18Z</time>
      </trkpt>
      <trkpt lat="45.94719" lon="6.46387">
        <ele>1385</ele>
        <time>2011-06-04T08:23:20Z</time>
      </trkpt>
      <trkpt lat="45.9472" lon="6.46383">
        <ele>1385</ele>
        <time>2011-06-04T08:23:22Z</time>
      </trkpt>
      <trkpt lat="45.94721" lon="6.4638">
        <ele>1385</ele>
        <time>2011-06-04T08:23:24Z</time>
      </trkpt>
      <trkpt lat="45.94721" lon="6.46376">
        <ele>1385</ele>
        <time>2011-06-04T08:23:26Z</time>
      </trkpt>
      <trkpt lat="45.94722" lon="6.46372">
        <ele>1385</ele>
        <time>2011-06-04T08:23:28Z</time>
      </trkpt>
      <trkpt lat="45.94722" lon="6.46368">
        <ele>1383</ele>
        <time>2011-06-04T08:23:30Z</time>
      </trkpt>
      <trkpt lat="45.94723" lon="6.46363">
        <ele>1382</ele>
        <time>2011-06-04T08:23:32Z</time>
      </trkpt>
      <trkpt lat="45.94723" lon="6.46358">
        <ele>1381</ele>
        <time>2011-06-04T08:23:34Z</time>
      </trkpt>
      <trkpt lat="45.94722" lon="6.46352">
        <ele>1381</ele>
        <time>2011-06-04T08:23:36Z</time>
      </trkpt>
      <trkpt lat="45.9472" lon="6.46349">
        <ele>1381</ele>
        <time>2011-06-04T08:23:38Z</time>
      </trkpt>
      <trkpt lat="45.94718" lon="6.46345">
        <ele>1381</ele>
        <time>2011-06-04T08:23:40Z</time>
      </trkpt>
      <trkpt lat="45.94716" lon="6.46341">
        <ele>1381</ele>
        <time>2011-06-04T08:23:42Z</time>
      </trkpt>
      <trkpt lat="45.94714" lon="6.46335">
        <ele>1383</ele>
        <time>2011-06-04T08:23:44Z</time>
      </trkpt>
      <trkpt lat="45.94713" lon="6.4633">
        <ele>1385</ele>
        <time>2011-06-04T08:23:46Z</time>
      </trkpt>
      <trkpt lat="45.94712" lon="6.46323">
        <ele>1387</ele>
        <time>2011-06-04T08:23:48Z</time>
      </trkpt>
      <trkpt lat="45.9471" lon="6.46316">
        <ele>1387</ele>
        <time>2011-06-04T08:23:50Z</time>
      </trkpt>
      <trkpt lat="45.94709" lon="6.46308">
        <ele>1387</ele>
        <time>2011-06-04T08:23:52Z</time>
      </trkpt>
      <trkpt lat="45.94707" lon="6.463">
        <ele>1387</ele>
        <time>2011-06-04T08:23:54Z</time>
      </trkpt>
      <trkpt lat="45.94704" lon="6.4629">
        <ele>1387</ele>
        <time>2011-06-04T08:23:56Z</time>
      </trkpt>
      <trkpt lat="45.94701" lon="6.46281">
        <ele>1387</ele>
        <time>2011-06-04T08:23:58Z</time>
      </trkpt>
      <trkpt lat="45.94698" lon="6.4627">
        <ele>1387</ele>
        <time>2011-06-04T08:24:00Z</time>
      </trkpt>
      <trkpt lat="45.94695" lon="6.46254">
        <ele>1387</ele>
        <time>2011-06-04T08:24:02Z</time>
      </trkpt>
      <trkpt lat="45.94692" lon="6.46236">
        <ele>1386</ele>
        <time>2011-06-04T08:24:04Z</time>
      </trkpt>
      <trkpt lat="45.9469" lon="6.4621">
        <ele>1385</ele>
        <time>2011-06-04T08:24:07Z</time>
      </trkpt>
      <trkpt lat="45.94687" lon="6.46197">
        <ele>1385</ele>
        <time>2011-06-04T08:24:09Z</time>
      </trkpt>
      <trkpt lat="45.94683" lon="6.46185">
        <ele>1385</ele>
        <time>2011-06-04T08:24:11Z</time>
      </trkpt>
      <trkpt lat="45.94681" lon="6.46173">
        <ele>1385</ele>
        <time>2011-06-04T08:24:13Z</time>
      </trkpt>
      <trkpt lat="45.9468" lon="6.46161">
        <ele>1385</ele>
        <time>2011-06-04T08:24:15Z</time>
      </trkpt>
      <trkpt lat="45.9468" lon="6.46148">
        <ele>1384</ele>
        <time>2011-06-04T08:24:17Z</time>
      </trkpt>
      <trkpt lat="45.9468" lon="6.46136">
        <ele>1383</ele>
        <time>2011-06-04T08:24:19Z</time>
      </trkpt>
      <trkpt lat="45.94681" lon="6.46128">
        <ele>1382</ele>
        <time>2011-06-04T08:24:21Z</time>
      </trkpt>
      <trkpt lat="45.94683" lon="6.46123">
        <ele>1381</ele>
        <time>2011-06-04T08:24:23Z</time>
      </trkpt>
      <trkpt lat="45.94685" lon="6.46121">
        <ele>1381</ele>
        <time>2011-06-04T08:24:25Z</time>
      </trkpt>
      <trkpt lat="45.94688" lon="6.46125">
        <ele>1381</ele>
        <time>2011-06-04T08:24:28Z</time>
      </trkpt>
      <trkpt lat="45.94688" lon="6.46129">
        <ele>1381</ele>
        <time>2011-06-04T08:24:30Z</time>
      </trkpt>
      <trkpt lat="45.94688" lon="6.46134">
        <ele>1381</ele>
        <time>2011-06-04T08:24:32Z</time>
      </trkpt>
      <trkpt lat="45.9469" lon="6.46138">
        <ele>1381</ele>
        <time>2011-06-04T08:24:35Z</time>
      </trkpt>
      <trkpt lat="45.94691" lon="6.46143">
        <ele>1381</ele>
        <time>2011-06-04T08:24:37Z</time>
      </trkpt>
      <trkpt lat="45.94691" lon="6.46148">
        <ele>1381</ele>
        <time>2011-06-04T08:24:39Z</time>
      </trkpt>
      <trkpt lat="45.94692" lon="6.46154">
        <ele>1381</ele>
        <time>2011-06-04T08:24:42Z</time>
      </trkpt>
      <trkpt lat="45.94693" lon="6.46158">
        <ele>1381</ele>
        <time>2011-06-04T08:24:44Z</time>
      </trkpt>
      <trkpt lat="45.94694" lon="6.46164">
        <ele>1381</ele>
        <time>2011-06-04T08:24:46Z</time>
      </trkpt>
      <trkpt lat="45.94695" lon="6.46169">
        <ele>1381</ele>
        <time>2011-06-04T08:24:48Z</time>
      </trkpt>
      <trkpt lat="45.94695" lon="6.46175">
        <ele>1381</ele>
        <time>2011-06-04T08:24:50Z</time>
      </trkpt>
      <trkpt lat="45.94697" lon="6.4618">
        <ele>1381</ele>
        <time>2011-06-04T08:24:52Z</time>
      </trkpt>
      <trkpt lat="45.94698" lon="6.46185">
        <ele>1381</ele>
        <time>2011-06-04T08:24:54Z</time>
      </trkpt>
      <trkpt lat="45.94701" lon="6.46191">
        <ele>1381</ele>
        <time>2011-06-04T08:24:57Z</time>
      </trkpt>
      <trkpt lat="45.94704" lon="6.46194">
        <ele>1381</ele>
        <time>2011-06-04T08:24:59Z</time>
      </trkpt>
      <trkpt lat="45.94706" lon="6.46197">
        <ele>1381</ele>
        <time>2011-06-04T08:25:01Z</time>
      </trkpt>
      <trkpt lat="45.94708" lon="6.46201">
        <ele>1381</ele>
        <time>2011-06-04T08:25:03Z</time>
      </trkpt>
      <trkpt lat="45.9471" lon="6.46205">
        <ele>1382</ele>
        <time>2011-06-04T08:25:05Z</time>
      </trkpt>
      <trkpt lat="45.94711" lon="6.46208">
        <ele>1383</ele>
        <time>2011-06-04T08:25:07Z</time>
      </trkpt>
      <trkpt lat="45.94713" lon="6.46212">
        <ele>1384</ele>
        <time>2011-06-04T08:25:09Z</time>
      </trkpt>
      <trkpt lat="45.94715" lon="6.46216">
        <ele>1385</ele>
        <time>2011-06-04T08:25:11Z</time>
      </trkpt>
      <trkpt lat="45.94716" lon="6.4622">
        <ele>1386</ele>
        <time>2011-06-04T08:25:13Z</time>
      </trkpt>
      <trkpt lat="45.94717" lon="6.46224">
        <ele>1386</ele>
        <time>2011-06-04T08:25:15Z</time>
      </trkpt>
      <trkpt lat="45.94718" lon="6.46228">
        <ele>1386</ele>
        <time>2011-06-04T08:25:17Z</time>
      </trkpt>
      <trkpt lat="45.94719" lon="6.46232">
        <ele>1386</ele>
        <time>2011-06-04T08:25:19Z</time>
      </trkpt>
      <trkpt lat="45.9472" lon="6.46235">
        <ele>1386</ele>
        <time>2011-06-04T08:25:21Z</time>
      </trkpt>
      <trkpt lat="45.94721" lon="6.46239">
        <ele>1386</ele>
        <time>2011-06-04T08:25:23Z</time>
      </trkpt>
      <trkpt lat="45.94722" lon="6.46243">
        <ele>1386</ele>
        <time>2011-06-04T08:25:25Z</time>
      </trkpt>
      <trkpt lat="45.94724" lon="6.46247">
        <ele>1386</ele>
        <time>2011-06-04T08:25:27Z</time>
      </trkpt>
      <trkpt lat="45.94725" lon="6.46251">
        <ele>1386</ele>
        <time>2011-06-04T08:25:29Z</time>
      </trkpt>
      <trkpt lat="45.94726" lon="6.46256">
        <ele>1386</ele>
        <time>2011-06-04T08:25:31Z</time>
      </trkpt>
      <trkpt lat="45.94727" lon="6.4626">
        <ele>1386</ele>
        <time>2011-06-04T08:25:33Z</time>
      </trkpt>
      <trkpt lat="45.9473" lon="6.46265">
        <ele>1387</ele>
        <time>2011-06-04T08:25:36Z</time>
      </trkpt>
      <trkpt lat="45.94731" lon="6.46269">
        <ele>1388</ele>
        <time>2011-06-04T08:25:38Z</time>
      </trkpt>
      <trkpt lat="45.94732" lon="6.46273">
        <ele>1389</ele>
        <time>2011-06-04T08:25:40Z</time>
      </trkpt>
      <trkpt lat="45.94733" lon="6.46276">
        <ele>1390</ele>
        <time>2011-06-04T08:25:42Z</time>
      </trkpt>
      <trkpt lat="45.94734" lon="6.4628">
        <ele>1391</ele>
        <time>2011-06-04T08:25:44Z</time>
      </trkpt>
      <trkpt lat="45.94736" lon="6.46283">
        <ele>1392</ele>
        <time>2011-06-04T08:25:46Z</time>
      </trkpt>
      <trkpt lat="45.94737" lon="6.46287">
        <ele>1392</ele>
        <time>2011-06-04T08:25:48Z</time>
      </trkpt>
      <trkpt lat="45.94738" lon="6.4629">
        <ele>1393</ele>
        <time>2011-06-04T08:25:50Z</time>
      </trkpt>
      <trkpt lat="45.9474" lon="6.46294">
        <ele>1393</ele>
        <time>2011-06-04T08:25:52Z</time>
      </trkpt>
      <trkpt lat="45.94741" lon="6.46298">
        <ele>1393</ele>
        <time>2011-06-04T08:25:54Z</time>
      </trkpt>
      <trkpt lat="45.94742" lon="6.46301">
        <ele>1394</ele>
        <time>2011-06-04T08:25:56Z</time>
      </trkpt>
      <trkpt lat="45.94743" lon="6.46305">
        <ele>1394</ele>
        <time>2011-06-04T08:25:58Z</time>
      </trkpt>
      <trkpt lat="45.94745" lon="6.46308">
        <ele>1394</ele>
        <time>2011-06-04T08:26:00Z</time>
      </trkpt>
      <trkpt lat="45.94746" lon="6.46312">
        <ele>1395</ele>
        <time>2011-06-04T08:26:02Z</time>
      </trkpt>
      <trkpt lat="45.94747" lon="6.46315">
        <ele>1395</ele>
        <time>2011-06-04T08:26:04Z</time>
      </trkpt>
      <trkpt lat="45.94749" lon="6.46318">
        <ele>1396</ele>
        <time>2011-06-04T08:26:06Z</time>
      </trkpt>
      <trkpt lat="45.94751" lon="6.46321">
        <ele>1397</ele>
        <time>2011-06-04T08:26:08Z</time>
      </trkpt>
      <trkpt lat="45.94753" lon="6.46324">
        <ele>1399</ele>
        <time>2011-06-04T08:26:10Z</time>
      </trkpt>
      <trkpt lat="45.94755" lon="6.46326">
        <ele>1400</ele>
        <time>2011-06-04T08:26:12Z</time>
      </trkpt>
      <trkpt lat="45.94757" lon="6.46329">
        <ele>1401</ele>
        <time>2011-06-04T08:26:14Z</time>
      </trkpt>
      <trkpt lat="45.94758" lon="6.46332">
        <ele>1402</ele>
        <time>2011-06-04T08:26:16Z</time>
      </trkpt>
      <trkpt lat="45.9476" lon="6.46335">
        <ele>1403</ele>
        <time>2011-06-04T08:26:18Z</time>
      </trkpt>
      <trkpt lat="45.94762" lon="6.46338">
        <ele>1403</ele>
        <time>2011-06-04T08:26:20Z</time>
      </trkpt>
      <trkpt lat="45.94763" lon="6.46342">
        <ele>1404</ele>
        <time>2011-06-04T08:26:22Z</time>
      </trkpt>
      <trkpt lat="45.94764" lon="6.46346">
        <ele>1404</ele>
        <time>2011-06-04T08:26:24Z</time>
      </trkpt>
      <trkpt lat="45.94766" lon="6.4635">
        <ele>1404</ele>
        <time>2011-06-04T08:26:26Z</time>
      </trkpt>
      <trkpt lat="45.94767" lon="6.46356">
        <ele>1404</ele>
        <time>2011-06-04T08:26:28Z</time>
      </trkpt>
      <trkpt lat="45.94768" lon="6.46361">
        <ele>1404</ele>
        <time>2011-06-04T08:26:30Z</time>
      </trkpt>
      <trkpt lat="45.94769" lon="6.46368">
        <ele>1404</ele>
        <time>2011-06-04T08:26:32Z</time>
      </trkpt>
      <trkpt lat="45.9477" lon="6.46374">
        <ele>1404</ele>
        <time>2011-06-04T08:26:34Z</time>
      </trkpt>
      <trkpt lat="45.94771" lon="6.46378">
        <ele>1404</ele>
        <time>2011-06-04T08:26:36Z</time>
      </trkpt>
      <trkpt lat="45.94772" lon="6.46382">
        <ele>1404</ele>
        <time>2011-06-04T08:26:38Z</time>
      </trkpt>
      <trkpt lat="45.94773" lon="6.46389">
        <ele>1404</ele>
        <time>2011-06-04T08:26:40Z</time>
      </trkpt>
      <trkpt lat="45.94773" lon="6.46395">
        <ele>1404</ele>
        <time>2011-06-04T08:26:42Z</time>
      </trkpt>
      <trkpt lat="45.94774" lon="6.46401">
        <ele>1404</ele>
        <time>2011-06-04T08:26:44Z</time>
      </trkpt>
      <trkpt lat="45.94775" lon="6.46407">
        <ele>1404</ele>
        <time>2011-06-04T08:26:46Z</time>
      </trkpt>
      <trkpt lat="45.94777" lon="6.46413">
        <ele>1403</ele>
        <time>2011-06-04T08:26:48Z</time>
      </trkpt>
      <trkpt lat="45.94778" lon="6.46419">
        <ele>1401</ele>
        <time>2011-06-04T08:26:50Z</time>
      </trkpt>
      <trkpt lat="45.9478" lon="6.46424">
        <ele>1399</ele>
        <time>2011-06-04T08:26:52Z</time>
      </trkpt>
      <trkpt lat="45.94781" lon="6.46427">
        <ele>1398</ele>
        <time>2011-06-04T08:26:54Z</time>
      </trkpt>
      <trkpt lat="45.94783" lon="6.46431">
        <ele>1398</ele>
        <time>2011-06-04T08:26:56Z</time>
      </trkpt>
      <trkpt lat="45.94784" lon="6.46436">
        <ele>1398</ele>
        <time>2011-06-04T08:26:58Z</time>
      </trkpt>
      <trkpt lat="45.94785" lon="6.46439">
        <ele>1398</ele>
        <time>2011-06-04T08:27:00Z</time>
      </trkpt>
      <trkpt lat="45.94786" lon="6.46442">
        <ele>1398</ele>
        <time>2011-06-04T08:27:02Z</time>
      </trkpt>
      <trkpt lat="45.94788" lon="6.46446">
        <ele>1398</ele>
        <time>2011-06-04T08:27:04Z</time>
      </trkpt>
      <trkpt lat="45.94788" lon="6.46449">
        <ele>1398</ele>
        <time>2011-06-04T08:27:06Z</time>
      </trkpt>
      <trkpt lat="45.94789" lon="6.46455">
        <ele>1398</ele>
        <time>2011-06-04T08:27:08Z</time>
      </trkpt>
      <trkpt lat="45.94789" lon="6.46461">
        <ele>1398</ele>
        <time>2011-06-04T08:27:10Z</time>
      </trkpt>
      <trkpt lat="45.94789" lon="6.46466">
        <ele>1398</ele>
        <time>2011-06-04T08:27:12Z</time>
      </trkpt>
      <trkpt lat="45.9479" lon="6.4647">
        <ele>1398</ele>
        <time>2011-06-04T08:27:14Z</time>
      </trkpt>
      <trkpt lat="45.94791" lon="6.46474">
        <ele>1398</ele>
        <time>2011-06-04T08:27:16Z</time>
      </trkpt>
      <trkpt lat="45.94792" lon="6.46477">
        <ele>1399</ele>
        <time>2011-06-04T08:27:18Z</time>
      </trkpt>
      <trkpt lat="45.94793" lon="6.46481">
        <ele>1400</ele>
        <time>2011-06-04T08:27:20Z</time>
      </trkpt>
      <trkpt lat="45.94795" lon="6.46486">
        <ele>1402</ele>
        <time>2011-06-04T08:27:22Z</time>
      </trkpt>
      <trkpt lat="45.94796" lon="6.4649">
        <ele>1403</ele>
        <time>2011-06-04T08:27:24Z</time>
      </trkpt>
      <trkpt lat="45.94797" lon="6.46494">
        <ele>1404</ele>
        <time>2011-06-04T08:27:26Z</time>
      </trkpt>
      <trkpt lat="45.94798" lon="6.46499">
        <ele>1405</ele>
        <time>2011-06-04T08:27:28Z</time>
      </trkpt>
      <trkpt lat="45.94799" lon="6.46507">
        <ele>1405</ele>
        <time>2011-06-04T08:27:30Z</time>
      </trkpt>
      <trkpt lat="45.94799" lon="6.46512">
        <ele>1405</ele>
        <time>2011-06-04T08:27:32Z</time>
      </trkpt>
      <trkpt lat="45.94799" lon="6.46519">
        <ele>1405</ele>
        <time>2011-06-04T08:27:34Z</time>
      </trkpt>
      <trkpt lat="45.94799" lon="6.46525">
        <ele>1405</ele>
        <time>2011-06-04T08:27:36Z</time>
      </trkpt>
      <trkpt lat="45.94799" lon="6.46531">
        <ele>1405</ele>
        <time>2011-06-04T08:27:38Z</time>
      </trkpt>
      <trkpt lat="45.94798" lon="6.46536">
        <ele>1405</ele>
        <time>2011-06-04T08:27:40Z</time>
      </trkpt>
      <trkpt lat="45.94797" lon="6.46541">
        <ele>1405</ele>
        <time>2011-06-04T08:27:42Z</time>
      </trkpt>
      <trkpt lat="45.94795" lon="6.46545">
        <ele>1405</ele>
        <time>2011-06-04T08:27:44Z</time>
      </trkpt>
      <trkpt lat="45.94794" lon="6.46549">
        <ele>1405</ele>
        <time>2011-06-04T08:27:46Z</time>
      </trkpt>
      <trkpt lat="45.94792" lon="6.46553">
        <ele>1405</ele>
        <time>2011-06-04T08:27:48Z</time>
      </trkpt>
      <trkpt lat="45.9479" lon="6.46557">
        <ele>1405</ele>
        <time>2011-06-04T08:27:50Z</time>
      </trkpt>
      <trkpt lat="45.94788" lon="6.46561">
        <ele>1405</ele>
        <time>2011-06-04T08:27:52Z</time>
      </trkpt>
      <trkpt lat="45.94785" lon="6.46565">
        <ele>1405</ele>
        <time>2011-06-04T08:27:54Z</time>
      </trkpt>
      <trkpt lat="45.94783" lon="6.46568">
        <ele>1406</ele>
        <time>2011-06-04T08:27:56Z</time>
      </trkpt>
      <trkpt lat="45.94781" lon="6.46571">
        <ele>1408</ele>
        <time>2011-06-04T08:27:58Z</time>
      </trkpt>
      <trkpt lat="45.94779" lon="6.46575">
        <ele>1410</ele>
        <time>2011-06-04T08:28:00Z</time>
      </trkpt>
      <trkpt lat="45.94778" lon="6.46578">
        <ele>1412</ele>
        <time>2011-06-04T08:28:02Z</time>
      </trkpt>
      <trkpt lat="45.94777" lon="6.46582">
        <ele>1414</ele>
        <time>2011-06-04T08:28:04Z</time>
      </trkpt>
      <trkpt lat="45.94776" lon="6.46586">
        <ele>1415</ele>
        <time>2011-06-04T08:28:06Z</time>
      </trkpt>
      <trkpt lat="45.94775" lon="6.4659">
        <ele>1415</ele>
        <time>2011-06-04T08:28:08Z</time>
      </trkpt>
      <trkpt lat="45.94773" lon="6.46593">
        <ele>1415</ele>
        <time>2011-06-04T08:28:10Z</time>
      </trkpt>
      <trkpt lat="45.94772" lon="6.46597">
        <ele>1415</ele>
        <time>2011-06-04T08:28:12Z</time>
      </trkpt>
      <trkpt lat="45.94771" lon="6.46601">
        <ele>1415</ele>
        <time>2011-06-04T08:28:14Z</time>
      </trkpt>
      <trkpt lat="45.9477" lon="6.46605">
        <ele>1416</ele>
        <time>2011-06-04T08:28:16Z</time>
      </trkpt>
      <trkpt lat="45.94768" lon="6.46609">
        <ele>1416</ele>
        <time>2011-06-04T08:28:18Z</time>
      </trkpt>
      <trkpt lat="45.94766" lon="6.46613">
        <ele>1416</ele>
        <time>2011-06-04T08:28:20Z</time>
      </trkpt>
      <trkpt lat="45.94765" lon="6.46617">
        <ele>1417</ele>
        <time>2011-06-04T08:28:22Z</time>
      </trkpt>
      <trkpt lat="45.94764" lon="6.46621">
        <ele>1418</ele>
        <time>2011-06-04T08:28:24Z</time>
      </trkpt>
      <trkpt lat="45.94762" lon="6.46625">
        <ele>1418</ele>
        <time>2011-06-04T08:28:26Z</time>
      </trkpt>
      <trkpt lat="45.94761" lon="6.46629">
        <ele>1419</ele>
        <time>2011-06-04T08:28:28Z</time>
      </trkpt>
      <trkpt lat="45.9476" lon="6.46634">
        <ele>1419</ele>
        <time>2011-06-04T08:28:30Z</time>
      </trkpt>
      <trkpt lat="45.94759" lon="6.46638">
        <ele>1419</ele>
        <time>2011-06-04T08:28:32Z</time>
      </trkpt>
      <trkpt lat="45.94759" lon="6.46642">
        <ele>1420</ele>
        <time>2011-06-04T08:28:34Z</time>
      </trkpt>
      <trkpt lat="45.94758" lon="6.46647">
        <ele>1420</ele>
        <time>2011-06-04T08:28:36Z</time>
      </trkpt>
      <trkpt lat="45.94758" lon="6.46651">
        <ele>1421</ele>
        <time>2011-06-04T08:28:38Z</time>
      </trkpt>
      <trkpt lat="45.94758" lon="6.46656">
        <ele>1421</ele>
        <time>2011-06-04T08:28:40Z</time>
      </trkpt>
      <trkpt lat="45.94758" lon="6.4666">
        <ele>1421</ele>
        <time>2011-06-04T08:28:42Z</time>
      </trkpt>
      <trkpt lat="45.94759" lon="6.46665">
        <ele>1421</ele>
        <time>2011-06-04T08:28:44Z</time>
      </trkpt>
      <trkpt lat="45.94759" lon="6.4667">
        <ele>1421</ele>
        <time>2011-06-04T08:28:46Z</time>
      </trkpt>
      <trkpt lat="45.94759" lon="6.46674">
        <ele>1421</ele>
        <time>2011-06-04T08:28:48Z</time>
      </trkpt>
      <trkpt lat="45.9476" lon="6.46679">
        <ele>1421</ele>
        <time>2011-06-04T08:28:50Z</time>
      </trkpt>
      <trkpt lat="45.9476" lon="6.46684">
        <ele>1421</ele>
        <time>2011-06-04T08:28:52Z</time>
      </trkpt>
      <trkpt lat="45.9476" lon="6.46688">
        <ele>1421</ele>
        <time>2011-06-04T08:28:54Z</time>
      </trkpt>
      <trkpt lat="45.9476" lon="6.46693">
        <ele>1421</ele>
        <time>2011-06-04T08:28:56Z</time>
      </trkpt>
      <trkpt lat="45.9476" lon="6.46697">
        <ele>1421</ele>
        <time>2011-06-04T08:28:58Z</time>
      </trkpt>
      <trkpt lat="45.9476" lon="6.46701">
        <ele>1421</ele>
        <time>2011-06-04T08:29:00Z</time>
      </trkpt>
      <trkpt lat="45.94761" lon="6.46706">
        <ele>1421</ele>
        <time>2011-06-04T08:29:02Z</time>
      </trkpt>
      <trkpt lat="45.94761" lon="6.46711">
        <ele>1421</ele>
        <time>2011-06-04T08:29:04Z</time>
      </trkpt>
      <trkpt lat="45.94761" lon="6.46716">
        <ele>1421</ele>
        <time>2011-06-04T08:29:06Z</time>
      </trkpt>
      <trkpt lat="45.94761" lon="6.46721">
        <ele>1421</ele>
        <time>2011-06-04T08:29:08Z</time>
      </trkpt>
      <trkpt lat="45.94762" lon="6.46725">
        <ele>1421</ele>
        <time>2011-06-04T08:29:10Z</time>
      </trkpt>
      <trkpt lat="45.94762" lon="6.46731">
        <ele>1421</ele>
        <time>2011-06-04T08:29:12Z</time>
      </trkpt>
      <trkpt lat="45.94762" lon="6.46736">
        <ele>1421</ele>
        <time>2011-06-04T08:29:14Z</time>
      </trkpt>
      <trkpt lat="45.94762" lon="6.46741">
        <ele>1421</ele>
        <time>2011-06-04T08:29:16Z</time>
      </trkpt>
      <trkpt lat="45.94763" lon="6.46745">
        <ele>1421</ele>
        <time>2011-06-04T08:29:18Z</time>
      </trkpt>
      <trkpt lat="45.94763" lon="6.4675">
        <ele>1421</ele>
        <time>2011-06-04T08:29:20Z</time>
      </trkpt>
      <trkpt lat="45.94763" lon="6.46755">
        <ele>1421</ele>
        <time>2011-06-04T08:29:22Z</time>
      </trkpt>
      <trkpt lat="45.94764" lon="6.46759">
        <ele>1421</ele>
        <time>2011-06-04T08:29:24Z</time>
      </trkpt>
      <trkpt lat="45.94764" lon="6.46764">
        <ele>1422</ele>
        <time>2011-06-04T08:29:26Z</time>
      </trkpt>
      <trkpt lat="45.94764" lon="6.46769">
        <ele>1422</ele>
        <time>2011-06-04T08:29:28Z</time>
      </trkpt>
      <trkpt lat="45.94764" lon="6.46774">
        <ele>1423</ele>
        <time>2011-06-04T08:29:30Z</time>
      </trkpt>
      <trkpt lat="45.94764" lon="6.46778">
        <ele>1423</ele>
        <time>2011-06-04T08:29:32Z</time>
      </trkpt>
      <trkpt lat="45.94764" lon="6.46783">
        <ele>1424</ele>
        <time>2011-06-04T08:29:34Z</time>
      </trkpt>
      <trkpt lat="45.94764" lon="6.46787">
        <ele>1424</ele>
        <time>2011-06-04T08:29:36Z</time>
      </trkpt>
      <trkpt lat="45.94765" lon="6.46792">
        <ele>1425</ele>
        <time>2011-06-04T08:29:38Z</time>
      </trkpt>
      <trkpt lat="45.94765" lon="6.46797">
        <ele>1425</ele>
        <time>2011-06-04T08:29:40Z</time>
      </trkpt>
      <trkpt lat="45.94766" lon="6.46802">
        <ele>1425</ele>
        <time>2011-06-04T08:29:42Z</time>
      </trkpt>
      <trkpt lat="45.94767" lon="6.46807">
        <ele>1426</ele>
        <time>2011-06-04T08:29:44Z</time>
      </trkpt>
      <trkpt lat="45.94767" lon="6.46812">
        <ele>1426</ele>
        <time>2011-06-04T08:29:46Z</time>
      </trkpt>
      <trkpt lat="45.94767" lon="6.46818">
        <ele>1426</ele>
        <time>2011-06-04T08:29:48Z</time>
      </trkpt>
      <trkpt lat="45.94767" lon="6.46823">
        <ele>1426</ele>
        <time>2011-06-04T08:29:50Z</time>
      </trkpt>
      <trkpt lat="45.94766" lon="6.46828">
        <ele>1426</ele>
        <time>2011-06-04T08:29:52Z</time>
      </trkpt>
      <trkpt lat="45.94766" lon="6.46833">
        <ele>1426</ele>
        <time>2011-06-04T08:29:54Z</time>
      </trkpt>
      <trkpt lat="45.94766" lon="6.46838">
        <ele>1426</ele>
        <time>2011-06-04T08:29:56Z</time>
      </trkpt>
      <trkpt lat="45.94766" lon="6.46843">
        <ele>1426</ele>
        <time>2011-06-04T08:29:58Z</time>
      </trkpt>
      <trkpt lat="45.94766" lon="6.46847">
        <ele>1426</ele>
        <time>2011-06-04T08:30:00Z</time>
      </trkpt>
      <trkpt lat="45.94766" lon="6.46851">
        <ele>1426</ele>
        <time>2011-06-04T08:30:02Z</time>
      </trkpt>
      <trkpt lat="45.94767" lon="6.46856">
        <ele>1426</ele>
        <time>2011-06-04T08:30:04Z</time>
      </trkpt>
      <trkpt lat="45.94767" lon="6.4686">
        <ele>1426</ele>
        <time>2011-06-04T08:30:06Z</time>
      </trkpt>
      <trkpt lat="45.94767" lon="6.46865">
        <ele>1426</ele>
        <time>2011-06-04T08:30:08Z</time>
      </trkpt>
      <trkpt lat="45.94767" lon="6.4687">
        <ele>1426</ele>
        <time>2011-06-04T08:30:10Z</time>
      </trkpt>
      <trkpt lat="45.94765" lon="6.46875">
        <ele>1428</ele>
        <time>2011-06-04T08:30:13Z</time>
      </trkpt>
      <trkpt lat="45.94764" lon="6.46879">
        <ele>1428</ele>
        <time>2011-06-04T08:30:15Z</time>
      </trkpt>
      <trkpt lat="45.94763" lon="6.46884">
        <ele>1429</ele>
        <time>2011-06-04T08:30:17Z</time>
      </trkpt>
      <trkpt lat="45.94761" lon="6.46888">
        <ele>1430</ele>
        <time>2011-06-04T08:30:19Z</time>
      </trkpt>
      <trkpt lat="45.9476" lon="6.46891">
        <ele>1431</ele>
        <time>2011-06-04T08:30:21Z</time>
      </trkpt>
      <trkpt lat="45.94759" lon="6.46895">
        <ele>1432</ele>
        <time>2011-06-04T08:30:23Z</time>
      </trkpt>
      <trkpt lat="45.94757" lon="6.46898">
        <ele>1434</ele>
        <time>2011-06-04T08:30:25Z</time>
      </trkpt>
      <trkpt lat="45.94753" lon="6.46901">
        <ele>1436</ele>
        <time>2011-06-04T08:30:27Z</time>
      </trkpt>
      <trkpt lat="45.94751" lon="6.46906">
        <ele>1438</ele>
        <time>2011-06-04T08:30:29Z</time>
      </trkpt>
      <trkpt lat="45.94748" lon="6.46909">
        <ele>1440</ele>
        <time>2011-06-04T08:30:31Z</time>
      </trkpt>
      <trkpt lat="45.94745" lon="6.46913">
        <ele>1442</ele>
        <time>2011-06-04T08:30:33Z</time>
      </trkpt>
      <trkpt lat="45.94742" lon="6.46919">
        <ele>1444</ele>
        <time>2011-06-04T08:30:36Z</time>
      </trkpt>
      <trkpt lat="45.9474" lon="6.46923">
        <ele>1444</ele>
        <time>2011-06-04T08:30:38Z</time>
      </trkpt>
      <trkpt lat="45.94739" lon="6.46927">
        <ele>1444</ele>
        <time>2011-06-04T08:30:40Z</time>
      </trkpt>
      <trkpt lat="45.94737" lon="6.46932">
        <ele>1444</ele>
        <time>2011-06-04T08:30:42Z</time>
      </trkpt>
      <trkpt lat="45.94735" lon="6.46936">
        <ele>1444</ele>
        <time>2011-06-04T08:30:44Z</time>
      </trkpt>
      <trkpt lat="45.94735" lon="6.46942">
        <ele>1444</ele>
        <time>2011-06-04T08:30:46Z</time>
      </trkpt>
      <trkpt lat="45.94734" lon="6.46947">
        <ele>1444</ele>
        <time>2011-06-04T08:30:48Z</time>
      </trkpt>
      <trkpt lat="45.94734" lon="6.46952">
        <ele>1444</ele>
        <time>2011-06-04T08:30:50Z</time>
      </trkpt>
      <trkpt lat="45.94734" lon="6.46957">
        <ele>1444</ele>
        <time>2011-06-04T08:30:52Z</time>
      </trkpt>
      <trkpt lat="45.94734" lon="6.46961">
        <ele>1444</ele>
        <time>2011-06-04T08:30:54Z</time>
      </trkpt>
      <trkpt lat="45.94734" lon="6.4697">
        <ele>1444</ele>
        <time>2011-06-04T08:30:57Z</time>
      </trkpt>
      <trkpt lat="45.94733" lon="6.46977">
        <ele>1444</ele>
        <time>2011-06-04T08:30:59Z</time>
      </trkpt>
      <trkpt lat="45.94732" lon="6.46983">
        <ele>1444</ele>
        <time>2011-06-04T08:31:01Z</time>
      </trkpt>
      <trkpt lat="45.9473" lon="6.46989">
        <ele>1444</ele>
        <time>2011-06-04T08:31:03Z</time>
      </trkpt>
      <trkpt lat="45.94728" lon="6.46996">
        <ele>1444</ele>
        <time>2011-06-04T08:31:05Z</time>
      </trkpt>
      <trkpt lat="45.94726" lon="6.47002">
        <ele>1444</ele>
        <time>2011-06-04T08:31:07Z</time>
      </trkpt>
      <trkpt lat="45.94724" lon="6.4701">
        <ele>1444</ele>
        <time>2011-06-04T08:31:09Z</time>
      </trkpt>
      <trkpt lat="45.94721" lon="6.47017">
        <ele>1444</ele>
        <time>2011-06-04T08:31:11Z</time>
      </trkpt>
      <trkpt lat="45.94719" lon="6.47024">
        <ele>1444</ele>
        <time>2011-06-04T08:31:13Z</time>
      </trkpt>
      <trkpt lat="45.94716" lon="6.47029">
        <ele>1444</ele>
        <time>2011-06-04T08:31:15Z</time>
      </trkpt>
      <trkpt lat="45.94712" lon="6.47034">
        <ele>1444</ele>
        <time>2011-06-04T08:31:17Z</time>
      </trkpt>
      <trkpt lat="45.94708" lon="6.47039">
        <ele>1444</ele>
        <time>2011-06-04T08:31:19Z</time>
      </trkpt>
      <trkpt lat="45.94703" lon="6.47041">
        <ele>1444</ele>
        <time>2011-06-04T08:31:21Z</time>
      </trkpt>
      <trkpt lat="45.94699" lon="6.47045">
        <ele>1444</ele>
        <time>2011-06-04T08:31:23Z</time>
      </trkpt>
      <trkpt lat="45.94695" lon="6.47047">
        <ele>1444</ele>
        <time>2011-06-04T08:31:25Z</time>
      </trkpt>
      <trkpt lat="45.9469" lon="6.47052">
        <ele>1445</ele>
        <time>2011-06-04T08:31:27Z</time>
      </trkpt>
      <trkpt lat="45.94686" lon="6.47055">
        <ele>1446</ele>
        <time>2011-06-04T08:31:29Z</time>
      </trkpt>
      <trkpt lat="45.94684" lon="6.47059">
        <ele>1447</ele>
        <time>2011-06-04T08:31:31Z</time>
      </trkpt>
      <trkpt lat="45.94681" lon="6.47064">
        <ele>1447</ele>
        <time>2011-06-04T08:31:33Z</time>
      </trkpt>
      <trkpt lat="45.94679" lon="6.47069">
        <ele>1448</ele>
        <time>2011-06-04T08:31:35Z</time>
      </trkpt>
      <trkpt lat="45.94677" lon="6.47075">
        <ele>1448</ele>
        <time>2011-06-04T08:31:37Z</time>
      </trkpt>
      <trkpt lat="45.94676" lon="6.4708">
        <ele>1449</ele>
        <time>2011-06-04T08:31:39Z</time>
      </trkpt>
      <trkpt lat="45.94674" lon="6.47086">
        <ele>1449</ele>
        <time>2011-06-04T08:31:41Z</time>
      </trkpt>
      <trkpt lat="45.94672" lon="6.47091">
        <ele>1449</ele>
        <time>2011-06-04T08:31:43Z</time>
      </trkpt>
      <trkpt lat="45.94669" lon="6.47096">
        <ele>1450</ele>
        <time>2011-06-04T08:31:45Z</time>
      </trkpt>
      <trkpt lat="45.94667" lon="6.471">
        <ele>1452</ele>
        <time>2011-06-04T08:31:47Z</time>
      </trkpt>
      <trkpt lat="45.94665" lon="6.47104">
        <ele>1453</ele>
        <time>2011-06-04T08:31:49Z</time>
      </trkpt>
      <trkpt lat="45.94664" lon="6.4711">
        <ele>1455</ele>
        <time>2011-06-04T08:31:51Z</time>
      </trkpt>
      <trkpt lat="45.94663" lon="6.47116">
        <ele>1456</ele>
        <time>2011-06-04T08:31:53Z</time>
      </trkpt>
      <trkpt lat="45.9466" lon="6.47121">
        <ele>1457</ele>
        <time>2011-06-04T08:31:55Z</time>
      </trkpt>
      <trkpt lat="45.94658" lon="6.47126">
        <ele>1459</ele>
        <time>2011-06-04T08:31:57Z</time>
      </trkpt>
      <trkpt lat="45.94657" lon="6.47132">
        <ele>1460</ele>
        <time>2011-06-04T08:31:59Z</time>
      </trkpt>
      <trkpt lat="45.94655" lon="6.47135">
        <ele>1460</ele>
        <time>2011-06-04T08:32:01Z</time>
      </trkpt>
      <trkpt lat="45.94654" lon="6.47139">
        <ele>1460</ele>
        <time>2011-06-04T08:32:03Z</time>
      </trkpt>
      <trkpt lat="45.94652" lon="6.47143">
        <ele>1460</ele>
        <time>2011-06-04T08:32:05Z</time>
      </trkpt>
      <trkpt lat="45.94651" lon="6.47147">
        <ele>1460</ele>
        <time>2011-06-04T08:32:07Z</time>
      </trkpt>
      <trkpt lat="45.9465" lon="6.47152">
        <ele>1460</ele>
        <time>2011-06-04T08:32:09Z</time>
      </trkpt>
      <trkpt lat="45.94649" lon="6.47156">
        <ele>1460</ele>
        <time>2011-06-04T08:32:11Z</time>
      </trkpt>
      <trkpt lat="45.94648" lon="6.47161">
        <ele>1460</ele>
        <time>2011-06-04T08:32:13Z</time>
      </trkpt>
      <trkpt lat="45.94647" lon="6.47165">
        <ele>1460</ele>
        <time>2011-06-04T08:32:15Z</time>
      </trkpt>
      <trkpt lat="45.94645" lon="6.47169">
        <ele>1461</ele>
        <time>2011-06-04T08:32:17Z</time>
      </trkpt>
      <trkpt lat="45.94643" lon="6.47173">
        <ele>1462</ele>
        <time>2011-06-04T08:32:19Z</time>
      </trkpt>
      <trkpt lat="45.94641" lon="6.47178">
        <ele>1462</ele>
        <time>2011-06-04T08:32:21Z</time>
      </trkpt>
      <trkpt lat="45.94639" lon="6.47181">
        <ele>1463</ele>
        <time>2011-06-04T08:32:23Z</time>
      </trkpt>
      <trkpt lat="45.94638" lon="6.47185">
        <ele>1463</ele>
        <time>2011-06-04T08:32:25Z</time>
      </trkpt>
      <trkpt lat="45.94635" lon="6.4719">
        <ele>1464</ele>
        <time>2011-06-04T08:32:27Z</time>
      </trkpt>
      <trkpt lat="45.94633" lon="6.47194">
        <ele>1466</ele>
        <time>2011-06-04T08:32:29Z</time>
      </trkpt>
      <trkpt lat="45.94632" lon="6.47198">
        <ele>1468</ele>
        <time>2011-06-04T08:32:31Z</time>
      </trkpt>
      <trkpt lat="45.94629" lon="6.47201">
        <ele>1470</ele>
        <time>2011-06-04T08:32:33Z</time>
      </trkpt>
      <trkpt lat="45.94628" lon="6.47205">
        <ele>1472</ele>
        <time>2011-06-04T08:32:35Z</time>
      </trkpt>
      <trkpt lat="45.94627" lon="6.47208">
        <ele>1474</ele>
        <time>2011-06-04T08:32:37Z</time>
      </trkpt>
      <trkpt lat="45.94627" lon="6.47214">
        <ele>1476</ele>
        <time>2011-06-04T08:32:39Z</time>
      </trkpt>
      <trkpt lat="45.94626" lon="6.4722">
        <ele>1476</ele>
        <time>2011-06-04T08:32:41Z</time>
      </trkpt>
      <trkpt lat="45.94626" lon="6.47225">
        <ele>1476</ele>
        <time>2011-06-04T08:32:43Z</time>
      </trkpt>
      <trkpt lat="45.94626" lon="6.4723">
        <ele>1476</ele>
        <time>2011-06-04T08:32:45Z</time>
      </trkpt>
      <trkpt lat="45.94626" lon="6.47233">
        <ele>1476</ele>
        <time>2011-06-04T08:32:47Z</time>
      </trkpt>
      <trkpt lat="45.94626" lon="6.47236">
        <ele>1476</ele>
        <time>2011-06-04T08:32:49Z</time>
      </trkpt>
      <trkpt lat="45.94627" lon="6.47241">
        <ele>1476</ele>
        <time>2011-06-04T08:32:51Z</time>
      </trkpt>
      <trkpt lat="45.94627" lon="6.47245">
        <ele>1476</ele>
        <time>2011-06-04T08:32:53Z</time>
      </trkpt>
      <trkpt lat="45.94628" lon="6.47249">
        <ele>1476</ele>
        <time>2011-06-04T08:32:55Z</time>
      </trkpt>
      <trkpt lat="45.94627" lon="6.47254">
        <ele>1476</ele>
        <time>2011-06-04T08:32:57Z</time>
      </trkpt>
      <trkpt lat="45.94626" lon="6.47257">
        <ele>1476</ele>
        <time>2011-06-04T08:32:59Z</time>
      </trkpt>
      <trkpt lat="45.94626" lon="6.47262">
        <ele>1476</ele>
        <time>2011-06-04T08:33:01Z</time>
      </trkpt>
      <trkpt lat="45.94625" lon="6.47265">
        <ele>1476</ele>
        <time>2011-06-04T08:33:03Z</time>
      </trkpt>
      <trkpt lat="45.94625" lon="6.47269">
        <ele>1478</ele>
        <time>2011-06-04T08:33:05Z</time>
      </trkpt>
      <trkpt lat="45.94626" lon="6.47275">
        <ele>1479</ele>
        <time>2011-06-04T08:33:07Z</time>
      </trkpt>
      <trkpt lat="45.94628" lon="6.47285">
        <ele>1479</ele>
        <time>2011-06-04T08:33:09Z</time>
      </trkpt>
      <trkpt lat="45.94629" lon="6.47291">
        <ele>1479</ele>
        <time>2011-06-04T08:33:11Z</time>
      </trkpt>
      <trkpt lat="45.9463" lon="6.47294">
        <ele>1478</ele>
        <time>2011-06-04T08:33:13Z</time>
      </trkpt>
      <trkpt lat="45.94631" lon="6.47298">
        <ele>1478</ele>
        <time>2011-06-04T08:33:15Z</time>
      </trkpt>
      <trkpt lat="45.94634" lon="6.47302">
        <ele>1478</ele>
        <time>2011-06-04T08:33:17Z</time>
      </trkpt>
      <trkpt lat="45.94636" lon="6.47307">
        <ele>1478</ele>
        <time>2011-06-04T08:33:20Z</time>
      </trkpt>
      <trkpt lat="45.94637" lon="6.47311">
        <ele>1478</ele>
        <time>2011-06-04T08:33:22Z</time>
      </trkpt>
      <trkpt lat="45.9464" lon="6.47316">
        <ele>1478</ele>
        <time>2011-06-04T08:33:25Z</time>
      </trkpt>
      <trkpt lat="45.94641" lon="6.47318">
        <ele>1478</ele>
        <time>2011-06-04T08:33:27Z</time>
      </trkpt>
      <trkpt lat="45.94642" lon="6.47322">
        <ele>1478</ele>
        <time>2011-06-04T08:33:29Z</time>
      </trkpt>
      <trkpt lat="45.94643" lon="6.47327">
        <ele>1478</ele>
        <time>2011-06-04T08:33:31Z</time>
      </trkpt>
      <trkpt lat="45.94644" lon="6.47331">
        <ele>1478</ele>
        <time>2011-06-04T08:33:33Z</time>
      </trkpt>
      <trkpt lat="45.94645" lon="6.47336">
        <ele>1478</ele>
        <time>2011-06-04T08:33:35Z</time>
      </trkpt>
      <trkpt lat="45.94647" lon="6.47343">
        <ele>1478</ele>
        <time>2011-06-04T08:33:37Z</time>
      </trkpt>
      <trkpt lat="45.94647" lon="6.47349">
        <ele>1478</ele>
        <time>2011-06-04T08:33:39Z</time>
      </trkpt>
      <trkpt lat="45.94648" lon="6.47353">
        <ele>1477</ele>
        <time>2011-06-04T08:33:41Z</time>
      </trkpt>
      <trkpt lat="45.94647" lon="6.47356">
        <ele>1477</ele>
        <time>2011-06-04T08:33:43Z</time>
      </trkpt>
      <trkpt lat="45.94645" lon="6.47362">
        <ele>1477</ele>
        <time>2011-06-04T08:33:45Z</time>
      </trkpt>
      <trkpt lat="45.94644" lon="6.47368">
        <ele>1477</ele>
        <time>2011-06-04T08:33:47Z</time>
      </trkpt>
      <trkpt lat="45.94643" lon="6.47372">
        <ele>1477</ele>
        <time>2011-06-04T08:33:49Z</time>
      </trkpt>
      <trkpt lat="45.94642" lon="6.47375">
        <ele>1477</ele>
        <time>2011-06-04T08:33:51Z</time>
      </trkpt>
      <trkpt lat="45.94641" lon="6.47382">
        <ele>1478</ele>
        <time>2011-06-04T08:33:53Z</time>
      </trkpt>
      <trkpt lat="45.9464" lon="6.47389">
        <ele>1478</ele>
        <time>2011-06-04T08:33:55Z</time>
      </trkpt>
      <trkpt lat="45.9464" lon="6.47395">
        <ele>1478</ele>
        <time>2011-06-04T08:33:57Z</time>
      </trkpt>
      <trkpt lat="45.94639" lon="6.47398">
        <ele>1478</ele>
        <time>2011-06-04T08:33:59Z</time>
      </trkpt>
      <trkpt lat="45.94637" lon="6.47404">
        <ele>1478</ele>
        <time>2011-06-04T08:34:01Z</time>
      </trkpt>
      <trkpt lat="45.94636" lon="6.47408">
        <ele>1479</ele>
        <time>2011-06-04T08:34:03Z</time>
      </trkpt>
      <trkpt lat="45.94636" lon="6.47412">
        <ele>1480</ele>
        <time>2011-06-04T08:34:05Z</time>
      </trkpt>
      <trkpt lat="45.94635" lon="6.47415">
        <ele>1480</ele>
        <time>2011-06-04T08:34:07Z</time>
      </trkpt>
      <trkpt lat="45.94636" lon="6.47418">
        <ele>1481</ele>
        <time>2011-06-04T08:34:09Z</time>
      </trkpt>
      <trkpt lat="45.94635" lon="6.47423">
        <ele>1482</ele>
        <time>2011-06-04T08:34:11Z</time>
      </trkpt>
      <trkpt lat="45.94634" lon="6.47428">
        <ele>1483</ele>
        <time>2011-06-04T08:34:13Z</time>
      </trkpt>
      <trkpt lat="45.94633" lon="6.47432">
        <ele>1484</ele>
        <time>2011-06-04T08:34:15Z</time>
      </trkpt>
      <trkpt lat="45.94633" lon="6.47437">
        <ele>1484</ele>
        <time>2011-06-04T08:34:17Z</time>
      </trkpt>
      <trkpt lat="45.94631" lon="6.47441">
        <ele>1484</ele>
        <time>2011-06-04T08:34:19Z</time>
      </trkpt>
      <trkpt lat="45.94631" lon="6.47444">
        <ele>1484</ele>
        <time>2011-06-04T08:34:21Z</time>
      </trkpt>
      <trkpt lat="45.94632" lon="6.47446">
        <ele>1485</ele>
        <time>2011-06-04T08:34:23Z</time>
      </trkpt>
      <trkpt lat="45.94633" lon="6.47449">
        <ele>1486</ele>
        <time>2011-06-04T08:34:25Z</time>
      </trkpt>
      <trkpt lat="45.94633" lon="6.47453">
        <ele>1487</ele>
        <time>2011-06-04T08:34:28Z</time>
      </trkpt>
      <trkpt lat="45.94634" lon="6.47456">
        <ele>1488</ele>
        <time>2011-06-04T08:34:30Z</time>
      </trkpt>
      <trkpt lat="45.94634" lon="6.4746">
        <ele>1490</ele>
        <time>2011-06-04T08:34:33Z</time>
      </trkpt>
      <trkpt lat="45.94634" lon="6.47463">
        <ele>1492</ele>
        <time>2011-06-04T08:34:35Z</time>
      </trkpt>
      <trkpt lat="45.94633" lon="6.47465">
        <ele>1494</ele>
        <time>2011-06-04T08:34:37Z</time>
      </trkpt>
      <trkpt lat="45.94631" lon="6.47469">
        <ele>1495</ele>
        <time>2011-06-04T08:34:39Z</time>
      </trkpt>
      <trkpt lat="45.9463" lon="6.47472">
        <ele>1497</ele>
        <time>2011-06-04T08:34:41Z</time>
      </trkpt>
      <trkpt lat="45.94631" lon="6.47481">
        <ele>1498</ele>
        <time>2011-06-04T08:34:43Z</time>
      </trkpt>
      <trkpt lat="45.94632" lon="6.47488">
        <ele>1498</ele>
        <time>2011-06-04T08:34:45Z</time>
      </trkpt>
      <trkpt lat="45.94631" lon="6.47493">
        <ele>1498</ele>
        <time>2011-06-04T08:34:47Z</time>
      </trkpt>
      <trkpt lat="45.9463" lon="6.47497">
        <ele>1496</ele>
        <time>2011-06-04T08:34:49Z</time>
      </trkpt>
      <trkpt lat="45.9463" lon="6.475">
        <ele>1494</ele>
        <time>2011-06-04T08:34:51Z</time>
      </trkpt>
      <trkpt lat="45.94629" lon="6.47504">
        <ele>1494</ele>
        <time>2011-06-04T08:34:53Z</time>
      </trkpt>
      <trkpt lat="45.94628" lon="6.47508">
        <ele>1494</ele>
        <time>2011-06-04T08:34:55Z</time>
      </trkpt>
      <trkpt lat="45.94628" lon="6.47512">
        <ele>1494</ele>
        <time>2011-06-04T08:34:57Z</time>
      </trkpt>
      <trkpt lat="45.94629" lon="6.47517">
        <ele>1494</ele>
        <time>2011-06-04T08:34:59Z</time>
      </trkpt>
      <trkpt lat="45.9463" lon="6.47521">
        <ele>1494</ele>
        <time>2011-06-04T08:35:01Z</time>
      </trkpt>
      <trkpt lat="45.94631" lon="6.47524">
        <ele>1494</ele>
        <time>2011-06-04T08:35:04Z</time>
      </trkpt>
      <trkpt lat="45.94632" lon="6.47526">
        <ele>1495</ele>
        <time>2011-06-04T08:35:06Z</time>
      </trkpt>
      <trkpt lat="45.94632" lon="6.47528">
        <ele>1497</ele>
        <time>2011-06-04T08:35:08Z</time>
      </trkpt>
      <trkpt lat="45.94634" lon="6.4753">
        <ele>1498</ele>
        <time>2011-06-04T08:35:10Z</time>
      </trkpt>
      <trkpt lat="45.94636" lon="6.47534">
        <ele>1500</ele>
        <time>2011-06-04T08:35:12Z</time>
      </trkpt>
      <trkpt lat="45.94638" lon="6.47538">
        <ele>1501</ele>
        <time>2011-06-04T08:35:14Z</time>
      </trkpt>
      <trkpt lat="45.94639" lon="6.47542">
        <ele>1501</ele>
        <time>2011-06-04T08:35:16Z</time>
      </trkpt>
      <trkpt lat="45.9464" lon="6.47546">
        <ele>1502</ele>
        <time>2011-06-04T08:35:18Z</time>
      </trkpt>
      <trkpt lat="45.94639" lon="6.47551">
        <ele>1502</ele>
        <time>2011-06-04T08:35:20Z</time>
      </trkpt>
      <trkpt lat="45.94638" lon="6.47556">
        <ele>1502</ele>
        <time>2011-06-04T08:35:22Z</time>
      </trkpt>
      <trkpt lat="45.94637" lon="6.47561">
        <ele>1502</ele>
        <time>2011-06-04T08:35:24Z</time>
      </trkpt>
      <trkpt lat="45.94636" lon="6.47566">
        <ele>1502</ele>
        <time>2011-06-04T08:35:26Z</time>
      </trkpt>
      <trkpt lat="45.94634" lon="6.47572">
        <ele>1502</ele>
        <time>2011-06-04T08:35:28Z</time>
      </trkpt>
      <trkpt lat="45.94633" lon="6.47577">
        <ele>1502</ele>
        <time>2011-06-04T08:35:30Z</time>
      </trkpt>
      <trkpt lat="45.94631" lon="6.47584">
        <ele>1502</ele>
        <time>2011-06-04T08:35:32Z</time>
      </trkpt>
      <trkpt lat="45.94631" lon="6.4759">
        <ele>1502</ele>
        <time>2011-06-04T08:35:34Z</time>
      </trkpt>
      <trkpt lat="45.9463" lon="6.47596">
        <ele>1502</ele>
        <time>2011-06-04T08:35:36Z</time>
      </trkpt>
      <trkpt lat="45.94629" lon="6.47601">
        <ele>1502</ele>
        <time>2011-06-04T08:35:38Z</time>
      </trkpt>
      <trkpt lat="45.94628" lon="6.47607">
        <ele>1502</ele>
        <time>2011-06-04T08:35:40Z</time>
      </trkpt>
      <trkpt lat="45.94627" lon="6.47615">
        <ele>1502</ele>
        <time>2011-06-04T08:35:42Z</time>
      </trkpt>
      <trkpt lat="45.94626" lon="6.47622">
        <ele>1502</ele>
        <time>2011-06-04T08:35:44Z</time>
      </trkpt>
      <trkpt lat="45.94624" lon="6.47628">
        <ele>1502</ele>
        <time>2011-06-04T08:35:46Z</time>
      </trkpt>
      <trkpt lat="45.9462" lon="6.47633">
        <ele>1502</ele>
        <time>2011-06-04T08:35:48Z</time>
      </trkpt>
      <trkpt lat="45.94617" lon="6.47636">
        <ele>1502</ele>
        <time>2011-06-04T08:35:50Z</time>
      </trkpt>
      <trkpt lat="45.94614" lon="6.4764">
        <ele>1502</ele>
        <time>2011-06-04T08:35:52Z</time>
      </trkpt>
      <trkpt lat="45.94611" lon="6.47644">
        <ele>1502</ele>
        <time>2011-06-04T08:35:54Z</time>
      </trkpt>
      <trkpt lat="45.94608" lon="6.47648">
        <ele>1502</ele>
        <time>2011-06-04T08:35:56Z</time>
      </trkpt>
      <trkpt lat="45.94607" lon="6.47652">
        <ele>1502</ele>
        <time>2011-06-04T08:35:58Z</time>
      </trkpt>
      <trkpt lat="45.94606" lon="6.47659">
        <ele>1502</ele>
        <time>2011-06-04T08:36:00Z</time>
      </trkpt>
      <trkpt lat="45.94605" lon="6.47665">
        <ele>1502</ele>
        <time>2011-06-04T08:36:02Z</time>
      </trkpt>
      <trkpt lat="45.94606" lon="6.47672">
        <ele>1502</ele>
        <time>2011-06-04T08:36:04Z</time>
      </trkpt>
      <trkpt lat="45.94608" lon="6.47678">
        <ele>1502</ele>
        <time>2011-06-04T08:36:06Z</time>
      </trkpt>
      <trkpt lat="45.94609" lon="6.47683">
        <ele>1503</ele>
        <time>2011-06-04T08:36:08Z</time>
      </trkpt>
      <trkpt lat="45.94611" lon="6.47688">
        <ele>1503</ele>
        <time>2011-06-04T08:36:10Z</time>
      </trkpt>
      <trkpt lat="45.94614" lon="6.47692">
        <ele>1504</ele>
        <time>2011-06-04T08:36:12Z</time>
      </trkpt>
      <trkpt lat="45.94617" lon="6.47696">
        <ele>1505</ele>
        <time>2011-06-04T08:36:14Z</time>
      </trkpt>
      <trkpt lat="45.9462" lon="6.47703">
        <ele>1505</ele>
        <time>2011-06-04T08:36:16Z</time>
      </trkpt>
      <trkpt lat="45.94623" lon="6.4771">
        <ele>1505</ele>
        <time>2011-06-04T08:36:18Z</time>
      </trkpt>
      <trkpt lat="45.94625" lon="6.47717">
        <ele>1506</ele>
        <time>2011-06-04T08:36:20Z</time>
      </trkpt>
      <trkpt lat="45.94627" lon="6.47724">
        <ele>1506</ele>
        <time>2011-06-04T08:36:22Z</time>
      </trkpt>
      <trkpt lat="45.94631" lon="6.47731">
        <ele>1506</ele>
        <time>2011-06-04T08:36:24Z</time>
      </trkpt>
      <trkpt lat="45.94636" lon="6.47737">
        <ele>1506</ele>
        <time>2011-06-04T08:36:26Z</time>
      </trkpt>
      <trkpt lat="45.94641" lon="6.47745">
        <ele>1506</ele>
        <time>2011-06-04T08:36:28Z</time>
      </trkpt>
      <trkpt lat="45.94645" lon="6.47753">
        <ele>1506</ele>
        <time>2011-06-04T08:36:30Z</time>
      </trkpt>
      <trkpt lat="45.94646" lon="6.47763">
        <ele>1506</ele>
        <time>2011-06-04T08:36:32Z</time>
      </trkpt>
      <trkpt lat="45.94647" lon="6.47773">
        <ele>1507</ele>
        <time>2011-06-04T08:36:34Z</time>
      </trkpt>
      <trkpt lat="45.94646" lon="6.47787">
        <ele>1507</ele>
        <time>2011-06-04T08:36:37Z</time>
      </trkpt>
      <trkpt lat="45.94646" lon="6.47797">
        <ele>1507</ele>
        <time>2011-06-04T08:36:39Z</time>
      </trkpt>
      <trkpt lat="45.94645" lon="6.47807">
        <ele>1507</ele>
        <time>2011-06-04T08:36:41Z</time>
      </trkpt>
      <trkpt lat="45.94645" lon="6.47817">
        <ele>1507</ele>
        <time>2011-06-04T08:36:43Z</time>
      </trkpt>
      <trkpt lat="45.94646" lon="6.47827">
        <ele>1507</ele>
        <time>2011-06-04T08:36:45Z</time>
      </trkpt>
      <trkpt lat="45.94649" lon="6.47838">
        <ele>1507</ele>
        <time>2011-06-04T08:36:47Z</time>
      </trkpt>
      <trkpt lat="45.94653" lon="6.47849">
        <ele>1507</ele>
        <time>2011-06-04T08:36:49Z</time>
      </trkpt>
      <trkpt lat="45.94658" lon="6.47861">
        <ele>1507</ele>
        <time>2011-06-04T08:36:51Z</time>
      </trkpt>
      <trkpt lat="45.94663" lon="6.47873">
        <ele>1508</ele>
        <time>2011-06-04T08:36:53Z</time>
      </trkpt>
      <trkpt lat="45.94666" lon="6.47886">
        <ele>1509</ele>
        <time>2011-06-04T08:36:55Z</time>
      </trkpt>
      <trkpt lat="45.94667" lon="6.47899">
        <ele>1509</ele>
        <time>2011-06-04T08:36:57Z</time>
      </trkpt>
      <trkpt lat="45.94669" lon="6.47911">
        <ele>1509</ele>
        <time>2011-06-04T08:36:59Z</time>
      </trkpt>
      <trkpt lat="45.9467" lon="6.47922">
        <ele>1509</ele>
        <time>2011-06-04T08:37:01Z</time>
      </trkpt>
      <trkpt lat="45.9467" lon="6.47931">
        <ele>1509</ele>
        <time>2011-06-04T08:37:03Z</time>
      </trkpt>
      <trkpt lat="45.9467" lon="6.4794">
        <ele>1509</ele>
        <time>2011-06-04T08:37:05Z</time>
      </trkpt>
      <trkpt lat="45.9467" lon="6.4795">
        <ele>1509</ele>
        <time>2011-06-04T08:37:07Z</time>
      </trkpt>
      <trkpt lat="45.94669" lon="6.47959">
        <ele>1509</ele>
        <time>2011-06-04T08:37:09Z</time>
      </trkpt>
      <trkpt lat="45.9467" lon="6.47968">
        <ele>1509</ele>
        <time>2011-06-04T08:37:11Z</time>
      </trkpt>
      <trkpt lat="45.94671" lon="6.47977">
        <ele>1509</ele>
        <time>2011-06-04T08:37:13Z</time>
      </trkpt>
      <trkpt lat="45.94672" lon="6.47986">
        <ele>1509</ele>
        <time>2011-06-04T08:37:15Z</time>
      </trkpt>
      <trkpt lat="45.94674" lon="6.47994">
        <ele>1509</ele>
        <time>2011-06-04T08:37:17Z</time>
      </trkpt>
      <trkpt lat="45.94677" lon="6.48003">
        <ele>1509</ele>
        <time>2011-06-04T08:37:19Z</time>
      </trkpt>
      <trkpt lat="45.94681" lon="6.48011">
        <ele>1509</ele>
        <time>2011-06-04T08:37:21Z</time>
      </trkpt>
      <trkpt lat="45.94685" lon="6.48017">
        <ele>1509</ele>
        <time>2011-06-04T08:37:23Z</time>
      </trkpt>
      <trkpt lat="45.9469" lon="6.48023">
        <ele>1509</ele>
        <time>2011-06-04T08:37:25Z</time>
      </trkpt>
      <trkpt lat="45.94694" lon="6.48029">
        <ele>1509</ele>
        <time>2011-06-04T08:37:27Z</time>
      </trkpt>
      <trkpt lat="45.94699" lon="6.48035">
        <ele>1510</ele>
        <time>2011-06-04T08:37:29Z</time>
      </trkpt>
      <trkpt lat="45.94704" lon="6.48042">
        <ele>1510</ele>
        <time>2011-06-04T08:37:31Z</time>
      </trkpt>
      <trkpt lat="45.9471" lon="6.4805">
        <ele>1511</ele>
        <time>2011-06-04T08:37:33Z</time>
      </trkpt>
      <trkpt lat="45.94715" lon="6.48059">
        <ele>1511</ele>
        <time>2011-06-04T08:37:35Z</time>
      </trkpt>
      <trkpt lat="45.94719" lon="6.48069">
        <ele>1511</ele>
        <time>2011-06-04T08:37:37Z</time>
      </trkpt>
      <trkpt lat="45.94725" lon="6.48085">
        <ele>1511</ele>
        <time>2011-06-04T08:37:40Z</time>
      </trkpt>
      <trkpt lat="45.94731" lon="6.48095">
        <ele>1511</ele>
        <time>2011-06-04T08:37:42Z</time>
      </trkpt>
      <trkpt lat="45.94735" lon="6.48106">
        <ele>1511</ele>
        <time>2011-06-04T08:37:44Z</time>
      </trkpt>
      <trkpt lat="45.94738" lon="6.48117">
        <ele>1511</ele>
        <time>2011-06-04T08:37:46Z</time>
      </trkpt>
      <trkpt lat="45.94739" lon="6.48129">
        <ele>1511</ele>
        <time>2011-06-04T08:37:48Z</time>
      </trkpt>
      <trkpt lat="45.94739" lon="6.48138">
        <ele>1511</ele>
        <time>2011-06-04T08:37:50Z</time>
      </trkpt>
      <trkpt lat="45.94738" lon="6.48147">
        <ele>1511</ele>
        <time>2011-06-04T08:37:52Z</time>
      </trkpt>
      <trkpt lat="45.94737" lon="6.48154">
        <ele>1511</ele>
        <time>2011-06-04T08:37:54Z</time>
      </trkpt>
      <trkpt lat="45.94737" lon="6.48163">
        <ele>1511</ele>
        <time>2011-06-04T08:37:56Z</time>
      </trkpt>
      <trkpt lat="45.94736" lon="6.48171">
        <ele>1511</ele>
        <time>2011-06-04T08:37:58Z</time>
      </trkpt>
      <trkpt lat="45.94736" lon="6.48181">
        <ele>1511</ele>
        <time>2011-06-04T08:38:01Z</time>
      </trkpt>
      <trkpt lat="45.94736" lon="6.48189">
        <ele>1511</ele>
        <time>2011-06-04T08:38:03Z</time>
      </trkpt>
      <trkpt lat="45.94737" lon="6.48195">
        <ele>1511</ele>
        <time>2011-06-04T08:38:05Z</time>
      </trkpt>
      <trkpt lat="45.94737" lon="6.482">
        <ele>1511</ele>
        <time>2011-06-04T08:38:07Z</time>
      </trkpt>
      <trkpt lat="45.94738" lon="6.48208">
        <ele>1511</ele>
        <time>2011-06-04T08:38:09Z</time>
      </trkpt>
      <trkpt lat="45.94739" lon="6.48218">
        <ele>1511</ele>
        <time>2011-06-04T08:38:12Z</time>
      </trkpt>
      <trkpt lat="45.9474" lon="6.48225">
        <ele>1511</ele>
        <time>2011-06-04T08:38:14Z</time>
      </trkpt>
      <trkpt lat="45.94741" lon="6.48231">
        <ele>1511</ele>
        <time>2011-06-04T08:38:16Z</time>
      </trkpt>
      <trkpt lat="45.94742" lon="6.48235">
        <ele>1511</ele>
        <time>2011-06-04T08:38:18Z</time>
      </trkpt>
      <trkpt lat="45.94743" lon="6.4824">
        <ele>1511</ele>
        <time>2011-06-04T08:38:20Z</time>
      </trkpt>
      <trkpt lat="45.94744" lon="6.48243">
        <ele>1511</ele>
        <time>2011-06-04T08:38:22Z</time>
      </trkpt>
      <trkpt lat="45.94746" lon="6.48247">
        <ele>1511</ele>
        <time>2011-06-04T08:38:24Z</time>
      </trkpt>
      <trkpt lat="45.94748" lon="6.48251">
        <ele>1512</ele>
        <time>2011-06-04T08:38:26Z</time>
      </trkpt>
      <trkpt lat="45.9475" lon="6.48255">
        <ele>1513</ele>
        <time>2011-06-04T08:38:28Z</time>
      </trkpt>
      <trkpt lat="45.94752" lon="6.48256">
        <ele>1514</ele>
        <time>2011-06-04T08:38:30Z</time>
      </trkpt>
      <trkpt lat="45.94754" lon="6.48258">
        <ele>1516</ele>
        <time>2011-06-04T08:38:32Z</time>
      </trkpt>
      <trkpt lat="45.94757" lon="6.4826">
        <ele>1517</ele>
        <time>2011-06-04T08:38:34Z</time>
      </trkpt>
      <trkpt lat="45.9476" lon="6.48262">
        <ele>1518</ele>
        <time>2011-06-04T08:38:36Z</time>
      </trkpt>
      <trkpt lat="45.94762" lon="6.48264">
        <ele>1519</ele>
        <time>2011-06-04T08:38:38Z</time>
      </trkpt>
      <trkpt lat="45.94765" lon="6.48267">
        <ele>1519</ele>
        <time>2011-06-04T08:38:40Z</time>
      </trkpt>
      <trkpt lat="45.94768" lon="6.4827">
        <ele>1519</ele>
        <time>2011-06-04T08:38:42Z</time>
      </trkpt>
      <trkpt lat="45.9477" lon="6.48273">
        <ele>1519</ele>
        <time>2011-06-04T08:38:44Z</time>
      </trkpt>
      <trkpt lat="45.94774" lon="6.48276">
        <ele>1520</ele>
        <time>2011-06-04T08:38:46Z</time>
      </trkpt>
      <trkpt lat="45.94776" lon="6.48278">
        <ele>1520</ele>
        <time>2011-06-04T08:38:48Z</time>
      </trkpt>
      <trkpt lat="45.94779" lon="6.4828">
        <ele>1521</ele>
        <time>2011-06-04T08:38:50Z</time>
      </trkpt>
      <trkpt lat="45.94782" lon="6.48282">
        <ele>1521</ele>
        <time>2011-06-04T08:38:52Z</time>
      </trkpt>
      <trkpt lat="45.94785" lon="6.48284">
        <ele>1522</ele>
        <time>2011-06-04T08:38:54Z</time>
      </trkpt>
      <trkpt lat="45.94788" lon="6.48286">
        <ele>1522</ele>
        <time>2011-06-04T08:38:56Z</time>
      </trkpt>
      <trkpt lat="45.94791" lon="6.48289">
        <ele>1523</ele>
        <time>2011-06-04T08:38:58Z</time>
      </trkpt>
      <trkpt lat="45.94794" lon="6.48291">
        <ele>1523</ele>
        <time>2011-06-04T08:39:00Z</time>
      </trkpt>
      <trkpt lat="45.94797" lon="6.48293">
        <ele>1523</ele>
        <time>2011-06-04T08:39:02Z</time>
      </trkpt>
      <trkpt lat="45.948" lon="6.48295">
        <ele>1523</ele>
        <time>2011-06-04T08:39:04Z</time>
      </trkpt>
      <trkpt lat="45.94803" lon="6.48297">
        <ele>1523</ele>
        <time>2011-06-04T08:39:06Z</time>
      </trkpt>
      <trkpt lat="45.94806" lon="6.48299">
        <ele>1523</ele>
        <time>2011-06-04T08:39:08Z</time>
      </trkpt>
      <trkpt lat="45.94809" lon="6.48301">
        <ele>1523</ele>
        <time>2011-06-04T08:39:10Z</time>
      </trkpt>
      <trkpt lat="45.94812" lon="6.48302">
        <ele>1523</ele>
        <time>2011-06-04T08:39:12Z</time>
      </trkpt>
      <trkpt lat="45.94816" lon="6.48304">
        <ele>1523</ele>
        <time>2011-06-04T08:39:14Z</time>
      </trkpt>
      <trkpt lat="45.94819" lon="6.48305">
        <ele>1523</ele>
        <time>2011-06-04T08:39:16Z</time>
      </trkpt>
      <trkpt lat="45.94822" lon="6.48307">
        <ele>1523</ele>
        <time>2011-06-04T08:39:18Z</time>
      </trkpt>
      <trkpt lat="45.94825" lon="6.48309">
        <ele>1524</ele>
        <time>2011-06-04T08:39:20Z</time>
      </trkpt>
      <trkpt lat="45.94829" lon="6.4831">
        <ele>1525</ele>
        <time>2011-06-04T08:39:22Z</time>
      </trkpt>
      <trkpt lat="45.94833" lon="6.48311">
        <ele>1527</ele>
        <time>2011-06-04T08:39:24Z</time>
      </trkpt>
      <trkpt lat="45.94836" lon="6.48311">
        <ele>1528</ele>
        <time>2011-06-04T08:39:26Z</time>
      </trkpt>
      <trkpt lat="45.94839" lon="6.48312">
        <ele>1529</ele>
        <time>2011-06-04T08:39:28Z</time>
      </trkpt>
      <trkpt lat="45.94842" lon="6.48312">
        <ele>1531</ele>
        <time>2011-06-04T08:39:30Z</time>
      </trkpt>
      <trkpt lat="45.94845" lon="6.48312">
        <ele>1532</ele>
        <time>2011-06-04T08:39:32Z</time>
      </trkpt>
      <trkpt lat="45.94848" lon="6.48312">
        <ele>1533</ele>
        <time>2011-06-04T08:39:34Z</time>
      </trkpt>
      <trkpt lat="45.94851" lon="6.48312">
        <ele>1533</ele>
        <time>2011-06-04T08:39:36Z</time>
      </trkpt>
      <trkpt lat="45.94854" lon="6.48312">
        <ele>1534</ele>
        <time>2011-06-04T08:39:38Z</time>
      </trkpt>
      <trkpt lat="45.94857" lon="6.48312">
        <ele>1535</ele>
        <time>2011-06-04T08:39:40Z</time>
      </trkpt>
      <trkpt lat="45.9486" lon="6.48313">
        <ele>1535</ele>
        <time>2011-06-04T08:39:42Z</time>
      </trkpt>
      <trkpt lat="45.94863" lon="6.48315">
        <ele>1536</ele>
        <time>2011-06-04T08:39:44Z</time>
      </trkpt>
      <trkpt lat="45.94865" lon="6.48317">
        <ele>1536</ele>
        <time>2011-06-04T08:39:46Z</time>
      </trkpt>
      <trkpt lat="45.94868" lon="6.48319">
        <ele>1537</ele>
        <time>2011-06-04T08:39:48Z</time>
      </trkpt>
      <trkpt lat="45.9487" lon="6.48322">
        <ele>1537</ele>
        <time>2011-06-04T08:39:50Z</time>
      </trkpt>
      <trkpt lat="45.94873" lon="6.48325">
        <ele>1537</ele>
        <time>2011-06-04T08:39:52Z</time>
      </trkpt>
      <trkpt lat="45.94875" lon="6.48329">
        <ele>1537</ele>
        <time>2011-06-04T08:39:54Z</time>
      </trkpt>
      <trkpt lat="45.94877" lon="6.48332">
        <ele>1537</ele>
        <time>2011-06-04T08:39:56Z</time>
      </trkpt>
      <trkpt lat="45.94879" lon="6.48335">
        <ele>1538</ele>
        <time>2011-06-04T08:39:58Z</time>
      </trkpt>
      <trkpt lat="45.94882" lon="6.48339">
        <ele>1538</ele>
        <time>2011-06-04T08:40:00Z</time>
      </trkpt>
      <trkpt lat="45.94885" lon="6.48342">
        <ele>1538</ele>
        <time>2011-06-04T08:40:02Z</time>
      </trkpt>
      <trkpt lat="45.94888" lon="6.48345">
        <ele>1538</ele>
        <time>2011-06-04T08:40:04Z</time>
      </trkpt>
      <trkpt lat="45.9489" lon="6.48348">
        <ele>1538</ele>
        <time>2011-06-04T08:40:06Z</time>
      </trkpt>
      <trkpt lat="45.94893" lon="6.4835">
        <ele>1538</ele>
        <time>2011-06-04T08:40:08Z</time>
      </trkpt>
      <trkpt lat="45.94895" lon="6.48353">
        <ele>1538</ele>
        <time>2011-06-04T08:40:10Z</time>
      </trkpt>
      <trkpt lat="45.94898" lon="6.48355">
        <ele>1539</ele>
        <time>2011-06-04T08:40:12Z</time>
      </trkpt>
      <trkpt lat="45.94903" lon="6.4836">
        <ele>1539</ele>
        <time>2011-06-04T08:40:16Z</time>
      </trkpt>
      <trkpt lat="45.94905" lon="6.48362">
        <ele>1539</ele>
        <time>2011-06-04T08:40:18Z</time>
      </trkpt>
      <trkpt lat="45.94907" lon="6.48364">
        <ele>1539</ele>
        <time>2011-06-04T08:40:20Z</time>
      </trkpt>
      <trkpt lat="45.94911" lon="6.48368">
        <ele>1539</ele>
        <time>2011-06-04T08:40:23Z</time>
      </trkpt>
      <trkpt lat="45.94914" lon="6.4837">
        <ele>1539</ele>
        <time>2011-06-04T08:40:25Z</time>
      </trkpt>
      <trkpt lat="45.94916" lon="6.48372">
        <ele>1540</ele>
        <time>2011-06-04T08:40:27Z</time>
      </trkpt>
      <trkpt lat="45.94919" lon="6.48374">
        <ele>1540</ele>
        <time>2011-06-04T08:40:29Z</time>
      </trkpt>
      <trkpt lat="45.94921" lon="6.48376">
        <ele>1540</ele>
        <time>2011-06-04T08:40:31Z</time>
      </trkpt>
      <trkpt lat="45.94924" lon="6.48378">
        <ele>1540</ele>
        <time>2011-06-04T08:40:33Z</time>
      </trkpt>
      <trkpt lat="45.94926" lon="6.4838">
        <ele>1541</ele>
        <time>2011-06-04T08:40:35Z</time>
      </trkpt>
      <trkpt lat="45.94929" lon="6.48382">
        <ele>1541</ele>
        <time>2011-06-04T08:40:37Z</time>
      </trkpt>
      <trkpt lat="45.94931" lon="6.48384">
        <ele>1541</ele>
        <time>2011-06-04T08:40:39Z</time>
      </trkpt>
      <trkpt lat="45.94934" lon="6.48385">
        <ele>1542</ele>
        <time>2011-06-04T08:40:41Z</time>
      </trkpt>
      <trkpt lat="45.94936" lon="6.48388">
        <ele>1542</ele>
        <time>2011-06-04T08:40:43Z</time>
      </trkpt>
      <trkpt lat="45.94939" lon="6.48389">
        <ele>1542</ele>
        <time>2011-06-04T08:40:45Z</time>
      </trkpt>
      <trkpt lat="45.94941" lon="6.48392">
        <ele>1542</ele>
        <time>2011-06-04T08:40:47Z</time>
      </trkpt>
      <trkpt lat="45.94943" lon="6.48394">
        <ele>1542</ele>
        <time>2011-06-04T08:40:49Z</time>
      </trkpt>
      <trkpt lat="45.94945" lon="6.48397">
        <ele>1543</ele>
        <time>2011-06-04T08:40:51Z</time>
      </trkpt>
      <trkpt lat="45.94948" lon="6.48399">
        <ele>1543</ele>
        <time>2011-06-04T08:40:53Z</time>
      </trkpt>
      <trkpt lat="45.9495" lon="6.48402">
        <ele>1545</ele>
        <time>2011-06-04T08:40:55Z</time>
      </trkpt>
      <trkpt lat="45.94952" lon="6.48406">
        <ele>1546</ele>
        <time>2011-06-04T08:40:57Z</time>
      </trkpt>
      <trkpt lat="45.94953" lon="6.48409">
        <ele>1546</ele>
        <time>2011-06-04T08:40:59Z</time>
      </trkpt>
      <trkpt lat="45.94955" lon="6.48412">
        <ele>1547</ele>
        <time>2011-06-04T08:41:01Z</time>
      </trkpt>
      <trkpt lat="45.94956" lon="6.48416">
        <ele>1548</ele>
        <time>2011-06-04T08:41:03Z</time>
      </trkpt>
      <trkpt lat="45.94958" lon="6.48421">
        <ele>1548</ele>
        <time>2011-06-04T08:41:05Z</time>
      </trkpt>
      <trkpt lat="45.94959" lon="6.48425">
        <ele>1549</ele>
        <time>2011-06-04T08:41:07Z</time>
      </trkpt>
      <trkpt lat="45.9496" lon="6.4843">
        <ele>1549</ele>
        <time>2011-06-04T08:41:09Z</time>
      </trkpt>
      <trkpt lat="45.94961" lon="6.48434">
        <ele>1549</ele>
        <time>2011-06-04T08:41:11Z</time>
      </trkpt>
      <trkpt lat="45.94962" lon="6.48437">
        <ele>1549</ele>
        <time>2011-06-04T08:41:13Z</time>
      </trkpt>
      <trkpt lat="45.94962" lon="6.48441">
        <ele>1549</ele>
        <time>2011-06-04T08:41:15Z</time>
      </trkpt>
      <trkpt lat="45.94964" lon="6.48445">
        <ele>1550</ele>
        <time>2011-06-04T08:41:17Z</time>
      </trkpt>
      <trkpt lat="45.94965" lon="6.48449">
        <ele>1550</ele>
        <time>2011-06-04T08:41:19Z</time>
      </trkpt>
      <trkpt lat="45.94966" lon="6.48453">
        <ele>1550</ele>
        <time>2011-06-04T08:41:21Z</time>
      </trkpt>
      <trkpt lat="45.94968" lon="6.48457">
        <ele>1550</ele>
        <time>2011-06-04T08:41:23Z</time>
      </trkpt>
      <trkpt lat="45.9497" lon="6.4846">
        <ele>1550</ele>
        <time>2011-06-04T08:41:25Z</time>
      </trkpt>
      <trkpt lat="45.94972" lon="6.48462">
        <ele>1551</ele>
        <time>2011-06-04T08:41:27Z</time>
      </trkpt>
      <trkpt lat="45.94975" lon="6.48464">
        <ele>1551</ele>
        <time>2011-06-04T08:41:29Z</time>
      </trkpt>
      <trkpt lat="45.94977" lon="6.48464">
        <ele>1551</ele>
        <time>2011-06-04T08:41:31Z</time>
      </trkpt>
      <trkpt lat="45.94981" lon="6.48465">
        <ele>1551</ele>
        <time>2011-06-04T08:41:33Z</time>
      </trkpt>
      <trkpt lat="45.94984" lon="6.48465">
        <ele>1551</ele>
        <time>2011-06-04T08:41:35Z</time>
      </trkpt>
      <trkpt lat="45.94986" lon="6.48464">
        <ele>1551</ele>
        <time>2011-06-04T08:41:37Z</time>
      </trkpt>
      <trkpt lat="45.94989" lon="6.48463">
        <ele>1551</ele>
        <time>2011-06-04T08:41:39Z</time>
      </trkpt>
      <trkpt lat="45.94992" lon="6.48463">
        <ele>1551</ele>
        <time>2011-06-04T08:41:41Z</time>
      </trkpt>
      <trkpt lat="45.94995" lon="6.48462">
        <ele>1551</ele>
        <time>2011-06-04T08:41:43Z</time>
      </trkpt>
      <trkpt lat="45.94997" lon="6.48462">
        <ele>1551</ele>
        <time>2011-06-04T08:41:45Z</time>
      </trkpt>
      <trkpt lat="45.95" lon="6.48461">
        <ele>1551</ele>
        <time>2011-06-04T08:41:47Z</time>
      </trkpt>
      <trkpt lat="45.95004" lon="6.4846">
        <ele>1551</ele>
        <time>2011-06-04T08:41:49Z</time>
      </trkpt>
      <trkpt lat="45.95008" lon="6.48459">
        <ele>1551</ele>
        <time>2011-06-04T08:41:51Z</time>
      </trkpt>
      <trkpt lat="45.95011" lon="6.48459">
        <ele>1551</ele>
        <time>2011-06-04T08:41:53Z</time>
      </trkpt>
      <trkpt lat="45.95013" lon="6.48459">
        <ele>1551</ele>
        <time>2011-06-04T08:41:55Z</time>
      </trkpt>
      <trkpt lat="45.95016" lon="6.4846">
        <ele>1551</ele>
        <time>2011-06-04T08:41:57Z</time>
      </trkpt>
      <trkpt lat="45.95019" lon="6.4846">
        <ele>1551</ele>
        <time>2011-06-04T08:41:59Z</time>
      </trkpt>
      <trkpt lat="45.95022" lon="6.4846">
        <ele>1551</ele>
        <time>2011-06-04T08:42:01Z</time>
      </trkpt>
      <trkpt lat="45.95024" lon="6.48461">
        <ele>1551</ele>
        <time>2011-06-04T08:42:03Z</time>
      </trkpt>
      <trkpt lat="45.95027" lon="6.48461">
        <ele>1552</ele>
        <time>2011-06-04T08:42:05Z</time>
      </trkpt>
      <trkpt lat="45.9503" lon="6.48461">
        <ele>1553</ele>
        <time>2011-06-04T08:42:07Z</time>
      </trkpt>
      <trkpt lat="45.95033" lon="6.48462">
        <ele>1553</ele>
        <time>2011-06-04T08:42:09Z</time>
      </trkpt>
      <trkpt lat="45.95036" lon="6.48462">
        <ele>1554</ele>
        <time>2011-06-04T08:42:11Z</time>
      </trkpt>
      <trkpt lat="45.95038" lon="6.48463">
        <ele>1555</ele>
        <time>2011-06-04T08:42:13Z</time>
      </trkpt>
      <trkpt lat="45.95042" lon="6.48464">
        <ele>1555</ele>
        <time>2011-06-04T08:42:15Z</time>
      </trkpt>
      <trkpt lat="45.95045" lon="6.48465">
        <ele>1556</ele>
        <time>2011-06-04T08:42:17Z</time>
      </trkpt>
      <trkpt lat="45.95048" lon="6.48467">
        <ele>1556</ele>
        <time>2011-06-04T08:42:19Z</time>
      </trkpt>
      <trkpt lat="45.95051" lon="6.48468">
        <ele>1557</ele>
        <time>2011-06-04T08:42:21Z</time>
      </trkpt>
      <trkpt lat="45.95054" lon="6.48468">
        <ele>1558</ele>
        <time>2011-06-04T08:42:23Z</time>
      </trkpt>
      <trkpt lat="45.95056" lon="6.48469">
        <ele>1559</ele>
        <time>2011-06-04T08:42:25Z</time>
      </trkpt>
      <trkpt lat="45.9506" lon="6.48469">
        <ele>1560</ele>
        <time>2011-06-04T08:42:28Z</time>
      </trkpt>
      <trkpt lat="45.95063" lon="6.48468">
        <ele>1560</ele>
        <time>2011-06-04T08:42:30Z</time>
      </trkpt>
      <trkpt lat="45.95066" lon="6.48464">
        <ele>1560</ele>
        <time>2011-06-04T08:42:33Z</time>
      </trkpt>
      <trkpt lat="45.95067" lon="6.48461">
        <ele>1560</ele>
        <time>2011-06-04T08:42:35Z</time>
      </trkpt>
      <trkpt lat="45.95066" lon="6.48457">
        <ele>1561</ele>
        <time>2011-06-04T08:42:37Z</time>
      </trkpt>
      <trkpt lat="45.95063" lon="6.48455">
        <ele>1561</ele>
        <time>2011-06-04T08:42:39Z</time>
      </trkpt>
      <trkpt lat="45.95061" lon="6.48452">
        <ele>1561</ele>
        <time>2011-06-04T08:42:41Z</time>
      </trkpt>
      <trkpt lat="45.95058" lon="6.48449">
        <ele>1562</ele>
        <time>2011-06-04T08:42:43Z</time>
      </trkpt>
      <trkpt lat="45.95055" lon="6.48448">
        <ele>1563</ele>
        <time>2011-06-04T08:42:45Z</time>
      </trkpt>
      <trkpt lat="45.95052" lon="6.48447">
        <ele>1564</ele>
        <time>2011-06-04T08:42:47Z</time>
      </trkpt>
      <trkpt lat="45.9505" lon="6.48445">
        <ele>1565</ele>
        <time>2011-06-04T08:42:49Z</time>
      </trkpt>
      <trkpt lat="45.95047" lon="6.48441">
        <ele>1566</ele>
        <time>2011-06-04T08:42:51Z</time>
      </trkpt>
      <trkpt lat="45.95046" lon="6.48437">
        <ele>1567</ele>
        <time>2011-06-04T08:42:54Z</time>
      </trkpt>
      <trkpt lat="45.95044" lon="6.48433">
        <ele>1567</ele>
        <time>2011-06-04T08:42:56Z</time>
      </trkpt>
      <trkpt lat="45.95044" lon="6.48429">
        <ele>1567</ele>
        <time>2011-06-04T08:42:58Z</time>
      </trkpt>
      <trkpt lat="45.95046" lon="6.48425">
        <ele>1567</ele>
        <time>2011-06-04T08:43:00Z</time>
      </trkpt>
      <trkpt lat="45.95048" lon="6.48421">
        <ele>1567</ele>
        <time>2011-06-04T08:43:02Z</time>
      </trkpt>
      <trkpt lat="45.9505" lon="6.48421">
        <ele>1567</ele>
        <time>2011-06-04T08:43:04Z</time>
      </trkpt>
      <trkpt lat="45.95053" lon="6.48419">
        <ele>1568</ele>
        <time>2011-06-04T08:43:06Z</time>
      </trkpt>
      <trkpt lat="45.95056" lon="6.48418">
        <ele>1569</ele>
        <time>2011-06-04T08:43:08Z</time>
      </trkpt>
      <trkpt lat="45.95059" lon="6.48417">
        <ele>1569</ele>
        <time>2011-06-04T08:43:10Z</time>
      </trkpt>
      <trkpt lat="45.95062" lon="6.48416">
        <ele>1570</ele>
        <time>2011-06-04T08:43:12Z</time>
      </trkpt>
      <trkpt lat="45.95065" lon="6.48414">
        <ele>1570</ele>
        <time>2011-06-04T08:43:14Z</time>
      </trkpt>
      <trkpt lat="45.95067" lon="6.48412">
        <ele>1570</ele>
        <time>2011-06-04T08:43:16Z</time>
      </trkpt>
      <trkpt lat="45.95069" lon="6.48409">
        <ele>1570</ele>
        <time>2011-06-04T08:43:18Z</time>
      </trkpt>
      <trkpt lat="45.9507" lon="6.48405">
        <ele>1571</ele>
        <time>2011-06-04T08:43:20Z</time>
      </trkpt>
      <trkpt lat="45.9507" lon="6.48401">
        <ele>1571</ele>
        <time>2011-06-04T08:43:22Z</time>
      </trkpt>
      <trkpt lat="45.95069" lon="6.48398">
        <ele>1571</ele>
        <time>2011-06-04T08:43:24Z</time>
      </trkpt>
      <trkpt lat="45.95067" lon="6.48395">
        <ele>1571</ele>
        <time>2011-06-04T08:43:26Z</time>
      </trkpt>
      <trkpt lat="45.95065" lon="6.48392">
        <ele>1572</ele>
        <time>2011-06-04T08:43:28Z</time>
      </trkpt>
      <trkpt lat="45.95062" lon="6.48388">
        <ele>1572</ele>
        <time>2011-06-04T08:43:31Z</time>
      </trkpt>
      <trkpt lat="45.9506" lon="6.48385">
        <ele>1572</ele>
        <time>2011-06-04T08:43:33Z</time>
      </trkpt>
      <trkpt lat="45.95058" lon="6.48383">
        <ele>1572</ele>
        <time>2011-06-04T08:43:35Z</time>
      </trkpt>
      <trkpt lat="45.95055" lon="6.4838">
        <ele>1573</ele>
        <time>2011-06-04T08:43:38Z</time>
      </trkpt>
      <trkpt lat="45.95053" lon="6.48378">
        <ele>1574</ele>
        <time>2011-06-04T08:43:40Z</time>
      </trkpt>
      <trkpt lat="45.9505" lon="6.48375">
        <ele>1576</ele>
        <time>2011-06-04T08:43:42Z</time>
      </trkpt>
      <trkpt lat="45.95048" lon="6.48372">
        <ele>1577</ele>
        <time>2011-06-04T08:43:45Z</time>
      </trkpt>
      <trkpt lat="45.95046" lon="6.4837">
        <ele>1578</ele>
        <time>2011-06-04T08:43:47Z</time>
      </trkpt>
      <trkpt lat="45.95045" lon="6.48366">
        <ele>1578</ele>
        <time>2011-06-04T08:43:50Z</time>
      </trkpt>
      <trkpt lat="45.95043" lon="6.48365">
        <ele>1578</ele>
        <time>2011-06-04T08:43:52Z</time>
      </trkpt>
      <trkpt lat="45.95041" lon="6.48363">
        <ele>1579</ele>
        <time>2011-06-04T08:43:54Z</time>
      </trkpt>
      <trkpt lat="45.9504" lon="6.48361">
        <ele>1582</ele>
        <time>2011-06-04T08:43:57Z</time>
      </trkpt>
      <trkpt lat="45.95037" lon="6.48359">
        <ele>1583</ele>
        <time>2011-06-04T08:43:59Z</time>
      </trkpt>
      <trkpt lat="45.95035" lon="6.48357">
        <ele>1585</ele>
        <time>2011-06-04T08:44:01Z</time>
      </trkpt>
      <trkpt lat="45.95032" lon="6.48356">
        <ele>1586</ele>
        <time>2011-06-04T08:44:03Z</time>
      </trkpt>
      <trkpt lat="45.9503" lon="6.48354">
        <ele>1586</ele>
        <time>2011-06-04T08:44:05Z</time>
      </trkpt>
      <trkpt lat="45.95027" lon="6.48352">
        <ele>1587</ele>
        <time>2011-06-04T08:44:07Z</time>
      </trkpt>
      <trkpt lat="45.95024" lon="6.4835">
        <ele>1588</ele>
        <time>2011-06-04T08:44:09Z</time>
      </trkpt>
      <trkpt lat="45.95022" lon="6.48348">
        <ele>1589</ele>
        <time>2011-06-04T08:44:11Z</time>
      </trkpt>
      <trkpt lat="45.95019" lon="6.48346">
        <ele>1591</ele>
        <time>2011-06-04T08:44:13Z</time>
      </trkpt>
      <trkpt lat="45.95015" lon="6.48342">
        <ele>1591</ele>
        <time>2011-06-04T08:44:16Z</time>
      </trkpt>
      <trkpt lat="45.95013" lon="6.4834">
        <ele>1591</ele>
        <time>2011-06-04T08:44:18Z</time>
      </trkpt>
      <trkpt lat="45.9501" lon="6.48337">
        <ele>1591</ele>
        <time>2011-06-04T08:44:20Z</time>
      </trkpt>
      <trkpt lat="45.95008" lon="6.48334">
        <ele>1592</ele>
        <time>2011-06-04T08:44:22Z</time>
      </trkpt>
      <trkpt lat="45.95003" lon="6.4833">
        <ele>1593</ele>
        <time>2011-06-04T08:44:24Z</time>
      </trkpt>
      <trkpt lat="45.95" lon="6.48327">
        <ele>1593</ele>
        <time>2011-06-04T08:44:26Z</time>
      </trkpt>
      <trkpt lat="45.94998" lon="6.48324">
        <ele>1593</ele>
        <time>2011-06-04T08:44:29Z</time>
      </trkpt>
      <trkpt lat="45.94996" lon="6.48321">
        <ele>1594</ele>
        <time>2011-06-04T08:44:31Z</time>
      </trkpt>
      <trkpt lat="45.94992" lon="6.48317">
        <ele>1594</ele>
        <time>2011-06-04T08:44:33Z</time>
      </trkpt>
      <trkpt lat="45.94989" lon="6.48312">
        <ele>1594</ele>
        <time>2011-06-04T08:44:36Z</time>
      </trkpt>
      <trkpt lat="45.94987" lon="6.48308">
        <ele>1594</ele>
        <time>2011-06-04T08:44:38Z</time>
      </trkpt>
      <trkpt lat="45.94985" lon="6.48303">
        <ele>1594</ele>
        <time>2011-06-04T08:44:40Z</time>
      </trkpt>
      <trkpt lat="45.94984" lon="6.48297">
        <ele>1594</ele>
        <time>2011-06-04T08:44:42Z</time>
      </trkpt>
      <trkpt lat="45.94984" lon="6.48288">
        <ele>1594</ele>
        <time>2011-06-04T08:44:45Z</time>
      </trkpt>
      <trkpt lat="45.94985" lon="6.48283">
        <ele>1594</ele>
        <time>2011-06-04T08:44:47Z</time>
      </trkpt>
      <trkpt lat="45.94985" lon="6.48279">
        <ele>1594</ele>
        <time>2011-06-04T08:44:49Z</time>
      </trkpt>
      <trkpt lat="45.94986" lon="6.48275">
        <ele>1594</ele>
        <time>2011-06-04T08:44:51Z</time>
      </trkpt>
      <trkpt lat="45.94988" lon="6.4827">
        <ele>1594</ele>
        <time>2011-06-04T08:44:53Z</time>
      </trkpt>
      <trkpt lat="45.94992" lon="6.48264">
        <ele>1594</ele>
        <time>2011-06-04T08:44:56Z</time>
      </trkpt>
      <trkpt lat="45.94997" lon="6.48258">
        <ele>1594</ele>
        <time>2011-06-04T08:44:59Z</time>
      </trkpt>
      <trkpt lat="45.95004" lon="6.48253">
        <ele>1594</ele>
        <time>2011-06-04T08:45:01Z</time>
      </trkpt>
      <trkpt lat="45.95009" lon="6.48252">
        <ele>1594</ele>
        <time>2011-06-04T08:45:04Z</time>
      </trkpt>
      <trkpt lat="45.95015" lon="6.48251">
        <ele>1594</ele>
        <time>2011-06-04T08:45:06Z</time>
      </trkpt>
      <trkpt lat="45.9502" lon="6.4825">
        <ele>1594</ele>
        <time>2011-06-04T08:45:09Z</time>
      </trkpt>
      <trkpt lat="45.95027" lon="6.48252">
        <ele>1594</ele>
        <time>2011-06-04T08:45:12Z</time>
      </trkpt>
      <trkpt lat="45.95031" lon="6.48253">
        <ele>1594</ele>
        <time>2011-06-04T08:45:14Z</time>
      </trkpt>
      <trkpt lat="45.95035" lon="6.48255">
        <ele>1594</ele>
        <time>2011-06-04T08:45:16Z</time>
      </trkpt>
      <trkpt lat="45.95039" lon="6.48257">
        <ele>1594</ele>
        <time>2011-06-04T08:45:18Z</time>
      </trkpt>
      <trkpt lat="45.95043" lon="6.48259">
        <ele>1594</ele>
        <time>2011-06-04T08:45:20Z</time>
      </trkpt>
      <trkpt lat="45.95047" lon="6.48261">
        <ele>1594</ele>
        <time>2011-06-04T08:45:22Z</time>
      </trkpt>
      <trkpt lat="45.95051" lon="6.48264">
        <ele>1594</ele>
        <time>2011-06-04T08:45:24Z</time>
      </trkpt>
      <trkpt lat="45.95055" lon="6.48266">
        <ele>1594</ele>
        <time>2011-06-04T08:45:26Z</time>
      </trkpt>
      <trkpt lat="45.95061" lon="6.48269">
        <ele>1594</ele>
        <time>2011-06-04T08:45:29Z</time>
      </trkpt>
      <trkpt lat="45.95068" lon="6.48271">
        <ele>1594</ele>
        <time>2011-06-04T08:45:32Z</time>
      </trkpt>
      <trkpt lat="45.95074" lon="6.48272">
        <ele>1594</ele>
        <time>2011-06-04T08:45:34Z</time>
      </trkpt>
      <trkpt lat="45.95078" lon="6.48274">
        <ele>1594</ele>
        <time>2011-06-04T08:45:36Z</time>
      </trkpt>
      <trkpt lat="45.95082" lon="6.48276">
        <ele>1594</ele>
        <time>2011-06-04T08:45:38Z</time>
      </trkpt>
      <trkpt lat="45.95086" lon="6.48277">
        <ele>1594</ele>
        <time>2011-06-04T08:45:41Z</time>
      </trkpt>
      <trkpt lat="45.95092" lon="6.48279">
        <ele>1594</ele>
        <time>2011-06-04T08:45:43Z</time>
      </trkpt>
      <trkpt lat="45.95096" lon="6.48278">
        <ele>1594</ele>
        <time>2011-06-04T08:45:46Z</time>
      </trkpt>
      <trkpt lat="45.95102" lon="6.48276">
        <ele>1595</ele>
        <time>2011-06-04T08:45:48Z</time>
      </trkpt>
      <trkpt lat="45.95105" lon="6.48274">
        <ele>1595</ele>
        <time>2011-06-04T08:45:51Z</time>
      </trkpt>
      <trkpt lat="45.95109" lon="6.48269">
        <ele>1595</ele>
        <time>2011-06-04T08:45:53Z</time>
      </trkpt>
      <trkpt lat="45.95112" lon="6.48265">
        <ele>1595</ele>
        <time>2011-06-04T08:45:56Z</time>
      </trkpt>
      <trkpt lat="45.95117" lon="6.4826">
        <ele>1596</ele>
        <time>2011-06-04T08:45:58Z</time>
      </trkpt>
      <trkpt lat="45.95119" lon="6.48256">
        <ele>1596</ele>
        <time>2011-06-04T08:46:00Z</time>
      </trkpt>
      <trkpt lat="45.95122" lon="6.48252">
        <ele>1596</ele>
        <time>2011-06-04T08:46:02Z</time>
      </trkpt>
      <trkpt lat="45.95125" lon="6.48249">
        <ele>1596</ele>
        <time>2011-06-04T08:46:04Z</time>
      </trkpt>
      <trkpt lat="45.95128" lon="6.48247">
        <ele>1597</ele>
        <time>2011-06-04T08:46:07Z</time>
      </trkpt>
      <trkpt lat="45.95132" lon="6.48242">
        <ele>1597</ele>
        <time>2011-06-04T08:46:09Z</time>
      </trkpt>
      <trkpt lat="45.95135" lon="6.48239">
        <ele>1598</ele>
        <time>2011-06-04T08:46:12Z</time>
      </trkpt>
      <trkpt lat="45.95139" lon="6.48233">
        <ele>1598</ele>
        <time>2011-06-04T08:46:14Z</time>
      </trkpt>
      <trkpt lat="45.95142" lon="6.48229">
        <ele>1598</ele>
        <time>2011-06-04T08:46:17Z</time>
      </trkpt>
      <trkpt lat="45.95145" lon="6.48223">
        <ele>1598</ele>
        <time>2011-06-04T08:46:20Z</time>
      </trkpt>
      <trkpt lat="45.95148" lon="6.48217">
        <ele>1599</ele>
        <time>2011-06-04T08:46:23Z</time>
      </trkpt>
      <trkpt lat="45.9515" lon="6.48212">
        <ele>1599</ele>
        <time>2011-06-04T08:46:25Z</time>
      </trkpt>
      <trkpt lat="45.95152" lon="6.48209">
        <ele>1599</ele>
        <time>2011-06-04T08:46:27Z</time>
      </trkpt>
      <trkpt lat="45.95155" lon="6.48205">
        <ele>1599</ele>
        <time>2011-06-04T08:46:29Z</time>
      </trkpt>
      <trkpt lat="45.95161" lon="6.48202">
        <ele>1600</ele>
        <time>2011-06-04T08:46:32Z</time>
      </trkpt>
      <trkpt lat="45.95166" lon="6.48201">
        <ele>1600</ele>
        <time>2011-06-04T08:46:35Z</time>
      </trkpt>
      <trkpt lat="45.95169" lon="6.482">
        <ele>1600</ele>
        <time>2011-06-04T08:46:37Z</time>
      </trkpt>
      <trkpt lat="45.95175" lon="6.482">
        <ele>1601</ele>
        <time>2011-06-04T08:46:39Z</time>
      </trkpt>
      <trkpt lat="45.95179" lon="6.48198">
        <ele>1601</ele>
        <time>2011-06-04T08:46:42Z</time>
      </trkpt>
      <trkpt lat="45.95185" lon="6.48196">
        <ele>1601</ele>
        <time>2011-06-04T08:46:44Z</time>
      </trkpt>
      <trkpt lat="45.95189" lon="6.48194">
        <ele>1602</ele>
        <time>2011-06-04T08:46:47Z</time>
      </trkpt>
      <trkpt lat="45.95195" lon="6.4819">
        <ele>1602</ele>
        <time>2011-06-04T08:46:49Z</time>
      </trkpt>
      <trkpt lat="45.952" lon="6.48186">
        <ele>1602</ele>
        <time>2011-06-04T08:46:52Z</time>
      </trkpt>
      <trkpt lat="45.95205" lon="6.4818">
        <ele>1602</ele>
        <time>2011-06-04T08:46:54Z</time>
      </trkpt>
      <trkpt lat="45.95209" lon="6.48177">
        <ele>1602</ele>
        <time>2011-06-04T08:46:57Z</time>
      </trkpt>
      <trkpt lat="45.95215" lon="6.48173">
        <ele>1602</ele>
        <time>2011-06-04T08:46:59Z</time>
      </trkpt>
      <trkpt lat="45.95219" lon="6.48171">
        <ele>1602</ele>
        <time>2011-06-04T08:47:02Z</time>
      </trkpt>
      <trkpt lat="45.95226" lon="6.4817">
        <ele>1603</ele>
        <time>2011-06-04T08:47:04Z</time>
      </trkpt>
      <trkpt lat="45.9523" lon="6.48171">
        <ele>1603</ele>
        <time>2011-06-04T08:47:07Z</time>
      </trkpt>
      <trkpt lat="45.95236" lon="6.48173">
        <ele>1604</ele>
        <time>2011-06-04T08:47:09Z</time>
      </trkpt>
      <trkpt lat="45.9524" lon="6.48176">
        <ele>1604</ele>
        <time>2011-06-04T08:47:12Z</time>
      </trkpt>
      <trkpt lat="45.95246" lon="6.48181">
        <ele>1605</ele>
        <time>2011-06-04T08:47:14Z</time>
      </trkpt>
      <trkpt lat="45.95249" lon="6.48184">
        <ele>1605</ele>
        <time>2011-06-04T08:47:17Z</time>
      </trkpt>
      <trkpt lat="45.95255" lon="6.48189">
        <ele>1606</ele>
        <time>2011-06-04T08:47:19Z</time>
      </trkpt>
      <trkpt lat="45.95259" lon="6.48191">
        <ele>1607</ele>
        <time>2011-06-04T08:47:22Z</time>
      </trkpt>
      <trkpt lat="45.95265" lon="6.48195">
        <ele>1608</ele>
        <time>2011-06-04T08:47:24Z</time>
      </trkpt>
      <trkpt lat="45.95269" lon="6.48197">
        <ele>1608</ele>
        <time>2011-06-04T08:47:27Z</time>
      </trkpt>
      <trkpt lat="45.95275" lon="6.48201">
        <ele>1609</ele>
        <time>2011-06-04T08:47:29Z</time>
      </trkpt>
      <trkpt lat="45.95278" lon="6.48203">
        <ele>1609</ele>
        <time>2011-06-04T08:47:32Z</time>
      </trkpt>
      <trkpt lat="45.95284" lon="6.48207">
        <ele>1610</ele>
        <time>2011-06-04T08:47:34Z</time>
      </trkpt>
      <trkpt lat="45.95288" lon="6.48209">
        <ele>1610</ele>
        <time>2011-06-04T08:47:36Z</time>
      </trkpt>
      <trkpt lat="45.95292" lon="6.48211">
        <ele>1610</ele>
        <time>2011-06-04T08:47:38Z</time>
      </trkpt>
      <trkpt lat="45.95295" lon="6.48214">
        <ele>1610</ele>
        <time>2011-06-04T08:47:40Z</time>
      </trkpt>
      <trkpt lat="45.95299" lon="6.48216">
        <ele>1611</ele>
        <time>2011-06-04T08:47:42Z</time>
      </trkpt>
      <trkpt lat="45.95303" lon="6.48218">
        <ele>1611</ele>
        <time>2011-06-04T08:47:44Z</time>
      </trkpt>
      <trkpt lat="45.95308" lon="6.48219">
        <ele>1611</ele>
        <time>2011-06-04T08:47:46Z</time>
      </trkpt>
      <trkpt lat="45.95312" lon="6.48221">
        <ele>1612</ele>
        <time>2011-06-04T08:47:48Z</time>
      </trkpt>
      <trkpt lat="45.95316" lon="6.48222">
        <ele>1612</ele>
        <time>2011-06-04T08:47:50Z</time>
      </trkpt>
      <trkpt lat="45.9532" lon="6.48225">
        <ele>1612</ele>
        <time>2011-06-04T08:47:52Z</time>
      </trkpt>
      <trkpt lat="45.95324" lon="6.48229">
        <ele>1613</ele>
        <time>2011-06-04T08:47:54Z</time>
      </trkpt>
      <trkpt lat="45.95328" lon="6.48232">
        <ele>1613</ele>
        <time>2011-06-04T08:47:57Z</time>
      </trkpt>
      <trkpt lat="45.95333" lon="6.48237">
        <ele>1613</ele>
        <time>2011-06-04T08:47:59Z</time>
      </trkpt>
      <trkpt lat="45.95336" lon="6.48241">
        <ele>1614</ele>
        <time>2011-06-04T08:48:02Z</time>
      </trkpt>
      <trkpt lat="45.95341" lon="6.48247">
        <ele>1614</ele>
        <time>2011-06-04T08:48:04Z</time>
      </trkpt>
      <trkpt lat="45.95344" lon="6.48251">
        <ele>1614</ele>
        <time>2011-06-04T08:48:07Z</time>
      </trkpt>
      <trkpt lat="45.95349" lon="6.48257">
        <ele>1614</ele>
        <time>2011-06-04T08:48:09Z</time>
      </trkpt>
      <trkpt lat="45.95352" lon="6.48261">
        <ele>1615</ele>
        <time>2011-06-04T08:48:12Z</time>
      </trkpt>
      <trkpt lat="45.95358" lon="6.48269">
        <ele>1616</ele>
        <time>2011-06-04T08:48:14Z</time>
      </trkpt>
      <trkpt lat="45.95361" lon="6.48274">
        <ele>1616</ele>
        <time>2011-06-04T08:48:17Z</time>
      </trkpt>
      <trkpt lat="45.95365" lon="6.48281">
        <ele>1617</ele>
        <time>2011-06-04T08:48:19Z</time>
      </trkpt>
      <trkpt lat="45.95368" lon="6.48286">
        <ele>1617</ele>
        <time>2011-06-04T08:48:21Z</time>
      </trkpt>
      <trkpt lat="45.95371" lon="6.48292">
        <ele>1617</ele>
        <time>2011-06-04T08:48:23Z</time>
      </trkpt>
      <trkpt lat="45.95373" lon="6.48299">
        <ele>1617</ele>
        <time>2011-06-04T08:48:25Z</time>
      </trkpt>
      <trkpt lat="45.95374" lon="6.48305">
        <ele>1617</ele>
        <time>2011-06-04T08:48:27Z</time>
      </trkpt>
      <trkpt lat="45.95376" lon="6.48311">
        <ele>1617</ele>
        <time>2011-06-04T08:48:29Z</time>
      </trkpt>
      <trkpt lat="45.95378" lon="6.48318">
        <ele>1617</ele>
        <time>2011-06-04T08:48:32Z</time>
      </trkpt>
      <trkpt lat="45.9538" lon="6.48329">
        <ele>1617</ele>
        <time>2011-06-04T08:48:34Z</time>
      </trkpt>
      <trkpt lat="45.95382" lon="6.48338">
        <ele>1617</ele>
        <time>2011-06-04T08:48:37Z</time>
      </trkpt>
      <trkpt lat="45.95385" lon="6.48349">
        <ele>1617</ele>
        <time>2011-06-04T08:48:39Z</time>
      </trkpt>
      <trkpt lat="45.95387" lon="6.48356">
        <ele>1617</ele>
        <time>2011-06-04T08:48:42Z</time>
      </trkpt>
      <trkpt lat="45.95391" lon="6.48366">
        <ele>1617</ele>
        <time>2011-06-04T08:48:44Z</time>
      </trkpt>
      <trkpt lat="45.95394" lon="6.48373">
        <ele>1617</ele>
        <time>2011-06-04T08:48:46Z</time>
      </trkpt>
      <trkpt lat="45.95397" lon="6.48379">
        <ele>1617</ele>
        <time>2011-06-04T08:48:48Z</time>
      </trkpt>
      <trkpt lat="45.954" lon="6.48386">
        <ele>1617</ele>
        <time>2011-06-04T08:48:50Z</time>
      </trkpt>
      <trkpt lat="45.95403" lon="6.48392">
        <ele>1617</ele>
        <time>2011-06-04T08:48:52Z</time>
      </trkpt>
      <trkpt lat="45.95406" lon="6.48398">
        <ele>1617</ele>
        <time>2011-06-04T08:48:54Z</time>
      </trkpt>
      <trkpt lat="45.95409" lon="6.48405">
        <ele>1617</ele>
        <time>2011-06-04T08:48:56Z</time>
      </trkpt>
      <trkpt lat="45.95411" lon="6.48412">
        <ele>1618</ele>
        <time>2011-06-04T08:48:58Z</time>
      </trkpt>
      <trkpt lat="45.95412" lon="6.48419">
        <ele>1618</ele>
        <time>2011-06-04T08:49:00Z</time>
      </trkpt>
      <trkpt lat="45.95414" lon="6.48426">
        <ele>1618</ele>
        <time>2011-06-04T08:49:02Z</time>
      </trkpt>
      <trkpt lat="45.95415" lon="6.48433">
        <ele>1618</ele>
        <time>2011-06-04T08:49:04Z</time>
      </trkpt>
      <trkpt lat="45.95416" lon="6.4844">
        <ele>1618</ele>
        <time>2011-06-04T08:49:07Z</time>
      </trkpt>
      <trkpt lat="45.95418" lon="6.4845">
        <ele>1619</ele>
        <time>2011-06-04T08:49:09Z</time>
      </trkpt>
      <trkpt lat="45.95419" lon="6.48458">
        <ele>1619</ele>
        <time>2011-06-04T08:49:11Z</time>
      </trkpt>
      <trkpt lat="45.9542" lon="6.48465">
        <ele>1619</ele>
        <time>2011-06-04T08:49:13Z</time>
      </trkpt>
      <trkpt lat="45.95422" lon="6.48473">
        <ele>1619</ele>
        <time>2011-06-04T08:49:15Z</time>
      </trkpt>
      <trkpt lat="45.95423" lon="6.48481">
        <ele>1619</ele>
        <time>2011-06-04T08:49:17Z</time>
      </trkpt>
      <trkpt lat="45.95425" lon="6.48488">
        <ele>1619</ele>
        <time>2011-06-04T08:49:19Z</time>
      </trkpt>
      <trkpt lat="45.95426" lon="6.48495">
        <ele>1619</ele>
        <time>2011-06-04T08:49:21Z</time>
      </trkpt>
      <trkpt lat="45.95427" lon="6.48502">
        <ele>1619</ele>
        <time>2011-06-04T08:49:23Z</time>
      </trkpt>
      <trkpt lat="45.95428" lon="6.48509">
        <ele>1619</ele>
        <time>2011-06-04T08:49:25Z</time>
      </trkpt>
      <trkpt lat="45.95429" lon="6.48516">
        <ele>1619</ele>
        <time>2011-06-04T08:49:28Z</time>
      </trkpt>
      <trkpt lat="45.95431" lon="6.48526">
        <ele>1619</ele>
        <time>2011-06-04T08:49:30Z</time>
      </trkpt>
      <trkpt lat="45.95432" lon="6.48533">
        <ele>1619</ele>
        <time>2011-06-04T08:49:33Z</time>
      </trkpt>
      <trkpt lat="45.95434" lon="6.48545">
        <ele>1619</ele>
        <time>2011-06-04T08:49:35Z</time>
      </trkpt>
      <trkpt lat="45.95436" lon="6.48553">
        <ele>1619</ele>
        <time>2011-06-04T08:49:37Z</time>
      </trkpt>
      <trkpt lat="45.95438" lon="6.48561">
        <ele>1619</ele>
        <time>2011-06-04T08:49:39Z</time>
      </trkpt>
      <trkpt lat="45.95441" lon="6.48567">
        <ele>1619</ele>
        <time>2011-06-04T08:49:41Z</time>
      </trkpt>
      <trkpt lat="45.95445" lon="6.48573">
        <ele>1619</ele>
        <time>2011-06-04T08:49:43Z</time>
      </trkpt>
      <trkpt lat="45.95449" lon="6.48579">
        <ele>1620</ele>
        <time>2011-06-04T08:49:45Z</time>
      </trkpt>
      <trkpt lat="45.95453" lon="6.48586">
        <ele>1621</ele>
        <time>2011-06-04T08:49:47Z</time>
      </trkpt>
      <trkpt lat="45.95457" lon="6.48592">
        <ele>1621</ele>
        <time>2011-06-04T08:49:49Z</time>
      </trkpt>
      <trkpt lat="45.9546" lon="6.48599">
        <ele>1621</ele>
        <time>2011-06-04T08:49:51Z</time>
      </trkpt>
      <trkpt lat="45.95463" lon="6.48605">
        <ele>1621</ele>
        <time>2011-06-04T08:49:53Z</time>
      </trkpt>
      <trkpt lat="45.95466" lon="6.48611">
        <ele>1621</ele>
        <time>2011-06-04T08:49:55Z</time>
      </trkpt>
      <trkpt lat="45.95469" lon="6.48619">
        <ele>1621</ele>
        <time>2011-06-04T08:49:57Z</time>
      </trkpt>
      <trkpt lat="45.95472" lon="6.48625">
        <ele>1621</ele>
        <time>2011-06-04T08:49:59Z</time>
      </trkpt>
      <trkpt lat="45.95476" lon="6.48632">
        <ele>1621</ele>
        <time>2011-06-04T08:50:01Z</time>
      </trkpt>
      <trkpt lat="45.9548" lon="6.48637">
        <ele>1621</ele>
        <time>2011-06-04T08:50:03Z</time>
      </trkpt>
      <trkpt lat="45.95484" lon="6.48643">
        <ele>1621</ele>
        <time>2011-06-04T08:50:05Z</time>
      </trkpt>
      <trkpt lat="45.95488" lon="6.48649">
        <ele>1621</ele>
        <time>2011-06-04T08:50:07Z</time>
      </trkpt>
      <trkpt lat="45.95492" lon="6.48654">
        <ele>1621</ele>
        <time>2011-06-04T08:50:09Z</time>
      </trkpt>
      <trkpt lat="45.95494" lon="6.48662">
        <ele>1621</ele>
        <time>2011-06-04T08:50:11Z</time>
      </trkpt>
      <trkpt lat="45.95495" lon="6.4867">
        <ele>1621</ele>
        <time>2011-06-04T08:50:13Z</time>
      </trkpt>
      <trkpt lat="45.95496" lon="6.48678">
        <ele>1621</ele>
        <time>2011-06-04T08:50:15Z</time>
      </trkpt>
      <trkpt lat="45.95497" lon="6.48686">
        <ele>1621</ele>
        <time>2011-06-04T08:50:17Z</time>
      </trkpt>
      <trkpt lat="45.95499" lon="6.48694">
        <ele>1621</ele>
        <time>2011-06-04T08:50:19Z</time>
      </trkpt>
      <trkpt lat="45.95503" lon="6.48699">
        <ele>1621</ele>
        <time>2011-06-04T08:50:21Z</time>
      </trkpt>
      <trkpt lat="45.95506" lon="6.48702">
        <ele>1621</ele>
        <time>2011-06-04T08:50:23Z</time>
      </trkpt>
      <trkpt lat="45.9551" lon="6.48705">
        <ele>1621</ele>
        <time>2011-06-04T08:50:25Z</time>
      </trkpt>
      <trkpt lat="45.95512" lon="6.48706">
        <ele>1621</ele>
        <time>2011-06-04T08:50:27Z</time>
      </trkpt>
      <trkpt lat="45.95511" lon="6.48705">
        <ele>1621</ele>
        <time>2011-06-04T08:50:40Z</time>
      </trkpt>
      <trkpt lat="45.95513" lon="6.48705">
        <ele>1621</ele>
        <time>2011-06-04T08:50:52Z</time>
      </trkpt>
      <trkpt lat="45.95515" lon="6.48706">
        <ele>1621</ele>
        <time>2011-06-04T08:50:54Z</time>
      </trkpt>
      <trkpt lat="45.95518" lon="6.48706">
        <ele>1621</ele>
        <time>2011-06-04T08:50:56Z</time>
      </trkpt>
      <trkpt lat="45.9552" lon="6.48707">
        <ele>1621</ele>
        <time>2011-06-04T08:50:58Z</time>
      </trkpt>
      <trkpt lat="45.95523" lon="6.48708">
        <ele>1621</ele>
        <time>2011-06-04T08:51:00Z</time>
      </trkpt>
      <trkpt lat="45.95526" lon="6.48708">
        <ele>1621</ele>
        <time>2011-06-04T08:51:02Z</time>
      </trkpt>
      <trkpt lat="45.95527" lon="6.48709">
        <ele>1621</ele>
        <time>2011-06-04T08:51:04Z</time>
      </trkpt>
      <trkpt lat="45.95529" lon="6.4871">
        <ele>1624</ele>
        <time>2011-06-04T08:53:42Z</time>
      </trkpt>
      <trkpt lat="45.95532" lon="6.48711">
        <ele>1624</ele>
        <time>2011-06-04T08:53:44Z</time>
      </trkpt>
      <trkpt lat="45.95537" lon="6.48711">
        <ele>1624</ele>
        <time>2011-06-04T08:53:46Z</time>
      </trkpt>
      <trkpt lat="45.95542" lon="6.4871">
        <ele>1624</ele>
        <time>2011-06-04T08:53:48Z</time>
      </trkpt>
      <trkpt lat="45.95548" lon="6.48709">
        <ele>1624</ele>
        <time>2011-06-04T08:53:50Z</time>
      </trkpt>
      <trkpt lat="45.95553" lon="6.48707">
        <ele>1624</ele>
        <time>2011-06-04T08:53:52Z</time>
      </trkpt>
      <trkpt lat="45.95558" lon="6.48707">
        <ele>1624</ele>
        <time>2011-06-04T08:53:54Z</time>
      </trkpt>
      <trkpt lat="45.95563" lon="6.48706">
        <ele>1624</ele>
        <time>2011-06-04T08:53:56Z</time>
      </trkpt>
      <trkpt lat="45.95568" lon="6.48708">
        <ele>1624</ele>
        <time>2011-06-04T08:53:58Z</time>
      </trkpt>
      <trkpt lat="45.95573" lon="6.48709">
        <ele>1624</ele>
        <time>2011-06-04T08:54:00Z</time>
      </trkpt>
      <trkpt lat="45.95577" lon="6.48711">
        <ele>1624</ele>
        <time>2011-06-04T08:54:02Z</time>
      </trkpt>
      <trkpt lat="45.95581" lon="6.48713">
        <ele>1624</ele>
        <time>2011-06-04T08:54:04Z</time>
      </trkpt>
      <trkpt lat="45.95585" lon="6.48715">
        <ele>1624</ele>
        <time>2011-06-04T08:54:06Z</time>
      </trkpt>
      <trkpt lat="45.95589" lon="6.48717">
        <ele>1624</ele>
        <time>2011-06-04T08:54:08Z</time>
      </trkpt>
      <trkpt lat="45.95593" lon="6.4872">
        <ele>1624</ele>
        <time>2011-06-04T08:54:10Z</time>
      </trkpt>
      <trkpt lat="45.95597" lon="6.48721">
        <ele>1624</ele>
        <time>2011-06-04T08:54:12Z</time>
      </trkpt>
      <trkpt lat="45.95602" lon="6.48722">
        <ele>1624</ele>
        <time>2011-06-04T08:54:14Z</time>
      </trkpt>
      <trkpt lat="45.95607" lon="6.48723">
        <ele>1624</ele>
        <time>2011-06-04T08:54:16Z</time>
      </trkpt>
      <trkpt lat="45.95612" lon="6.48724">
        <ele>1624</ele>
        <time>2011-06-04T08:54:18Z</time>
      </trkpt>
      <trkpt lat="45.9562" lon="6.48725">
        <ele>1624</ele>
        <time>2011-06-04T08:54:21Z</time>
      </trkpt>
      <trkpt lat="45.95625" lon="6.48727">
        <ele>1624</ele>
        <time>2011-06-04T08:54:23Z</time>
      </trkpt>
      <trkpt lat="45.95631" lon="6.48728">
        <ele>1624</ele>
        <time>2011-06-04T08:54:25Z</time>
      </trkpt>
      <trkpt lat="45.95636" lon="6.4873">
        <ele>1624</ele>
        <time>2011-06-04T08:54:27Z</time>
      </trkpt>
      <trkpt lat="45.95641" lon="6.48733">
        <ele>1624</ele>
        <time>2011-06-04T08:54:29Z</time>
      </trkpt>
      <trkpt lat="45.95647" lon="6.48735">
        <ele>1624</ele>
        <time>2011-06-04T08:54:31Z</time>
      </trkpt>
      <trkpt lat="45.95652" lon="6.48737">
        <ele>1624</ele>
        <time>2011-06-04T08:54:33Z</time>
      </trkpt>
      <trkpt lat="45.95657" lon="6.4874">
        <ele>1624</ele>
        <time>2011-06-04T08:54:35Z</time>
      </trkpt>
      <trkpt lat="45.95662" lon="6.48744">
        <ele>1624</ele>
        <time>2011-06-04T08:54:37Z</time>
      </trkpt>
      <trkpt lat="45.95667" lon="6.48749">
        <ele>1624</ele>
        <time>2011-06-04T08:54:39Z</time>
      </trkpt>
      <trkpt lat="45.95674" lon="6.48756">
        <ele>1623</ele>
        <time>2011-06-04T08:54:42Z</time>
      </trkpt>
      <trkpt lat="45.9568" lon="6.4876">
        <ele>1623</ele>
        <time>2011-06-04T08:54:44Z</time>
      </trkpt>
      <trkpt lat="45.95686" lon="6.48765">
        <ele>1623</ele>
        <time>2011-06-04T08:54:46Z</time>
      </trkpt>
      <trkpt lat="45.95693" lon="6.48767">
        <ele>1623</ele>
        <time>2011-06-04T08:54:48Z</time>
      </trkpt>
      <trkpt lat="45.957" lon="6.48768">
        <ele>1623</ele>
        <time>2011-06-04T08:54:50Z</time>
      </trkpt>
      <trkpt lat="45.95708" lon="6.48768">
        <ele>1623</ele>
        <time>2011-06-04T08:54:52Z</time>
      </trkpt>
      <trkpt lat="45.95716" lon="6.48772">
        <ele>1623</ele>
        <time>2011-06-04T08:54:54Z</time>
      </trkpt>
      <trkpt lat="45.95724" lon="6.48779">
        <ele>1623</ele>
        <time>2011-06-04T08:54:56Z</time>
      </trkpt>
      <trkpt lat="45.95733" lon="6.48781">
        <ele>1623</ele>
        <time>2011-06-04T08:54:58Z</time>
      </trkpt>
      <trkpt lat="45.95745" lon="6.48779">
        <ele>1622</ele>
        <time>2011-06-04T08:55:00Z</time>
      </trkpt>
      <trkpt lat="45.95757" lon="6.48772">
        <ele>1621</ele>
        <time>2011-06-04T08:55:02Z</time>
      </trkpt>
      <trkpt lat="45.95773" lon="6.48766">
        <ele>1619</ele>
        <time>2011-06-04T08:55:05Z</time>
      </trkpt>
      <trkpt lat="45.95784" lon="6.48767">
        <ele>1618</ele>
        <time>2011-06-04T08:55:07Z</time>
      </trkpt>
      <trkpt lat="45.95793" lon="6.48778">
        <ele>1616</ele>
        <time>2011-06-04T08:55:09Z</time>
      </trkpt>
      <trkpt lat="45.95799" lon="6.48794">
        <ele>1615</ele>
        <time>2011-06-04T08:55:11Z</time>
      </trkpt>
      <trkpt lat="45.95803" lon="6.4881">
        <ele>1614</ele>
        <time>2011-06-04T08:55:13Z</time>
      </trkpt>
      <trkpt lat="45.95807" lon="6.48824">
        <ele>1613</ele>
        <time>2011-06-04T08:55:15Z</time>
      </trkpt>
      <trkpt lat="45.95814" lon="6.48834">
        <ele>1613</ele>
        <time>2011-06-04T08:55:17Z</time>
      </trkpt>
      <trkpt lat="45.95821" lon="6.48842">
        <ele>1613</ele>
        <time>2011-06-04T08:55:19Z</time>
      </trkpt>
      <trkpt lat="45.95826" lon="6.48851">
        <ele>1613</ele>
        <time>2011-06-04T08:55:21Z</time>
      </trkpt>
      <trkpt lat="45.9583" lon="6.48862">
        <ele>1613</ele>
        <time>2011-06-04T08:55:23Z</time>
      </trkpt>
      <trkpt lat="45.95831" lon="6.48873">
        <ele>1613</ele>
        <time>2011-06-04T08:55:25Z</time>
      </trkpt>
      <trkpt lat="45.95834" lon="6.48884">
        <ele>1613</ele>
        <time>2011-06-04T08:55:27Z</time>
      </trkpt>
      <trkpt lat="45.95839" lon="6.48899">
        <ele>1613</ele>
        <time>2011-06-04T08:55:30Z</time>
      </trkpt>
      <trkpt lat="45.95844" lon="6.4891">
        <ele>1613</ele>
        <time>2011-06-04T08:55:32Z</time>
      </trkpt>
      <trkpt lat="45.95848" lon="6.48922">
        <ele>1613</ele>
        <time>2011-06-04T08:55:35Z</time>
      </trkpt>
      <trkpt lat="45.95851" lon="6.48944">
        <ele>1613</ele>
        <time>2011-06-04T08:55:37Z</time>
      </trkpt>
      <trkpt lat="45.95853" lon="6.48959">
        <ele>1612</ele>
        <time>2011-06-04T08:55:39Z</time>
      </trkpt>
      <trkpt lat="45.95858" lon="6.48975">
        <ele>1612</ele>
        <time>2011-06-04T08:55:41Z</time>
      </trkpt>
      <trkpt lat="45.95865" lon="6.4899">
        <ele>1611</ele>
        <time>2011-06-04T08:55:43Z</time>
      </trkpt>
      <trkpt lat="45.95874" lon="6.49009">
        <ele>1610</ele>
        <time>2011-06-04T08:55:45Z</time>
      </trkpt>
      <trkpt lat="45.95878" lon="6.4903">
        <ele>1608</ele>
        <time>2011-06-04T08:55:47Z</time>
      </trkpt>
      <trkpt lat="45.9588" lon="6.49052">
        <ele>1607</ele>
        <time>2011-06-04T08:55:49Z</time>
      </trkpt>
      <trkpt lat="45.95884" lon="6.49073">
        <ele>1605</ele>
        <time>2011-06-04T08:55:51Z</time>
      </trkpt>
      <trkpt lat="45.95891" lon="6.4909">
        <ele>1605</ele>
        <time>2011-06-04T08:55:53Z</time>
      </trkpt>
      <trkpt lat="45.95901" lon="6.49097">
        <ele>1605</ele>
        <time>2011-06-04T08:55:55Z</time>
      </trkpt>
      <trkpt lat="45.95914" lon="6.49098">
        <ele>1604</ele>
        <time>2011-06-04T08:55:57Z</time>
      </trkpt>
      <trkpt lat="45.95926" lon="6.49105">
        <ele>1603</ele>
        <time>2011-06-04T08:55:59Z</time>
      </trkpt>
      <trkpt lat="45.95938" lon="6.49114">
        <ele>1602</ele>
        <time>2011-06-04T08:56:01Z</time>
      </trkpt>
      <trkpt lat="45.95953" lon="6.49117">
        <ele>1600</ele>
        <time>2011-06-04T08:56:03Z</time>
      </trkpt>
      <trkpt lat="45.95969" lon="6.49115">
        <ele>1598</ele>
        <time>2011-06-04T08:56:05Z</time>
      </trkpt>
      <trkpt lat="45.95982" lon="6.49102">
        <ele>1597</ele>
        <time>2011-06-04T08:56:07Z</time>
      </trkpt>
      <trkpt lat="45.95994" lon="6.49094">
        <ele>1597</ele>
        <time>2011-06-04T08:56:09Z</time>
      </trkpt>
      <trkpt lat="45.96004" lon="6.49095">
        <ele>1597</ele>
        <time>2011-06-04T08:56:11Z</time>
      </trkpt>
      <trkpt lat="45.9601" lon="6.49102">
        <ele>1596</ele>
        <time>2011-06-04T08:56:13Z</time>
      </trkpt>
      <trkpt lat="45.96007" lon="6.49111">
        <ele>1594</ele>
        <time>2011-06-04T08:56:15Z</time>
      </trkpt>
      <trkpt lat="45.95997" lon="6.4912">
        <ele>1594</ele>
        <time>2011-06-04T08:56:17Z</time>
      </trkpt>
      <trkpt lat="45.95988" lon="6.49131">
        <ele>1593</ele>
        <time>2011-06-04T08:56:19Z</time>
      </trkpt>
      <trkpt lat="45.95982" lon="6.49145">
        <ele>1592</ele>
        <time>2011-06-04T08:56:21Z</time>
      </trkpt>
      <trkpt lat="45.95979" lon="6.49161">
        <ele>1592</ele>
        <time>2011-06-04T08:56:23Z</time>
      </trkpt>
      <trkpt lat="45.95979" lon="6.49176">
        <ele>1592</ele>
        <time>2011-06-04T08:56:25Z</time>
      </trkpt>
      <trkpt lat="45.95982" lon="6.49194">
        <ele>1592</ele>
        <time>2011-06-04T08:56:27Z</time>
      </trkpt>
      <trkpt lat="45.95989" lon="6.4921">
        <ele>1592</ele>
        <time>2011-06-04T08:56:29Z</time>
      </trkpt>
      <trkpt lat="45.96003" lon="6.49235">
        <ele>1592</ele>
        <time>2011-06-04T08:56:32Z</time>
      </trkpt>
      <trkpt lat="45.96009" lon="6.49253">
        <ele>1592</ele>
        <time>2011-06-04T08:56:34Z</time>
      </trkpt>
      <trkpt lat="45.96017" lon="6.4927">
        <ele>1592</ele>
        <time>2011-06-04T08:56:36Z</time>
      </trkpt>
      <trkpt lat="45.96027" lon="6.49286">
        <ele>1590</ele>
        <time>2011-06-04T08:56:38Z</time>
      </trkpt>
      <trkpt lat="45.96036" lon="6.49302">
        <ele>1588</ele>
        <time>2011-06-04T08:56:40Z</time>
      </trkpt>
      <trkpt lat="45.96044" lon="6.49321">
        <ele>1586</ele>
        <time>2011-06-04T08:56:42Z</time>
      </trkpt>
      <trkpt lat="45.9605" lon="6.49343">
        <ele>1585</ele>
        <time>2011-06-04T08:56:44Z</time>
      </trkpt>
      <trkpt lat="45.96058" lon="6.49363">
        <ele>1584</ele>
        <time>2011-06-04T08:56:46Z</time>
      </trkpt>
      <trkpt lat="45.96063" lon="6.49383">
        <ele>1583</ele>
        <time>2011-06-04T08:56:48Z</time>
      </trkpt>
      <trkpt lat="45.96066" lon="6.49403">
        <ele>1582</ele>
        <time>2011-06-04T08:56:50Z</time>
      </trkpt>
      <trkpt lat="45.96066" lon="6.49419">
        <ele>1582</ele>
        <time>2011-06-04T08:56:52Z</time>
      </trkpt>
      <trkpt lat="45.96063" lon="6.49436">
        <ele>1582</ele>
        <time>2011-06-04T08:56:54Z</time>
      </trkpt>
      <trkpt lat="45.96058" lon="6.49455">
        <ele>1582</ele>
        <time>2011-06-04T08:56:56Z</time>
      </trkpt>
      <trkpt lat="45.9605" lon="6.49474">
        <ele>1581</ele>
        <time>2011-06-04T08:56:58Z</time>
      </trkpt>
      <trkpt lat="45.96044" lon="6.49493">
        <ele>1580</ele>
        <time>2011-06-04T08:57:00Z</time>
      </trkpt>
      <trkpt lat="45.96041" lon="6.49514">
        <ele>1579</ele>
        <time>2011-06-04T08:57:02Z</time>
      </trkpt>
      <trkpt lat="45.96041" lon="6.49536">
        <ele>1579</ele>
        <time>2011-06-04T08:57:04Z</time>
      </trkpt>
      <trkpt lat="45.96044" lon="6.49556">
        <ele>1577</ele>
        <time>2011-06-04T08:57:06Z</time>
      </trkpt>
      <trkpt lat="45.96049" lon="6.49575">
        <ele>1575</ele>
        <time>2011-06-04T08:57:08Z</time>
      </trkpt>
      <trkpt lat="45.96056" lon="6.49592">
        <ele>1573</ele>
        <time>2011-06-04T08:57:10Z</time>
      </trkpt>
      <trkpt lat="45.96063" lon="6.49611">
        <ele>1571</ele>
        <time>2011-06-04T08:57:12Z</time>
      </trkpt>
      <trkpt lat="45.96069" lon="6.49632">
        <ele>1570</ele>
        <time>2011-06-04T08:57:14Z</time>
      </trkpt>
      <trkpt lat="45.9608" lon="6.49662">
        <ele>1568</ele>
        <time>2011-06-04T08:57:17Z</time>
      </trkpt>
      <trkpt lat="45.96093" lon="6.4969">
        <ele>1567</ele>
        <time>2011-06-04T08:57:20Z</time>
      </trkpt>
      <trkpt lat="45.961" lon="6.4971">
        <ele>1565</ele>
        <time>2011-06-04T08:57:22Z</time>
      </trkpt>
      <trkpt lat="45.96109" lon="6.49728">
        <ele>1563</ele>
        <time>2011-06-04T08:57:24Z</time>
      </trkpt>
      <trkpt lat="45.9612" lon="6.49745">
        <ele>1562</ele>
        <time>2011-06-04T08:57:26Z</time>
      </trkpt>
      <trkpt lat="45.96131" lon="6.49758">
        <ele>1561</ele>
        <time>2011-06-04T08:57:28Z</time>
      </trkpt>
      <trkpt lat="45.96141" lon="6.49769">
        <ele>1560</ele>
        <time>2011-06-04T08:57:30Z</time>
      </trkpt>
      <trkpt lat="45.9615" lon="6.49777">
        <ele>1560</ele>
        <time>2011-06-04T08:57:32Z</time>
      </trkpt>
      <trkpt lat="45.96158" lon="6.49787">
        <ele>1560</ele>
        <time>2011-06-04T08:57:34Z</time>
      </trkpt>
      <trkpt lat="45.96167" lon="6.49793">
        <ele>1560</ele>
        <time>2011-06-04T08:57:36Z</time>
      </trkpt>
      <trkpt lat="45.96175" lon="6.498">
        <ele>1560</ele>
        <time>2011-06-04T08:57:38Z</time>
      </trkpt>
      <trkpt lat="45.96182" lon="6.49809">
        <ele>1560</ele>
        <time>2011-06-04T08:57:40Z</time>
      </trkpt>
      <trkpt lat="45.9619" lon="6.49819">
        <ele>1558</ele>
        <time>2011-06-04T08:57:42Z</time>
      </trkpt>
      <trkpt lat="45.96197" lon="6.4983">
        <ele>1558</ele>
        <time>2011-06-04T08:57:44Z</time>
      </trkpt>
      <trkpt lat="45.96205" lon="6.49841">
        <ele>1558</ele>
        <time>2011-06-04T08:57:46Z</time>
      </trkpt>
      <trkpt lat="45.96209" lon="6.49848">
        <ele>1558</ele>
        <time>2011-06-04T08:57:48Z</time>
      </trkpt>
      <trkpt lat="45.96213" lon="6.49853">
        <ele>1558</ele>
        <time>2011-06-04T08:57:50Z</time>
      </trkpt>
      <trkpt lat="45.96217" lon="6.49859">
        <ele>1558</ele>
        <time>2011-06-04T08:57:52Z</time>
      </trkpt>
      <trkpt lat="45.96222" lon="6.49864">
        <ele>1558</ele>
        <time>2011-06-04T08:57:54Z</time>
      </trkpt>
      <trkpt lat="45.96227" lon="6.4987">
        <ele>1558</ele>
        <time>2011-06-04T08:57:56Z</time>
      </trkpt>
      <trkpt lat="45.96233" lon="6.49878">
        <ele>1558</ele>
        <time>2011-06-04T08:57:58Z</time>
      </trkpt>
      <trkpt lat="45.9624" lon="6.49885">
        <ele>1558</ele>
        <time>2011-06-04T08:58:00Z</time>
      </trkpt>
      <trkpt lat="45.96246" lon="6.49895">
        <ele>1558</ele>
        <time>2011-06-04T08:58:02Z</time>
      </trkpt>
      <trkpt lat="45.96252" lon="6.49906">
        <ele>1558</ele>
        <time>2011-06-04T08:58:04Z</time>
      </trkpt>
      <trkpt lat="45.96256" lon="6.49918">
        <ele>1558</ele>
        <time>2011-06-04T08:58:06Z</time>
      </trkpt>
      <trkpt lat="45.96261" lon="6.49937">
        <ele>1558</ele>
        <time>2011-06-04T08:58:09Z</time>
      </trkpt>
      <trkpt lat="45.96266" lon="6.4995">
        <ele>1557</ele>
        <time>2011-06-04T08:58:11Z</time>
      </trkpt>
      <trkpt lat="45.96271" lon="6.49964">
        <ele>1555</ele>
        <time>2011-06-04T08:58:13Z</time>
      </trkpt>
      <trkpt lat="45.96276" lon="6.49978">
        <ele>1554</ele>
        <time>2011-06-04T08:58:15Z</time>
      </trkpt>
      <trkpt lat="45.96282" lon="6.49988">
        <ele>1554</ele>
        <time>2011-06-04T08:58:17Z</time>
      </trkpt>
      <trkpt lat="45.96288" lon="6.49995">
        <ele>1554</ele>
        <time>2011-06-04T08:58:19Z</time>
      </trkpt>
      <trkpt lat="45.96294" lon="6.49999">
        <ele>1554</ele>
        <time>2011-06-04T08:58:21Z</time>
      </trkpt>
      <trkpt lat="45.96301" lon="6.50005">
        <ele>1554</ele>
        <time>2011-06-04T08:58:23Z</time>
      </trkpt>
      <trkpt lat="45.96307" lon="6.50012">
        <ele>1554</ele>
        <time>2011-06-04T08:58:25Z</time>
      </trkpt>
      <trkpt lat="45.96313" lon="6.5002">
        <ele>1554</ele>
        <time>2011-06-04T08:58:27Z</time>
      </trkpt>
      <trkpt lat="45.96318" lon="6.50028">
        <ele>1554</ele>
        <time>2011-06-04T08:58:29Z</time>
      </trkpt>
      <trkpt lat="45.96323" lon="6.50035">
        <ele>1554</ele>
        <time>2011-06-04T08:58:31Z</time>
      </trkpt>
      <trkpt lat="45.96328" lon="6.50043">
        <ele>1554</ele>
        <time>2011-06-04T08:58:33Z</time>
      </trkpt>
      <trkpt lat="45.96333" lon="6.50052">
        <ele>1554</ele>
        <time>2011-06-04T08:58:35Z</time>
      </trkpt>
      <trkpt lat="45.96337" lon="6.5006">
        <ele>1554</ele>
        <time>2011-06-04T08:58:37Z</time>
      </trkpt>
      <trkpt lat="45.96341" lon="6.50071">
        <ele>1554</ele>
        <time>2011-06-04T08:58:39Z</time>
      </trkpt>
      <trkpt lat="45.96344" lon="6.50082">
        <ele>1553</ele>
        <time>2011-06-04T08:58:41Z</time>
      </trkpt>
      <trkpt lat="45.96345" lon="6.50095">
        <ele>1552</ele>
        <time>2011-06-04T08:58:43Z</time>
      </trkpt>
      <trkpt lat="45.96347" lon="6.50109">
        <ele>1551</ele>
        <time>2011-06-04T08:58:45Z</time>
      </trkpt>
      <trkpt lat="45.96348" lon="6.50122">
        <ele>1551</ele>
        <time>2011-06-04T08:58:47Z</time>
      </trkpt>
      <trkpt lat="45.96349" lon="6.50136">
        <ele>1550</ele>
        <time>2011-06-04T08:58:49Z</time>
      </trkpt>
      <trkpt lat="45.9635" lon="6.5015">
        <ele>1550</ele>
        <time>2011-06-04T08:58:51Z</time>
      </trkpt>
      <trkpt lat="45.96353" lon="6.50163">
        <ele>1549</ele>
        <time>2011-06-04T08:58:53Z</time>
      </trkpt>
      <trkpt lat="45.96355" lon="6.50178">
        <ele>1548</ele>
        <time>2011-06-04T08:58:55Z</time>
      </trkpt>
      <trkpt lat="45.96356" lon="6.50192">
        <ele>1548</ele>
        <time>2011-06-04T08:58:57Z</time>
      </trkpt>
      <trkpt lat="45.96356" lon="6.50207">
        <ele>1547</ele>
        <time>2011-06-04T08:58:59Z</time>
      </trkpt>
      <trkpt lat="45.96358" lon="6.50225">
        <ele>1546</ele>
        <time>2011-06-04T08:59:01Z</time>
      </trkpt>
      <trkpt lat="45.96362" lon="6.50245">
        <ele>1544</ele>
        <time>2011-06-04T08:59:03Z</time>
      </trkpt>
      <trkpt lat="45.96366" lon="6.50268">
        <ele>1542</ele>
        <time>2011-06-04T08:59:05Z</time>
      </trkpt>
      <trkpt lat="45.96364" lon="6.50291">
        <ele>1540</ele>
        <time>2011-06-04T08:59:07Z</time>
      </trkpt>
      <trkpt lat="45.96364" lon="6.50314">
        <ele>1538</ele>
        <time>2011-06-04T08:59:09Z</time>
      </trkpt>
      <trkpt lat="45.96371" lon="6.50336">
        <ele>1536</ele>
        <time>2011-06-04T08:59:11Z</time>
      </trkpt>
      <trkpt lat="45.9638" lon="6.50354">
        <ele>1535</ele>
        <time>2011-06-04T08:59:13Z</time>
      </trkpt>
      <trkpt lat="45.96393" lon="6.50366">
        <ele>1534</ele>
        <time>2011-06-04T08:59:15Z</time>
      </trkpt>
      <trkpt lat="45.96404" lon="6.50376">
        <ele>1534</ele>
        <time>2011-06-04T08:59:17Z</time>
      </trkpt>
      <trkpt lat="45.96408" lon="6.5039">
        <ele>1533</ele>
        <time>2011-06-04T08:59:19Z</time>
      </trkpt>
      <trkpt lat="45.96409" lon="6.50408">
        <ele>1533</ele>
        <time>2011-06-04T08:59:21Z</time>
      </trkpt>
      <trkpt lat="45.96408" lon="6.50427">
        <ele>1531</ele>
        <time>2011-06-04T08:59:23Z</time>
      </trkpt>
      <trkpt lat="45.96404" lon="6.50445">
        <ele>1529</ele>
        <time>2011-06-04T08:59:25Z</time>
      </trkpt>
      <trkpt lat="45.96395" lon="6.5047">
        <ele>1526</ele>
        <time>2011-06-04T08:59:28Z</time>
      </trkpt>
      <trkpt lat="45.96387" lon="6.50483">
        <ele>1525</ele>
        <time>2011-06-04T08:59:30Z</time>
      </trkpt>
      <trkpt lat="45.96377" lon="6.50494">
        <ele>1525</ele>
        <time>2011-06-04T08:59:32Z</time>
      </trkpt>
      <trkpt lat="45.96371" lon="6.50505">
        <ele>1524</ele>
        <time>2011-06-04T08:59:34Z</time>
      </trkpt>
      <trkpt lat="45.96367" lon="6.50514">
        <ele>1524</ele>
        <time>2011-06-04T08:59:36Z</time>
      </trkpt>
      <trkpt lat="45.96368" lon="6.50521">
        <ele>1523</ele>
        <time>2011-06-04T08:59:38Z</time>
      </trkpt>
      <trkpt lat="45.96371" lon="6.50526">
        <ele>1522</ele>
        <time>2011-06-04T08:59:40Z</time>
      </trkpt>
      <trkpt lat="45.96373" lon="6.5053">
        <ele>1522</ele>
        <time>2011-06-04T08:59:43Z</time>
      </trkpt>
      <trkpt lat="45.96375" lon="6.50531">
        <ele>1522</ele>
        <time>2011-06-04T08:59:45Z</time>
      </trkpt>
      <trkpt lat="45.96376" lon="6.50532">
        <ele>1522</ele>
        <time>2011-06-04T08:59:47Z</time>
      </trkpt>
      <trkpt lat="45.96379" lon="6.50535">
        <ele>1522</ele>
        <time>2011-06-04T08:59:49Z</time>
      </trkpt>
      <trkpt lat="45.9638" lon="6.50541">
        <ele>1522</ele>
        <time>2011-06-04T08:59:51Z</time>
      </trkpt>
      <trkpt lat="45.96382" lon="6.50547">
        <ele>1522</ele>
        <time>2011-06-04T08:59:53Z</time>
      </trkpt>
      <trkpt lat="45.96384" lon="6.50553">
        <ele>1522</ele>
        <time>2011-06-04T08:59:55Z</time>
      </trkpt>
      <trkpt lat="45.96387" lon="6.5056">
        <ele>1522</ele>
        <time>2011-06-04T08:59:57Z</time>
      </trkpt>
      <trkpt lat="45.9639" lon="6.50565">
        <ele>1522</ele>
        <time>2011-06-04T08:59:59Z</time>
      </trkpt>
      <trkpt lat="45.96392" lon="6.50568">
        <ele>1523</ele>
        <time>2011-06-04T09:00:01Z</time>
      </trkpt>
      <trkpt lat="45.96395" lon="6.50573">
        <ele>1524</ele>
        <time>2011-06-04T09:00:03Z</time>
      </trkpt>
      <trkpt lat="45.96397" lon="6.50578">
        <ele>1526</ele>
        <time>2011-06-04T09:00:05Z</time>
      </trkpt>
      <trkpt lat="45.964" lon="6.50581">
        <ele>1527</ele>
        <time>2011-06-04T09:00:07Z</time>
      </trkpt>
      <trkpt lat="45.96403" lon="6.50586">
        <ele>1527</ele>
        <time>2011-06-04T09:00:09Z</time>
      </trkpt>
      <trkpt lat="45.96406" lon="6.50588">
        <ele>1528</ele>
        <time>2011-06-04T09:00:11Z</time>
      </trkpt>
      <trkpt lat="45.9641" lon="6.50592">
        <ele>1528</ele>
        <time>2011-06-04T09:00:13Z</time>
      </trkpt>
      <trkpt lat="45.96413" lon="6.50596">
        <ele>1529</ele>
        <time>2011-06-04T09:00:15Z</time>
      </trkpt>
      <trkpt lat="45.96416" lon="6.50599">
        <ele>1529</ele>
        <time>2011-06-04T09:00:17Z</time>
      </trkpt>
      <trkpt lat="45.9642" lon="6.50602">
        <ele>1529</ele>
        <time>2011-06-04T09:00:19Z</time>
      </trkpt>
      <trkpt lat="45.96424" lon="6.50606">
        <ele>1530</ele>
        <time>2011-06-04T09:00:21Z</time>
      </trkpt>
      <trkpt lat="45.96429" lon="6.5061">
        <ele>1530</ele>
        <time>2011-06-04T09:00:23Z</time>
      </trkpt>
      <trkpt lat="45.96433" lon="6.50612">
        <ele>1530</ele>
        <time>2011-06-04T09:00:25Z</time>
      </trkpt>
      <trkpt lat="45.96436" lon="6.50615">
        <ele>1531</ele>
        <time>2011-06-04T09:00:27Z</time>
      </trkpt>
      <trkpt lat="45.96439" lon="6.50618">
        <ele>1531</ele>
        <time>2011-06-04T09:00:29Z</time>
      </trkpt>
      <trkpt lat="45.96443" lon="6.50621">
        <ele>1532</ele>
        <time>2011-06-04T09:00:31Z</time>
      </trkpt>
      <trkpt lat="45.96446" lon="6.50625">
        <ele>1532</ele>
        <time>2011-06-04T09:00:33Z</time>
      </trkpt>
      <trkpt lat="45.96448" lon="6.50629">
        <ele>1533</ele>
        <time>2011-06-04T09:00:36Z</time>
      </trkpt>
      <trkpt lat="45.9645" lon="6.5063">
        <ele>1534</ele>
        <time>2011-06-04T09:00:38Z</time>
      </trkpt>
      <trkpt lat="45.96451" lon="6.50631">
        <ele>1534</ele>
        <time>2011-06-04T09:00:40Z</time>
      </trkpt>
      <trkpt lat="45.96453" lon="6.50632">
        <ele>1534</ele>
        <time>2011-06-04T09:00:42Z</time>
      </trkpt>
      <trkpt lat="45.96455" lon="6.50636">
        <ele>1534</ele>
        <time>2011-06-04T09:00:55Z</time>
      </trkpt>
      <trkpt lat="45.96458" lon="6.50637">
        <ele>1534</ele>
        <time>2011-06-04T09:00:57Z</time>
      </trkpt>
      <trkpt lat="45.96461" lon="6.5064">
        <ele>1534</ele>
        <time>2011-06-04T09:00:59Z</time>
      </trkpt>
      <trkpt lat="45.96464" lon="6.50643">
        <ele>1534</ele>
        <time>2011-06-04T09:01:01Z</time>
      </trkpt>
      <trkpt lat="45.96468" lon="6.50647">
        <ele>1535</ele>
        <time>2011-06-04T09:01:03Z</time>
      </trkpt>
      <trkpt lat="45.96473" lon="6.50651">
        <ele>1535</ele>
        <time>2011-06-04T09:01:05Z</time>
      </trkpt>
      <trkpt lat="45.96478" lon="6.50655">
        <ele>1535</ele>
        <time>2011-06-04T09:01:07Z</time>
      </trkpt>
      <trkpt lat="45.96482" lon="6.50658">
        <ele>1536</ele>
        <time>2011-06-04T09:01:09Z</time>
      </trkpt>
      <trkpt lat="45.96487" lon="6.50661">
        <ele>1536</ele>
        <time>2011-06-04T09:01:11Z</time>
      </trkpt>
      <trkpt lat="45.96491" lon="6.50664">
        <ele>1536</ele>
        <time>2011-06-04T09:01:13Z</time>
      </trkpt>
      <trkpt lat="45.96495" lon="6.50666">
        <ele>1536</ele>
        <time>2011-06-04T09:01:15Z</time>
      </trkpt>
      <trkpt lat="45.965" lon="6.50669">
        <ele>1537</ele>
        <time>2011-06-04T09:01:17Z</time>
      </trkpt>
      <trkpt lat="45.96504" lon="6.50671">
        <ele>1537</ele>
        <time>2011-06-04T09:01:19Z</time>
      </trkpt>
      <trkpt lat="45.96509" lon="6.50673">
        <ele>1537</ele>
        <time>2011-06-04T09:01:21Z</time>
      </trkpt>
      <trkpt lat="45.96515" lon="6.50675">
        <ele>1538</ele>
        <time>2011-06-04T09:01:24Z</time>
      </trkpt>
      <trkpt lat="45.9652" lon="6.50677">
        <ele>1538</ele>
        <time>2011-06-04T09:01:26Z</time>
      </trkpt>
      <trkpt lat="45.96524" lon="6.5068">
        <ele>1538</ele>
        <time>2011-06-04T09:01:28Z</time>
      </trkpt>
      <trkpt lat="45.96529" lon="6.50682">
        <ele>1538</ele>
        <time>2011-06-04T09:01:30Z</time>
      </trkpt>
      <trkpt lat="45.96533" lon="6.50684">
        <ele>1539</ele>
        <time>2011-06-04T09:01:32Z</time>
      </trkpt>
      <trkpt lat="45.96538" lon="6.50686">
        <ele>1539</ele>
        <time>2011-06-04T09:01:34Z</time>
      </trkpt>
      <trkpt lat="45.96542" lon="6.50689">
        <ele>1540</ele>
        <time>2011-06-04T09:01:36Z</time>
      </trkpt>
      <trkpt lat="45.96546" lon="6.50691">
        <ele>1540</ele>
        <time>2011-06-04T09:01:38Z</time>
      </trkpt>
      <trkpt lat="45.96551" lon="6.50694">
        <ele>1541</ele>
        <time>2011-06-04T09:01:40Z</time>
      </trkpt>
      <trkpt lat="45.96555" lon="6.50696">
        <ele>1541</ele>
        <time>2011-06-04T09:01:42Z</time>
      </trkpt>
      <trkpt lat="45.9656" lon="6.50697">
        <ele>1542</ele>
        <time>2011-06-04T09:01:44Z</time>
      </trkpt>
      <trkpt lat="45.96564" lon="6.50701">
        <ele>1543</ele>
        <time>2011-06-04T09:01:46Z</time>
      </trkpt>
      <trkpt lat="45.96568" lon="6.50704">
        <ele>1544</ele>
        <time>2011-06-04T09:01:48Z</time>
      </trkpt>
      <trkpt lat="45.96573" lon="6.50707">
        <ele>1545</ele>
        <time>2011-06-04T09:01:50Z</time>
      </trkpt>
      <trkpt lat="45.96577" lon="6.50712">
        <ele>1545</ele>
        <time>2011-06-04T09:01:52Z</time>
      </trkpt>
      <trkpt lat="45.9658" lon="6.50716">
        <ele>1546</ele>
        <time>2011-06-04T09:01:54Z</time>
      </trkpt>
      <trkpt lat="45.96584" lon="6.5072">
        <ele>1546</ele>
        <time>2011-06-04T09:01:56Z</time>
      </trkpt>
      <trkpt lat="45.96588" lon="6.50724">
        <ele>1546</ele>
        <time>2011-06-04T09:01:58Z</time>
      </trkpt>
      <trkpt lat="45.96592" lon="6.50728">
        <ele>1546</ele>
        <time>2011-06-04T09:02:00Z</time>
      </trkpt>
      <trkpt lat="45.96595" lon="6.50732">
        <ele>1546</ele>
        <time>2011-06-04T09:02:02Z</time>
      </trkpt>
      <trkpt lat="45.966" lon="6.50736">
        <ele>1547</ele>
        <time>2011-06-04T09:02:05Z</time>
      </trkpt>
      <trkpt lat="45.96604" lon="6.50739">
        <ele>1548</ele>
        <time>2011-06-04T09:02:07Z</time>
      </trkpt>
      <trkpt lat="45.96607" lon="6.50742">
        <ele>1548</ele>
        <time>2011-06-04T09:02:09Z</time>
      </trkpt>
      <trkpt lat="45.9661" lon="6.50744">
        <ele>1549</ele>
        <time>2011-06-04T09:02:11Z</time>
      </trkpt>
      <trkpt lat="45.96613" lon="6.50747">
        <ele>1550</ele>
        <time>2011-06-04T09:02:13Z</time>
      </trkpt>
      <trkpt lat="45.96616" lon="6.50749">
        <ele>1551</ele>
        <time>2011-06-04T09:02:15Z</time>
      </trkpt>
      <trkpt lat="45.96619" lon="6.5075">
        <ele>1551</ele>
        <time>2011-06-04T09:02:17Z</time>
      </trkpt>
      <trkpt lat="45.96622" lon="6.50752">
        <ele>1553</ele>
        <time>2011-06-04T09:02:19Z</time>
      </trkpt>
      <trkpt lat="45.96625" lon="6.50753">
        <ele>1554</ele>
        <time>2011-06-04T09:02:21Z</time>
      </trkpt>
      <trkpt lat="45.96628" lon="6.50755">
        <ele>1556</ele>
        <time>2011-06-04T09:02:23Z</time>
      </trkpt>
      <trkpt lat="45.9663" lon="6.50756">
        <ele>1557</ele>
        <time>2011-06-04T09:02:25Z</time>
      </trkpt>
      <trkpt lat="45.96633" lon="6.50758">
        <ele>1559</ele>
        <time>2011-06-04T09:02:27Z</time>
      </trkpt>
      <trkpt lat="45.96636" lon="6.50762">
        <ele>1560</ele>
        <time>2011-06-04T09:02:29Z</time>
      </trkpt>
      <trkpt lat="45.9664" lon="6.50769">
        <ele>1560</ele>
        <time>2011-06-04T09:02:31Z</time>
      </trkpt>
      <trkpt lat="45.96644" lon="6.50773">
        <ele>1560</ele>
        <time>2011-06-04T09:02:33Z</time>
      </trkpt>
      <trkpt lat="45.96647" lon="6.50777">
        <ele>1560</ele>
        <time>2011-06-04T09:02:35Z</time>
      </trkpt>
      <trkpt lat="45.9665" lon="6.50782">
        <ele>1560</ele>
        <time>2011-06-04T09:02:37Z</time>
      </trkpt>
      <trkpt lat="45.96654" lon="6.50786">
        <ele>1560</ele>
        <time>2011-06-04T09:02:39Z</time>
      </trkpt>
      <trkpt lat="45.96657" lon="6.50791">
        <ele>1560</ele>
        <time>2011-06-04T09:02:41Z</time>
      </trkpt>
      <trkpt lat="45.96661" lon="6.50795">
        <ele>1560</ele>
        <time>2011-06-04T09:02:43Z</time>
      </trkpt>
      <trkpt lat="45.96664" lon="6.50799">
        <ele>1560</ele>
        <time>2011-06-04T09:02:45Z</time>
      </trkpt>
      <trkpt lat="45.96668" lon="6.50804">
        <ele>1560</ele>
        <time>2011-06-04T09:02:47Z</time>
      </trkpt>
      <trkpt lat="45.96672" lon="6.50811">
        <ele>1560</ele>
        <time>2011-06-04T09:02:50Z</time>
      </trkpt>
      <trkpt lat="45.96674" lon="6.50815">
        <ele>1560</ele>
        <time>2011-06-04T09:02:52Z</time>
      </trkpt>
      <trkpt lat="45.96676" lon="6.50819">
        <ele>1560</ele>
        <time>2011-06-04T09:02:54Z</time>
      </trkpt>
      <trkpt lat="45.96678" lon="6.50823">
        <ele>1561</ele>
        <time>2011-06-04T09:02:56Z</time>
      </trkpt>
      <trkpt lat="45.9668" lon="6.50827">
        <ele>1562</ele>
        <time>2011-06-04T09:02:58Z</time>
      </trkpt>
      <trkpt lat="45.96681" lon="6.50831">
        <ele>1564</ele>
        <time>2011-06-04T09:03:00Z</time>
      </trkpt>
      <trkpt lat="45.96683" lon="6.50836">
        <ele>1566</ele>
        <time>2011-06-04T09:03:02Z</time>
      </trkpt>
      <trkpt lat="45.96685" lon="6.5084">
        <ele>1567</ele>
        <time>2011-06-04T09:03:04Z</time>
      </trkpt>
      <trkpt lat="45.96686" lon="6.50844">
        <ele>1568</ele>
        <time>2011-06-04T09:03:06Z</time>
      </trkpt>
      <trkpt lat="45.96688" lon="6.50849">
        <ele>1569</ele>
        <time>2011-06-04T09:03:08Z</time>
      </trkpt>
      <trkpt lat="45.9669" lon="6.50853">
        <ele>1570</ele>
        <time>2011-06-04T09:03:10Z</time>
      </trkpt>
      <trkpt lat="45.96692" lon="6.50857">
        <ele>1571</ele>
        <time>2011-06-04T09:03:12Z</time>
      </trkpt>
      <trkpt lat="45.96694" lon="6.50861">
        <ele>1571</ele>
        <time>2011-06-04T09:03:14Z</time>
      </trkpt>
      <trkpt lat="45.96696" lon="6.50868">
        <ele>1572</ele>
        <time>2011-06-04T09:03:17Z</time>
      </trkpt>
      <trkpt lat="45.96698" lon="6.50872">
        <ele>1572</ele>
        <time>2011-06-04T09:03:19Z</time>
      </trkpt>
      <trkpt lat="45.967" lon="6.50876">
        <ele>1573</ele>
        <time>2011-06-04T09:03:21Z</time>
      </trkpt>
      <trkpt lat="45.96702" lon="6.5088">
        <ele>1573</ele>
        <time>2011-06-04T09:03:23Z</time>
      </trkpt>
      <trkpt lat="45.96703" lon="6.50885">
        <ele>1574</ele>
        <time>2011-06-04T09:03:25Z</time>
      </trkpt>
      <trkpt lat="45.96705" lon="6.5089">
        <ele>1574</ele>
        <time>2011-06-04T09:03:27Z</time>
      </trkpt>
      <trkpt lat="45.96707" lon="6.50894">
        <ele>1575</ele>
        <time>2011-06-04T09:03:29Z</time>
      </trkpt>
      <trkpt lat="45.96709" lon="6.50898">
        <ele>1575</ele>
        <time>2011-06-04T09:03:31Z</time>
      </trkpt>
      <trkpt lat="45.9671" lon="6.50902">
        <ele>1575</ele>
        <time>2011-06-04T09:03:33Z</time>
      </trkpt>
      <trkpt lat="45.96712" lon="6.50907">
        <ele>1576</ele>
        <time>2011-06-04T09:03:35Z</time>
      </trkpt>
      <trkpt lat="45.96714" lon="6.50911">
        <ele>1576</ele>
        <time>2011-06-04T09:03:37Z</time>
      </trkpt>
      <trkpt lat="45.96715" lon="6.50915">
        <ele>1577</ele>
        <time>2011-06-04T09:03:39Z</time>
      </trkpt>
      <trkpt lat="45.96717" lon="6.50919">
        <ele>1577</ele>
        <time>2011-06-04T09:03:41Z</time>
      </trkpt>
      <trkpt lat="45.96719" lon="6.50923">
        <ele>1577</ele>
        <time>2011-06-04T09:03:43Z</time>
      </trkpt>
      <trkpt lat="45.96721" lon="6.50927">
        <ele>1578</ele>
        <time>2011-06-04T09:03:45Z</time>
      </trkpt>
      <trkpt lat="45.96722" lon="6.50932">
        <ele>1578</ele>
        <time>2011-06-04T09:03:47Z</time>
      </trkpt>
      <trkpt lat="45.96724" lon="6.50936">
        <ele>1578</ele>
        <time>2011-06-04T09:03:49Z</time>
      </trkpt>
      <trkpt lat="45.96725" lon="6.5094">
        <ele>1579</ele>
        <time>2011-06-04T09:03:51Z</time>
      </trkpt>
      <trkpt lat="45.96727" lon="6.50945">
        <ele>1579</ele>
        <time>2011-06-04T09:03:53Z</time>
      </trkpt>
      <trkpt lat="45.96729" lon="6.50949">
        <ele>1579</ele>
        <time>2011-06-04T09:03:55Z</time>
      </trkpt>
      <trkpt lat="45.9673" lon="6.50953">
        <ele>1580</ele>
        <time>2011-06-04T09:03:57Z</time>
      </trkpt>
      <trkpt lat="45.96732" lon="6.50957">
        <ele>1580</ele>
        <time>2011-06-04T09:03:59Z</time>
      </trkpt>
      <trkpt lat="45.96733" lon="6.5096">
        <ele>1580</ele>
        <time>2011-06-04T09:04:01Z</time>
      </trkpt>
      <trkpt lat="45.96735" lon="6.50964">
        <ele>1580</ele>
        <time>2011-06-04T09:04:03Z</time>
      </trkpt>
      <trkpt lat="45.96736" lon="6.50969">
        <ele>1581</ele>
        <time>2011-06-04T09:04:05Z</time>
      </trkpt>
      <trkpt lat="45.96738" lon="6.50973">
        <ele>1581</ele>
        <time>2011-06-04T09:04:07Z</time>
      </trkpt>
      <trkpt lat="45.96739" lon="6.50976">
        <ele>1581</ele>
        <time>2011-06-04T09:04:09Z</time>
      </trkpt>
      <trkpt lat="45.96741" lon="6.5098">
        <ele>1581</ele>
        <time>2011-06-04T09:04:11Z</time>
      </trkpt>
      <trkpt lat="45.96742" lon="6.50983">
        <ele>1581</ele>
        <time>2011-06-04T09:04:13Z</time>
      </trkpt>
      <trkpt lat="45.96743" lon="6.50988">
        <ele>1582</ele>
        <time>2011-06-04T09:04:15Z</time>
      </trkpt>
      <trkpt lat="45.96744" lon="6.50992">
        <ele>1582</ele>
        <time>2011-06-04T09:04:17Z</time>
      </trkpt>
      <trkpt lat="45.96745" lon="6.50995">
        <ele>1582</ele>
        <time>2011-06-04T09:04:19Z</time>
      </trkpt>
      <trkpt lat="45.96746" lon="6.50999">
        <ele>1583</ele>
        <time>2011-06-04T09:04:21Z</time>
      </trkpt>
      <trkpt lat="45.96747" lon="6.51003">
        <ele>1583</ele>
        <time>2011-06-04T09:04:23Z</time>
      </trkpt>
      <trkpt lat="45.96749" lon="6.51006">
        <ele>1583</ele>
        <time>2011-06-04T09:04:25Z</time>
      </trkpt>
      <trkpt lat="45.9675" lon="6.5101">
        <ele>1584</ele>
        <time>2011-06-04T09:04:27Z</time>
      </trkpt>
      <trkpt lat="45.96751" lon="6.51014">
        <ele>1584</ele>
        <time>2011-06-04T09:04:29Z</time>
      </trkpt>
      <trkpt lat="45.96751" lon="6.51018">
        <ele>1584</ele>
        <time>2011-06-04T09:04:31Z</time>
      </trkpt>
      <trkpt lat="45.96752" lon="6.51022">
        <ele>1584</ele>
        <time>2011-06-04T09:04:33Z</time>
      </trkpt>
      <trkpt lat="45.96753" lon="6.51026">
        <ele>1584</ele>
        <time>2011-06-04T09:04:35Z</time>
      </trkpt>
      <trkpt lat="45.96754" lon="6.5103">
        <ele>1584</ele>
        <time>2011-06-04T09:04:37Z</time>
      </trkpt>
      <trkpt lat="45.96755" lon="6.51034">
        <ele>1584</ele>
        <time>2011-06-04T09:04:39Z</time>
      </trkpt>
      <trkpt lat="45.96756" lon="6.51038">
        <ele>1584</ele>
        <time>2011-06-04T09:04:41Z</time>
      </trkpt>
      <trkpt lat="45.96757" lon="6.51042">
        <ele>1584</ele>
        <time>2011-06-04T09:04:43Z</time>
      </trkpt>
      <trkpt lat="45.96758" lon="6.51046">
        <ele>1584</ele>
        <time>2011-06-04T09:04:45Z</time>
      </trkpt>
      <trkpt lat="45.96758" lon="6.5105">
        <ele>1584</ele>
        <time>2011-06-04T09:04:47Z</time>
      </trkpt>
      <trkpt lat="45.96759" lon="6.51055">
        <ele>1584</ele>
        <time>2011-06-04T09:04:49Z</time>
      </trkpt>
      <trkpt lat="45.96758" lon="6.51058">
        <ele>1584</ele>
        <time>2011-06-04T09:04:51Z</time>
      </trkpt>
      <trkpt lat="45.96758" lon="6.51062">
        <ele>1586</ele>
        <time>2011-06-04T09:04:53Z</time>
      </trkpt>
      <trkpt lat="45.96758" lon="6.51067">
        <ele>1587</ele>
        <time>2011-06-04T09:04:55Z</time>
      </trkpt>
      <trkpt lat="45.96758" lon="6.51072">
        <ele>1589</ele>
        <time>2011-06-04T09:04:57Z</time>
      </trkpt>
      <trkpt lat="45.96759" lon="6.51078">
        <ele>1589</ele>
        <time>2011-06-04T09:04:59Z</time>
      </trkpt>
      <trkpt lat="45.96759" lon="6.51084">
        <ele>1589</ele>
        <time>2011-06-04T09:05:01Z</time>
      </trkpt>
      <trkpt lat="45.96759" lon="6.51089">
        <ele>1589</ele>
        <time>2011-06-04T09:05:03Z</time>
      </trkpt>
      <trkpt lat="45.96758" lon="6.51094">
        <ele>1587</ele>
        <time>2011-06-04T09:05:05Z</time>
      </trkpt>
      <trkpt lat="45.96757" lon="6.51099">
        <ele>1585</ele>
        <time>2011-06-04T09:05:07Z</time>
      </trkpt>
      <trkpt lat="45.96755" lon="6.51104">
        <ele>1583</ele>
        <time>2011-06-04T09:05:09Z</time>
      </trkpt>
      <trkpt lat="45.96752" lon="6.51108">
        <ele>1582</ele>
        <time>2011-06-04T09:05:11Z</time>
      </trkpt>
      <trkpt lat="45.96749" lon="6.51113">
        <ele>1582</ele>
        <time>2011-06-04T09:05:13Z</time>
      </trkpt>
      <trkpt lat="45.96747" lon="6.51116">
        <ele>1581</ele>
        <time>2011-06-04T09:05:15Z</time>
      </trkpt>
      <trkpt lat="45.96744" lon="6.5112">
        <ele>1580</ele>
        <time>2011-06-04T09:05:17Z</time>
      </trkpt>
      <trkpt lat="45.96741" lon="6.51123">
        <ele>1580</ele>
        <time>2011-06-04T09:05:19Z</time>
      </trkpt>
      <trkpt lat="45.96738" lon="6.51127">
        <ele>1580</ele>
        <time>2011-06-04T09:05:21Z</time>
      </trkpt>
      <trkpt lat="45.96735" lon="6.51131">
        <ele>1580</ele>
        <time>2011-06-04T09:05:23Z</time>
      </trkpt>
      <trkpt lat="45.96733" lon="6.51134">
        <ele>1580</ele>
        <time>2011-06-04T09:05:25Z</time>
      </trkpt>
      <trkpt lat="45.96731" lon="6.51137">
        <ele>1580</ele>
        <time>2011-06-04T09:05:27Z</time>
      </trkpt>
      <trkpt lat="45.96728" lon="6.51142">
        <ele>1580</ele>
        <time>2011-06-04T09:05:30Z</time>
      </trkpt>
      <trkpt lat="45.96726" lon="6.51145">
        <ele>1580</ele>
        <time>2011-06-04T09:05:32Z</time>
      </trkpt>
      <trkpt lat="45.96725" lon="6.51149">
        <ele>1580</ele>
        <time>2011-06-04T09:05:34Z</time>
      </trkpt>
      <trkpt lat="45.96723" lon="6.51152">
        <ele>1580</ele>
        <time>2011-06-04T09:05:36Z</time>
      </trkpt>
      <trkpt lat="45.96721" lon="6.51155">
        <ele>1580</ele>
        <time>2011-06-04T09:05:38Z</time>
      </trkpt>
      <trkpt lat="45.96718" lon="6.51159">
        <ele>1580</ele>
        <time>2011-06-04T09:05:41Z</time>
      </trkpt>
      <trkpt lat="45.96716" lon="6.51162">
        <ele>1579</ele>
        <time>2011-06-04T09:05:43Z</time>
      </trkpt>
      <trkpt lat="45.96714" lon="6.51165">
        <ele>1579</ele>
        <time>2011-06-04T09:05:45Z</time>
      </trkpt>
      <trkpt lat="45.96712" lon="6.51168">
        <ele>1579</ele>
        <time>2011-06-04T09:05:47Z</time>
      </trkpt>
      <trkpt lat="45.9671" lon="6.51171">
        <ele>1579</ele>
        <time>2011-06-04T09:05:49Z</time>
      </trkpt>
      <trkpt lat="45.96709" lon="6.51175">
        <ele>1579</ele>
        <time>2011-06-04T09:05:51Z</time>
      </trkpt>
      <trkpt lat="45.96707" lon="6.51178">
        <ele>1579</ele>
        <time>2011-06-04T09:05:53Z</time>
      </trkpt>
      <trkpt lat="45.96704" lon="6.51181">
        <ele>1579</ele>
        <time>2011-06-04T09:05:55Z</time>
      </trkpt>
      <trkpt lat="45.96703" lon="6.51184">
        <ele>1579</ele>
        <time>2011-06-04T09:05:57Z</time>
      </trkpt>
      <trkpt lat="45.96701" lon="6.51189">
        <ele>1579</ele>
        <time>2011-06-04T09:05:59Z</time>
      </trkpt>
      <trkpt lat="45.96701" lon="6.51193">
        <ele>1579</ele>
        <time>2011-06-04T09:06:01Z</time>
      </trkpt>
      <trkpt lat="45.967" lon="6.51197">
        <ele>1579</ele>
        <time>2011-06-04T09:06:03Z</time>
      </trkpt>
      <trkpt lat="45.967" lon="6.51201">
        <ele>1579</ele>
        <time>2011-06-04T09:06:05Z</time>
      </trkpt>
      <trkpt lat="45.96699" lon="6.51205">
        <ele>1579</ele>
        <time>2011-06-04T09:06:07Z</time>
      </trkpt>
      <trkpt lat="45.96697" lon="6.51209">
        <ele>1579</ele>
        <time>2011-06-04T09:06:09Z</time>
      </trkpt>
      <trkpt lat="45.96697" lon="6.51214">
        <ele>1579</ele>
        <time>2011-06-04T09:06:11Z</time>
      </trkpt>
      <trkpt lat="45.96697" lon="6.51218">
        <ele>1579</ele>
        <time>2011-06-04T09:06:13Z</time>
      </trkpt>
      <trkpt lat="45.96696" lon="6.51222">
        <ele>1579</ele>
        <time>2011-06-04T09:06:15Z</time>
      </trkpt>
      <trkpt lat="45.96696" lon="6.51227">
        <ele>1579</ele>
        <time>2011-06-04T09:06:17Z</time>
      </trkpt>
      <trkpt lat="45.96695" lon="6.51231">
        <ele>1579</ele>
        <time>2011-06-04T09:06:19Z</time>
      </trkpt>
      <trkpt lat="45.96694" lon="6.51236">
        <ele>1579</ele>
        <time>2011-06-04T09:06:21Z</time>
      </trkpt>
      <trkpt lat="45.96694" lon="6.51241">
        <ele>1579</ele>
        <time>2011-06-04T09:06:23Z</time>
      </trkpt>
      <trkpt lat="45.96693" lon="6.51246">
        <ele>1579</ele>
        <time>2011-06-04T09:06:25Z</time>
      </trkpt>
      <trkpt lat="45.96693" lon="6.51251">
        <ele>1579</ele>
        <time>2011-06-04T09:06:27Z</time>
      </trkpt>
      <trkpt lat="45.96693" lon="6.51256">
        <ele>1579</ele>
        <time>2011-06-04T09:06:29Z</time>
      </trkpt>
      <trkpt lat="45.96692" lon="6.51261">
        <ele>1579</ele>
        <time>2011-06-04T09:06:31Z</time>
      </trkpt>
      <trkpt lat="45.96692" lon="6.51265">
        <ele>1579</ele>
        <time>2011-06-04T09:06:33Z</time>
      </trkpt>
      <trkpt lat="45.96692" lon="6.51272">
        <ele>1579</ele>
        <time>2011-06-04T09:06:35Z</time>
      </trkpt>
      <trkpt lat="45.96692" lon="6.51277">
        <ele>1579</ele>
        <time>2011-06-04T09:06:37Z</time>
      </trkpt>
      <trkpt lat="45.96692" lon="6.51283">
        <ele>1579</ele>
        <time>2011-06-04T09:06:39Z</time>
      </trkpt>
      <trkpt lat="45.96692" lon="6.51289">
        <ele>1579</ele>
        <time>2011-06-04T09:06:41Z</time>
      </trkpt>
      <trkpt lat="45.96692" lon="6.51295">
        <ele>1579</ele>
        <time>2011-06-04T09:06:43Z</time>
      </trkpt>
      <trkpt lat="45.96692" lon="6.51301">
        <ele>1579</ele>
        <time>2011-06-04T09:06:45Z</time>
      </trkpt>
      <trkpt lat="45.96693" lon="6.51306">
        <ele>1579</ele>
        <time>2011-06-04T09:06:47Z</time>
      </trkpt>
      <trkpt lat="45.96693" lon="6.51312">
        <ele>1579</ele>
        <time>2011-06-04T09:06:49Z</time>
      </trkpt>
      <trkpt lat="45.96693" lon="6.51318">
        <ele>1580</ele>
        <time>2011-06-04T09:06:51Z</time>
      </trkpt>
      <trkpt lat="45.96693" lon="6.51323">
        <ele>1581</ele>
        <time>2011-06-04T09:06:53Z</time>
      </trkpt>
      <trkpt lat="45.96694" lon="6.51327">
        <ele>1582</ele>
        <time>2011-06-04T09:06:55Z</time>
      </trkpt>
      <trkpt lat="45.96695" lon="6.51333">
        <ele>1582</ele>
        <time>2011-06-04T09:06:57Z</time>
      </trkpt>
      <trkpt lat="45.96697" lon="6.51338">
        <ele>1583</ele>
        <time>2011-06-04T09:06:59Z</time>
      </trkpt>
      <trkpt lat="45.96698" lon="6.51344">
        <ele>1583</ele>
        <time>2011-06-04T09:07:01Z</time>
      </trkpt>
      <trkpt lat="45.967" lon="6.51348">
        <ele>1583</ele>
        <time>2011-06-04T09:07:03Z</time>
      </trkpt>
      <trkpt lat="45.96701" lon="6.51353">
        <ele>1583</ele>
        <time>2011-06-04T09:07:05Z</time>
      </trkpt>
      <trkpt lat="45.96701" lon="6.51357">
        <ele>1584</ele>
        <time>2011-06-04T09:07:07Z</time>
      </trkpt>
      <trkpt lat="45.96703" lon="6.51362">
        <ele>1586</ele>
        <time>2011-06-04T09:07:10Z</time>
      </trkpt>
      <trkpt lat="45.96704" lon="6.51365">
        <ele>1589</ele>
        <time>2011-06-04T09:07:13Z</time>
      </trkpt>
      <trkpt lat="45.96705" lon="6.51367">
        <ele>1591</ele>
        <time>2011-06-04T09:07:15Z</time>
      </trkpt>
      <trkpt lat="45.96706" lon="6.51371">
        <ele>1593</ele>
        <time>2011-06-04T09:07:17Z</time>
      </trkpt>
      <trkpt lat="45.96708" lon="6.51375">
        <ele>1595</ele>
        <time>2011-06-04T09:07:19Z</time>
      </trkpt>
      <trkpt lat="45.9671" lon="6.51378">
        <ele>1597</ele>
        <time>2011-06-04T09:07:21Z</time>
      </trkpt>
      <trkpt lat="45.96713" lon="6.51382">
        <ele>1598</ele>
        <time>2011-06-04T09:07:23Z</time>
      </trkpt>
      <trkpt lat="45.96717" lon="6.51386">
        <ele>1598</ele>
        <time>2011-06-04T09:07:26Z</time>
      </trkpt>
      <trkpt lat="45.96719" lon="6.51387">
        <ele>1598</ele>
        <time>2011-06-04T09:07:28Z</time>
      </trkpt>
      <trkpt lat="45.96722" lon="6.51388">
        <ele>1599</ele>
        <time>2011-06-04T09:07:30Z</time>
      </trkpt>
      <trkpt lat="45.96725" lon="6.51389">
        <ele>1600</ele>
        <time>2011-06-04T09:07:32Z</time>
      </trkpt>
      <trkpt lat="45.96728" lon="6.51389">
        <ele>1601</ele>
        <time>2011-06-04T09:07:34Z</time>
      </trkpt>
      <trkpt lat="45.96731" lon="6.5139">
        <ele>1602</ele>
        <time>2011-06-04T09:07:36Z</time>
      </trkpt>
      <trkpt lat="45.96734" lon="6.5139">
        <ele>1603</ele>
        <time>2011-06-04T09:07:38Z</time>
      </trkpt>
      <trkpt lat="45.96736" lon="6.51391">
        <ele>1604</ele>
        <time>2011-06-04T09:07:40Z</time>
      </trkpt>
      <trkpt lat="45.96739" lon="6.51392">
        <ele>1604</ele>
        <time>2011-06-04T09:07:42Z</time>
      </trkpt>
      <trkpt lat="45.96742" lon="6.51393">
        <ele>1605</ele>
        <time>2011-06-04T09:07:44Z</time>
      </trkpt>
      <trkpt lat="45.96745" lon="6.51393">
        <ele>1606</ele>
        <time>2011-06-04T09:07:46Z</time>
      </trkpt>
      <trkpt lat="45.96748" lon="6.51394">
        <ele>1607</ele>
        <time>2011-06-04T09:07:48Z</time>
      </trkpt>
      <trkpt lat="45.96751" lon="6.51395">
        <ele>1607</ele>
        <time>2011-06-04T09:07:50Z</time>
      </trkpt>
      <trkpt lat="45.96754" lon="6.51395">
        <ele>1608</ele>
        <time>2011-06-04T09:07:52Z</time>
      </trkpt>
      <trkpt lat="45.96757" lon="6.51396">
        <ele>1609</ele>
        <time>2011-06-04T09:07:54Z</time>
      </trkpt>
      <trkpt lat="45.9676" lon="6.51396">
        <ele>1610</ele>
        <time>2011-06-04T09:07:56Z</time>
      </trkpt>
      <trkpt lat="45.96762" lon="6.51397">
        <ele>1610</ele>
        <time>2011-06-04T09:07:58Z</time>
      </trkpt>
      <trkpt lat="45.96765" lon="6.51397">
        <ele>1611</ele>
        <time>2011-06-04T09:08:00Z</time>
      </trkpt>
      <trkpt lat="45.96768" lon="6.51398">
        <ele>1612</ele>
        <time>2011-06-04T09:08:02Z</time>
      </trkpt>
      <trkpt lat="45.96771" lon="6.51399">
        <ele>1612</ele>
        <time>2011-06-04T09:08:04Z</time>
      </trkpt>
      <trkpt lat="45.96774" lon="6.514">
        <ele>1613</ele>
        <time>2011-06-04T09:08:06Z</time>
      </trkpt>
      <trkpt lat="45.96777" lon="6.51402">
        <ele>1614</ele>
        <time>2011-06-04T09:08:08Z</time>
      </trkpt>
      <trkpt lat="45.9678" lon="6.51403">
        <ele>1614</ele>
        <time>2011-06-04T09:08:10Z</time>
      </trkpt>
      <trkpt lat="45.96783" lon="6.51403">
        <ele>1615</ele>
        <time>2011-06-04T09:08:12Z</time>
      </trkpt>
      <trkpt lat="45.96786" lon="6.51404">
        <ele>1615</ele>
        <time>2011-06-04T09:08:14Z</time>
      </trkpt>
      <trkpt lat="45.96789" lon="6.51406">
        <ele>1615</ele>
        <time>2011-06-04T09:08:16Z</time>
      </trkpt>
      <trkpt lat="45.96792" lon="6.51407">
        <ele>1615</ele>
        <time>2011-06-04T09:08:18Z</time>
      </trkpt>
      <trkpt lat="45.96794" lon="6.51408">
        <ele>1616</ele>
        <time>2011-06-04T09:08:20Z</time>
      </trkpt>
      <trkpt lat="45.96797" lon="6.51409">
        <ele>1616</ele>
        <time>2011-06-04T09:08:22Z</time>
      </trkpt>
      <trkpt lat="45.968" lon="6.51411">
        <ele>1617</ele>
        <time>2011-06-04T09:08:24Z</time>
      </trkpt>
      <trkpt lat="45.96802" lon="6.51413">
        <ele>1617</ele>
        <time>2011-06-04T09:08:26Z</time>
      </trkpt>
      <trkpt lat="45.96805" lon="6.51415">
        <ele>1618</ele>
        <time>2011-06-04T09:08:28Z</time>
      </trkpt>
      <trkpt lat="45.96807" lon="6.51417">
        <ele>1619</ele>
        <time>2011-06-04T09:08:30Z</time>
      </trkpt>
      <trkpt lat="45.9681" lon="6.5142">
        <ele>1619</ele>
        <time>2011-06-04T09:08:32Z</time>
      </trkpt>
      <trkpt lat="45.96812" lon="6.51424">
        <ele>1620</ele>
        <time>2011-06-04T09:08:34Z</time>
      </trkpt>
      <trkpt lat="45.96813" lon="6.5143">
        <ele>1620</ele>
        <time>2011-06-04T09:08:37Z</time>
      </trkpt>
      <trkpt lat="45.96815" lon="6.51435">
        <ele>1621</ele>
        <time>2011-06-04T09:08:39Z</time>
      </trkpt>
      <trkpt lat="45.96817" lon="6.51438">
        <ele>1621</ele>
        <time>2011-06-04T09:08:41Z</time>
      </trkpt>
      <trkpt lat="45.96818" lon="6.51442">
        <ele>1622</ele>
        <time>2011-06-04T09:08:43Z</time>
      </trkpt>
      <trkpt lat="45.9682" lon="6.51446">
        <ele>1622</ele>
        <time>2011-06-04T09:08:45Z</time>
      </trkpt>
      <trkpt lat="45.96821" lon="6.5145">
        <ele>1623</ele>
        <time>2011-06-04T09:08:47Z</time>
      </trkpt>
      <trkpt lat="45.96821" lon="6.51454">
        <ele>1624</ele>
        <time>2011-06-04T09:08:49Z</time>
      </trkpt>
      <trkpt lat="45.96821" lon="6.51458">
        <ele>1625</ele>
        <time>2011-06-04T09:08:51Z</time>
      </trkpt>
      <trkpt lat="45.96822" lon="6.51463">
        <ele>1625</ele>
        <time>2011-06-04T09:08:53Z</time>
      </trkpt>
      <trkpt lat="45.96824" lon="6.51467">
        <ele>1626</ele>
        <time>2011-06-04T09:08:55Z</time>
      </trkpt>
      <trkpt lat="45.96825" lon="6.51473">
        <ele>1626</ele>
        <time>2011-06-04T09:08:58Z</time>
      </trkpt>
      <trkpt lat="45.96826" lon="6.51478">
        <ele>1627</ele>
        <time>2011-06-04T09:09:00Z</time>
      </trkpt>
      <trkpt lat="45.96826" lon="6.51483">
        <ele>1627</ele>
        <time>2011-06-04T09:09:02Z</time>
      </trkpt>
      <trkpt lat="45.96827" lon="6.51488">
        <ele>1627</ele>
        <time>2011-06-04T09:09:04Z</time>
      </trkpt>
      <trkpt lat="45.96829" lon="6.51492">
        <ele>1627</ele>
        <time>2011-06-04T09:09:06Z</time>
      </trkpt>
      <trkpt lat="45.9683" lon="6.51497">
        <ele>1627</ele>
        <time>2011-06-04T09:09:08Z</time>
      </trkpt>
      <trkpt lat="45.9683" lon="6.51501">
        <ele>1628</ele>
        <time>2011-06-04T09:09:10Z</time>
      </trkpt>
      <trkpt lat="45.9683" lon="6.51506">
        <ele>1628</ele>
        <time>2011-06-04T09:09:12Z</time>
      </trkpt>
      <trkpt lat="45.96828" lon="6.5151">
        <ele>1629</ele>
        <time>2011-06-04T09:09:14Z</time>
      </trkpt>
      <trkpt lat="45.96828" lon="6.51514">
        <ele>1629</ele>
        <time>2011-06-04T09:09:16Z</time>
      </trkpt>
      <trkpt lat="45.96829" lon="6.51519">
        <ele>1630</ele>
        <time>2011-06-04T09:09:18Z</time>
      </trkpt>
      <trkpt lat="45.96829" lon="6.51524">
        <ele>1630</ele>
        <time>2011-06-04T09:09:20Z</time>
      </trkpt>
      <trkpt lat="45.96829" lon="6.51528">
        <ele>1630</ele>
        <time>2011-06-04T09:09:22Z</time>
      </trkpt>
      <trkpt lat="45.96828" lon="6.51533">
        <ele>1630</ele>
        <time>2011-06-04T09:09:24Z</time>
      </trkpt>
      <trkpt lat="45.96826" lon="6.51538">
        <ele>1630</ele>
        <time>2011-06-04T09:09:26Z</time>
      </trkpt>
      <trkpt lat="45.96826" lon="6.51543">
        <ele>1631</ele>
        <time>2011-06-04T09:09:28Z</time>
      </trkpt>
      <trkpt lat="45.96826" lon="6.51548">
        <ele>1631</ele>
        <time>2011-06-04T09:09:30Z</time>
      </trkpt>
      <trkpt lat="45.96827" lon="6.51553">
        <ele>1631</ele>
        <time>2011-06-04T09:09:32Z</time>
      </trkpt>
      <trkpt lat="45.96828" lon="6.51558">
        <ele>1631</ele>
        <time>2011-06-04T09:09:34Z</time>
      </trkpt>
      <trkpt lat="45.96828" lon="6.51563">
        <ele>1631</ele>
        <time>2011-06-04T09:09:36Z</time>
      </trkpt>
      <trkpt lat="45.96828" lon="6.51569">
        <ele>1631</ele>
        <time>2011-06-04T09:09:38Z</time>
      </trkpt>
      <trkpt lat="45.96828" lon="6.51575">
        <ele>1631</ele>
        <time>2011-06-04T09:09:40Z</time>
      </trkpt>
      <trkpt lat="45.96828" lon="6.5158">
        <ele>1631</ele>
        <time>2011-06-04T09:09:42Z</time>
      </trkpt>
      <trkpt lat="45.96828" lon="6.51585">
        <ele>1631</ele>
        <time>2011-06-04T09:09:44Z</time>
      </trkpt>
      <trkpt lat="45.96829" lon="6.5159">
        <ele>1631</ele>
        <time>2011-06-04T09:09:46Z</time>
      </trkpt>
      <trkpt lat="45.9683" lon="6.51594">
        <ele>1629</ele>
        <time>2011-06-04T09:09:48Z</time>
      </trkpt>
      <trkpt lat="45.96831" lon="6.51599">
        <ele>1629</ele>
        <time>2011-06-04T09:09:50Z</time>
      </trkpt>
      <trkpt lat="45.96832" lon="6.51605">
        <ele>1629</ele>
        <time>2011-06-04T09:09:52Z</time>
      </trkpt>
      <trkpt lat="45.96833" lon="6.51611">
        <ele>1629</ele>
        <time>2011-06-04T09:09:54Z</time>
      </trkpt>
      <trkpt lat="45.96834" lon="6.51615">
        <ele>1629</ele>
        <time>2011-06-04T09:09:56Z</time>
      </trkpt>
      <trkpt lat="45.96836" lon="6.51618">
        <ele>1629</ele>
        <time>2011-06-04T09:09:58Z</time>
      </trkpt>
      <trkpt lat="45.96837" lon="6.51623">
        <ele>1629</ele>
        <time>2011-06-04T09:10:00Z</time>
      </trkpt>
      <trkpt lat="45.96838" lon="6.51627">
        <ele>1629</ele>
        <time>2011-06-04T09:10:02Z</time>
      </trkpt>
      <trkpt lat="45.96839" lon="6.51632">
        <ele>1629</ele>
        <time>2011-06-04T09:10:04Z</time>
      </trkpt>
      <trkpt lat="45.96841" lon="6.51635">
        <ele>1629</ele>
        <time>2011-06-04T09:10:06Z</time>
      </trkpt>
      <trkpt lat="45.96843" lon="6.51638">
        <ele>1629</ele>
        <time>2011-06-04T09:10:08Z</time>
      </trkpt>
      <trkpt lat="45.96844" lon="6.51641">
        <ele>1629</ele>
        <time>2011-06-04T09:10:10Z</time>
      </trkpt>
      <trkpt lat="45.96846" lon="6.51644">
        <ele>1629</ele>
        <time>2011-06-04T09:10:12Z</time>
      </trkpt>
      <trkpt lat="45.96847" lon="6.51648">
        <ele>1630</ele>
        <time>2011-06-04T09:10:14Z</time>
      </trkpt>
      <trkpt lat="45.96849" lon="6.51652">
        <ele>1631</ele>
        <time>2011-06-04T09:10:16Z</time>
      </trkpt>
      <trkpt lat="45.96851" lon="6.51656">
        <ele>1632</ele>
        <time>2011-06-04T09:10:19Z</time>
      </trkpt>
      <trkpt lat="45.96853" lon="6.5166">
        <ele>1633</ele>
        <time>2011-06-04T09:10:21Z</time>
      </trkpt>
      <trkpt lat="45.96854" lon="6.51663">
        <ele>1634</ele>
        <time>2011-06-04T09:10:23Z</time>
      </trkpt>
      <trkpt lat="45.96856" lon="6.51667">
        <ele>1636</ele>
        <time>2011-06-04T09:10:25Z</time>
      </trkpt>
      <trkpt lat="45.96858" lon="6.5167">
        <ele>1637</ele>
        <time>2011-06-04T09:10:27Z</time>
      </trkpt>
      <trkpt lat="45.96859" lon="6.51675">
        <ele>1638</ele>
        <time>2011-06-04T09:10:29Z</time>
      </trkpt>
      <trkpt lat="45.9686" lon="6.51679">
        <ele>1639</ele>
        <time>2011-06-04T09:10:31Z</time>
      </trkpt>
      <trkpt lat="45.96861" lon="6.51684">
        <ele>1640</ele>
        <time>2011-06-04T09:10:33Z</time>
      </trkpt>
      <trkpt lat="45.96861" lon="6.51689">
        <ele>1642</ele>
        <time>2011-06-04T09:10:35Z</time>
      </trkpt>
      <trkpt lat="45.9686" lon="6.51694">
        <ele>1642</ele>
        <time>2011-06-04T09:10:37Z</time>
      </trkpt>
      <trkpt lat="45.9686" lon="6.517">
        <ele>1643</ele>
        <time>2011-06-04T09:10:39Z</time>
      </trkpt>
      <trkpt lat="45.96861" lon="6.51704">
        <ele>1643</ele>
        <time>2011-06-04T09:10:41Z</time>
      </trkpt>
      <trkpt lat="45.9686" lon="6.51709">
        <ele>1644</ele>
        <time>2011-06-04T09:10:43Z</time>
      </trkpt>
      <trkpt lat="45.9686" lon="6.51713">
        <ele>1645</ele>
        <time>2011-06-04T09:10:45Z</time>
      </trkpt>
      <trkpt lat="45.96859" lon="6.51718">
        <ele>1646</ele>
        <time>2011-06-04T09:10:47Z</time>
      </trkpt>
      <trkpt lat="45.96858" lon="6.51724">
        <ele>1646</ele>
        <time>2011-06-04T09:10:49Z</time>
      </trkpt>
      <trkpt lat="45.96857" lon="6.51729">
        <ele>1647</ele>
        <time>2011-06-04T09:10:51Z</time>
      </trkpt>
      <trkpt lat="45.96857" lon="6.51734">
        <ele>1647</ele>
        <time>2011-06-04T09:10:53Z</time>
      </trkpt>
      <trkpt lat="45.96857" lon="6.5174">
        <ele>1647</ele>
        <time>2011-06-04T09:10:55Z</time>
      </trkpt>
      <trkpt lat="45.96855" lon="6.51746">
        <ele>1647</ele>
        <time>2011-06-04T09:10:57Z</time>
      </trkpt>
      <trkpt lat="45.96855" lon="6.51754">
        <ele>1647</ele>
        <time>2011-06-04T09:10:59Z</time>
      </trkpt>
      <trkpt lat="45.96855" lon="6.51762">
        <ele>1647</ele>
        <time>2011-06-04T09:11:01Z</time>
      </trkpt>
      <trkpt lat="45.96855" lon="6.5177">
        <ele>1647</ele>
        <time>2011-06-04T09:11:03Z</time>
      </trkpt>
      <trkpt lat="45.96854" lon="6.51778">
        <ele>1647</ele>
        <time>2011-06-04T09:11:05Z</time>
      </trkpt>
      <trkpt lat="45.96854" lon="6.51787">
        <ele>1645</ele>
        <time>2011-06-04T09:11:07Z</time>
      </trkpt>
      <trkpt lat="45.96853" lon="6.51796">
        <ele>1643</ele>
        <time>2011-06-04T09:11:09Z</time>
      </trkpt>
      <trkpt lat="45.96852" lon="6.51806">
        <ele>1641</ele>
        <time>2011-06-04T09:11:11Z</time>
      </trkpt>
      <trkpt lat="45.96851" lon="6.51816">
        <ele>1639</ele>
        <time>2011-06-04T09:11:13Z</time>
      </trkpt>
      <trkpt lat="45.96849" lon="6.51826">
        <ele>1637</ele>
        <time>2011-06-04T09:11:15Z</time>
      </trkpt>
      <trkpt lat="45.96846" lon="6.51835">
        <ele>1635</ele>
        <time>2011-06-04T09:11:17Z</time>
      </trkpt>
      <trkpt lat="45.96844" lon="6.51844">
        <ele>1633</ele>
        <time>2011-06-04T09:11:19Z</time>
      </trkpt>
      <trkpt lat="45.96843" lon="6.51852">
        <ele>1631</ele>
        <time>2011-06-04T09:11:21Z</time>
      </trkpt>
      <trkpt lat="45.96843" lon="6.51861">
        <ele>1631</ele>
        <time>2011-06-04T09:11:23Z</time>
      </trkpt>
      <trkpt lat="45.96842" lon="6.51868">
        <ele>1631</ele>
        <time>2011-06-04T09:11:25Z</time>
      </trkpt>
      <trkpt lat="45.96842" lon="6.51876">
        <ele>1631</ele>
        <time>2011-06-04T09:11:27Z</time>
      </trkpt>
      <trkpt lat="45.96841" lon="6.51883">
        <ele>1631</ele>
        <time>2011-06-04T09:11:29Z</time>
      </trkpt>
      <trkpt lat="45.9684" lon="6.51889">
        <ele>1631</ele>
        <time>2011-06-04T09:11:31Z</time>
      </trkpt>
      <trkpt lat="45.9684" lon="6.51894">
        <ele>1631</ele>
        <time>2011-06-04T09:11:33Z</time>
      </trkpt>
      <trkpt lat="45.9684" lon="6.519">
        <ele>1631</ele>
        <time>2011-06-04T09:11:35Z</time>
      </trkpt>
      <trkpt lat="45.96839" lon="6.51905">
        <ele>1631</ele>
        <time>2011-06-04T09:11:37Z</time>
      </trkpt>
      <trkpt lat="45.96838" lon="6.5191">
        <ele>1631</ele>
        <time>2011-06-04T09:11:39Z</time>
      </trkpt>
      <trkpt lat="45.96839" lon="6.51916">
        <ele>1632</ele>
        <time>2011-06-04T09:11:41Z</time>
      </trkpt>
      <trkpt lat="45.96838" lon="6.51921">
        <ele>1634</ele>
        <time>2011-06-04T09:11:43Z</time>
      </trkpt>
      <trkpt lat="45.96837" lon="6.51927">
        <ele>1636</ele>
        <time>2011-06-04T09:11:45Z</time>
      </trkpt>
      <trkpt lat="45.96836" lon="6.51928">
        <ele>1638</ele>
        <time>2011-06-04T09:11:47Z</time>
      </trkpt>
      <trkpt lat="45.96835" lon="6.51931">
        <ele>1640</ele>
        <time>2011-06-04T09:11:49Z</time>
      </trkpt>
      <trkpt lat="45.96834" lon="6.51934">
        <ele>1643</ele>
        <time>2011-06-04T09:11:51Z</time>
      </trkpt>
      <trkpt lat="45.96834" lon="6.51938">
        <ele>1646</ele>
        <time>2011-06-04T09:11:53Z</time>
      </trkpt>
      <trkpt lat="45.96834" lon="6.51942">
        <ele>1648</ele>
        <time>2011-06-04T09:11:55Z</time>
      </trkpt>
      <trkpt lat="45.96834" lon="6.51946">
        <ele>1650</ele>
        <time>2011-06-04T09:11:57Z</time>
      </trkpt>
      <trkpt lat="45.96835" lon="6.51951">
        <ele>1652</ele>
        <time>2011-06-04T09:11:59Z</time>
      </trkpt>
      <trkpt lat="45.96837" lon="6.51955">
        <ele>1654</ele>
        <time>2011-06-04T09:12:01Z</time>
      </trkpt>
      <trkpt lat="45.96839" lon="6.5196">
        <ele>1654</ele>
        <time>2011-06-04T09:12:03Z</time>
      </trkpt>
      <trkpt lat="45.96841" lon="6.51964">
        <ele>1655</ele>
        <time>2011-06-04T09:12:05Z</time>
      </trkpt>
      <trkpt lat="45.96843" lon="6.51968">
        <ele>1655</ele>
        <time>2011-06-04T09:12:07Z</time>
      </trkpt>
      <trkpt lat="45.96846" lon="6.51971">
        <ele>1656</ele>
        <time>2011-06-04T09:12:09Z</time>
      </trkpt>
      <trkpt lat="45.96848" lon="6.51974">
        <ele>1656</ele>
        <time>2011-06-04T09:12:11Z</time>
      </trkpt>
      <trkpt lat="45.96851" lon="6.51977">
        <ele>1657</ele>
        <time>2011-06-04T09:12:13Z</time>
      </trkpt>
      <trkpt lat="45.96853" lon="6.51979">
        <ele>1658</ele>
        <time>2011-06-04T09:12:15Z</time>
      </trkpt>
      <trkpt lat="45.96856" lon="6.51982">
        <ele>1659</ele>
        <time>2011-06-04T09:12:17Z</time>
      </trkpt>
      <trkpt lat="45.96859" lon="6.51984">
        <ele>1660</ele>
        <time>2011-06-04T09:12:19Z</time>
      </trkpt>
      <trkpt lat="45.96862" lon="6.51986">
        <ele>1662</ele>
        <time>2011-06-04T09:12:21Z</time>
      </trkpt>
      <trkpt lat="45.96865" lon="6.51988">
        <ele>1663</ele>
        <time>2011-06-04T09:12:23Z</time>
      </trkpt>
      <trkpt lat="45.96869" lon="6.51991">
        <ele>1664</ele>
        <time>2011-06-04T09:12:25Z</time>
      </trkpt>
      <trkpt lat="45.96872" lon="6.51993">
        <ele>1665</ele>
        <time>2011-06-04T09:12:27Z</time>
      </trkpt>
      <trkpt lat="45.96875" lon="6.51996">
        <ele>1666</ele>
        <time>2011-06-04T09:12:29Z</time>
      </trkpt>
      <trkpt lat="45.96878" lon="6.51999">
        <ele>1666</ele>
        <time>2011-06-04T09:12:31Z</time>
      </trkpt>
      <trkpt lat="45.96882" lon="6.52001">
        <ele>1667</ele>
        <time>2011-06-04T09:12:33Z</time>
      </trkpt>
      <trkpt lat="45.96885" lon="6.52004">
        <ele>1668</ele>
        <time>2011-06-04T09:12:35Z</time>
      </trkpt>
      <trkpt lat="45.96888" lon="6.52007">
        <ele>1669</ele>
        <time>2011-06-04T09:12:37Z</time>
      </trkpt>
      <trkpt lat="45.96891" lon="6.5201">
        <ele>1670</ele>
        <time>2011-06-04T09:12:39Z</time>
      </trkpt>
      <trkpt lat="45.96895" lon="6.52012">
        <ele>1671</ele>
        <time>2011-06-04T09:12:41Z</time>
      </trkpt>
      <trkpt lat="45.96898" lon="6.52015">
        <ele>1671</ele>
        <time>2011-06-04T09:12:43Z</time>
      </trkpt>
      <trkpt lat="45.96902" lon="6.52018">
        <ele>1672</ele>
        <time>2011-06-04T09:12:45Z</time>
      </trkpt>
      <trkpt lat="45.96905" lon="6.52021">
        <ele>1672</ele>
        <time>2011-06-04T09:12:47Z</time>
      </trkpt>
      <trkpt lat="45.96909" lon="6.52024">
        <ele>1672</ele>
        <time>2011-06-04T09:12:49Z</time>
      </trkpt>
      <trkpt lat="45.96912" lon="6.52027">
        <ele>1673</ele>
        <time>2011-06-04T09:12:51Z</time>
      </trkpt>
      <trkpt lat="45.96915" lon="6.5203">
        <ele>1673</ele>
        <time>2011-06-04T09:12:53Z</time>
      </trkpt>
      <trkpt lat="45.96919" lon="6.52033">
        <ele>1674</ele>
        <time>2011-06-04T09:12:55Z</time>
      </trkpt>
      <trkpt lat="45.96922" lon="6.52036">
        <ele>1674</ele>
        <time>2011-06-04T09:12:57Z</time>
      </trkpt>
      <trkpt lat="45.96925" lon="6.52038">
        <ele>1675</ele>
        <time>2011-06-04T09:12:59Z</time>
      </trkpt>
      <trkpt lat="45.96929" lon="6.52041">
        <ele>1675</ele>
        <time>2011-06-04T09:13:01Z</time>
      </trkpt>
      <trkpt lat="45.96931" lon="6.52043">
        <ele>1676</ele>
        <time>2011-06-04T09:13:03Z</time>
      </trkpt>
      <trkpt lat="45.96934" lon="6.52045">
        <ele>1677</ele>
        <time>2011-06-04T09:13:05Z</time>
      </trkpt>
      <trkpt lat="45.96937" lon="6.52047">
        <ele>1677</ele>
        <time>2011-06-04T09:13:07Z</time>
      </trkpt>
      <trkpt lat="45.96939" lon="6.5205">
        <ele>1678</ele>
        <time>2011-06-04T09:13:09Z</time>
      </trkpt>
      <trkpt lat="45.96942" lon="6.52052">
        <ele>1679</ele>
        <time>2011-06-04T09:13:11Z</time>
      </trkpt>
      <trkpt lat="45.96945" lon="6.52054">
        <ele>1680</ele>
        <time>2011-06-04T09:13:13Z</time>
      </trkpt>
      <trkpt lat="45.96948" lon="6.52057">
        <ele>1680</ele>
        <time>2011-06-04T09:13:15Z</time>
      </trkpt>
      <trkpt lat="45.96951" lon="6.52059">
        <ele>1680</ele>
        <time>2011-06-04T09:13:17Z</time>
      </trkpt>
      <trkpt lat="45.96954" lon="6.52061">
        <ele>1680</ele>
        <time>2011-06-04T09:13:19Z</time>
      </trkpt>
      <trkpt lat="45.96957" lon="6.52063">
        <ele>1680</ele>
        <time>2011-06-04T09:13:21Z</time>
      </trkpt>
      <trkpt lat="45.9696" lon="6.52065">
        <ele>1680</ele>
        <time>2011-06-04T09:13:23Z</time>
      </trkpt>
      <trkpt lat="45.96963" lon="6.52066">
        <ele>1681</ele>
        <time>2011-06-04T09:13:25Z</time>
      </trkpt>
      <trkpt lat="45.96966" lon="6.52068">
        <ele>1681</ele>
        <time>2011-06-04T09:13:27Z</time>
      </trkpt>
      <trkpt lat="45.96969" lon="6.5207">
        <ele>1681</ele>
        <time>2011-06-04T09:13:29Z</time>
      </trkpt>
      <trkpt lat="45.96973" lon="6.52071">
        <ele>1682</ele>
        <time>2011-06-04T09:13:31Z</time>
      </trkpt>
      <trkpt lat="45.96976" lon="6.52073">
        <ele>1682</ele>
        <time>2011-06-04T09:13:33Z</time>
      </trkpt>
      <trkpt lat="45.96979" lon="6.52075">
        <ele>1682</ele>
        <time>2011-06-04T09:13:35Z</time>
      </trkpt>
      <trkpt lat="45.96982" lon="6.52076">
        <ele>1682</ele>
        <time>2011-06-04T09:13:37Z</time>
      </trkpt>
      <trkpt lat="45.96985" lon="6.52077">
        <ele>1682</ele>
        <time>2011-06-04T09:13:39Z</time>
      </trkpt>
      <trkpt lat="45.96988" lon="6.52078">
        <ele>1682</ele>
        <time>2011-06-04T09:13:41Z</time>
      </trkpt>
      <trkpt lat="45.96991" lon="6.52079">
        <ele>1683</ele>
        <time>2011-06-04T09:13:43Z</time>
      </trkpt>
      <trkpt lat="45.96994" lon="6.52078">
        <ele>1683</ele>
        <time>2011-06-04T09:13:45Z</time>
      </trkpt>
      <trkpt lat="45.96997" lon="6.52079">
        <ele>1683</ele>
        <time>2011-06-04T09:13:47Z</time>
      </trkpt>
      <trkpt lat="45.97" lon="6.5208">
        <ele>1683</ele>
        <time>2011-06-04T09:13:49Z</time>
      </trkpt>
      <trkpt lat="45.97002" lon="6.52081">
        <ele>1683</ele>
        <time>2011-06-04T09:13:51Z</time>
      </trkpt>
      <trkpt lat="45.97005" lon="6.52081">
        <ele>1684</ele>
        <time>2011-06-04T09:13:53Z</time>
      </trkpt>
      <trkpt lat="45.97008" lon="6.52082">
        <ele>1684</ele>
        <time>2011-06-04T09:13:55Z</time>
      </trkpt>
      <trkpt lat="45.97011" lon="6.52083">
        <ele>1684</ele>
        <time>2011-06-04T09:13:57Z</time>
      </trkpt>
      <trkpt lat="45.97014" lon="6.52087">
        <ele>1685</ele>
        <time>2011-06-04T09:14:00Z</time>
      </trkpt>
      <trkpt lat="45.97017" lon="6.52091">
        <ele>1686</ele>
        <time>2011-06-04T09:14:03Z</time>
      </trkpt>
      <trkpt lat="45.9702" lon="6.52094">
        <ele>1687</ele>
        <time>2011-06-04T09:14:05Z</time>
      </trkpt>
      <trkpt lat="45.9702" lon="6.52097">
        <ele>1687</ele>
        <time>2011-06-04T09:14:07Z</time>
      </trkpt>
      <trkpt lat="45.9702" lon="6.52102">
        <ele>1688</ele>
        <time>2011-06-04T09:14:09Z</time>
      </trkpt>
      <trkpt lat="45.9702" lon="6.52106">
        <ele>1688</ele>
        <time>2011-06-04T09:14:11Z</time>
      </trkpt>
      <trkpt lat="45.97021" lon="6.5211">
        <ele>1689</ele>
        <time>2011-06-04T09:14:13Z</time>
      </trkpt>
      <trkpt lat="45.97021" lon="6.52114">
        <ele>1689</ele>
        <time>2011-06-04T09:14:15Z</time>
      </trkpt>
      <trkpt lat="45.97021" lon="6.52117">
        <ele>1689</ele>
        <time>2011-06-04T09:14:17Z</time>
      </trkpt>
      <trkpt lat="45.97022" lon="6.52121">
        <ele>1689</ele>
        <time>2011-06-04T09:14:19Z</time>
      </trkpt>
      <trkpt lat="45.97024" lon="6.52127">
        <ele>1690</ele>
        <time>2011-06-04T09:14:22Z</time>
      </trkpt>
      <trkpt lat="45.97024" lon="6.52132">
        <ele>1690</ele>
        <time>2011-06-04T09:14:24Z</time>
      </trkpt>
      <trkpt lat="45.97023" lon="6.52136">
        <ele>1691</ele>
        <time>2011-06-04T09:14:27Z</time>
      </trkpt>
      <trkpt lat="45.97024" lon="6.52139">
        <ele>1693</ele>
        <time>2011-06-04T09:14:29Z</time>
      </trkpt>
      <trkpt lat="45.97024" lon="6.52142">
        <ele>1694</ele>
        <time>2011-06-04T09:14:31Z</time>
      </trkpt>
      <trkpt lat="45.97025" lon="6.52146">
        <ele>1696</ele>
        <time>2011-06-04T09:14:33Z</time>
      </trkpt>
      <trkpt lat="45.97025" lon="6.52151">
        <ele>1696</ele>
        <time>2011-06-04T09:14:35Z</time>
      </trkpt>
      <trkpt lat="45.97026" lon="6.52154">
        <ele>1697</ele>
        <time>2011-06-04T09:14:37Z</time>
      </trkpt>
      <trkpt lat="45.97027" lon="6.52158">
        <ele>1698</ele>
        <time>2011-06-04T09:14:39Z</time>
      </trkpt>
      <trkpt lat="45.97027" lon="6.52162">
        <ele>1698</ele>
        <time>2011-06-04T09:14:41Z</time>
      </trkpt>
      <trkpt lat="45.97029" lon="6.52166">
        <ele>1699</ele>
        <time>2011-06-04T09:14:43Z</time>
      </trkpt>
      <trkpt lat="45.9703" lon="6.5217">
        <ele>1699</ele>
        <time>2011-06-04T09:14:45Z</time>
      </trkpt>
      <trkpt lat="45.97032" lon="6.52173">
        <ele>1700</ele>
        <time>2011-06-04T09:14:47Z</time>
      </trkpt>
      <trkpt lat="45.97033" lon="6.52177">
        <ele>1700</ele>
        <time>2011-06-04T09:14:49Z</time>
      </trkpt>
      <trkpt lat="45.97035" lon="6.5218">
        <ele>1701</ele>
        <time>2011-06-04T09:14:51Z</time>
      </trkpt>
      <trkpt lat="45.97037" lon="6.52184">
        <ele>1701</ele>
        <time>2011-06-04T09:14:53Z</time>
      </trkpt>
      <trkpt lat="45.97038" lon="6.52188">
        <ele>1702</ele>
        <time>2011-06-04T09:14:55Z</time>
      </trkpt>
      <trkpt lat="45.97041" lon="6.52193">
        <ele>1703</ele>
        <time>2011-06-04T09:14:58Z</time>
      </trkpt>
      <trkpt lat="45.97041" lon="6.52197">
        <ele>1703</ele>
        <time>2011-06-04T09:15:00Z</time>
      </trkpt>
      <trkpt lat="45.97044" lon="6.52202">
        <ele>1704</ele>
        <time>2011-06-04T09:15:03Z</time>
      </trkpt>
      <trkpt lat="45.97045" lon="6.52206">
        <ele>1705</ele>
        <time>2011-06-04T09:15:05Z</time>
      </trkpt>
      <trkpt lat="45.97046" lon="6.52209">
        <ele>1706</ele>
        <time>2011-06-04T09:15:07Z</time>
      </trkpt>
      <trkpt lat="45.97047" lon="6.52213">
        <ele>1707</ele>
        <time>2011-06-04T09:15:09Z</time>
      </trkpt>
      <trkpt lat="45.97048" lon="6.52217">
        <ele>1708</ele>
        <time>2011-06-04T09:15:11Z</time>
      </trkpt>
      <trkpt lat="45.97051" lon="6.52222">
        <ele>1708</ele>
        <time>2011-06-04T09:15:14Z</time>
      </trkpt>
      <trkpt lat="45.97052" lon="6.52225">
        <ele>1709</ele>
        <time>2011-06-04T09:15:16Z</time>
      </trkpt>
      <trkpt lat="45.97052" lon="6.52228">
        <ele>1710</ele>
        <time>2011-06-04T09:15:18Z</time>
      </trkpt>
      <trkpt lat="45.97051" lon="6.52232">
        <ele>1710</ele>
        <time>2011-06-04T09:15:20Z</time>
      </trkpt>
      <trkpt lat="45.97051" lon="6.52236">
        <ele>1710</ele>
        <time>2011-06-04T09:15:22Z</time>
      </trkpt>
      <trkpt lat="45.97052" lon="6.52242">
        <ele>1710</ele>
        <time>2011-06-04T09:15:24Z</time>
      </trkpt>
      <trkpt lat="45.97052" lon="6.52246">
        <ele>1710</ele>
        <time>2011-06-04T09:15:26Z</time>
      </trkpt>
      <trkpt lat="45.97052" lon="6.5225">
        <ele>1711</ele>
        <time>2011-06-04T09:15:28Z</time>
      </trkpt>
      <trkpt lat="45.97052" lon="6.52254">
        <ele>1711</ele>
        <time>2011-06-04T09:15:30Z</time>
      </trkpt>
      <trkpt lat="45.97053" lon="6.52259">
        <ele>1711</ele>
        <time>2011-06-04T09:15:32Z</time>
      </trkpt>
      <trkpt lat="45.97053" lon="6.52264">
        <ele>1711</ele>
        <time>2011-06-04T09:15:34Z</time>
      </trkpt>
      <trkpt lat="45.97054" lon="6.52269">
        <ele>1711</ele>
        <time>2011-06-04T09:15:36Z</time>
      </trkpt>
      <trkpt lat="45.97054" lon="6.52275">
        <ele>1711</ele>
        <time>2011-06-04T09:15:38Z</time>
      </trkpt>
      <trkpt lat="45.97053" lon="6.5228">
        <ele>1711</ele>
        <time>2011-06-04T09:15:40Z</time>
      </trkpt>
      <trkpt lat="45.97051" lon="6.52285">
        <ele>1711</ele>
        <time>2011-06-04T09:15:42Z</time>
      </trkpt>
      <trkpt lat="45.97049" lon="6.52288">
        <ele>1711</ele>
        <time>2011-06-04T09:15:44Z</time>
      </trkpt>
      <trkpt lat="45.97047" lon="6.52292">
        <ele>1711</ele>
        <time>2011-06-04T09:15:46Z</time>
      </trkpt>
      <trkpt lat="45.97045" lon="6.52296">
        <ele>1711</ele>
        <time>2011-06-04T09:15:48Z</time>
      </trkpt>
      <trkpt lat="45.97043" lon="6.523">
        <ele>1710</ele>
        <time>2011-06-04T09:15:50Z</time>
      </trkpt>
      <trkpt lat="45.97041" lon="6.52302">
        <ele>1710</ele>
        <time>2011-06-04T09:15:52Z</time>
      </trkpt>
      <trkpt lat="45.97038" lon="6.52306">
        <ele>1710</ele>
        <time>2011-06-04T09:15:54Z</time>
      </trkpt>
      <trkpt lat="45.97037" lon="6.52309">
        <ele>1710</ele>
        <time>2011-06-04T09:15:56Z</time>
      </trkpt>
      <trkpt lat="45.97033" lon="6.52314">
        <ele>1710</ele>
        <time>2011-06-04T09:16:00Z</time>
      </trkpt>
      <trkpt lat="45.97031" lon="6.52317">
        <ele>1710</ele>
        <time>2011-06-04T09:16:02Z</time>
      </trkpt>
      <trkpt lat="45.97028" lon="6.52318">
        <ele>1710</ele>
        <time>2011-06-04T09:16:04Z</time>
      </trkpt>
      <trkpt lat="45.97025" lon="6.52323">
        <ele>1710</ele>
        <time>2011-06-04T09:16:07Z</time>
      </trkpt>
      <trkpt lat="45.97027" lon="6.52325">
        <ele>1710</ele>
        <time>2011-06-04T09:16:09Z</time>
      </trkpt>
      <trkpt lat="45.97029" lon="6.52322">
        <ele>1710</ele>
        <time>2011-06-04T09:16:11Z</time>
      </trkpt>
      <trkpt lat="45.97027" lon="6.52319">
        <ele>1712</ele>
        <time>2011-06-04T09:16:14Z</time>
      </trkpt>
      <trkpt lat="45.97021" lon="6.52341">
        <ele>1728</ele>
        <time>2011-06-04T09:16:21Z</time>
      </trkpt>
      <trkpt lat="45.97022" lon="6.52337">
        <ele>1728</ele>
        <time>2011-06-04T09:16:23Z</time>
      </trkpt>
      <trkpt lat="45.97027" lon="6.52324">
        <ele>1728</ele>
        <time>2011-06-04T09:16:26Z</time>
      </trkpt>
      <trkpt lat="45.97029" lon="6.52319">
        <ele>1728</ele>
        <time>2011-06-04T09:16:28Z</time>
      </trkpt>
      <trkpt lat="45.97033" lon="6.52314">
        <ele>1726</ele>
        <time>2011-06-04T09:16:30Z</time>
      </trkpt>
      <trkpt lat="45.97036" lon="6.5231">
        <ele>1724</ele>
        <time>2011-06-04T09:16:32Z</time>
      </trkpt>
      <trkpt lat="45.97039" lon="6.52305">
        <ele>1723</ele>
        <time>2011-06-04T09:16:34Z</time>
      </trkpt>
      <trkpt lat="45.97043" lon="6.52298">
        <ele>1722</ele>
        <time>2011-06-04T09:16:36Z</time>
      </trkpt>
      <trkpt lat="45.97052" lon="6.5229">
        <ele>1720</ele>
        <time>2011-06-04T09:16:39Z</time>
      </trkpt>
      <trkpt lat="45.97058" lon="6.52285">
        <ele>1719</ele>
        <time>2011-06-04T09:16:41Z</time>
      </trkpt>
      <trkpt lat="45.97062" lon="6.5228">
        <ele>1718</ele>
        <time>2011-06-04T09:16:43Z</time>
      </trkpt>
      <trkpt lat="45.97067" lon="6.5227">
        <ele>1718</ele>
        <time>2011-06-04T09:16:46Z</time>
      </trkpt>
      <trkpt lat="45.97069" lon="6.52263">
        <ele>1718</ele>
        <time>2011-06-04T09:16:48Z</time>
      </trkpt>
      <trkpt lat="45.97071" lon="6.52256">
        <ele>1718</ele>
        <time>2011-06-04T09:16:50Z</time>
      </trkpt>
      <trkpt lat="45.97073" lon="6.5225">
        <ele>1718</ele>
        <time>2011-06-04T09:16:52Z</time>
      </trkpt>
      <trkpt lat="45.97076" lon="6.52245">
        <ele>1718</ele>
        <time>2011-06-04T09:16:54Z</time>
      </trkpt>
      <trkpt lat="45.97081" lon="6.52242">
        <ele>1718</ele>
        <time>2011-06-04T09:16:56Z</time>
      </trkpt>
      <trkpt lat="45.97087" lon="6.52241">
        <ele>1718</ele>
        <time>2011-06-04T09:16:59Z</time>
      </trkpt>
      <trkpt lat="45.9709" lon="6.52234">
        <ele>1718</ele>
        <time>2011-06-04T09:17:02Z</time>
      </trkpt>
      <trkpt lat="45.97091" lon="6.52228">
        <ele>1718</ele>
        <time>2011-06-04T09:17:04Z</time>
      </trkpt>
      <trkpt lat="45.97092" lon="6.52222">
        <ele>1718</ele>
        <time>2011-06-04T09:17:06Z</time>
      </trkpt>
      <trkpt lat="45.97095" lon="6.52215">
        <ele>1718</ele>
        <time>2011-06-04T09:17:08Z</time>
      </trkpt>
      <trkpt lat="45.97096" lon="6.52208">
        <ele>1718</ele>
        <time>2011-06-04T09:17:10Z</time>
      </trkpt>
      <trkpt lat="45.97097" lon="6.522">
        <ele>1718</ele>
        <time>2011-06-04T09:17:12Z</time>
      </trkpt>
      <trkpt lat="45.97098" lon="6.52193">
        <ele>1718</ele>
        <time>2011-06-04T09:17:14Z</time>
      </trkpt>
      <trkpt lat="45.971" lon="6.52186">
        <ele>1718</ele>
        <time>2011-06-04T09:17:16Z</time>
      </trkpt>
      <trkpt lat="45.971" lon="6.52177">
        <ele>1718</ele>
        <time>2011-06-04T09:17:18Z</time>
      </trkpt>
      <trkpt lat="45.97102" lon="6.52166">
        <ele>1718</ele>
        <time>2011-06-04T09:17:20Z</time>
      </trkpt>
      <trkpt lat="45.97105" lon="6.52157">
        <ele>1718</ele>
        <time>2011-06-04T09:17:22Z</time>
      </trkpt>
      <trkpt lat="45.9711" lon="6.52147">
        <ele>1718</ele>
        <time>2011-06-04T09:17:25Z</time>
      </trkpt>
      <trkpt lat="45.97111" lon="6.52141">
        <ele>1718</ele>
        <time>2011-06-04T09:17:27Z</time>
      </trkpt>
      <trkpt lat="45.97112" lon="6.52133">
        <ele>1718</ele>
        <time>2011-06-04T09:17:29Z</time>
      </trkpt>
      <trkpt lat="45.97114" lon="6.52127">
        <ele>1718</ele>
        <time>2011-06-04T09:17:31Z</time>
      </trkpt>
      <trkpt lat="45.97115" lon="6.52122">
        <ele>1718</ele>
        <time>2011-06-04T09:17:33Z</time>
      </trkpt>
      <trkpt lat="45.97116" lon="6.52121">
        <ele>1718</ele>
        <time>2011-06-04T09:17:36Z</time>
      </trkpt>
      <trkpt lat="45.97115" lon="6.5212">
        <ele>1718</ele>
        <time>2011-06-04T09:17:43Z</time>
      </trkpt>
      <trkpt lat="45.97117" lon="6.52115">
        <ele>1721</ele>
        <time>2011-06-04T09:17:53Z</time>
      </trkpt>
      <trkpt lat="45.97118" lon="6.52111">
        <ele>1721</ele>
        <time>2011-06-04T09:17:55Z</time>
      </trkpt>
      <trkpt lat="45.97119" lon="6.52106">
        <ele>1721</ele>
        <time>2011-06-04T09:17:57Z</time>
      </trkpt>
      <trkpt lat="45.97121" lon="6.52101">
        <ele>1721</ele>
        <time>2011-06-04T09:17:59Z</time>
      </trkpt>
      <trkpt lat="45.97123" lon="6.52096">
        <ele>1721</ele>
        <time>2011-06-04T09:18:01Z</time>
      </trkpt>
      <trkpt lat="45.97127" lon="6.52085">
        <ele>1721</ele>
        <time>2011-06-04T09:18:04Z</time>
      </trkpt>
      <trkpt lat="45.97131" lon="6.52072">
        <ele>1721</ele>
        <time>2011-06-04T09:18:07Z</time>
      </trkpt>
      <trkpt lat="45.97135" lon="6.52061">
        <ele>1721</ele>
        <time>2011-06-04T09:18:10Z</time>
      </trkpt>
      <trkpt lat="45.97135" lon="6.52055">
        <ele>1721</ele>
        <time>2011-06-04T09:18:12Z</time>
      </trkpt>
      <trkpt lat="45.97134" lon="6.5205">
        <ele>1721</ele>
        <time>2011-06-04T09:18:14Z</time>
      </trkpt>
      <trkpt lat="45.97132" lon="6.52045">
        <ele>1721</ele>
        <time>2011-06-04T09:18:16Z</time>
      </trkpt>
      <trkpt lat="45.97128" lon="6.52037">
        <ele>1721</ele>
        <time>2011-06-04T09:18:19Z</time>
      </trkpt>
      <trkpt lat="45.97126" lon="6.52032">
        <ele>1722</ele>
        <time>2011-06-04T09:18:21Z</time>
      </trkpt>
      <trkpt lat="45.97122" lon="6.52024">
        <ele>1722</ele>
        <time>2011-06-04T09:18:24Z</time>
      </trkpt>
      <trkpt lat="45.97121" lon="6.52016">
        <ele>1723</ele>
        <time>2011-06-04T09:18:27Z</time>
      </trkpt>
      <trkpt lat="45.97119" lon="6.52013">
        <ele>1724</ele>
        <time>2011-06-04T09:18:29Z</time>
      </trkpt>
      <trkpt lat="45.97117" lon="6.5201">
        <ele>1724</ele>
        <time>2011-06-04T09:18:31Z</time>
      </trkpt>
      <trkpt lat="45.97116" lon="6.52008">
        <ele>1724</ele>
        <time>2011-06-04T09:18:33Z</time>
      </trkpt>
      <trkpt lat="45.97117" lon="6.52004">
        <ele>1725</ele>
        <time>2011-06-04T09:18:36Z</time>
      </trkpt>
      <trkpt lat="45.9712" lon="6.52">
        <ele>1725</ele>
        <time>2011-06-04T09:18:38Z</time>
      </trkpt>
      <trkpt lat="45.9712" lon="6.51996">
        <ele>1725</ele>
        <time>2011-06-04T09:18:40Z</time>
      </trkpt>
      <trkpt lat="45.97119" lon="6.51992">
        <ele>1725</ele>
        <time>2011-06-04T09:18:42Z</time>
      </trkpt>
      <trkpt lat="45.97119" lon="6.51987">
        <ele>1725</ele>
        <time>2011-06-04T09:18:44Z</time>
      </trkpt>
      <trkpt lat="45.9712" lon="6.51982">
        <ele>1725</ele>
        <time>2011-06-04T09:18:46Z</time>
      </trkpt>
      <trkpt lat="45.97121" lon="6.51978">
        <ele>1725</ele>
        <time>2011-06-04T09:18:48Z</time>
      </trkpt>
      <trkpt lat="45.97122" lon="6.51973">
        <ele>1725</ele>
        <time>2011-06-04T09:18:50Z</time>
      </trkpt>
      <trkpt lat="45.97123" lon="6.51967">
        <ele>1725</ele>
        <time>2011-06-04T09:18:53Z</time>
      </trkpt>
      <trkpt lat="45.97123" lon="6.51963">
        <ele>1725</ele>
        <time>2011-06-04T09:18:55Z</time>
      </trkpt>
      <trkpt lat="45.97122" lon="6.51959">
        <ele>1726</ele>
        <time>2011-06-04T09:18:57Z</time>
      </trkpt>
      <trkpt lat="45.97121" lon="6.51952">
        <ele>1727</ele>
        <time>2011-06-04T09:19:00Z</time>
      </trkpt>
      <trkpt lat="45.97121" lon="6.51948">
        <ele>1728</ele>
        <time>2011-06-04T09:19:02Z</time>
      </trkpt>
      <trkpt lat="45.97122" lon="6.51941">
        <ele>1729</ele>
        <time>2011-06-04T09:19:05Z</time>
      </trkpt>
      <trkpt lat="45.97124" lon="6.51936">
        <ele>1730</ele>
        <time>2011-06-04T09:19:07Z</time>
      </trkpt>
      <trkpt lat="45.97127" lon="6.51928">
        <ele>1730</ele>
        <time>2011-06-04T09:19:10Z</time>
      </trkpt>
      <trkpt lat="45.9713" lon="6.51923">
        <ele>1730</ele>
        <time>2011-06-04T09:19:12Z</time>
      </trkpt>
      <trkpt lat="45.97135" lon="6.51917">
        <ele>1730</ele>
        <time>2011-06-04T09:19:15Z</time>
      </trkpt>
      <trkpt lat="45.97138" lon="6.51911">
        <ele>1730</ele>
        <time>2011-06-04T09:19:17Z</time>
      </trkpt>
      <trkpt lat="45.9714" lon="6.519">
        <ele>1730</ele>
        <time>2011-06-04T09:19:20Z</time>
      </trkpt>
      <trkpt lat="45.97137" lon="6.51895">
        <ele>1730</ele>
        <time>2011-06-04T09:19:22Z</time>
      </trkpt>
      <trkpt lat="45.97136" lon="6.51889">
        <ele>1730</ele>
        <time>2011-06-04T09:19:24Z</time>
      </trkpt>
      <trkpt lat="45.97133" lon="6.51878">
        <ele>1730</ele>
        <time>2011-06-04T09:19:27Z</time>
      </trkpt>
      <trkpt lat="45.9713" lon="6.51869">
        <ele>1730</ele>
        <time>2011-06-04T09:19:30Z</time>
      </trkpt>
      <trkpt lat="45.97127" lon="6.51863">
        <ele>1730</ele>
        <time>2011-06-04T09:19:32Z</time>
      </trkpt>
      <trkpt lat="45.97124" lon="6.51854">
        <ele>1731</ele>
        <time>2011-06-04T09:19:35Z</time>
      </trkpt>
      <trkpt lat="45.97124" lon="6.51848">
        <ele>1732</ele>
        <time>2011-06-04T09:19:37Z</time>
      </trkpt>
      <trkpt lat="45.97126" lon="6.51838">
        <ele>1732</ele>
        <time>2011-06-04T09:19:40Z</time>
      </trkpt>
      <trkpt lat="45.97129" lon="6.51833">
        <ele>1732</ele>
        <time>2011-06-04T09:19:42Z</time>
      </trkpt>
      <trkpt lat="45.97133" lon="6.51827">
        <ele>1732</ele>
        <time>2011-06-04T09:19:46Z</time>
      </trkpt>
      <trkpt lat="45.97133" lon="6.51823">
        <ele>1732</ele>
        <time>2011-06-04T09:19:48Z</time>
      </trkpt>
      <trkpt lat="45.97131" lon="6.51819">
        <ele>1732</ele>
        <time>2011-06-04T09:19:50Z</time>
      </trkpt>
      <trkpt lat="45.97128" lon="6.51814">
        <ele>1732</ele>
        <time>2011-06-04T09:19:52Z</time>
      </trkpt>
      <trkpt lat="45.97123" lon="6.51809">
        <ele>1732</ele>
        <time>2011-06-04T09:19:55Z</time>
      </trkpt>
      <trkpt lat="45.9712" lon="6.51803">
        <ele>1732</ele>
        <time>2011-06-04T09:19:58Z</time>
      </trkpt>
      <trkpt lat="45.97116" lon="6.51796">
        <ele>1732</ele>
        <time>2011-06-04T09:20:01Z</time>
      </trkpt>
      <trkpt lat="45.97114" lon="6.51791">
        <ele>1732</ele>
        <time>2011-06-04T09:20:03Z</time>
      </trkpt>
      <trkpt lat="45.97112" lon="6.51781">
        <ele>1732</ele>
        <time>2011-06-04T09:20:06Z</time>
      </trkpt>
      <trkpt lat="45.97111" lon="6.51773">
        <ele>1732</ele>
        <time>2011-06-04T09:20:08Z</time>
      </trkpt>
      <trkpt lat="45.9711" lon="6.51764">
        <ele>1733</ele>
        <time>2011-06-04T09:20:11Z</time>
      </trkpt>
      <trkpt lat="45.97111" lon="6.5176">
        <ele>1733</ele>
        <time>2011-06-04T09:20:13Z</time>
      </trkpt>
      <trkpt lat="45.97111" lon="6.51756">
        <ele>1734</ele>
        <time>2011-06-04T09:20:15Z</time>
      </trkpt>
      <trkpt lat="45.97113" lon="6.51751">
        <ele>1735</ele>
        <time>2011-06-04T09:20:17Z</time>
      </trkpt>
      <trkpt lat="45.97116" lon="6.51748">
        <ele>1735</ele>
        <time>2011-06-04T09:20:19Z</time>
      </trkpt>
      <trkpt lat="45.97121" lon="6.51743">
        <ele>1735</ele>
        <time>2011-06-04T09:20:22Z</time>
      </trkpt>
      <trkpt lat="45.97124" lon="6.51741">
        <ele>1735</ele>
        <time>2011-06-04T09:20:24Z</time>
      </trkpt>
      <trkpt lat="45.97128" lon="6.51737">
        <ele>1735</ele>
        <time>2011-06-04T09:20:28Z</time>
      </trkpt>
      <trkpt lat="45.97127" lon="6.51733">
        <ele>1734</ele>
        <time>2011-06-04T09:20:31Z</time>
      </trkpt>
      <trkpt lat="45.97124" lon="6.51732">
        <ele>1734</ele>
        <time>2011-06-04T09:20:33Z</time>
      </trkpt>
      <trkpt lat="45.9712" lon="6.5173">
        <ele>1734</ele>
        <time>2011-06-04T09:20:35Z</time>
      </trkpt>
      <trkpt lat="45.97117" lon="6.51728">
        <ele>1734</ele>
        <time>2011-06-04T09:20:37Z</time>
      </trkpt>
      <trkpt lat="45.97113" lon="6.51726">
        <ele>1734</ele>
        <time>2011-06-04T09:20:39Z</time>
      </trkpt>
      <trkpt lat="45.97108" lon="6.51723">
        <ele>1734</ele>
        <time>2011-06-04T09:20:42Z</time>
      </trkpt>
      <trkpt lat="45.97106" lon="6.51721">
        <ele>1734</ele>
        <time>2011-06-04T09:20:44Z</time>
      </trkpt>
      <trkpt lat="45.97101" lon="6.51719">
        <ele>1734</ele>
        <time>2011-06-04T09:20:47Z</time>
      </trkpt>
      <trkpt lat="45.97097" lon="6.51717">
        <ele>1734</ele>
        <time>2011-06-04T09:20:49Z</time>
      </trkpt>
      <trkpt lat="45.97092" lon="6.51716">
        <ele>1734</ele>
        <time>2011-06-04T09:20:52Z</time>
      </trkpt>
      <trkpt lat="45.97087" lon="6.51715">
        <ele>1734</ele>
        <time>2011-06-04T09:20:54Z</time>
      </trkpt>
      <trkpt lat="45.97081" lon="6.51712">
        <ele>1735</ele>
        <time>2011-06-04T09:20:57Z</time>
      </trkpt>
      <trkpt lat="45.97078" lon="6.5171">
        <ele>1736</ele>
        <time>2011-06-04T09:20:59Z</time>
      </trkpt>
      <trkpt lat="45.97075" lon="6.51706">
        <ele>1737</ele>
        <time>2011-06-04T09:21:02Z</time>
      </trkpt>
      <trkpt lat="45.97072" lon="6.51703">
        <ele>1737</ele>
        <time>2011-06-04T09:21:04Z</time>
      </trkpt>
      <trkpt lat="45.97069" lon="6.51699">
        <ele>1738</ele>
        <time>2011-06-04T09:21:07Z</time>
      </trkpt>
      <trkpt lat="45.97067" lon="6.51695">
        <ele>1738</ele>
        <time>2011-06-04T09:21:09Z</time>
      </trkpt>
      <trkpt lat="45.97063" lon="6.5169">
        <ele>1739</ele>
        <time>2011-06-04T09:21:12Z</time>
      </trkpt>
      <trkpt lat="45.97062" lon="6.51687">
        <ele>1740</ele>
        <time>2011-06-04T09:21:14Z</time>
      </trkpt>
      <trkpt lat="45.9706" lon="6.5168">
        <ele>1741</ele>
        <time>2011-06-04T09:21:17Z</time>
      </trkpt>
      <trkpt lat="45.97058" lon="6.51675">
        <ele>1741</ele>
        <time>2011-06-04T09:21:19Z</time>
      </trkpt>
      <trkpt lat="45.97056" lon="6.51668">
        <ele>1742</ele>
        <time>2011-06-04T09:21:22Z</time>
      </trkpt>
      <trkpt lat="45.97056" lon="6.51663">
        <ele>1742</ele>
        <time>2011-06-04T09:21:24Z</time>
      </trkpt>
      <trkpt lat="45.97056" lon="6.51656">
        <ele>1743</ele>
        <time>2011-06-04T09:21:27Z</time>
      </trkpt>
      <trkpt lat="45.97055" lon="6.51652">
        <ele>1745</ele>
        <time>2011-06-04T09:21:29Z</time>
      </trkpt>
      <trkpt lat="45.97055" lon="6.51645">
        <ele>1747</ele>
        <time>2011-06-04T09:21:32Z</time>
      </trkpt>
      <trkpt lat="45.97055" lon="6.5164">
        <ele>1748</ele>
        <time>2011-06-04T09:21:34Z</time>
      </trkpt>
      <trkpt lat="45.97057" lon="6.51632">
        <ele>1748</ele>
        <time>2011-06-04T09:21:37Z</time>
      </trkpt>
      <trkpt lat="45.97058" lon="6.51628">
        <ele>1748</ele>
        <time>2011-06-04T09:21:39Z</time>
      </trkpt>
      <trkpt lat="45.97059" lon="6.51621">
        <ele>1748</ele>
        <time>2011-06-04T09:21:42Z</time>
      </trkpt>
      <trkpt lat="45.97061" lon="6.51617">
        <ele>1748</ele>
        <time>2011-06-04T09:21:44Z</time>
      </trkpt>
      <trkpt lat="45.97063" lon="6.5161">
        <ele>1748</ele>
        <time>2011-06-04T09:21:47Z</time>
      </trkpt>
      <trkpt lat="45.97065" lon="6.51606">
        <ele>1749</ele>
        <time>2011-06-04T09:21:49Z</time>
      </trkpt>
      <trkpt lat="45.97067" lon="6.51599">
        <ele>1749</ele>
        <time>2011-06-04T09:21:52Z</time>
      </trkpt>
      <trkpt lat="45.9707" lon="6.51594">
        <ele>1749</ele>
        <time>2011-06-04T09:21:54Z</time>
      </trkpt>
      <trkpt lat="45.97074" lon="6.51588">
        <ele>1749</ele>
        <time>2011-06-04T09:21:57Z</time>
      </trkpt>
      <trkpt lat="45.97078" lon="6.51584">
        <ele>1749</ele>
        <time>2011-06-04T09:21:59Z</time>
      </trkpt>
      <trkpt lat="45.97081" lon="6.51581">
        <ele>1749</ele>
        <time>2011-06-04T09:22:01Z</time>
      </trkpt>
      <trkpt lat="45.97084" lon="6.51577">
        <ele>1749</ele>
        <time>2011-06-04T09:22:03Z</time>
      </trkpt>
      <trkpt lat="45.97087" lon="6.51573">
        <ele>1749</ele>
        <time>2011-06-04T09:22:05Z</time>
      </trkpt>
      <trkpt lat="45.9709" lon="6.51569">
        <ele>1748</ele>
        <time>2011-06-04T09:22:07Z</time>
      </trkpt>
      <trkpt lat="45.97093" lon="6.51566">
        <ele>1747</ele>
        <time>2011-06-04T09:22:09Z</time>
      </trkpt>
      <trkpt lat="45.97097" lon="6.51561">
        <ele>1747</ele>
        <time>2011-06-04T09:22:12Z</time>
      </trkpt>
      <trkpt lat="45.971" lon="6.51558">
        <ele>1746</ele>
        <time>2011-06-04T09:22:14Z</time>
      </trkpt>
      <trkpt lat="45.97104" lon="6.51555">
        <ele>1746</ele>
        <time>2011-06-04T09:22:16Z</time>
      </trkpt>
      <trkpt lat="45.97106" lon="6.51553">
        <ele>1745</ele>
        <time>2011-06-04T09:22:18Z</time>
      </trkpt>
      <trkpt lat="45.9711" lon="6.51549">
        <ele>1745</ele>
        <time>2011-06-04T09:22:21Z</time>
      </trkpt>
      <trkpt lat="45.97112" lon="6.51546">
        <ele>1745</ele>
        <time>2011-06-04T09:22:23Z</time>
      </trkpt>
      <trkpt lat="45.97115" lon="6.51544">
        <ele>1745</ele>
        <time>2011-06-04T09:22:25Z</time>
      </trkpt>
      <trkpt lat="45.97117" lon="6.51542">
        <ele>1745</ele>
        <time>2011-06-04T09:22:27Z</time>
      </trkpt>
      <trkpt lat="45.9712" lon="6.51539">
        <ele>1745</ele>
        <time>2011-06-04T09:22:29Z</time>
      </trkpt>
      <trkpt lat="45.97124" lon="6.51536">
        <ele>1745</ele>
        <time>2011-06-04T09:22:31Z</time>
      </trkpt>
      <trkpt lat="45.97127" lon="6.51534">
        <ele>1745</ele>
        <time>2011-06-04T09:22:33Z</time>
      </trkpt>
      <trkpt lat="45.97131" lon="6.51533">
        <ele>1745</ele>
        <time>2011-06-04T09:22:35Z</time>
      </trkpt>
      <trkpt lat="45.97134" lon="6.51531">
        <ele>1745</ele>
        <time>2011-06-04T09:22:37Z</time>
      </trkpt>
      <trkpt lat="45.97138" lon="6.51529">
        <ele>1745</ele>
        <time>2011-06-04T09:22:39Z</time>
      </trkpt>
      <trkpt lat="45.9714" lon="6.51528">
        <ele>1745</ele>
        <time>2011-06-04T09:22:41Z</time>
      </trkpt>
      <trkpt lat="45.97143" lon="6.51526">
        <ele>1745</ele>
        <time>2011-06-04T09:22:43Z</time>
      </trkpt>
      <trkpt lat="45.97145" lon="6.51525">
        <ele>1745</ele>
        <time>2011-06-04T09:22:45Z</time>
      </trkpt>
      <trkpt lat="45.97148" lon="6.51523">
        <ele>1745</ele>
        <time>2011-06-04T09:22:47Z</time>
      </trkpt>
      <trkpt lat="45.97151" lon="6.51521">
        <ele>1745</ele>
        <time>2011-06-04T09:22:49Z</time>
      </trkpt>
      <trkpt lat="45.97154" lon="6.51519">
        <ele>1745</ele>
        <time>2011-06-04T09:22:51Z</time>
      </trkpt>
      <trkpt lat="45.97157" lon="6.51517">
        <ele>1745</ele>
        <time>2011-06-04T09:22:53Z</time>
      </trkpt>
      <trkpt lat="45.97159" lon="6.51515">
        <ele>1745</ele>
        <time>2011-06-04T09:22:55Z</time>
      </trkpt>
      <trkpt lat="45.97162" lon="6.51513">
        <ele>1745</ele>
        <time>2011-06-04T09:22:57Z</time>
      </trkpt>
      <trkpt lat="45.97165" lon="6.51511">
        <ele>1745</ele>
        <time>2011-06-04T09:22:59Z</time>
      </trkpt>
      <trkpt lat="45.97168" lon="6.51509">
        <ele>1745</ele>
        <time>2011-06-04T09:23:01Z</time>
      </trkpt>
      <trkpt lat="45.97171" lon="6.51507">
        <ele>1745</ele>
        <time>2011-06-04T09:23:03Z</time>
      </trkpt>
      <trkpt lat="45.97174" lon="6.51506">
        <ele>1745</ele>
        <time>2011-06-04T09:23:05Z</time>
      </trkpt>
      <trkpt lat="45.97177" lon="6.51505">
        <ele>1745</ele>
        <time>2011-06-04T09:23:07Z</time>
      </trkpt>
      <trkpt lat="45.9718" lon="6.51503">
        <ele>1745</ele>
        <time>2011-06-04T09:23:09Z</time>
      </trkpt>
      <trkpt lat="45.97183" lon="6.51501">
        <ele>1745</ele>
        <time>2011-06-04T09:23:11Z</time>
      </trkpt>
      <trkpt lat="45.97186" lon="6.515">
        <ele>1745</ele>
        <time>2011-06-04T09:23:13Z</time>
      </trkpt>
      <trkpt lat="45.97189" lon="6.51498">
        <ele>1745</ele>
        <time>2011-06-04T09:23:15Z</time>
      </trkpt>
      <trkpt lat="45.97193" lon="6.51496">
        <ele>1745</ele>
        <time>2011-06-04T09:23:17Z</time>
      </trkpt>
      <trkpt lat="45.97196" lon="6.51494">
        <ele>1745</ele>
        <time>2011-06-04T09:23:19Z</time>
      </trkpt>
      <trkpt lat="45.97199" lon="6.51491">
        <ele>1745</ele>
        <time>2011-06-04T09:23:21Z</time>
      </trkpt>
      <trkpt lat="45.97203" lon="6.51488">
        <ele>1745</ele>
        <time>2011-06-04T09:23:23Z</time>
      </trkpt>
      <trkpt lat="45.97206" lon="6.51485">
        <ele>1745</ele>
        <time>2011-06-04T09:23:25Z</time>
      </trkpt>
      <trkpt lat="45.97209" lon="6.51482">
        <ele>1746</ele>
        <time>2011-06-04T09:23:27Z</time>
      </trkpt>
      <trkpt lat="45.97212" lon="6.51479">
        <ele>1746</ele>
        <time>2011-06-04T09:23:29Z</time>
      </trkpt>
      <trkpt lat="45.97214" lon="6.51476">
        <ele>1746</ele>
        <time>2011-06-04T09:23:31Z</time>
      </trkpt>
      <trkpt lat="45.97217" lon="6.51473">
        <ele>1746</ele>
        <time>2011-06-04T09:23:33Z</time>
      </trkpt>
      <trkpt lat="45.9722" lon="6.51471">
        <ele>1746</ele>
        <time>2011-06-04T09:23:35Z</time>
      </trkpt>
      <trkpt lat="45.97224" lon="6.51469">
        <ele>1746</ele>
        <time>2011-06-04T09:23:37Z</time>
      </trkpt>
      <trkpt lat="45.97227" lon="6.51467">
        <ele>1746</ele>
        <time>2011-06-04T09:23:39Z</time>
      </trkpt>
      <trkpt lat="45.97231" lon="6.51466">
        <ele>1746</ele>
        <time>2011-06-04T09:23:41Z</time>
      </trkpt>
      <trkpt lat="45.97234" lon="6.51465">
        <ele>1747</ele>
        <time>2011-06-04T09:23:43Z</time>
      </trkpt>
      <trkpt lat="45.97237" lon="6.51463">
        <ele>1747</ele>
        <time>2011-06-04T09:23:45Z</time>
      </trkpt>
      <trkpt lat="45.97241" lon="6.51461">
        <ele>1748</ele>
        <time>2011-06-04T09:23:47Z</time>
      </trkpt>
      <trkpt lat="45.97244" lon="6.51458">
        <ele>1748</ele>
        <time>2011-06-04T09:23:49Z</time>
      </trkpt>
      <trkpt lat="45.97247" lon="6.51456">
        <ele>1749</ele>
        <time>2011-06-04T09:23:51Z</time>
      </trkpt>
      <trkpt lat="45.9725" lon="6.51453">
        <ele>1749</ele>
        <time>2011-06-04T09:23:54Z</time>
      </trkpt>
      <trkpt lat="45.97253" lon="6.51451">
        <ele>1749</ele>
        <time>2011-06-04T09:23:56Z</time>
      </trkpt>
      <trkpt lat="45.97256" lon="6.51449">
        <ele>1749</ele>
        <time>2011-06-04T09:23:58Z</time>
      </trkpt>
      <trkpt lat="45.9726" lon="6.51444">
        <ele>1749</ele>
        <time>2011-06-04T09:24:01Z</time>
      </trkpt>
      <trkpt lat="45.97261" lon="6.5144">
        <ele>1749</ele>
        <time>2011-06-04T09:24:03Z</time>
      </trkpt>
      <trkpt lat="45.97262" lon="6.51433">
        <ele>1750</ele>
        <time>2011-06-04T09:24:06Z</time>
      </trkpt>
      <trkpt lat="45.97261" lon="6.51429">
        <ele>1751</ele>
        <time>2011-06-04T09:24:08Z</time>
      </trkpt>
      <trkpt lat="45.9726" lon="6.51425">
        <ele>1752</ele>
        <time>2011-06-04T09:24:10Z</time>
      </trkpt>
      <trkpt lat="45.9726" lon="6.51421">
        <ele>1753</ele>
        <time>2011-06-04T09:24:12Z</time>
      </trkpt>
      <trkpt lat="45.9726" lon="6.51415">
        <ele>1754</ele>
        <time>2011-06-04T09:24:14Z</time>
      </trkpt>
      <trkpt lat="45.97259" lon="6.5141">
        <ele>1755</ele>
        <time>2011-06-04T09:24:16Z</time>
      </trkpt>
      <trkpt lat="45.9726" lon="6.51406">
        <ele>1755</ele>
        <time>2011-06-04T09:24:18Z</time>
      </trkpt>
      <trkpt lat="45.9726" lon="6.51401">
        <ele>1755</ele>
        <time>2011-06-04T09:24:20Z</time>
      </trkpt>
      <trkpt lat="45.9726" lon="6.51396">
        <ele>1755</ele>
        <time>2011-06-04T09:24:22Z</time>
      </trkpt>
      <trkpt lat="45.9726" lon="6.51391">
        <ele>1755</ele>
        <time>2011-06-04T09:24:24Z</time>
      </trkpt>
      <trkpt lat="45.97259" lon="6.51386">
        <ele>1755</ele>
        <time>2011-06-04T09:24:26Z</time>
      </trkpt>
      <trkpt lat="45.97259" lon="6.51381">
        <ele>1755</ele>
        <time>2011-06-04T09:24:28Z</time>
      </trkpt>
      <trkpt lat="45.97259" lon="6.51376">
        <ele>1755</ele>
        <time>2011-06-04T09:24:30Z</time>
      </trkpt>
      <trkpt lat="45.97259" lon="6.51371">
        <ele>1755</ele>
        <time>2011-06-04T09:24:32Z</time>
      </trkpt>
      <trkpt lat="45.9726" lon="6.51365">
        <ele>1755</ele>
        <time>2011-06-04T09:24:34Z</time>
      </trkpt>
      <trkpt lat="45.9726" lon="6.51359">
        <ele>1755</ele>
        <time>2011-06-04T09:24:36Z</time>
      </trkpt>
      <trkpt lat="45.97261" lon="6.51353">
        <ele>1755</ele>
        <time>2011-06-04T09:24:38Z</time>
      </trkpt>
      <trkpt lat="45.97262" lon="6.51347">
        <ele>1755</ele>
        <time>2011-06-04T09:24:40Z</time>
      </trkpt>
      <trkpt lat="45.97262" lon="6.51342">
        <ele>1754</ele>
        <time>2011-06-04T09:24:42Z</time>
      </trkpt>
      <trkpt lat="45.97263" lon="6.51336">
        <ele>1754</ele>
        <time>2011-06-04T09:24:44Z</time>
      </trkpt>
      <trkpt lat="45.97265" lon="6.51333">
        <ele>1754</ele>
        <time>2011-06-04T09:24:46Z</time>
      </trkpt>
      <trkpt lat="45.97268" lon="6.51329">
        <ele>1753</ele>
        <time>2011-06-04T09:24:48Z</time>
      </trkpt>
      <trkpt lat="45.97271" lon="6.51327">
        <ele>1752</ele>
        <time>2011-06-04T09:24:50Z</time>
      </trkpt>
      <trkpt lat="45.97274" lon="6.51324">
        <ele>1751</ele>
        <time>2011-06-04T09:24:52Z</time>
      </trkpt>
      <trkpt lat="45.97279" lon="6.51321">
        <ele>1749</ele>
        <time>2011-06-04T09:24:54Z</time>
      </trkpt>
      <trkpt lat="45.97284" lon="6.51318">
        <ele>1748</ele>
        <time>2011-06-04T09:24:56Z</time>
      </trkpt>
      <trkpt lat="45.97289" lon="6.51315">
        <ele>1746</ele>
        <time>2011-06-04T09:24:58Z</time>
      </trkpt>
      <trkpt lat="45.97292" lon="6.51311">
        <ele>1744</ele>
        <time>2011-06-04T09:25:00Z</time>
      </trkpt>
      <trkpt lat="45.97294" lon="6.51305">
        <ele>1743</ele>
        <time>2011-06-04T09:25:02Z</time>
      </trkpt>
      <trkpt lat="45.97296" lon="6.513">
        <ele>1742</ele>
        <time>2011-06-04T09:25:04Z</time>
      </trkpt>
      <trkpt lat="45.97297" lon="6.51295">
        <ele>1741</ele>
        <time>2011-06-04T09:25:06Z</time>
      </trkpt>
      <trkpt lat="45.97297" lon="6.51291">
        <ele>1741</ele>
        <time>2011-06-04T09:25:08Z</time>
      </trkpt>
      <trkpt lat="45.97296" lon="6.51287">
        <ele>1741</ele>
        <time>2011-06-04T09:25:10Z</time>
      </trkpt>
      <trkpt lat="45.97296" lon="6.51282">
        <ele>1741</ele>
        <time>2011-06-04T09:25:12Z</time>
      </trkpt>
      <trkpt lat="45.97296" lon="6.51278">
        <ele>1741</ele>
        <time>2011-06-04T09:25:14Z</time>
      </trkpt>
      <trkpt lat="45.97296" lon="6.51273">
        <ele>1741</ele>
        <time>2011-06-04T09:25:16Z</time>
      </trkpt>
      <trkpt lat="45.97297" lon="6.51269">
        <ele>1741</ele>
        <time>2011-06-04T09:25:18Z</time>
      </trkpt>
      <trkpt lat="45.97299" lon="6.51265">
        <ele>1741</ele>
        <time>2011-06-04T09:25:20Z</time>
      </trkpt>
      <trkpt lat="45.97301" lon="6.51261">
        <ele>1741</ele>
        <time>2011-06-04T09:25:22Z</time>
      </trkpt>
      <trkpt lat="45.97302" lon="6.51256">
        <ele>1741</ele>
        <time>2011-06-04T09:25:24Z</time>
      </trkpt>
      <trkpt lat="45.97301" lon="6.51252">
        <ele>1741</ele>
        <time>2011-06-04T09:25:26Z</time>
      </trkpt>
      <trkpt lat="45.97303" lon="6.51247">
        <ele>1742</ele>
        <time>2011-06-04T09:25:28Z</time>
      </trkpt>
      <trkpt lat="45.97304" lon="6.51244">
        <ele>1744</ele>
        <time>2011-06-04T09:25:30Z</time>
      </trkpt>
      <trkpt lat="45.97305" lon="6.51239">
        <ele>1744</ele>
        <time>2011-06-04T09:25:32Z</time>
      </trkpt>
      <trkpt lat="45.97305" lon="6.51235">
        <ele>1744</ele>
        <time>2011-06-04T09:25:34Z</time>
      </trkpt>
      <trkpt lat="45.97304" lon="6.51231">
        <ele>1744</ele>
        <time>2011-06-04T09:25:36Z</time>
      </trkpt>
      <trkpt lat="45.97303" lon="6.51225">
        <ele>1744</ele>
        <time>2011-06-04T09:25:38Z</time>
      </trkpt>
      <trkpt lat="45.97301" lon="6.51219">
        <ele>1744</ele>
        <time>2011-06-04T09:25:40Z</time>
      </trkpt>
      <trkpt lat="45.973" lon="6.51215">
        <ele>1744</ele>
        <time>2011-06-04T09:25:42Z</time>
      </trkpt>
      <trkpt lat="45.973" lon="6.51211">
        <ele>1744</ele>
        <time>2011-06-04T09:25:44Z</time>
      </trkpt>
      <trkpt lat="45.97301" lon="6.51207">
        <ele>1744</ele>
        <time>2011-06-04T09:25:47Z</time>
      </trkpt>
      <trkpt lat="45.97301" lon="6.51206">
        <ele>1744</ele>
        <time>2011-06-04T09:25:51Z</time>
      </trkpt>
      <trkpt lat="45.97301" lon="6.51204">
        <ele>1745</ele>
        <time>2011-06-04T09:25:59Z</time>
      </trkpt>
      <trkpt lat="45.97302" lon="6.51202">
        <ele>1745</ele>
        <time>2011-06-04T09:26:12Z</time>
      </trkpt>
      <trkpt lat="45.97303" lon="6.51201">
        <ele>1745</ele>
        <time>2011-06-04T09:26:15Z</time>
      </trkpt>
      <trkpt lat="45.97304" lon="6.512">
        <ele>1745</ele>
        <time>2011-06-04T09:26:18Z</time>
      </trkpt>
      <trkpt lat="45.97302" lon="6.51196">
        <ele>1745</ele>
        <time>2011-06-04T09:26:21Z</time>
      </trkpt>
      <trkpt lat="45.97303" lon="6.51192">
        <ele>1745</ele>
        <time>2011-06-04T09:26:23Z</time>
      </trkpt>
      <trkpt lat="45.97302" lon="6.51191">
        <ele>1745</ele>
        <time>2011-06-04T09:26:26Z</time>
      </trkpt>
      <trkpt lat="45.97303" lon="6.51189">
        <ele>1745</ele>
        <time>2011-06-04T09:26:32Z</time>
      </trkpt>
      <trkpt lat="45.97303" lon="6.51187">
        <ele>1745</ele>
        <time>2011-06-04T09:26:34Z</time>
      </trkpt>
      <trkpt lat="45.97304" lon="6.51186">
        <ele>1746</ele>
        <time>2011-06-04T09:26:36Z</time>
      </trkpt>
      <trkpt lat="45.97305" lon="6.51184">
        <ele>1746</ele>
        <time>2011-06-04T09:26:38Z</time>
      </trkpt>
      <trkpt lat="45.97304" lon="6.5118">
        <ele>1746</ele>
        <time>2011-06-04T09:26:40Z</time>
      </trkpt>
      <trkpt lat="45.97304" lon="6.51176">
        <ele>1746</ele>
        <time>2011-06-04T09:26:42Z</time>
      </trkpt>
      <trkpt lat="45.97303" lon="6.51172">
        <ele>1746</ele>
        <time>2011-06-04T09:26:44Z</time>
      </trkpt>
      <trkpt lat="45.97301" lon="6.51168">
        <ele>1746</ele>
        <time>2011-06-04T09:26:46Z</time>
      </trkpt>
      <trkpt lat="45.97298" lon="6.51164">
        <ele>1746</ele>
        <time>2011-06-04T09:26:48Z</time>
      </trkpt>
      <trkpt lat="45.97296" lon="6.51161">
        <ele>1746</ele>
        <time>2011-06-04T09:26:50Z</time>
      </trkpt>
      <trkpt lat="45.97293" lon="6.51156">
        <ele>1746</ele>
        <time>2011-06-04T09:26:52Z</time>
      </trkpt>
      <trkpt lat="45.9729" lon="6.51151">
        <ele>1746</ele>
        <time>2011-06-04T09:26:54Z</time>
      </trkpt>
      <trkpt lat="45.97286" lon="6.51146">
        <ele>1746</ele>
        <time>2011-06-04T09:26:56Z</time>
      </trkpt>
      <trkpt lat="45.97281" lon="6.51139">
        <ele>1746</ele>
        <time>2011-06-04T09:26:58Z</time>
      </trkpt>
      <trkpt lat="45.97277" lon="6.51133">
        <ele>1746</ele>
        <time>2011-06-04T09:27:00Z</time>
      </trkpt>
      <trkpt lat="45.97274" lon="6.51127">
        <ele>1746</ele>
        <time>2011-06-04T09:27:02Z</time>
      </trkpt>
      <trkpt lat="45.97272" lon="6.51121">
        <ele>1747</ele>
        <time>2011-06-04T09:27:04Z</time>
      </trkpt>
      <trkpt lat="45.9727" lon="6.51116">
        <ele>1748</ele>
        <time>2011-06-04T09:27:06Z</time>
      </trkpt>
      <trkpt lat="45.97269" lon="6.51111">
        <ele>1749</ele>
        <time>2011-06-04T09:27:08Z</time>
      </trkpt>
      <trkpt lat="45.97266" lon="6.51105">
        <ele>1749</ele>
        <time>2011-06-04T09:27:10Z</time>
      </trkpt>
      <trkpt lat="45.97262" lon="6.511">
        <ele>1750</ele>
        <time>2011-06-04T09:27:12Z</time>
      </trkpt>
      <trkpt lat="45.97259" lon="6.51096">
        <ele>1750</ele>
        <time>2011-06-04T09:27:14Z</time>
      </trkpt>
      <trkpt lat="45.97255" lon="6.51092">
        <ele>1751</ele>
        <time>2011-06-04T09:27:16Z</time>
      </trkpt>
      <trkpt lat="45.97253" lon="6.51086">
        <ele>1752</ele>
        <time>2011-06-04T09:27:18Z</time>
      </trkpt>
      <trkpt lat="45.9725" lon="6.5108">
        <ele>1753</ele>
        <time>2011-06-04T09:27:20Z</time>
      </trkpt>
      <trkpt lat="45.97247" lon="6.51074">
        <ele>1753</ele>
        <time>2011-06-04T09:27:22Z</time>
      </trkpt>
      <trkpt lat="45.97244" lon="6.51067">
        <ele>1754</ele>
        <time>2011-06-04T09:27:24Z</time>
      </trkpt>
      <trkpt lat="45.97241" lon="6.51059">
        <ele>1754</ele>
        <time>2011-06-04T09:27:26Z</time>
      </trkpt>
      <trkpt lat="45.97239" lon="6.51052">
        <ele>1754</ele>
        <time>2011-06-04T09:27:28Z</time>
      </trkpt>
      <trkpt lat="45.97237" lon="6.51043">
        <ele>1755</ele>
        <time>2011-06-04T09:27:30Z</time>
      </trkpt>
      <trkpt lat="45.97234" lon="6.51034">
        <ele>1756</ele>
        <time>2011-06-04T09:27:32Z</time>
      </trkpt>
      <trkpt lat="45.97232" lon="6.51027">
        <ele>1757</ele>
        <time>2011-06-04T09:27:34Z</time>
      </trkpt>
      <trkpt lat="45.9723" lon="6.51019">
        <ele>1758</ele>
        <time>2011-06-04T09:27:36Z</time>
      </trkpt>
      <trkpt lat="45.97228" lon="6.51011">
        <ele>1759</ele>
        <time>2011-06-04T09:27:38Z</time>
      </trkpt>
      <trkpt lat="45.97225" lon="6.51003">
        <ele>1760</ele>
        <time>2011-06-04T09:27:40Z</time>
      </trkpt>
      <trkpt lat="45.97224" lon="6.50995">
        <ele>1761</ele>
        <time>2011-06-04T09:27:42Z</time>
      </trkpt>
      <trkpt lat="45.97222" lon="6.50988">
        <ele>1762</ele>
        <time>2011-06-04T09:27:44Z</time>
      </trkpt>
      <trkpt lat="45.97222" lon="6.50981">
        <ele>1763</ele>
        <time>2011-06-04T09:27:46Z</time>
      </trkpt>
      <trkpt lat="45.97222" lon="6.50973">
        <ele>1764</ele>
        <time>2011-06-04T09:27:48Z</time>
      </trkpt>
      <trkpt lat="45.97221" lon="6.50967">
        <ele>1765</ele>
        <time>2011-06-04T09:27:50Z</time>
      </trkpt>
      <trkpt lat="45.97221" lon="6.50962">
        <ele>1765</ele>
        <time>2011-06-04T09:27:52Z</time>
      </trkpt>
      <trkpt lat="45.97221" lon="6.50958">
        <ele>1766</ele>
        <time>2011-06-04T09:27:54Z</time>
      </trkpt>
      <trkpt lat="45.9722" lon="6.50951">
        <ele>1766</ele>
        <time>2011-06-04T09:27:56Z</time>
      </trkpt>
      <trkpt lat="45.9722" lon="6.50947">
        <ele>1766</ele>
        <time>2011-06-04T09:27:58Z</time>
      </trkpt>
      <trkpt lat="45.9722" lon="6.50943">
        <ele>1766</ele>
        <time>2011-06-04T09:28:00Z</time>
      </trkpt>
      <trkpt lat="45.97219" lon="6.50939">
        <ele>1766</ele>
        <time>2011-06-04T09:28:02Z</time>
      </trkpt>
      <trkpt lat="45.97219" lon="6.50935">
        <ele>1766</ele>
        <time>2011-06-04T09:28:04Z</time>
      </trkpt>
      <trkpt lat="45.97218" lon="6.50931">
        <ele>1766</ele>
        <time>2011-06-04T09:28:06Z</time>
      </trkpt>
      <trkpt lat="45.97217" lon="6.50925">
        <ele>1767</ele>
        <time>2011-06-04T09:28:08Z</time>
      </trkpt>
      <trkpt lat="45.97216" lon="6.50921">
        <ele>1768</ele>
        <time>2011-06-04T09:28:11Z</time>
      </trkpt>
      <trkpt lat="45.97214" lon="6.50917">
        <ele>1768</ele>
        <time>2011-06-04T09:28:13Z</time>
      </trkpt>
      <trkpt lat="45.97213" lon="6.50915">
        <ele>1768</ele>
        <time>2011-06-04T09:28:15Z</time>
      </trkpt>
      <trkpt lat="45.97211" lon="6.50911">
        <ele>1768</ele>
        <time>2011-06-04T09:28:17Z</time>
      </trkpt>
      <trkpt lat="45.97209" lon="6.50908">
        <ele>1768</ele>
        <time>2011-06-04T09:28:19Z</time>
      </trkpt>
      <trkpt lat="45.97208" lon="6.50905">
        <ele>1768</ele>
        <time>2011-06-04T09:28:21Z</time>
      </trkpt>
      <trkpt lat="45.97206" lon="6.50902">
        <ele>1768</ele>
        <time>2011-06-04T09:28:23Z</time>
      </trkpt>
      <trkpt lat="45.97203" lon="6.50899">
        <ele>1768</ele>
        <time>2011-06-04T09:28:25Z</time>
      </trkpt>
      <trkpt lat="45.97201" lon="6.50896">
        <ele>1768</ele>
        <time>2011-06-04T09:28:27Z</time>
      </trkpt>
      <trkpt lat="45.97198" lon="6.50892">
        <ele>1768</ele>
        <time>2011-06-04T09:28:29Z</time>
      </trkpt>
      <trkpt lat="45.97195" lon="6.50888">
        <ele>1768</ele>
        <time>2011-06-04T09:28:31Z</time>
      </trkpt>
      <trkpt lat="45.97192" lon="6.50886">
        <ele>1768</ele>
        <time>2011-06-04T09:28:33Z</time>
      </trkpt>
      <trkpt lat="45.9719" lon="6.50883">
        <ele>1768</ele>
        <time>2011-06-04T09:28:35Z</time>
      </trkpt>
      <trkpt lat="45.97188" lon="6.50879">
        <ele>1770</ele>
        <time>2011-06-04T09:28:37Z</time>
      </trkpt>
      <trkpt lat="45.97187" lon="6.50874">
        <ele>1771</ele>
        <time>2011-06-04T09:28:39Z</time>
      </trkpt>
      <trkpt lat="45.97186" lon="6.50869">
        <ele>1772</ele>
        <time>2011-06-04T09:28:41Z</time>
      </trkpt>
      <trkpt lat="45.97185" lon="6.50864">
        <ele>1773</ele>
        <time>2011-06-04T09:28:43Z</time>
      </trkpt>
      <trkpt lat="45.97186" lon="6.50856">
        <ele>1773</ele>
        <time>2011-06-04T09:28:46Z</time>
      </trkpt>
      <trkpt lat="45.97185" lon="6.50854">
        <ele>1773</ele>
        <time>2011-06-04T09:28:48Z</time>
      </trkpt>
      <trkpt lat="45.97186" lon="6.50853">
        <ele>1773</ele>
        <time>2011-06-04T09:28:50Z</time>
      </trkpt>
      <trkpt lat="45.97187" lon="6.5085">
        <ele>1773</ele>
        <time>2011-06-04T09:28:53Z</time>
      </trkpt>
      <trkpt lat="45.97189" lon="6.50848">
        <ele>1773</ele>
        <time>2011-06-04T09:28:55Z</time>
      </trkpt>
      <trkpt lat="45.97191" lon="6.50845">
        <ele>1773</ele>
        <time>2011-06-04T09:28:57Z</time>
      </trkpt>
      <trkpt lat="45.97192" lon="6.50843">
        <ele>1773</ele>
        <time>2011-06-04T09:28:59Z</time>
      </trkpt>
      <trkpt lat="45.97193" lon="6.5084">
        <ele>1772</ele>
        <time>2011-06-04T09:29:01Z</time>
      </trkpt>
      <trkpt lat="45.97193" lon="6.50837">
        <ele>1772</ele>
        <time>2011-06-04T09:29:03Z</time>
      </trkpt>
      <trkpt lat="45.97192" lon="6.50835">
        <ele>1771</ele>
        <time>2011-06-04T09:29:05Z</time>
      </trkpt>
      <trkpt lat="45.97192" lon="6.50831">
        <ele>1771</ele>
        <time>2011-06-04T09:29:07Z</time>
      </trkpt>
      <trkpt lat="45.97191" lon="6.50827">
        <ele>1770</ele>
        <time>2011-06-04T09:29:10Z</time>
      </trkpt>
      <trkpt lat="45.9719" lon="6.50824">
        <ele>1770</ele>
        <time>2011-06-04T09:29:12Z</time>
      </trkpt>
      <trkpt lat="45.9719" lon="6.50822">
        <ele>1770</ele>
        <time>2011-06-04T09:29:14Z</time>
      </trkpt>
      <trkpt lat="45.97189" lon="6.50819">
        <ele>1770</ele>
        <time>2011-06-04T09:29:16Z</time>
      </trkpt>
      <trkpt lat="45.97186" lon="6.50817">
        <ele>1770</ele>
        <time>2011-06-04T09:29:18Z</time>
      </trkpt>
      <trkpt lat="45.97183" lon="6.50813">
        <ele>1770</ele>
        <time>2011-06-04T09:29:21Z</time>
      </trkpt>
      <trkpt lat="45.97181" lon="6.5081">
        <ele>1770</ele>
        <time>2011-06-04T09:29:23Z</time>
      </trkpt>
      <trkpt lat="45.97178" lon="6.50808">
        <ele>1770</ele>
        <time>2011-06-04T09:29:25Z</time>
      </trkpt>
      <trkpt lat="45.97176" lon="6.50807">
        <ele>1770</ele>
        <time>2011-06-04T09:29:27Z</time>
      </trkpt>
      <trkpt lat="45.97174" lon="6.50804">
        <ele>1770</ele>
        <time>2011-06-04T09:29:30Z</time>
      </trkpt>
      <trkpt lat="45.97172" lon="6.50802">
        <ele>1770</ele>
        <time>2011-06-04T09:29:32Z</time>
      </trkpt>
      <trkpt lat="45.97171" lon="6.50801">
        <ele>1770</ele>
        <time>2011-06-04T09:29:34Z</time>
      </trkpt>
      <trkpt lat="45.97169" lon="6.50799">
        <ele>1770</ele>
        <time>2011-06-04T09:29:36Z</time>
      </trkpt>
      <trkpt lat="45.97167" lon="6.50797">
        <ele>1770</ele>
        <time>2011-06-04T09:29:38Z</time>
      </trkpt>
      <trkpt lat="45.9715" lon="6.50753">
        <ele>1760</ele>
        <time>2011-06-04T09:29:40Z</time>
      </trkpt>
      <trkpt lat="45.97147" lon="6.50747">
        <ele>1760</ele>
        <time>2011-06-04T09:29:42Z</time>
      </trkpt>
      <trkpt lat="45.97143" lon="6.50739">
        <ele>1760</ele>
        <time>2011-06-04T09:29:44Z</time>
      </trkpt>
      <trkpt lat="45.97138" lon="6.50728">
        <ele>1760</ele>
        <time>2011-06-04T09:29:46Z</time>
      </trkpt>
      <trkpt lat="45.97134" lon="6.50717">
        <ele>1760</ele>
        <time>2011-06-04T09:29:48Z</time>
      </trkpt>
      <trkpt lat="45.97128" lon="6.50704">
        <ele>1760</ele>
        <time>2011-06-04T09:29:50Z</time>
      </trkpt>
      <trkpt lat="45.97122" lon="6.50689">
        <ele>1760</ele>
        <time>2011-06-04T09:29:52Z</time>
      </trkpt>
      <trkpt lat="45.97117" lon="6.50673">
        <ele>1760</ele>
        <time>2011-06-04T09:29:54Z</time>
      </trkpt>
      <trkpt lat="45.97113" lon="6.50654">
        <ele>1760</ele>
        <time>2011-06-04T09:29:56Z</time>
      </trkpt>
      <trkpt lat="45.97106" lon="6.50635">
        <ele>1760</ele>
        <time>2011-06-04T09:29:58Z</time>
      </trkpt>
      <trkpt lat="45.97101" lon="6.50613">
        <ele>1760</ele>
        <time>2011-06-04T09:30:00Z</time>
      </trkpt>
      <trkpt lat="45.97096" lon="6.50593">
        <ele>1760</ele>
        <time>2011-06-04T09:30:02Z</time>
      </trkpt>
      <trkpt lat="45.97093" lon="6.50583">
        <ele>1759</ele>
        <time>2011-06-04T09:30:04Z</time>
      </trkpt>
      <trkpt lat="45.97091" lon="6.50576">
        <ele>1758</ele>
        <time>2011-06-04T09:30:06Z</time>
      </trkpt>
      <trkpt lat="45.97089" lon="6.50568">
        <ele>1758</ele>
        <time>2011-06-04T09:30:08Z</time>
      </trkpt>
      <trkpt lat="45.97086" lon="6.50556">
        <ele>1758</ele>
        <time>2011-06-04T09:30:10Z</time>
      </trkpt>
      <trkpt lat="45.97083" lon="6.50543">
        <ele>1758</ele>
        <time>2011-06-04T09:30:12Z</time>
      </trkpt>
      <trkpt lat="45.97078" lon="6.50528">
        <ele>1758</ele>
        <time>2011-06-04T09:30:14Z</time>
      </trkpt>
      <trkpt lat="45.97076" lon="6.50513">
        <ele>1757</ele>
        <time>2011-06-04T09:30:16Z</time>
      </trkpt>
      <trkpt lat="45.97073" lon="6.50497">
        <ele>1757</ele>
        <time>2011-06-04T09:30:18Z</time>
      </trkpt>
      <trkpt lat="45.97072" lon="6.5048">
        <ele>1756</ele>
        <time>2011-06-04T09:30:20Z</time>
      </trkpt>
      <trkpt lat="45.97069" lon="6.50463">
        <ele>1754</ele>
        <time>2011-06-04T09:30:22Z</time>
      </trkpt>
      <trkpt lat="45.97063" lon="6.50448">
        <ele>1753</ele>
        <time>2011-06-04T09:30:24Z</time>
      </trkpt>
      <trkpt lat="45.97058" lon="6.50437">
        <ele>1753</ele>
        <time>2011-06-04T09:30:26Z</time>
      </trkpt>
      <trkpt lat="45.97054" lon="6.50428">
        <ele>1753</ele>
        <time>2011-06-04T09:30:28Z</time>
      </trkpt>
      <trkpt lat="45.97049" lon="6.50417">
        <ele>1753</ele>
        <time>2011-06-04T09:30:30Z</time>
      </trkpt>
      <trkpt lat="45.97044" lon="6.50407">
        <ele>1753</ele>
        <time>2011-06-04T09:30:32Z</time>
      </trkpt>
      <trkpt lat="45.9704" lon="6.50398">
        <ele>1753</ele>
        <time>2011-06-04T09:30:34Z</time>
      </trkpt>
      <trkpt lat="45.97036" lon="6.5039">
        <ele>1753</ele>
        <time>2011-06-04T09:30:36Z</time>
      </trkpt>
      <trkpt lat="45.97032" lon="6.50381">
        <ele>1753</ele>
        <time>2011-06-04T09:30:38Z</time>
      </trkpt>
      <trkpt lat="45.97028" lon="6.50372">
        <ele>1753</ele>
        <time>2011-06-04T09:30:40Z</time>
      </trkpt>
      <trkpt lat="45.97023" lon="6.50365">
        <ele>1753</ele>
        <time>2011-06-04T09:30:42Z</time>
      </trkpt>
      <trkpt lat="45.9702" lon="6.50358">
        <ele>1753</ele>
        <time>2011-06-04T09:30:44Z</time>
      </trkpt>
      <trkpt lat="45.97017" lon="6.50352">
        <ele>1753</ele>
        <time>2011-06-04T09:30:46Z</time>
      </trkpt>
      <trkpt lat="45.97015" lon="6.50347">
        <ele>1754</ele>
        <time>2011-06-04T09:30:48Z</time>
      </trkpt>
      <trkpt lat="45.97012" lon="6.50341">
        <ele>1754</ele>
        <time>2011-06-04T09:30:50Z</time>
      </trkpt>
      <trkpt lat="45.97009" lon="6.50334">
        <ele>1754</ele>
        <time>2011-06-04T09:30:52Z</time>
      </trkpt>
      <trkpt lat="45.97005" lon="6.50325">
        <ele>1754</ele>
        <time>2011-06-04T09:30:54Z</time>
      </trkpt>
      <trkpt lat="45.97001" lon="6.50316">
        <ele>1754</ele>
        <time>2011-06-04T09:30:56Z</time>
      </trkpt>
      <trkpt lat="45.96998" lon="6.50309">
        <ele>1754</ele>
        <time>2011-06-04T09:30:58Z</time>
      </trkpt>
      <trkpt lat="45.96994" lon="6.50302">
        <ele>1754</ele>
        <time>2011-06-04T09:31:00Z</time>
      </trkpt>
      <trkpt lat="45.96991" lon="6.50295">
        <ele>1755</ele>
        <time>2011-06-04T09:31:02Z</time>
      </trkpt>
      <trkpt lat="45.96987" lon="6.50288">
        <ele>1755</ele>
        <time>2011-06-04T09:31:04Z</time>
      </trkpt>
      <trkpt lat="45.96984" lon="6.50282">
        <ele>1756</ele>
        <time>2011-06-04T09:31:06Z</time>
      </trkpt>
      <trkpt lat="45.96979" lon="6.50275">
        <ele>1756</ele>
        <time>2011-06-04T09:31:09Z</time>
      </trkpt>
      <trkpt lat="45.96976" lon="6.50271">
        <ele>1756</ele>
        <time>2011-06-04T09:31:11Z</time>
      </trkpt>
      <trkpt lat="45.96973" lon="6.50268">
        <ele>1757</ele>
        <time>2011-06-04T09:31:13Z</time>
      </trkpt>
      <trkpt lat="45.9697" lon="6.50264">
        <ele>1757</ele>
        <time>2011-06-04T09:31:15Z</time>
      </trkpt>
      <trkpt lat="45.96967" lon="6.5026">
        <ele>1757</ele>
        <time>2011-06-04T09:31:17Z</time>
      </trkpt>
      <trkpt lat="45.96964" lon="6.50257">
        <ele>1757</ele>
        <time>2011-06-04T09:31:19Z</time>
      </trkpt>
      <trkpt lat="45.96961" lon="6.50254">
        <ele>1758</ele>
        <time>2011-06-04T09:31:21Z</time>
      </trkpt>
      <trkpt lat="45.96959" lon="6.5025">
        <ele>1759</ele>
        <time>2011-06-04T09:31:23Z</time>
      </trkpt>
      <trkpt lat="45.96956" lon="6.50246">
        <ele>1759</ele>
        <time>2011-06-04T09:31:25Z</time>
      </trkpt>
      <trkpt lat="45.96954" lon="6.50243">
        <ele>1760</ele>
        <time>2011-06-04T09:31:27Z</time>
      </trkpt>
      <trkpt lat="45.96952" lon="6.5024">
        <ele>1760</ele>
        <time>2011-06-04T09:31:29Z</time>
      </trkpt>
      <trkpt lat="45.9695" lon="6.50237">
        <ele>1760</ele>
        <time>2011-06-04T09:31:31Z</time>
      </trkpt>
      <trkpt lat="45.96947" lon="6.50235">
        <ele>1760</ele>
        <time>2011-06-04T09:31:33Z</time>
      </trkpt>
      <trkpt lat="45.96944" lon="6.50232">
        <ele>1760</ele>
        <time>2011-06-04T09:31:35Z</time>
      </trkpt>
      <trkpt lat="45.96942" lon="6.50229">
        <ele>1760</ele>
        <time>2011-06-04T09:31:37Z</time>
      </trkpt>
      <trkpt lat="45.96939" lon="6.50226">
        <ele>1760</ele>
        <time>2011-06-04T09:31:39Z</time>
      </trkpt>
      <trkpt lat="45.96936" lon="6.50224">
        <ele>1760</ele>
        <time>2011-06-04T09:31:41Z</time>
      </trkpt>
      <trkpt lat="45.96934" lon="6.50222">
        <ele>1760</ele>
        <time>2011-06-04T09:31:43Z</time>
      </trkpt>
      <trkpt lat="45.96932" lon="6.50219">
        <ele>1760</ele>
        <time>2011-06-04T09:31:45Z</time>
      </trkpt>
      <trkpt lat="45.96929" lon="6.50215">
        <ele>1760</ele>
        <time>2011-06-04T09:31:48Z</time>
      </trkpt>
      <trkpt lat="45.96926" lon="6.50213">
        <ele>1760</ele>
        <time>2011-06-04T09:31:50Z</time>
      </trkpt>
      <trkpt lat="45.96924" lon="6.50211">
        <ele>1760</ele>
        <time>2011-06-04T09:31:52Z</time>
      </trkpt>
      <trkpt lat="45.96922" lon="6.50208">
        <ele>1760</ele>
        <time>2011-06-04T09:31:54Z</time>
      </trkpt>
      <trkpt lat="45.96919" lon="6.50205">
        <ele>1760</ele>
        <time>2011-06-04T09:31:56Z</time>
      </trkpt>
      <trkpt lat="45.96916" lon="6.50202">
        <ele>1760</ele>
        <time>2011-06-04T09:31:59Z</time>
      </trkpt>
      <trkpt lat="45.96914" lon="6.50199">
        <ele>1760</ele>
        <time>2011-06-04T09:32:01Z</time>
      </trkpt>
      <trkpt lat="45.96911" lon="6.50197">
        <ele>1760</ele>
        <time>2011-06-04T09:32:03Z</time>
      </trkpt>
      <trkpt lat="45.96909" lon="6.50194">
        <ele>1760</ele>
        <time>2011-06-04T09:32:05Z</time>
      </trkpt>
      <trkpt lat="45.96905" lon="6.5019">
        <ele>1760</ele>
        <time>2011-06-04T09:32:08Z</time>
      </trkpt>
      <trkpt lat="45.96902" lon="6.50187">
        <ele>1760</ele>
        <time>2011-06-04T09:32:10Z</time>
      </trkpt>
      <trkpt lat="45.969" lon="6.50184">
        <ele>1760</ele>
        <time>2011-06-04T09:32:12Z</time>
      </trkpt>
      <trkpt lat="45.96898" lon="6.50181">
        <ele>1760</ele>
        <time>2011-06-04T09:32:14Z</time>
      </trkpt>
      <trkpt lat="45.96896" lon="6.50178">
        <ele>1760</ele>
        <time>2011-06-04T09:32:16Z</time>
      </trkpt>
      <trkpt lat="45.96893" lon="6.50175">
        <ele>1760</ele>
        <time>2011-06-04T09:32:18Z</time>
      </trkpt>
      <trkpt lat="45.9689" lon="6.50172">
        <ele>1760</ele>
        <time>2011-06-04T09:32:20Z</time>
      </trkpt>
      <trkpt lat="45.96888" lon="6.5017">
        <ele>1760</ele>
        <time>2011-06-04T09:32:22Z</time>
      </trkpt>
      <trkpt lat="45.96885" lon="6.50168">
        <ele>1760</ele>
        <time>2011-06-04T09:32:24Z</time>
      </trkpt>
      <trkpt lat="45.96881" lon="6.50166">
        <ele>1760</ele>
        <time>2011-06-04T09:32:26Z</time>
      </trkpt>
      <trkpt lat="45.96879" lon="6.50164">
        <ele>1760</ele>
        <time>2011-06-04T09:32:28Z</time>
      </trkpt>
      <trkpt lat="45.96876" lon="6.50161">
        <ele>1760</ele>
        <time>2011-06-04T09:32:30Z</time>
      </trkpt>
      <trkpt lat="45.96873" lon="6.50159">
        <ele>1760</ele>
        <time>2011-06-04T09:32:32Z</time>
      </trkpt>
      <trkpt lat="45.9687" lon="6.50157">
        <ele>1760</ele>
        <time>2011-06-04T09:32:34Z</time>
      </trkpt>
      <trkpt lat="45.96867" lon="6.50155">
        <ele>1760</ele>
        <time>2011-06-04T09:32:36Z</time>
      </trkpt>
      <trkpt lat="45.96865" lon="6.50153">
        <ele>1760</ele>
        <time>2011-06-04T09:32:38Z</time>
      </trkpt>
      <trkpt lat="45.96863" lon="6.50151">
        <ele>1760</ele>
        <time>2011-06-04T09:32:40Z</time>
      </trkpt>
      <trkpt lat="45.96861" lon="6.50149">
        <ele>1760</ele>
        <time>2011-06-04T09:32:42Z</time>
      </trkpt>
      <trkpt lat="45.96858" lon="6.50147">
        <ele>1760</ele>
        <time>2011-06-04T09:32:44Z</time>
      </trkpt>
      <trkpt lat="45.96856" lon="6.50144">
        <ele>1760</ele>
        <time>2011-06-04T09:32:46Z</time>
      </trkpt>
      <trkpt lat="45.96854" lon="6.5014">
        <ele>1760</ele>
        <time>2011-06-04T09:32:48Z</time>
      </trkpt>
      <trkpt lat="45.96852" lon="6.50136">
        <ele>1760</ele>
        <time>2011-06-04T09:32:50Z</time>
      </trkpt>
      <trkpt lat="45.96849" lon="6.50132">
        <ele>1760</ele>
        <time>2011-06-04T09:32:52Z</time>
      </trkpt>
      <trkpt lat="45.96847" lon="6.50128">
        <ele>1760</ele>
        <time>2011-06-04T09:32:54Z</time>
      </trkpt>
      <trkpt lat="45.96844" lon="6.50123">
        <ele>1761</ele>
        <time>2011-06-04T09:32:56Z</time>
      </trkpt>
      <trkpt lat="45.96841" lon="6.50118">
        <ele>1761</ele>
        <time>2011-06-04T09:32:58Z</time>
      </trkpt>
      <trkpt lat="45.96838" lon="6.50112">
        <ele>1761</ele>
        <time>2011-06-04T09:33:00Z</time>
      </trkpt>
      <trkpt lat="45.96834" lon="6.50105">
        <ele>1761</ele>
        <time>2011-06-04T09:33:02Z</time>
      </trkpt>
      <trkpt lat="45.96831" lon="6.50099">
        <ele>1761</ele>
        <time>2011-06-04T09:33:04Z</time>
      </trkpt>
      <trkpt lat="45.96828" lon="6.50094">
        <ele>1761</ele>
        <time>2011-06-04T09:33:06Z</time>
      </trkpt>
      <trkpt lat="45.96825" lon="6.50088">
        <ele>1761</ele>
        <time>2011-06-04T09:33:08Z</time>
      </trkpt>
      <trkpt lat="45.96822" lon="6.50082">
        <ele>1762</ele>
        <time>2011-06-04T09:33:10Z</time>
      </trkpt>
      <trkpt lat="45.96819" lon="6.50076">
        <ele>1763</ele>
        <time>2011-06-04T09:33:12Z</time>
      </trkpt>
      <trkpt lat="45.96816" lon="6.50068">
        <ele>1763</ele>
        <time>2011-06-04T09:33:14Z</time>
      </trkpt>
      <trkpt lat="45.96813" lon="6.50059">
        <ele>1764</ele>
        <time>2011-06-04T09:33:16Z</time>
      </trkpt>
      <trkpt lat="45.9681" lon="6.50048">
        <ele>1764</ele>
        <time>2011-06-04T09:33:18Z</time>
      </trkpt>
      <trkpt lat="45.96807" lon="6.50036">
        <ele>1764</ele>
        <time>2011-06-04T09:33:20Z</time>
      </trkpt>
      <trkpt lat="45.96806" lon="6.50024">
        <ele>1764</ele>
        <time>2011-06-04T09:33:22Z</time>
      </trkpt>
      <trkpt lat="45.96805" lon="6.50014">
        <ele>1764</ele>
        <time>2011-06-04T09:33:24Z</time>
      </trkpt>
      <trkpt lat="45.96805" lon="6.50004">
        <ele>1764</ele>
        <time>2011-06-04T09:33:26Z</time>
      </trkpt>
      <trkpt lat="45.96804" lon="6.49996">
        <ele>1764</ele>
        <time>2011-06-04T09:33:28Z</time>
      </trkpt>
      <trkpt lat="45.96801" lon="6.49989">
        <ele>1764</ele>
        <time>2011-06-04T09:33:30Z</time>
      </trkpt>
      <trkpt lat="45.96797" lon="6.49983">
        <ele>1764</ele>
        <time>2011-06-04T09:33:32Z</time>
      </trkpt>
      <trkpt lat="45.96793" lon="6.4998">
        <ele>1765</ele>
        <time>2011-06-04T09:33:34Z</time>
      </trkpt>
      <trkpt lat="45.96789" lon="6.49977">
        <ele>1766</ele>
        <time>2011-06-04T09:33:36Z</time>
      </trkpt>
      <trkpt lat="45.96786" lon="6.49976">
        <ele>1766</ele>
        <time>2011-06-04T09:33:38Z</time>
      </trkpt>
      <trkpt lat="45.96783" lon="6.49978">
        <ele>1766</ele>
        <time>2011-06-04T09:33:41Z</time>
      </trkpt>
      <trkpt lat="45.96791" lon="6.49976">
        <ele>1763</ele>
        <time>2011-06-04T09:33:49Z</time>
      </trkpt>
      <trkpt lat="45.96793" lon="6.49974">
        <ele>1763</ele>
        <time>2011-06-04T09:33:51Z</time>
      </trkpt>
      <trkpt lat="45.96796" lon="6.49973">
        <ele>1763</ele>
        <time>2011-06-04T09:33:53Z</time>
      </trkpt>
      <trkpt lat="45.968" lon="6.49969">
        <ele>1763</ele>
        <time>2011-06-04T09:33:55Z</time>
      </trkpt>
      <trkpt lat="45.96806" lon="6.49965">
        <ele>1763</ele>
        <time>2011-06-04T09:33:57Z</time>
      </trkpt>
      <trkpt lat="45.9681" lon="6.49956">
        <ele>1762</ele>
        <time>2011-06-04T09:34:00Z</time>
      </trkpt>
      <trkpt lat="45.9681" lon="6.4995">
        <ele>1762</ele>
        <time>2011-06-04T09:34:02Z</time>
      </trkpt>
      <trkpt lat="45.9681" lon="6.49944">
        <ele>1762</ele>
        <time>2011-06-04T09:34:04Z</time>
      </trkpt>
      <trkpt lat="45.96808" lon="6.49939">
        <ele>1762</ele>
        <time>2011-06-04T09:34:06Z</time>
      </trkpt>
      <trkpt lat="45.96807" lon="6.49933">
        <ele>1762</ele>
        <time>2011-06-04T09:34:08Z</time>
      </trkpt>
      <trkpt lat="45.96806" lon="6.49927">
        <ele>1762</ele>
        <time>2011-06-04T09:34:10Z</time>
      </trkpt>
      <trkpt lat="45.96804" lon="6.49914">
        <ele>1761</ele>
        <time>2011-06-04T09:34:13Z</time>
      </trkpt>
      <trkpt lat="45.96802" lon="6.49905">
        <ele>1761</ele>
        <time>2011-06-04T09:34:15Z</time>
      </trkpt>
      <trkpt lat="45.96802" lon="6.49896">
        <ele>1761</ele>
        <time>2011-06-04T09:34:17Z</time>
      </trkpt>
      <trkpt lat="45.968" lon="6.49887">
        <ele>1760</ele>
        <time>2011-06-04T09:34:19Z</time>
      </trkpt>
      <trkpt lat="45.968" lon="6.49877">
        <ele>1760</ele>
        <time>2011-06-04T09:34:21Z</time>
      </trkpt>
      <trkpt lat="45.96799" lon="6.49867">
        <ele>1760</ele>
        <time>2011-06-04T09:34:23Z</time>
      </trkpt>
      <trkpt lat="45.96798" lon="6.49856">
        <ele>1760</ele>
        <time>2011-06-04T09:34:25Z</time>
      </trkpt>
      <trkpt lat="45.96796" lon="6.49846">
        <ele>1760</ele>
        <time>2011-06-04T09:34:27Z</time>
      </trkpt>
      <trkpt lat="45.96795" lon="6.49837">
        <ele>1760</ele>
        <time>2011-06-04T09:34:29Z</time>
      </trkpt>
      <trkpt lat="45.96793" lon="6.49827">
        <ele>1760</ele>
        <time>2011-06-04T09:34:31Z</time>
      </trkpt>
      <trkpt lat="45.96792" lon="6.49818">
        <ele>1760</ele>
        <time>2011-06-04T09:34:33Z</time>
      </trkpt>
      <trkpt lat="45.96792" lon="6.49808">
        <ele>1760</ele>
        <time>2011-06-04T09:34:35Z</time>
      </trkpt>
      <trkpt lat="45.96792" lon="6.49797">
        <ele>1759</ele>
        <time>2011-06-04T09:34:37Z</time>
      </trkpt>
      <trkpt lat="45.96791" lon="6.49788">
        <ele>1759</ele>
        <time>2011-06-04T09:34:39Z</time>
      </trkpt>
      <trkpt lat="45.96788" lon="6.49781">
        <ele>1759</ele>
        <time>2011-06-04T09:34:41Z</time>
      </trkpt>
      <trkpt lat="45.96784" lon="6.49776">
        <ele>1759</ele>
        <time>2011-06-04T09:34:43Z</time>
      </trkpt>
      <trkpt lat="45.96779" lon="6.49771">
        <ele>1759</ele>
        <time>2011-06-04T09:34:45Z</time>
      </trkpt>
      <trkpt lat="45.96774" lon="6.49765">
        <ele>1758</ele>
        <time>2011-06-04T09:34:47Z</time>
      </trkpt>
      <trkpt lat="45.9677" lon="6.49761">
        <ele>1758</ele>
        <time>2011-06-04T09:34:49Z</time>
      </trkpt>
      <trkpt lat="45.96766" lon="6.49758">
        <ele>1758</ele>
        <time>2011-06-04T09:34:51Z</time>
      </trkpt>
      <trkpt lat="45.96761" lon="6.49756">
        <ele>1758</ele>
        <time>2011-06-04T09:34:53Z</time>
      </trkpt>
      <trkpt lat="45.96756" lon="6.49752">
        <ele>1758</ele>
        <time>2011-06-04T09:34:55Z</time>
      </trkpt>
      <trkpt lat="45.96752" lon="6.49749">
        <ele>1758</ele>
        <time>2011-06-04T09:34:57Z</time>
      </trkpt>
      <trkpt lat="45.96747" lon="6.49745">
        <ele>1758</ele>
        <time>2011-06-04T09:34:59Z</time>
      </trkpt>
      <trkpt lat="45.96741" lon="6.49742">
        <ele>1758</ele>
        <time>2011-06-04T09:35:01Z</time>
      </trkpt>
      <trkpt lat="45.96736" lon="6.49738">
        <ele>1758</ele>
        <time>2011-06-04T09:35:03Z</time>
      </trkpt>
      <trkpt lat="45.96731" lon="6.49734">
        <ele>1758</ele>
        <time>2011-06-04T09:35:05Z</time>
      </trkpt>
      <trkpt lat="45.96726" lon="6.49729">
        <ele>1759</ele>
        <time>2011-06-04T09:35:07Z</time>
      </trkpt>
      <trkpt lat="45.9672" lon="6.49725">
        <ele>1759</ele>
        <time>2011-06-04T09:35:09Z</time>
      </trkpt>
      <trkpt lat="45.96716" lon="6.49721">
        <ele>1759</ele>
        <time>2011-06-04T09:35:11Z</time>
      </trkpt>
      <trkpt lat="45.96711" lon="6.49717">
        <ele>1759</ele>
        <time>2011-06-04T09:35:13Z</time>
      </trkpt>
      <trkpt lat="45.96706" lon="6.49713">
        <ele>1759</ele>
        <time>2011-06-04T09:35:15Z</time>
      </trkpt>
      <trkpt lat="45.96701" lon="6.4971">
        <ele>1760</ele>
        <time>2011-06-04T09:35:17Z</time>
      </trkpt>
      <trkpt lat="45.96696" lon="6.49706">
        <ele>1760</ele>
        <time>2011-06-04T09:35:19Z</time>
      </trkpt>
      <trkpt lat="45.96692" lon="6.49701">
        <ele>1761</ele>
        <time>2011-06-04T09:35:21Z</time>
      </trkpt>
      <trkpt lat="45.96687" lon="6.49693">
        <ele>1761</ele>
        <time>2011-06-04T09:35:24Z</time>
      </trkpt>
      <trkpt lat="45.96684" lon="6.49686">
        <ele>1761</ele>
        <time>2011-06-04T09:35:26Z</time>
      </trkpt>
      <trkpt lat="45.96681" lon="6.49677">
        <ele>1761</ele>
        <time>2011-06-04T09:35:28Z</time>
      </trkpt>
      <trkpt lat="45.96678" lon="6.49664">
        <ele>1761</ele>
        <time>2011-06-04T09:35:31Z</time>
      </trkpt>
      <trkpt lat="45.96676" lon="6.49655">
        <ele>1761</ele>
        <time>2011-06-04T09:35:33Z</time>
      </trkpt>
      <trkpt lat="45.96674" lon="6.49646">
        <ele>1761</ele>
        <time>2011-06-04T09:35:35Z</time>
      </trkpt>
      <trkpt lat="45.96671" lon="6.49636">
        <ele>1761</ele>
        <time>2011-06-04T09:35:37Z</time>
      </trkpt>
      <trkpt lat="45.9667" lon="6.49626">
        <ele>1761</ele>
        <time>2011-06-04T09:35:39Z</time>
      </trkpt>
      <trkpt lat="45.96668" lon="6.49612">
        <ele>1759</ele>
        <time>2011-06-04T09:35:42Z</time>
      </trkpt>
      <trkpt lat="45.96666" lon="6.49603">
        <ele>1757</ele>
        <time>2011-06-04T09:35:44Z</time>
      </trkpt>
      <trkpt lat="45.96663" lon="6.49592">
        <ele>1755</ele>
        <time>2011-06-04T09:35:46Z</time>
      </trkpt>
      <trkpt lat="45.96659" lon="6.49581">
        <ele>1753</ele>
        <time>2011-06-04T09:35:48Z</time>
      </trkpt>
      <trkpt lat="45.96655" lon="6.49569">
        <ele>1751</ele>
        <time>2011-06-04T09:35:50Z</time>
      </trkpt>
      <trkpt lat="45.9665" lon="6.49558">
        <ele>1749</ele>
        <time>2011-06-04T09:35:52Z</time>
      </trkpt>
      <trkpt lat="45.96646" lon="6.49547">
        <ele>1747</ele>
        <time>2011-06-04T09:35:54Z</time>
      </trkpt>
      <trkpt lat="45.96643" lon="6.49536">
        <ele>1745</ele>
        <time>2011-06-04T09:35:56Z</time>
      </trkpt>
      <trkpt lat="45.96639" lon="6.49526">
        <ele>1743</ele>
        <time>2011-06-04T09:35:58Z</time>
      </trkpt>
      <trkpt lat="45.96637" lon="6.49512">
        <ele>1741</ele>
        <time>2011-06-04T09:36:00Z</time>
      </trkpt>
      <trkpt lat="45.96636" lon="6.49494">
        <ele>1739</ele>
        <time>2011-06-04T09:36:02Z</time>
      </trkpt>
      <trkpt lat="45.96634" lon="6.4947">
        <ele>1737</ele>
        <time>2011-06-04T09:36:04Z</time>
      </trkpt>
      <trkpt lat="45.96632" lon="6.49447">
        <ele>1735</ele>
        <time>2011-06-04T09:36:06Z</time>
      </trkpt>
      <trkpt lat="45.9663" lon="6.49426">
        <ele>1733</ele>
        <time>2011-06-04T09:36:08Z</time>
      </trkpt>
      <trkpt lat="45.9663" lon="6.49404">
        <ele>1731</ele>
        <time>2011-06-04T09:36:10Z</time>
      </trkpt>
      <trkpt lat="45.9663" lon="6.49384">
        <ele>1731</ele>
        <time>2011-06-04T09:36:12Z</time>
      </trkpt>
      <trkpt lat="45.9663" lon="6.49364">
        <ele>1731</ele>
        <time>2011-06-04T09:36:14Z</time>
      </trkpt>
      <trkpt lat="45.9663" lon="6.49345">
        <ele>1731</ele>
        <time>2011-06-04T09:36:16Z</time>
      </trkpt>
      <trkpt lat="45.96629" lon="6.49327">
        <ele>1731</ele>
        <time>2011-06-04T09:36:18Z</time>
      </trkpt>
      <trkpt lat="45.96627" lon="6.49312">
        <ele>1731</ele>
        <time>2011-06-04T09:36:20Z</time>
      </trkpt>
      <trkpt lat="45.96625" lon="6.49297">
        <ele>1731</ele>
        <time>2011-06-04T09:36:22Z</time>
      </trkpt>
      <trkpt lat="45.96622" lon="6.4928">
        <ele>1731</ele>
        <time>2011-06-04T09:36:24Z</time>
      </trkpt>
      <trkpt lat="45.96621" lon="6.49264">
        <ele>1731</ele>
        <time>2011-06-04T09:36:26Z</time>
      </trkpt>
      <trkpt lat="45.9662" lon="6.49251">
        <ele>1731</ele>
        <time>2011-06-04T09:36:28Z</time>
      </trkpt>
      <trkpt lat="45.96619" lon="6.49242">
        <ele>1731</ele>
        <time>2011-06-04T09:36:30Z</time>
      </trkpt>
      <trkpt lat="45.96618" lon="6.49232">
        <ele>1731</ele>
        <time>2011-06-04T09:36:32Z</time>
      </trkpt>
      <trkpt lat="45.96617" lon="6.49221">
        <ele>1731</ele>
        <time>2011-06-04T09:36:34Z</time>
      </trkpt>
      <trkpt lat="45.96616" lon="6.4921">
        <ele>1731</ele>
        <time>2011-06-04T09:36:36Z</time>
      </trkpt>
      <trkpt lat="45.96613" lon="6.49201">
        <ele>1731</ele>
        <time>2011-06-04T09:36:38Z</time>
      </trkpt>
      <trkpt lat="45.96611" lon="6.49198">
        <ele>1731</ele>
        <time>2011-06-04T09:36:40Z</time>
      </trkpt>
      <trkpt lat="45.96608" lon="6.492">
        <ele>1731</ele>
        <time>2011-06-04T09:36:42Z</time>
      </trkpt>
      <trkpt lat="45.96605" lon="6.49203">
        <ele>1731</ele>
        <time>2011-06-04T09:36:44Z</time>
      </trkpt>
      <trkpt lat="45.96601" lon="6.49203">
        <ele>1731</ele>
        <time>2011-06-04T09:36:47Z</time>
      </trkpt>
      <trkpt lat="45.96598" lon="6.49203">
        <ele>1731</ele>
        <time>2011-06-04T09:36:49Z</time>
      </trkpt>
      <trkpt lat="45.96595" lon="6.49203">
        <ele>1731</ele>
        <time>2011-06-04T09:36:51Z</time>
      </trkpt>
      <trkpt lat="45.96592" lon="6.49202">
        <ele>1731</ele>
        <time>2011-06-04T09:36:53Z</time>
      </trkpt>
      <trkpt lat="45.9659" lon="6.49202">
        <ele>1731</ele>
        <time>2011-06-04T09:36:55Z</time>
      </trkpt>
      <trkpt lat="45.96586" lon="6.49201">
        <ele>1731</ele>
        <time>2011-06-04T09:36:57Z</time>
      </trkpt>
      <trkpt lat="45.96584" lon="6.49199">
        <ele>1731</ele>
        <time>2011-06-04T09:36:59Z</time>
      </trkpt>
      <trkpt lat="45.96581" lon="6.49197">
        <ele>1731</ele>
        <time>2011-06-04T09:37:01Z</time>
      </trkpt>
      <trkpt lat="45.96578" lon="6.49195">
        <ele>1731</ele>
        <time>2011-06-04T09:37:03Z</time>
      </trkpt>
      <trkpt lat="45.96575" lon="6.49193">
        <ele>1731</ele>
        <time>2011-06-04T09:37:05Z</time>
      </trkpt>
      <trkpt lat="45.96573" lon="6.4919">
        <ele>1732</ele>
        <time>2011-06-04T09:37:07Z</time>
      </trkpt>
      <trkpt lat="45.96571" lon="6.49187">
        <ele>1732</ele>
        <time>2011-06-04T09:37:09Z</time>
      </trkpt>
      <trkpt lat="45.9657" lon="6.49183">
        <ele>1732</ele>
        <time>2011-06-04T09:37:11Z</time>
      </trkpt>
      <trkpt lat="45.9657" lon="6.49178">
        <ele>1732</ele>
        <time>2011-06-04T09:37:13Z</time>
      </trkpt>
      <trkpt lat="45.9657" lon="6.49173">
        <ele>1732</ele>
        <time>2011-06-04T09:37:15Z</time>
      </trkpt>
      <trkpt lat="45.96569" lon="6.49168">
        <ele>1732</ele>
        <time>2011-06-04T09:37:17Z</time>
      </trkpt>
      <trkpt lat="45.96569" lon="6.49163">
        <ele>1732</ele>
        <time>2011-06-04T09:37:19Z</time>
      </trkpt>
      <trkpt lat="45.96568" lon="6.49159">
        <ele>1733</ele>
        <time>2011-06-04T09:37:21Z</time>
      </trkpt>
      <trkpt lat="45.96568" lon="6.49152">
        <ele>1734</ele>
        <time>2011-06-04T09:37:24Z</time>
      </trkpt>
      <trkpt lat="45.96569" lon="6.49148">
        <ele>1734</ele>
        <time>2011-06-04T09:37:26Z</time>
      </trkpt>
      <trkpt lat="45.96569" lon="6.49143">
        <ele>1735</ele>
        <time>2011-06-04T09:37:28Z</time>
      </trkpt>
      <trkpt lat="45.96569" lon="6.4914">
        <ele>1735</ele>
        <time>2011-06-04T09:37:30Z</time>
      </trkpt>
      <trkpt lat="45.9657" lon="6.49136">
        <ele>1735</ele>
        <time>2011-06-04T09:37:32Z</time>
      </trkpt>
      <trkpt lat="45.96571" lon="6.49131">
        <ele>1735</ele>
        <time>2011-06-04T09:37:34Z</time>
      </trkpt>
      <trkpt lat="45.96572" lon="6.49127">
        <ele>1735</ele>
        <time>2011-06-04T09:37:36Z</time>
      </trkpt>
      <trkpt lat="45.96571" lon="6.49123">
        <ele>1735</ele>
        <time>2011-06-04T09:37:38Z</time>
      </trkpt>
      <trkpt lat="45.9657" lon="6.49119">
        <ele>1735</ele>
        <time>2011-06-04T09:37:40Z</time>
      </trkpt>
      <trkpt lat="45.96571" lon="6.49115">
        <ele>1736</ele>
        <time>2011-06-04T09:37:42Z</time>
      </trkpt>
      <trkpt lat="45.96571" lon="6.4911">
        <ele>1736</ele>
        <time>2011-06-04T09:37:45Z</time>
      </trkpt>
      <trkpt lat="45.96571" lon="6.49107">
        <ele>1737</ele>
        <time>2011-06-04T09:37:47Z</time>
      </trkpt>
      <trkpt lat="45.96571" lon="6.49104">
        <ele>1737</ele>
        <time>2011-06-04T09:37:49Z</time>
      </trkpt>
      <trkpt lat="45.96572" lon="6.49101">
        <ele>1737</ele>
        <time>2011-06-04T09:37:51Z</time>
      </trkpt>
      <trkpt lat="45.96572" lon="6.49097">
        <ele>1738</ele>
        <time>2011-06-04T09:37:53Z</time>
      </trkpt>
      <trkpt lat="45.96573" lon="6.49093">
        <ele>1738</ele>
        <time>2011-06-04T09:37:55Z</time>
      </trkpt>
      <trkpt lat="45.96573" lon="6.49088">
        <ele>1738</ele>
        <time>2011-06-04T09:37:57Z</time>
      </trkpt>
      <trkpt lat="45.96575" lon="6.4908">
        <ele>1738</ele>
        <time>2011-06-04T09:37:59Z</time>
      </trkpt>
      <trkpt lat="45.96576" lon="6.49072">
        <ele>1738</ele>
        <time>2011-06-04T09:38:01Z</time>
      </trkpt>
      <trkpt lat="45.96579" lon="6.49063">
        <ele>1738</ele>
        <time>2011-06-04T09:38:03Z</time>
      </trkpt>
      <trkpt lat="45.96581" lon="6.49052">
        <ele>1738</ele>
        <time>2011-06-04T09:38:05Z</time>
      </trkpt>
      <trkpt lat="45.96584" lon="6.49041">
        <ele>1738</ele>
        <time>2011-06-04T09:38:07Z</time>
      </trkpt>
      <trkpt lat="45.96587" lon="6.4903">
        <ele>1738</ele>
        <time>2011-06-04T09:38:09Z</time>
      </trkpt>
      <trkpt lat="45.9659" lon="6.4902">
        <ele>1738</ele>
        <time>2011-06-04T09:38:11Z</time>
      </trkpt>
      <trkpt lat="45.96594" lon="6.49013">
        <ele>1737</ele>
        <time>2011-06-04T09:38:13Z</time>
      </trkpt>
      <trkpt lat="45.96596" lon="6.49007">
        <ele>1736</ele>
        <time>2011-06-04T09:38:15Z</time>
      </trkpt>
      <trkpt lat="45.96599" lon="6.48999">
        <ele>1736</ele>
        <time>2011-06-04T09:38:18Z</time>
      </trkpt>
      <trkpt lat="45.96601" lon="6.48995">
        <ele>1736</ele>
        <time>2011-06-04T09:38:20Z</time>
      </trkpt>
      <trkpt lat="45.96603" lon="6.48991">
        <ele>1736</ele>
        <time>2011-06-04T09:38:22Z</time>
      </trkpt>
      <trkpt lat="45.96604" lon="6.48986">
        <ele>1736</ele>
        <time>2011-06-04T09:38:24Z</time>
      </trkpt>
      <trkpt lat="45.96605" lon="6.48982">
        <ele>1736</ele>
        <time>2011-06-04T09:38:26Z</time>
      </trkpt>
      <trkpt lat="45.96606" lon="6.48977">
        <ele>1736</ele>
        <time>2011-06-04T09:38:28Z</time>
      </trkpt>
      <trkpt lat="45.96607" lon="6.48972">
        <ele>1736</ele>
        <time>2011-06-04T09:38:30Z</time>
      </trkpt>
      <trkpt lat="45.96606" lon="6.48966">
        <ele>1736</ele>
        <time>2011-06-04T09:38:33Z</time>
      </trkpt>
      <trkpt lat="45.96605" lon="6.48963">
        <ele>1737</ele>
        <time>2011-06-04T09:38:35Z</time>
      </trkpt>
      <trkpt lat="45.96603" lon="6.4896">
        <ele>1738</ele>
        <time>2011-06-04T09:38:37Z</time>
      </trkpt>
      <trkpt lat="45.96601" lon="6.48957">
        <ele>1740</ele>
        <time>2011-06-04T09:38:39Z</time>
      </trkpt>
      <trkpt lat="45.96599" lon="6.48953">
        <ele>1741</ele>
        <time>2011-06-04T09:38:41Z</time>
      </trkpt>
      <trkpt lat="45.96597" lon="6.48949">
        <ele>1741</ele>
        <time>2011-06-04T09:38:43Z</time>
      </trkpt>
      <trkpt lat="45.96595" lon="6.48946">
        <ele>1741</ele>
        <time>2011-06-04T09:38:45Z</time>
      </trkpt>
      <trkpt lat="45.96593" lon="6.48942">
        <ele>1742</ele>
        <time>2011-06-04T09:38:47Z</time>
      </trkpt>
      <trkpt lat="45.96592" lon="6.48938">
        <ele>1742</ele>
        <time>2011-06-04T09:38:49Z</time>
      </trkpt>
      <trkpt lat="45.96591" lon="6.48934">
        <ele>1743</ele>
        <time>2011-06-04T09:38:51Z</time>
      </trkpt>
      <trkpt lat="45.96591" lon="6.48931">
        <ele>1744</ele>
        <time>2011-06-04T09:38:53Z</time>
      </trkpt>
      <trkpt lat="45.9659" lon="6.48926">
        <ele>1745</ele>
        <time>2011-06-04T09:38:56Z</time>
      </trkpt>
      <trkpt lat="45.96589" lon="6.48922">
        <ele>1746</ele>
        <time>2011-06-04T09:38:58Z</time>
      </trkpt>
      <trkpt lat="45.96589" lon="6.48917">
        <ele>1747</ele>
        <time>2011-06-04T09:39:00Z</time>
      </trkpt>
      <trkpt lat="45.9659" lon="6.48913">
        <ele>1747</ele>
        <time>2011-06-04T09:39:02Z</time>
      </trkpt>
      <trkpt lat="45.96589" lon="6.48909">
        <ele>1747</ele>
        <time>2011-06-04T09:39:04Z</time>
      </trkpt>
      <trkpt lat="45.96588" lon="6.48904">
        <ele>1747</ele>
        <time>2011-06-04T09:39:06Z</time>
      </trkpt>
      <trkpt lat="45.96587" lon="6.489">
        <ele>1748</ele>
        <time>2011-06-04T09:39:08Z</time>
      </trkpt>
      <trkpt lat="45.96586" lon="6.48896">
        <ele>1748</ele>
        <time>2011-06-04T09:39:10Z</time>
      </trkpt>
      <trkpt lat="45.96585" lon="6.48893">
        <ele>1748</ele>
        <time>2011-06-04T09:39:12Z</time>
      </trkpt>
      <trkpt lat="45.96584" lon="6.48889">
        <ele>1748</ele>
        <time>2011-06-04T09:39:14Z</time>
      </trkpt>
      <trkpt lat="45.96582" lon="6.48886">
        <ele>1749</ele>
        <time>2011-06-04T09:39:16Z</time>
      </trkpt>
      <trkpt lat="45.96581" lon="6.48882">
        <ele>1749</ele>
        <time>2011-06-04T09:39:18Z</time>
      </trkpt>
      <trkpt lat="45.96579" lon="6.48878">
        <ele>1750</ele>
        <time>2011-06-04T09:39:21Z</time>
      </trkpt>
      <trkpt lat="45.96577" lon="6.48875">
        <ele>1750</ele>
        <time>2011-06-04T09:39:23Z</time>
      </trkpt>
      <trkpt lat="45.96575" lon="6.48872">
        <ele>1751</ele>
        <time>2011-06-04T09:39:25Z</time>
      </trkpt>
      <trkpt lat="45.96574" lon="6.48869">
        <ele>1751</ele>
        <time>2011-06-04T09:39:27Z</time>
      </trkpt>
      <trkpt lat="45.96572" lon="6.48865">
        <ele>1751</ele>
        <time>2011-06-04T09:39:29Z</time>
      </trkpt>
      <trkpt lat="45.96571" lon="6.48862">
        <ele>1751</ele>
        <time>2011-06-04T09:39:31Z</time>
      </trkpt>
      <trkpt lat="45.96568" lon="6.48859">
        <ele>1751</ele>
        <time>2011-06-04T09:39:33Z</time>
      </trkpt>
      <trkpt lat="45.96567" lon="6.48857">
        <ele>1753</ele>
        <time>2011-06-04T09:39:35Z</time>
      </trkpt>
      <trkpt lat="45.96565" lon="6.48854">
        <ele>1754</ele>
        <time>2011-06-04T09:39:37Z</time>
      </trkpt>
      <trkpt lat="45.96562" lon="6.48849">
        <ele>1755</ele>
        <time>2011-06-04T09:39:40Z</time>
      </trkpt>
      <trkpt lat="45.96561" lon="6.48846">
        <ele>1755</ele>
        <time>2011-06-04T09:39:42Z</time>
      </trkpt>
      <trkpt lat="45.96559" lon="6.48843">
        <ele>1756</ele>
        <time>2011-06-04T09:39:44Z</time>
      </trkpt>
      <trkpt lat="45.96557" lon="6.48839">
        <ele>1756</ele>
        <time>2011-06-04T09:39:46Z</time>
      </trkpt>
      <trkpt lat="45.96554" lon="6.48834">
        <ele>1756</ele>
        <time>2011-06-04T09:39:48Z</time>
      </trkpt>
      <trkpt lat="45.9655" lon="6.48826">
        <ele>1756</ele>
        <time>2011-06-04T09:39:50Z</time>
      </trkpt>
      <trkpt lat="45.96545" lon="6.48818">
        <ele>1756</ele>
        <time>2011-06-04T09:39:52Z</time>
      </trkpt>
      <trkpt lat="45.96542" lon="6.48811">
        <ele>1756</ele>
        <time>2011-06-04T09:39:54Z</time>
      </trkpt>
      <trkpt lat="45.96539" lon="6.48804">
        <ele>1756</ele>
        <time>2011-06-04T09:39:56Z</time>
      </trkpt>
      <trkpt lat="45.96536" lon="6.48798">
        <ele>1756</ele>
        <time>2011-06-04T09:39:58Z</time>
      </trkpt>
      <trkpt lat="45.96533" lon="6.48793">
        <ele>1756</ele>
        <time>2011-06-04T09:40:00Z</time>
      </trkpt>
      <trkpt lat="45.9653" lon="6.48787">
        <ele>1756</ele>
        <time>2011-06-04T09:40:02Z</time>
      </trkpt>
      <trkpt lat="45.96527" lon="6.48781">
        <ele>1756</ele>
        <time>2011-06-04T09:40:04Z</time>
      </trkpt>
      <trkpt lat="45.96524" lon="6.48775">
        <ele>1756</ele>
        <time>2011-06-04T09:40:06Z</time>
      </trkpt>
      <trkpt lat="45.96521" lon="6.4877">
        <ele>1756</ele>
        <time>2011-06-04T09:40:08Z</time>
      </trkpt>
      <trkpt lat="45.96517" lon="6.48766">
        <ele>1756</ele>
        <time>2011-06-04T09:40:10Z</time>
      </trkpt>
      <trkpt lat="45.96513" lon="6.48763">
        <ele>1756</ele>
        <time>2011-06-04T09:40:12Z</time>
      </trkpt>
      <trkpt lat="45.96509" lon="6.4876">
        <ele>1756</ele>
        <time>2011-06-04T09:40:14Z</time>
      </trkpt>
      <trkpt lat="45.96505" lon="6.48759">
        <ele>1756</ele>
        <time>2011-06-04T09:40:16Z</time>
      </trkpt>
      <trkpt lat="45.96501" lon="6.48758">
        <ele>1756</ele>
        <time>2011-06-04T09:40:18Z</time>
      </trkpt>
      <trkpt lat="45.96499" lon="6.4876">
        <ele>1756</ele>
        <time>2011-06-04T09:40:20Z</time>
      </trkpt>
      <trkpt lat="45.96497" lon="6.48763">
        <ele>1757</ele>
        <time>2011-06-04T09:40:22Z</time>
      </trkpt>
      <trkpt lat="45.96496" lon="6.48767">
        <ele>1757</ele>
        <time>2011-06-04T09:40:24Z</time>
      </trkpt>
      <trkpt lat="45.96496" lon="6.48771">
        <ele>1758</ele>
        <time>2011-06-04T09:40:26Z</time>
      </trkpt>
      <trkpt lat="45.96497" lon="6.48775">
        <ele>1758</ele>
        <time>2011-06-04T09:40:28Z</time>
      </trkpt>
      <trkpt lat="45.96497" lon="6.4878">
        <ele>1758</ele>
        <time>2011-06-04T09:40:30Z</time>
      </trkpt>
      <trkpt lat="45.96497" lon="6.48784">
        <ele>1758</ele>
        <time>2011-06-04T09:40:32Z</time>
      </trkpt>
      <trkpt lat="45.96497" lon="6.48788">
        <ele>1758</ele>
        <time>2011-06-04T09:40:34Z</time>
      </trkpt>
      <trkpt lat="45.96498" lon="6.48792">
        <ele>1758</ele>
        <time>2011-06-04T09:40:36Z</time>
      </trkpt>
      <trkpt lat="45.965" lon="6.48797">
        <ele>1758</ele>
        <time>2011-06-04T09:40:38Z</time>
      </trkpt>
      <trkpt lat="45.96501" lon="6.48801">
        <ele>1758</ele>
        <time>2011-06-04T09:40:40Z</time>
      </trkpt>
      <trkpt lat="45.96501" lon="6.48805">
        <ele>1758</ele>
        <time>2011-06-04T09:40:42Z</time>
      </trkpt>
      <trkpt lat="45.96502" lon="6.48809">
        <ele>1757</ele>
        <time>2011-06-04T09:40:44Z</time>
      </trkpt>
      <trkpt lat="45.96503" lon="6.48812">
        <ele>1755</ele>
        <time>2011-06-04T09:40:46Z</time>
      </trkpt>
      <trkpt lat="45.96504" lon="6.48816">
        <ele>1754</ele>
        <time>2011-06-04T09:40:48Z</time>
      </trkpt>
      <trkpt lat="45.96505" lon="6.4882">
        <ele>1753</ele>
        <time>2011-06-04T09:40:50Z</time>
      </trkpt>
      <trkpt lat="45.96506" lon="6.48824">
        <ele>1753</ele>
        <time>2011-06-04T09:40:52Z</time>
      </trkpt>
      <trkpt lat="45.96508" lon="6.48829">
        <ele>1753</ele>
        <time>2011-06-04T09:40:54Z</time>
      </trkpt>
      <trkpt lat="45.96508" lon="6.48832">
        <ele>1753</ele>
        <time>2011-06-04T09:40:56Z</time>
      </trkpt>
      <trkpt lat="45.96509" lon="6.48836">
        <ele>1753</ele>
        <time>2011-06-04T09:40:58Z</time>
      </trkpt>
      <trkpt lat="45.96509" lon="6.48838">
        <ele>1753</ele>
        <time>2011-06-04T09:41:02Z</time>
      </trkpt>
      <trkpt lat="45.9651" lon="6.4884">
        <ele>1754</ele>
        <time>2011-06-04T09:41:05Z</time>
      </trkpt>
      <trkpt lat="45.9651" lon="6.48842">
        <ele>1756</ele>
        <time>2011-06-04T09:41:07Z</time>
      </trkpt>
      <trkpt lat="45.9651" lon="6.48844">
        <ele>1757</ele>
        <time>2011-06-04T09:41:09Z</time>
      </trkpt>
      <trkpt lat="45.96509" lon="6.48845">
        <ele>1759</ele>
        <time>2011-06-04T09:41:11Z</time>
      </trkpt>
      <trkpt lat="45.96509" lon="6.48847">
        <ele>1761</ele>
        <time>2011-06-04T09:41:14Z</time>
      </trkpt>
      <trkpt lat="45.96509" lon="6.48849">
        <ele>1762</ele>
        <time>2011-06-04T09:41:16Z</time>
      </trkpt>
      <trkpt lat="45.96509" lon="6.48851">
        <ele>1762</ele>
        <time>2011-06-04T09:41:18Z</time>
      </trkpt>
      <trkpt lat="45.9651" lon="6.48853">
        <ele>1763</ele>
        <time>2011-06-04T09:41:20Z</time>
      </trkpt>
      <trkpt lat="45.9651" lon="6.48856">
        <ele>1764</ele>
        <time>2011-06-04T09:41:22Z</time>
      </trkpt>
      <trkpt lat="45.96511" lon="6.48859">
        <ele>1766</ele>
        <time>2011-06-04T09:41:24Z</time>
      </trkpt>
      <trkpt lat="45.96509" lon="6.48859">
        <ele>1771</ele>
        <time>2011-06-04T09:41:32Z</time>
      </trkpt>
      <trkpt lat="45.96508" lon="6.48858">
        <ele>1771</ele>
        <time>2011-06-04T09:41:37Z</time>
      </trkpt>
      <trkpt lat="45.96509" lon="6.4886">
        <ele>1771</ele>
        <time>2011-06-04T09:41:39Z</time>
      </trkpt>
      <trkpt lat="45.9651" lon="6.48863">
        <ele>1772</ele>
        <time>2011-06-04T09:41:41Z</time>
      </trkpt>
      <trkpt lat="45.96511" lon="6.48867">
        <ele>1773</ele>
        <time>2011-06-04T09:41:43Z</time>
      </trkpt>
      <trkpt lat="45.96512" lon="6.48871">
        <ele>1773</ele>
        <time>2011-06-04T09:41:45Z</time>
      </trkpt>
      <trkpt lat="45.96514" lon="6.48876">
        <ele>1773</ele>
        <time>2011-06-04T09:41:47Z</time>
      </trkpt>
      <trkpt lat="45.96515" lon="6.48881">
        <ele>1773</ele>
        <time>2011-06-04T09:41:49Z</time>
      </trkpt>
      <trkpt lat="45.96516" lon="6.48885">
        <ele>1773</ele>
        <time>2011-06-04T09:41:51Z</time>
      </trkpt>
      <trkpt lat="45.96516" lon="6.48889">
        <ele>1773</ele>
        <time>2011-06-04T09:41:53Z</time>
      </trkpt>
      <trkpt lat="45.96516" lon="6.48893">
        <ele>1773</ele>
        <time>2011-06-04T09:41:55Z</time>
      </trkpt>
      <trkpt lat="45.96515" lon="6.48897">
        <ele>1773</ele>
        <time>2011-06-04T09:41:57Z</time>
      </trkpt>
      <trkpt lat="45.96514" lon="6.48901">
        <ele>1773</ele>
        <time>2011-06-04T09:41:59Z</time>
      </trkpt>
      <trkpt lat="45.96513" lon="6.48904">
        <ele>1774</ele>
        <time>2011-06-04T09:42:01Z</time>
      </trkpt>
      <trkpt lat="45.96512" lon="6.48907">
        <ele>1775</ele>
        <time>2011-06-04T09:42:03Z</time>
      </trkpt>
      <trkpt lat="45.96511" lon="6.4891">
        <ele>1775</ele>
        <time>2011-06-04T09:42:05Z</time>
      </trkpt>
      <trkpt lat="45.9651" lon="6.48913">
        <ele>1776</ele>
        <time>2011-06-04T09:42:07Z</time>
      </trkpt>
      <trkpt lat="45.96508" lon="6.48916">
        <ele>1776</ele>
        <time>2011-06-04T09:42:13Z</time>
      </trkpt>
      <trkpt lat="45.96508" lon="6.48919">
        <ele>1776</ele>
        <time>2011-06-04T09:42:15Z</time>
      </trkpt>
      <trkpt lat="45.96507" lon="6.48921">
        <ele>1776</ele>
        <time>2011-06-04T09:42:17Z</time>
      </trkpt>
      <trkpt lat="45.96506" lon="6.48924">
        <ele>1776</ele>
        <time>2011-06-04T09:42:19Z</time>
      </trkpt>
      <trkpt lat="45.96504" lon="6.48925">
        <ele>1776</ele>
        <time>2011-06-04T09:42:21Z</time>
      </trkpt>
      <trkpt lat="45.96503" lon="6.48926">
        <ele>1776</ele>
        <time>2011-06-04T09:42:23Z</time>
      </trkpt>
      <trkpt lat="45.965" lon="6.48928">
        <ele>1776</ele>
        <time>2011-06-04T09:42:25Z</time>
      </trkpt>
      <trkpt lat="45.96497" lon="6.48931">
        <ele>1776</ele>
        <time>2011-06-04T09:42:28Z</time>
      </trkpt>
      <trkpt lat="45.96496" lon="6.48932">
        <ele>1776</ele>
        <time>2011-06-04T09:42:30Z</time>
      </trkpt>
      <trkpt lat="45.96495" lon="6.48933">
        <ele>1776</ele>
        <time>2011-06-04T09:42:32Z</time>
      </trkpt>
      <trkpt lat="45.96495" lon="6.48935">
        <ele>1776</ele>
        <time>2011-06-04T09:42:37Z</time>
      </trkpt>
      <trkpt lat="45.96494" lon="6.48936">
        <ele>1776</ele>
        <time>2011-06-04T09:42:40Z</time>
      </trkpt>
      <trkpt lat="45.96492" lon="6.48937">
        <ele>1776</ele>
        <time>2011-06-04T09:42:43Z</time>
      </trkpt>
      <trkpt lat="45.96489" lon="6.48938">
        <ele>1776</ele>
        <time>2011-06-04T09:42:45Z</time>
      </trkpt>
      <trkpt lat="45.96487" lon="6.48938">
        <ele>1776</ele>
        <time>2011-06-04T09:42:47Z</time>
      </trkpt>
      <trkpt lat="45.96484" lon="6.48939">
        <ele>1777</ele>
        <time>2011-06-04T09:42:49Z</time>
      </trkpt>
      <trkpt lat="45.96482" lon="6.4894">
        <ele>1778</ele>
        <time>2011-06-04T09:42:51Z</time>
      </trkpt>
      <trkpt lat="45.9648" lon="6.4894">
        <ele>1780</ele>
        <time>2011-06-04T09:42:53Z</time>
      </trkpt>
      <trkpt lat="45.96477" lon="6.48941">
        <ele>1780</ele>
        <time>2011-06-04T09:42:56Z</time>
      </trkpt>
      <trkpt lat="45.96475" lon="6.48941">
        <ele>1780</ele>
        <time>2011-06-04T09:42:58Z</time>
      </trkpt>
      <trkpt lat="45.96472" lon="6.48941">
        <ele>1781</ele>
        <time>2011-06-04T09:43:02Z</time>
      </trkpt>
      <trkpt lat="45.9647" lon="6.4894">
        <ele>1782</ele>
        <time>2011-06-04T09:43:04Z</time>
      </trkpt>
      <trkpt lat="45.96468" lon="6.4894">
        <ele>1783</ele>
        <time>2011-06-04T09:43:06Z</time>
      </trkpt>
      <trkpt lat="45.96467" lon="6.4894">
        <ele>1783</ele>
        <time>2011-06-04T09:43:08Z</time>
      </trkpt>
      <trkpt lat="45.96466" lon="6.48939">
        <ele>1784</ele>
        <time>2011-06-04T09:43:10Z</time>
      </trkpt>
      <trkpt lat="45.96464" lon="6.48938">
        <ele>1784</ele>
        <time>2011-06-04T09:43:12Z</time>
      </trkpt>
      <trkpt lat="45.96463" lon="6.48938">
        <ele>1785</ele>
        <time>2011-06-04T09:43:14Z</time>
      </trkpt>
      <trkpt lat="45.96461" lon="6.48938">
        <ele>1786</ele>
        <time>2011-06-04T09:43:16Z</time>
      </trkpt>
      <trkpt lat="45.9646" lon="6.48938">
        <ele>1788</ele>
        <time>2011-06-04T09:43:18Z</time>
      </trkpt>
      <trkpt lat="45.96459" lon="6.48937">
        <ele>1789</ele>
        <time>2011-06-04T09:43:20Z</time>
      </trkpt>
      <trkpt lat="45.96457" lon="6.48935">
        <ele>1790</ele>
        <time>2011-06-04T09:43:22Z</time>
      </trkpt>
      <trkpt lat="45.96456" lon="6.48935">
        <ele>1790</ele>
        <time>2011-06-04T09:43:24Z</time>
      </trkpt>
      <trkpt lat="45.96455" lon="6.48934">
        <ele>1792</ele>
        <time>2011-06-04T09:43:26Z</time>
      </trkpt>
      <trkpt lat="45.96453" lon="6.48933">
        <ele>1793</ele>
        <time>2011-06-04T09:43:28Z</time>
      </trkpt>
      <trkpt lat="45.96452" lon="6.48932">
        <ele>1794</ele>
        <time>2011-06-04T09:43:30Z</time>
      </trkpt>
      <trkpt lat="45.96451" lon="6.48931">
        <ele>1796</ele>
        <time>2011-06-04T09:43:32Z</time>
      </trkpt>
      <trkpt lat="45.96449" lon="6.48929">
        <ele>1797</ele>
        <time>2011-06-04T09:43:34Z</time>
      </trkpt>
      <trkpt lat="45.96449" lon="6.48924">
        <ele>1797</ele>
        <time>2011-06-04T09:43:37Z</time>
      </trkpt>
      <trkpt lat="45.96449" lon="6.48921">
        <ele>1797</ele>
        <time>2011-06-04T09:43:39Z</time>
      </trkpt>
      <trkpt lat="45.9645" lon="6.48917">
        <ele>1797</ele>
        <time>2011-06-04T09:43:41Z</time>
      </trkpt>
      <trkpt lat="45.9645" lon="6.48912">
        <ele>1797</ele>
        <time>2011-06-04T09:43:43Z</time>
      </trkpt>
      <trkpt lat="45.9645" lon="6.48909">
        <ele>1797</ele>
        <time>2011-06-04T09:43:45Z</time>
      </trkpt>
      <trkpt lat="45.96451" lon="6.48906">
        <ele>1797</ele>
        <time>2011-06-04T09:43:47Z</time>
      </trkpt>
      <trkpt lat="45.96451" lon="6.48903">
        <ele>1797</ele>
        <time>2011-06-04T09:43:49Z</time>
      </trkpt>
      <trkpt lat="45.96451" lon="6.489">
        <ele>1797</ele>
        <time>2011-06-04T09:43:51Z</time>
      </trkpt>
      <trkpt lat="45.9645" lon="6.48898">
        <ele>1797</ele>
        <time>2011-06-04T09:43:53Z</time>
      </trkpt>
      <trkpt lat="45.96449" lon="6.48896">
        <ele>1797</ele>
        <time>2011-06-04T09:43:56Z</time>
      </trkpt>
      <trkpt lat="45.96447" lon="6.48895">
        <ele>1797</ele>
        <time>2011-06-04T09:44:06Z</time>
      </trkpt>
      <trkpt lat="45.96445" lon="6.48892">
        <ele>1797</ele>
        <time>2011-06-04T09:44:08Z</time>
      </trkpt>
      <trkpt lat="45.96443" lon="6.48888">
        <ele>1797</ele>
        <time>2011-06-04T09:44:11Z</time>
      </trkpt>
      <trkpt lat="45.96442" lon="6.48885">
        <ele>1797</ele>
        <time>2011-06-04T09:44:13Z</time>
      </trkpt>
      <trkpt lat="45.9644" lon="6.48881">
        <ele>1797</ele>
        <time>2011-06-04T09:44:15Z</time>
      </trkpt>
      <trkpt lat="45.96439" lon="6.48877">
        <ele>1797</ele>
        <time>2011-06-04T09:44:17Z</time>
      </trkpt>
      <trkpt lat="45.96437" lon="6.48874">
        <ele>1797</ele>
        <time>2011-06-04T09:44:19Z</time>
      </trkpt>
      <trkpt lat="45.96436" lon="6.48871">
        <ele>1797</ele>
        <time>2011-06-04T09:44:21Z</time>
      </trkpt>
      <trkpt lat="45.96434" lon="6.48868">
        <ele>1797</ele>
        <time>2011-06-04T09:44:23Z</time>
      </trkpt>
      <trkpt lat="45.96433" lon="6.48865">
        <ele>1797</ele>
        <time>2011-06-04T09:44:25Z</time>
      </trkpt>
      <trkpt lat="45.96431" lon="6.48861">
        <ele>1797</ele>
        <time>2011-06-04T09:44:27Z</time>
      </trkpt>
      <trkpt lat="45.96429" lon="6.48858">
        <ele>1797</ele>
        <time>2011-06-04T09:44:30Z</time>
      </trkpt>
      <trkpt lat="45.96428" lon="6.48855">
        <ele>1797</ele>
        <time>2011-06-04T09:44:32Z</time>
      </trkpt>
      <trkpt lat="45.96427" lon="6.48853">
        <ele>1798</ele>
        <time>2011-06-04T09:44:34Z</time>
      </trkpt>
      <trkpt lat="45.96426" lon="6.4885">
        <ele>1799</ele>
        <time>2011-06-04T09:44:36Z</time>
      </trkpt>
      <trkpt lat="45.96424" lon="6.48846">
        <ele>1801</ele>
        <time>2011-06-04T09:44:39Z</time>
      </trkpt>
      <trkpt lat="45.96422" lon="6.48843">
        <ele>1801</ele>
        <time>2011-06-04T09:44:41Z</time>
      </trkpt>
      <trkpt lat="45.9642" lon="6.48839">
        <ele>1801</ele>
        <time>2011-06-04T09:44:44Z</time>
      </trkpt>
      <trkpt lat="45.96417" lon="6.48837">
        <ele>1801</ele>
        <time>2011-06-04T09:44:46Z</time>
      </trkpt>
      <trkpt lat="45.96415" lon="6.48835">
        <ele>1801</ele>
        <time>2011-06-04T09:44:48Z</time>
      </trkpt>
      <trkpt lat="45.96413" lon="6.48833">
        <ele>1801</ele>
        <time>2011-06-04T09:44:50Z</time>
      </trkpt>
      <trkpt lat="45.96411" lon="6.48831">
        <ele>1801</ele>
        <time>2011-06-04T09:44:52Z</time>
      </trkpt>
      <trkpt lat="45.96409" lon="6.48827">
        <ele>1801</ele>
        <time>2011-06-04T09:44:55Z</time>
      </trkpt>
      <trkpt lat="45.96407" lon="6.48826">
        <ele>1801</ele>
        <time>2011-06-04T09:44:57Z</time>
      </trkpt>
      <trkpt lat="45.96406" lon="6.48825">
        <ele>1801</ele>
        <time>2011-06-04T09:44:59Z</time>
      </trkpt>
      <trkpt lat="45.96404" lon="6.48824">
        <ele>1801</ele>
        <time>2011-06-04T09:45:01Z</time>
      </trkpt>
      <trkpt lat="45.96401" lon="6.48823">
        <ele>1801</ele>
        <time>2011-06-04T09:45:03Z</time>
      </trkpt>
      <trkpt lat="45.96398" lon="6.48822">
        <ele>1801</ele>
        <time>2011-06-04T09:45:06Z</time>
      </trkpt>
      <trkpt lat="45.96395" lon="6.48822">
        <ele>1801</ele>
        <time>2011-06-04T09:45:08Z</time>
      </trkpt>
      <trkpt lat="45.96391" lon="6.4882">
        <ele>1801</ele>
        <time>2011-06-04T09:45:11Z</time>
      </trkpt>
      <trkpt lat="45.96389" lon="6.48819">
        <ele>1801</ele>
        <time>2011-06-04T09:45:13Z</time>
      </trkpt>
      <trkpt lat="45.96387" lon="6.48818">
        <ele>1800</ele>
        <time>2011-06-04T09:45:15Z</time>
      </trkpt>
      <trkpt lat="45.96383" lon="6.48817">
        <ele>1799</ele>
        <time>2011-06-04T09:45:18Z</time>
      </trkpt>
      <trkpt lat="45.96382" lon="6.48815">
        <ele>1798</ele>
        <time>2011-06-04T09:45:20Z</time>
      </trkpt>
      <trkpt lat="45.96379" lon="6.48813">
        <ele>1798</ele>
        <time>2011-06-04T09:45:22Z</time>
      </trkpt>
      <trkpt lat="45.96376" lon="6.48812">
        <ele>1797</ele>
        <time>2011-06-04T09:45:24Z</time>
      </trkpt>
      <trkpt lat="45.96373" lon="6.48811">
        <ele>1796</ele>
        <time>2011-06-04T09:45:27Z</time>
      </trkpt>
      <trkpt lat="45.9637" lon="6.4881">
        <ele>1795</ele>
        <time>2011-06-04T09:45:29Z</time>
      </trkpt>
      <trkpt lat="45.96368" lon="6.48809">
        <ele>1794</ele>
        <time>2011-06-04T09:45:31Z</time>
      </trkpt>
      <trkpt lat="45.96365" lon="6.48806">
        <ele>1794</ele>
        <time>2011-06-04T09:45:33Z</time>
      </trkpt>
      <trkpt lat="45.96363" lon="6.48805">
        <ele>1794</ele>
        <time>2011-06-04T09:45:35Z</time>
      </trkpt>
      <trkpt lat="45.9636" lon="6.48804">
        <ele>1794</ele>
        <time>2011-06-04T09:45:37Z</time>
      </trkpt>
      <trkpt lat="45.96357" lon="6.48803">
        <ele>1794</ele>
        <time>2011-06-04T09:45:39Z</time>
      </trkpt>
      <trkpt lat="45.96354" lon="6.48802">
        <ele>1794</ele>
        <time>2011-06-04T09:45:41Z</time>
      </trkpt>
      <trkpt lat="45.96352" lon="6.488">
        <ele>1794</ele>
        <time>2011-06-04T09:45:43Z</time>
      </trkpt>
      <trkpt lat="45.96349" lon="6.48799">
        <ele>1794</ele>
        <time>2011-06-04T09:45:45Z</time>
      </trkpt>
      <trkpt lat="45.96347" lon="6.48797">
        <ele>1794</ele>
        <time>2011-06-04T09:45:47Z</time>
      </trkpt>
      <trkpt lat="45.96344" lon="6.48795">
        <ele>1794</ele>
        <time>2011-06-04T09:45:49Z</time>
      </trkpt>
      <trkpt lat="45.96341" lon="6.48793">
        <ele>1794</ele>
        <time>2011-06-04T09:45:51Z</time>
      </trkpt>
      <trkpt lat="45.96338" lon="6.48791">
        <ele>1794</ele>
        <time>2011-06-04T09:45:53Z</time>
      </trkpt>
      <trkpt lat="45.96335" lon="6.48788">
        <ele>1794</ele>
        <time>2011-06-04T09:45:55Z</time>
      </trkpt>
      <trkpt lat="45.96331" lon="6.48783">
        <ele>1796</ele>
        <time>2011-06-04T09:45:58Z</time>
      </trkpt>
      <trkpt lat="45.96328" lon="6.4878">
        <ele>1796</ele>
        <time>2011-06-04T09:46:00Z</time>
      </trkpt>
      <trkpt lat="45.96325" lon="6.48776">
        <ele>1796</ele>
        <time>2011-06-04T09:46:02Z</time>
      </trkpt>
      <trkpt lat="45.96321" lon="6.48774">
        <ele>1796</ele>
        <time>2011-06-04T09:46:04Z</time>
      </trkpt>
      <trkpt lat="45.96317" lon="6.48773">
        <ele>1796</ele>
        <time>2011-06-04T09:46:06Z</time>
      </trkpt>
      <trkpt lat="45.96314" lon="6.4877">
        <ele>1796</ele>
        <time>2011-06-04T09:46:08Z</time>
      </trkpt>
      <trkpt lat="45.96311" lon="6.48766">
        <ele>1796</ele>
        <time>2011-06-04T09:46:10Z</time>
      </trkpt>
      <trkpt lat="45.96308" lon="6.48762">
        <ele>1796</ele>
        <time>2011-06-04T09:46:12Z</time>
      </trkpt>
      <trkpt lat="45.96304" lon="6.48759">
        <ele>1796</ele>
        <time>2011-06-04T09:46:14Z</time>
      </trkpt>
      <trkpt lat="45.96302" lon="6.48755">
        <ele>1797</ele>
        <time>2011-06-04T09:46:16Z</time>
      </trkpt>
      <trkpt lat="45.96299" lon="6.48751">
        <ele>1798</ele>
        <time>2011-06-04T09:46:18Z</time>
      </trkpt>
      <trkpt lat="45.96298" lon="6.48747">
        <ele>1798</ele>
        <time>2011-06-04T09:46:20Z</time>
      </trkpt>
      <trkpt lat="45.96296" lon="6.48744">
        <ele>1799</ele>
        <time>2011-06-04T09:46:22Z</time>
      </trkpt>
      <trkpt lat="45.96295" lon="6.48742">
        <ele>1800</ele>
        <time>2011-06-04T09:46:24Z</time>
      </trkpt>
      <trkpt lat="45.96293" lon="6.48743">
        <ele>1801</ele>
        <time>2011-06-04T09:46:26Z</time>
      </trkpt>
      <trkpt lat="45.96296" lon="6.48736">
        <ele>1812</ele>
        <time>2011-06-04T09:46:31Z</time>
      </trkpt>
      <trkpt lat="45.963" lon="6.4874">
        <ele>1812</ele>
        <time>2011-06-04T09:46:34Z</time>
      </trkpt>
      <trkpt lat="45.96302" lon="6.48745">
        <ele>1812</ele>
        <time>2011-06-04T09:46:36Z</time>
      </trkpt>
      <trkpt lat="45.96305" lon="6.48749">
        <ele>1812</ele>
        <time>2011-06-04T09:46:39Z</time>
      </trkpt>
      <trkpt lat="45.96307" lon="6.48752">
        <ele>1812</ele>
        <time>2011-06-04T09:46:41Z</time>
      </trkpt>
      <trkpt lat="45.9631" lon="6.48754">
        <ele>1812</ele>
        <time>2011-06-04T09:46:43Z</time>
      </trkpt>
      <trkpt lat="45.96313" lon="6.48756">
        <ele>1812</ele>
        <time>2011-06-04T09:46:45Z</time>
      </trkpt>
      <trkpt lat="45.96316" lon="6.48759">
        <ele>1812</ele>
        <time>2011-06-04T09:46:47Z</time>
      </trkpt>
      <trkpt lat="45.9632" lon="6.48762">
        <ele>1812</ele>
        <time>2011-06-04T09:46:49Z</time>
      </trkpt>
      <trkpt lat="45.96325" lon="6.48765">
        <ele>1812</ele>
        <time>2011-06-04T09:46:51Z</time>
      </trkpt>
      <trkpt lat="45.96329" lon="6.48768">
        <ele>1812</ele>
        <time>2011-06-04T09:46:53Z</time>
      </trkpt>
      <trkpt lat="45.96332" lon="6.48771">
        <ele>1812</ele>
        <time>2011-06-04T09:46:55Z</time>
      </trkpt>
      <trkpt lat="45.96335" lon="6.48773">
        <ele>1812</ele>
        <time>2011-06-04T09:46:57Z</time>
      </trkpt>
      <trkpt lat="45.96338" lon="6.48775">
        <ele>1812</ele>
        <time>2011-06-04T09:46:59Z</time>
      </trkpt>
      <trkpt lat="45.96341" lon="6.48778">
        <ele>1812</ele>
        <time>2011-06-04T09:47:01Z</time>
      </trkpt>
      <trkpt lat="45.96346" lon="6.48781">
        <ele>1812</ele>
        <time>2011-06-04T09:47:03Z</time>
      </trkpt>
      <trkpt lat="45.96352" lon="6.48784">
        <ele>1812</ele>
        <time>2011-06-04T09:47:05Z</time>
      </trkpt>
      <trkpt lat="45.96357" lon="6.48786">
        <ele>1812</ele>
        <time>2011-06-04T09:47:07Z</time>
      </trkpt>
      <trkpt lat="45.96362" lon="6.48788">
        <ele>1813</ele>
        <time>2011-06-04T09:47:09Z</time>
      </trkpt>
      <trkpt lat="45.96369" lon="6.48791">
        <ele>1813</ele>
        <time>2011-06-04T09:47:11Z</time>
      </trkpt>
      <trkpt lat="45.96374" lon="6.48794">
        <ele>1813</ele>
        <time>2011-06-04T09:47:13Z</time>
      </trkpt>
      <trkpt lat="45.9638" lon="6.48797">
        <ele>1813</ele>
        <time>2011-06-04T09:47:15Z</time>
      </trkpt>
      <trkpt lat="45.96389" lon="6.48801">
        <ele>1813</ele>
        <time>2011-06-04T09:47:18Z</time>
      </trkpt>
      <trkpt lat="45.96394" lon="6.48804">
        <ele>1813</ele>
        <time>2011-06-04T09:47:20Z</time>
      </trkpt>
      <trkpt lat="45.964" lon="6.48807">
        <ele>1813</ele>
        <time>2011-06-04T09:47:22Z</time>
      </trkpt>
      <trkpt lat="45.96406" lon="6.48811">
        <ele>1813</ele>
        <time>2011-06-04T09:47:24Z</time>
      </trkpt>
      <trkpt lat="45.96414" lon="6.4882">
        <ele>1813</ele>
        <time>2011-06-04T09:47:27Z</time>
      </trkpt>
      <trkpt lat="45.9642" lon="6.48827">
        <ele>1813</ele>
        <time>2011-06-04T09:47:29Z</time>
      </trkpt>
      <trkpt lat="45.96428" lon="6.48839">
        <ele>1812</ele>
        <time>2011-06-04T09:47:32Z</time>
      </trkpt>
      <trkpt lat="45.96433" lon="6.48849">
        <ele>1811</ele>
        <time>2011-06-04T09:47:34Z</time>
      </trkpt>
      <trkpt lat="45.96438" lon="6.48861">
        <ele>1809</ele>
        <time>2011-06-04T09:47:36Z</time>
      </trkpt>
      <trkpt lat="45.96443" lon="6.48872">
        <ele>1808</ele>
        <time>2011-06-04T09:47:38Z</time>
      </trkpt>
      <trkpt lat="45.96447" lon="6.48883">
        <ele>1807</ele>
        <time>2011-06-04T09:47:40Z</time>
      </trkpt>
      <trkpt lat="45.96451" lon="6.48892">
        <ele>1806</ele>
        <time>2011-06-04T09:47:42Z</time>
      </trkpt>
      <trkpt lat="45.96455" lon="6.489">
        <ele>1804</ele>
        <time>2011-06-04T09:47:44Z</time>
      </trkpt>
      <trkpt lat="45.9646" lon="6.48912">
        <ele>1801</ele>
        <time>2011-06-04T09:47:47Z</time>
      </trkpt>
      <trkpt lat="45.96463" lon="6.48916">
        <ele>1799</ele>
        <time>2011-06-04T09:47:49Z</time>
      </trkpt>
      <trkpt lat="45.96468" lon="6.48921">
        <ele>1798</ele>
        <time>2011-06-04T09:47:51Z</time>
      </trkpt>
      <trkpt lat="45.96475" lon="6.48924">
        <ele>1796</ele>
        <time>2011-06-04T09:47:53Z</time>
      </trkpt>
      <trkpt lat="45.96481" lon="6.48924">
        <ele>1795</ele>
        <time>2011-06-04T09:47:55Z</time>
      </trkpt>
      <trkpt lat="45.96487" lon="6.48928">
        <ele>1792</ele>
        <time>2011-06-04T09:47:58Z</time>
      </trkpt>
      <trkpt lat="45.96489" lon="6.48935">
        <ele>1791</ele>
        <time>2011-06-04T09:48:00Z</time>
      </trkpt>
      <trkpt lat="45.96491" lon="6.48941">
        <ele>1789</ele>
        <time>2011-06-04T09:48:02Z</time>
      </trkpt>
      <trkpt lat="45.96493" lon="6.48947">
        <ele>1788</ele>
        <time>2011-06-04T09:48:04Z</time>
      </trkpt>
      <trkpt lat="45.96496" lon="6.48957">
        <ele>1786</ele>
        <time>2011-06-04T09:48:07Z</time>
      </trkpt>
      <trkpt lat="45.96498" lon="6.48965">
        <ele>1784</ele>
        <time>2011-06-04T09:48:09Z</time>
      </trkpt>
      <trkpt lat="45.965" lon="6.48976">
        <ele>1782</ele>
        <time>2011-06-04T09:48:12Z</time>
      </trkpt>
      <trkpt lat="45.96501" lon="6.48983">
        <ele>1780</ele>
        <time>2011-06-04T09:48:14Z</time>
      </trkpt>
      <trkpt lat="45.96502" lon="6.48989">
        <ele>1779</ele>
        <time>2011-06-04T09:48:16Z</time>
      </trkpt>
      <trkpt lat="45.96503" lon="6.49002">
        <ele>1777</ele>
        <time>2011-06-04T09:48:19Z</time>
      </trkpt>
      <trkpt lat="45.96502" lon="6.4901">
        <ele>1776</ele>
        <time>2011-06-04T09:48:21Z</time>
      </trkpt>
      <trkpt lat="45.96502" lon="6.49019">
        <ele>1775</ele>
        <time>2011-06-04T09:48:23Z</time>
      </trkpt>
      <trkpt lat="45.96502" lon="6.49026">
        <ele>1774</ele>
        <time>2011-06-04T09:48:25Z</time>
      </trkpt>
      <trkpt lat="45.96502" lon="6.49034">
        <ele>1772</ele>
        <time>2011-06-04T09:48:27Z</time>
      </trkpt>
      <trkpt lat="45.96501" lon="6.49043">
        <ele>1771</ele>
        <time>2011-06-04T09:48:29Z</time>
      </trkpt>
      <trkpt lat="45.96501" lon="6.49052">
        <ele>1770</ele>
        <time>2011-06-04T09:48:31Z</time>
      </trkpt>
      <trkpt lat="45.96501" lon="6.49062">
        <ele>1768</ele>
        <time>2011-06-04T09:48:33Z</time>
      </trkpt>
      <trkpt lat="45.96503" lon="6.49072">
        <ele>1766</ele>
        <time>2011-06-04T09:48:35Z</time>
      </trkpt>
      <trkpt lat="45.96507" lon="6.49088">
        <ele>1763</ele>
        <time>2011-06-04T09:48:38Z</time>
      </trkpt>
      <trkpt lat="45.96509" lon="6.49098">
        <ele>1761</ele>
        <time>2011-06-04T09:48:40Z</time>
      </trkpt>
      <trkpt lat="45.96511" lon="6.49107">
        <ele>1759</ele>
        <time>2011-06-04T09:48:42Z</time>
      </trkpt>
      <trkpt lat="45.96514" lon="6.49116">
        <ele>1757</ele>
        <time>2011-06-04T09:48:44Z</time>
      </trkpt>
      <trkpt lat="45.96517" lon="6.49127">
        <ele>1755</ele>
        <time>2011-06-04T09:48:46Z</time>
      </trkpt>
      <trkpt lat="45.96522" lon="6.49142">
        <ele>1752</ele>
        <time>2011-06-04T09:48:49Z</time>
      </trkpt>
      <trkpt lat="45.96525" lon="6.49153">
        <ele>1750</ele>
        <time>2011-06-04T09:48:51Z</time>
      </trkpt>
      <trkpt lat="45.96529" lon="6.49164">
        <ele>1748</ele>
        <time>2011-06-04T09:48:53Z</time>
      </trkpt>
      <trkpt lat="45.96533" lon="6.49174">
        <ele>1746</ele>
        <time>2011-06-04T09:48:55Z</time>
      </trkpt>
      <trkpt lat="45.96538" lon="6.49183">
        <ele>1745</ele>
        <time>2011-06-04T09:48:57Z</time>
      </trkpt>
      <trkpt lat="45.96546" lon="6.49196">
        <ele>1743</ele>
        <time>2011-06-04T09:49:00Z</time>
      </trkpt>
      <trkpt lat="45.96551" lon="6.49203">
        <ele>1743</ele>
        <time>2011-06-04T09:49:02Z</time>
      </trkpt>
      <trkpt lat="45.96556" lon="6.49211">
        <ele>1742</ele>
        <time>2011-06-04T09:49:04Z</time>
      </trkpt>
      <trkpt lat="45.96561" lon="6.49221">
        <ele>1741</ele>
        <time>2011-06-04T09:49:06Z</time>
      </trkpt>
      <trkpt lat="45.96567" lon="6.49231">
        <ele>1740</ele>
        <time>2011-06-04T09:49:08Z</time>
      </trkpt>
      <trkpt lat="45.96575" lon="6.49246">
        <ele>1738</ele>
        <time>2011-06-04T09:49:11Z</time>
      </trkpt>
      <trkpt lat="45.9658" lon="6.49256">
        <ele>1737</ele>
        <time>2011-06-04T09:49:13Z</time>
      </trkpt>
      <trkpt lat="45.96584" lon="6.49268">
        <ele>1735</ele>
        <time>2011-06-04T09:49:15Z</time>
      </trkpt>
      <trkpt lat="45.96589" lon="6.4928">
        <ele>1734</ele>
        <time>2011-06-04T09:49:17Z</time>
      </trkpt>
      <trkpt lat="45.96594" lon="6.49293">
        <ele>1732</ele>
        <time>2011-06-04T09:49:19Z</time>
      </trkpt>
      <trkpt lat="45.96598" lon="6.49305">
        <ele>1730</ele>
        <time>2011-06-04T09:49:21Z</time>
      </trkpt>
      <trkpt lat="45.96602" lon="6.49319">
        <ele>1728</ele>
        <time>2011-06-04T09:49:23Z</time>
      </trkpt>
      <trkpt lat="45.96606" lon="6.49333">
        <ele>1726</ele>
        <time>2011-06-04T09:49:25Z</time>
      </trkpt>
      <trkpt lat="45.96606" lon="6.49347">
        <ele>1725</ele>
        <time>2011-06-04T09:49:27Z</time>
      </trkpt>
      <trkpt lat="45.96606" lon="6.49358">
        <ele>1725</ele>
        <time>2011-06-04T09:49:29Z</time>
      </trkpt>
      <trkpt lat="45.96605" lon="6.49368">
        <ele>1725</ele>
        <time>2011-06-04T09:49:32Z</time>
      </trkpt>
      <trkpt lat="45.96606" lon="6.49374">
        <ele>1725</ele>
        <time>2011-06-04T09:49:34Z</time>
      </trkpt>
      <trkpt lat="45.96607" lon="6.49379">
        <ele>1724</ele>
        <time>2011-06-04T09:49:36Z</time>
      </trkpt>
      <trkpt lat="45.96608" lon="6.49382">
        <ele>1724</ele>
        <time>2011-06-04T09:49:38Z</time>
      </trkpt>
      <trkpt lat="45.9661" lon="6.49386">
        <ele>1723</ele>
        <time>2011-06-04T09:49:41Z</time>
      </trkpt>
      <trkpt lat="45.96612" lon="6.49387">
        <ele>1723</ele>
        <time>2011-06-04T09:49:43Z</time>
      </trkpt>
      <trkpt lat="45.96616" lon="6.49389">
        <ele>1723</ele>
        <time>2011-06-04T09:49:45Z</time>
      </trkpt>
      <trkpt lat="45.9662" lon="6.49396">
        <ele>1722</ele>
        <time>2011-06-04T09:49:48Z</time>
      </trkpt>
      <trkpt lat="45.9662" lon="6.49401">
        <ele>1722</ele>
        <time>2011-06-04T09:49:50Z</time>
      </trkpt>
      <trkpt lat="45.96618" lon="6.49405">
        <ele>1722</ele>
        <time>2011-06-04T09:49:52Z</time>
      </trkpt>
      <trkpt lat="45.96615" lon="6.49407">
        <ele>1722</ele>
        <time>2011-06-04T09:49:54Z</time>
      </trkpt>
      <trkpt lat="45.96612" lon="6.49409">
        <ele>1722</ele>
        <time>2011-06-04T09:49:57Z</time>
      </trkpt>
      <trkpt lat="45.96611" lon="6.49409">
        <ele>1722</ele>
        <time>2011-06-04T09:50:00Z</time>
      </trkpt>
      <trkpt lat="45.96611" lon="6.49412">
        <ele>1721</ele>
        <time>2011-06-04T09:50:13Z</time>
      </trkpt>
      <trkpt lat="45.96608" lon="6.49416">
        <ele>1721</ele>
        <time>2011-06-04T09:50:17Z</time>
      </trkpt>
      <trkpt lat="45.96605" lon="6.49418">
        <ele>1721</ele>
        <time>2011-06-04T09:50:19Z</time>
      </trkpt>
      <trkpt lat="45.96604" lon="6.49419">
        <ele>1720</ele>
        <time>2011-06-04T09:50:21Z</time>
      </trkpt>
      <trkpt lat="45.96602" lon="6.49419">
        <ele>1720</ele>
        <time>2011-06-04T09:50:23Z</time>
      </trkpt>
      <trkpt lat="45.96601" lon="6.49419">
        <ele>1720</ele>
        <time>2011-06-04T09:50:25Z</time>
      </trkpt>
      <trkpt lat="45.966" lon="6.49422">
        <ele>1720</ele>
        <time>2011-06-04T09:50:28Z</time>
      </trkpt>
      <trkpt lat="45.96597" lon="6.49426">
        <ele>1719</ele>
        <time>2011-06-04T09:50:32Z</time>
      </trkpt>
      <trkpt lat="45.96595" lon="6.49428">
        <ele>1719</ele>
        <time>2011-06-04T09:50:34Z</time>
      </trkpt>
      <trkpt lat="45.96592" lon="6.49432">
        <ele>1717</ele>
        <time>2011-06-04T09:50:38Z</time>
      </trkpt>
      <trkpt lat="45.9659" lon="6.49433">
        <ele>1716</ele>
        <time>2011-06-04T09:50:40Z</time>
      </trkpt>
      <trkpt lat="45.96592" lon="6.49433">
        <ele>1714</ele>
        <time>2011-06-04T09:50:44Z</time>
      </trkpt>
      <trkpt lat="45.96594" lon="6.49434">
        <ele>1714</ele>
        <time>2011-06-04T09:50:46Z</time>
      </trkpt>
      <trkpt lat="45.96593" lon="6.49433">
        <ele>1714</ele>
        <time>2011-06-04T09:50:53Z</time>
      </trkpt>
      <trkpt lat="45.96589" lon="6.49436">
        <ele>1714</ele>
        <time>2011-06-04T09:50:57Z</time>
      </trkpt>
      <trkpt lat="45.96588" lon="6.49438">
        <ele>1713</ele>
        <time>2011-06-04T09:50:59Z</time>
      </trkpt>
      <trkpt lat="45.96586" lon="6.49439">
        <ele>1713</ele>
        <time>2011-06-04T09:51:01Z</time>
      </trkpt>
      <trkpt lat="45.96585" lon="6.4944">
        <ele>1712</ele>
        <time>2011-06-04T09:51:03Z</time>
      </trkpt>
      <trkpt lat="45.96583" lon="6.49442">
        <ele>1711</ele>
        <time>2011-06-04T09:51:05Z</time>
      </trkpt>
      <trkpt lat="45.96582" lon="6.49443">
        <ele>1710</ele>
        <time>2011-06-04T09:51:07Z</time>
      </trkpt>
      <trkpt lat="45.96581" lon="6.49445">
        <ele>1709</ele>
        <time>2011-06-04T09:51:09Z</time>
      </trkpt>
      <trkpt lat="45.9658" lon="6.49446">
        <ele>1708</ele>
        <time>2011-06-04T09:51:11Z</time>
      </trkpt>
      <trkpt lat="45.96579" lon="6.49448">
        <ele>1707</ele>
        <time>2011-06-04T09:51:21Z</time>
      </trkpt>
      <trkpt lat="45.96579" lon="6.49449">
        <ele>1707</ele>
        <time>2011-06-04T09:51:26Z</time>
      </trkpt>
      <trkpt lat="45.96578" lon="6.49451">
        <ele>1707</ele>
        <time>2011-06-04T09:51:31Z</time>
      </trkpt>
      <trkpt lat="45.96578" lon="6.49452">
        <ele>1710</ele>
        <time>2011-06-04T09:51:38Z</time>
      </trkpt>
      <trkpt lat="45.96576" lon="6.49452">
        <ele>1709</ele>
        <time>2011-06-04T09:51:57Z</time>
      </trkpt>
      <trkpt lat="45.96575" lon="6.49453">
        <ele>1708</ele>
        <time>2011-06-04T09:52:00Z</time>
      </trkpt>
      <trkpt lat="45.96574" lon="6.49453">
        <ele>1705</ele>
        <time>2011-06-04T09:52:04Z</time>
      </trkpt>
      <trkpt lat="45.96572" lon="6.49453">
        <ele>1704</ele>
        <time>2011-06-04T09:52:14Z</time>
      </trkpt>
      <trkpt lat="45.96571" lon="6.49455">
        <ele>1704</ele>
        <time>2011-06-04T09:52:19Z</time>
      </trkpt>
      <trkpt lat="45.96569" lon="6.49457">
        <ele>1704</ele>
        <time>2011-06-04T09:52:24Z</time>
      </trkpt>
      <trkpt lat="45.96568" lon="6.49458">
        <ele>1704</ele>
        <time>2011-06-04T09:52:33Z</time>
      </trkpt>
      <trkpt lat="45.96567" lon="6.49458">
        <ele>1704</ele>
        <time>2011-06-04T09:52:36Z</time>
      </trkpt>
      <trkpt lat="45.96566" lon="6.49457">
        <ele>1704</ele>
        <time>2011-06-04T09:52:38Z</time>
      </trkpt>
      <trkpt lat="45.96563" lon="6.49455">
        <ele>1703</ele>
        <time>2011-06-04T09:52:44Z</time>
      </trkpt>
      <trkpt lat="45.96561" lon="6.49455">
        <ele>1703</ele>
        <time>2011-06-04T09:52:49Z</time>
      </trkpt>
      <trkpt lat="45.96558" lon="6.49455">
        <ele>1703</ele>
        <time>2011-06-04T09:52:52Z</time>
      </trkpt>
      <trkpt lat="45.96554" lon="6.49456">
        <ele>1703</ele>
        <time>2011-06-04T09:52:54Z</time>
      </trkpt>
      <trkpt lat="45.9655" lon="6.49458">
        <ele>1703</ele>
        <time>2011-06-04T09:52:58Z</time>
      </trkpt>
      <trkpt lat="45.9655" lon="6.49459">
        <ele>1703</ele>
        <time>2011-06-04T09:53:00Z</time>
      </trkpt>
      <trkpt lat="45.96551" lon="6.4946">
        <ele>1703</ele>
        <time>2011-06-04T09:53:04Z</time>
      </trkpt>
      <trkpt lat="45.96552" lon="6.49459">
        <ele>1703</ele>
        <time>2011-06-04T09:53:07Z</time>
      </trkpt>
      <trkpt lat="45.96553" lon="6.49462">
        <ele>1703</ele>
        <time>2011-06-04T09:53:12Z</time>
      </trkpt>
      <trkpt lat="45.96554" lon="6.49466">
        <ele>1703</ele>
        <time>2011-06-04T09:53:16Z</time>
      </trkpt>
      <trkpt lat="45.96555" lon="6.49468">
        <ele>1703</ele>
        <time>2011-06-04T09:53:18Z</time>
      </trkpt>
      <trkpt lat="45.96555" lon="6.49473">
        <ele>1703</ele>
        <time>2011-06-04T09:53:22Z</time>
      </trkpt>
      <trkpt lat="45.96556" lon="6.49475">
        <ele>1703</ele>
        <time>2011-06-04T09:53:24Z</time>
      </trkpt>
      <trkpt lat="45.96557" lon="6.49477">
        <ele>1703</ele>
        <time>2011-06-04T09:53:26Z</time>
      </trkpt>
      <trkpt lat="45.96558" lon="6.4948">
        <ele>1703</ele>
        <time>2011-06-04T09:53:28Z</time>
      </trkpt>
      <trkpt lat="45.96558" lon="6.49484">
        <ele>1703</ele>
        <time>2011-06-04T09:53:31Z</time>
      </trkpt>
      <trkpt lat="45.96558" lon="6.49487">
        <ele>1703</ele>
        <time>2011-06-04T09:53:33Z</time>
      </trkpt>
      <trkpt lat="45.96558" lon="6.4949">
        <ele>1703</ele>
        <time>2011-06-04T09:53:35Z</time>
      </trkpt>
      <trkpt lat="45.96558" lon="6.49493">
        <ele>1703</ele>
        <time>2011-06-04T09:53:37Z</time>
      </trkpt>
      <trkpt lat="45.96558" lon="6.49495">
        <ele>1702</ele>
        <time>2011-06-04T09:53:39Z</time>
      </trkpt>
      <trkpt lat="45.96558" lon="6.49498">
        <ele>1701</ele>
        <time>2011-06-04T09:53:41Z</time>
      </trkpt>
      <trkpt lat="45.96558" lon="6.49499">
        <ele>1700</ele>
        <time>2011-06-04T09:53:43Z</time>
      </trkpt>
      <trkpt lat="45.96559" lon="6.49502">
        <ele>1699</ele>
        <time>2011-06-04T09:53:45Z</time>
      </trkpt>
      <trkpt lat="45.96559" lon="6.49507">
        <ele>1699</ele>
        <time>2011-06-04T09:53:48Z</time>
      </trkpt>
      <trkpt lat="45.96559" lon="6.49511">
        <ele>1698</ele>
        <time>2011-06-04T09:53:50Z</time>
      </trkpt>
      <trkpt lat="45.96558" lon="6.49516">
        <ele>1697</ele>
        <time>2011-06-04T09:53:52Z</time>
      </trkpt>
      <trkpt lat="45.96558" lon="6.4952">
        <ele>1697</ele>
        <time>2011-06-04T09:53:54Z</time>
      </trkpt>
      <trkpt lat="45.96557" lon="6.49526">
        <ele>1696</ele>
        <time>2011-06-04T09:53:57Z</time>
      </trkpt>
      <trkpt lat="45.96554" lon="6.4953">
        <ele>1695</ele>
        <time>2011-06-04T09:54:00Z</time>
      </trkpt>
      <trkpt lat="45.96551" lon="6.4953">
        <ele>1694</ele>
        <time>2011-06-04T09:54:03Z</time>
      </trkpt>
      <trkpt lat="45.96548" lon="6.49528">
        <ele>1692</ele>
        <time>2011-06-04T09:54:06Z</time>
      </trkpt>
      <trkpt lat="45.96544" lon="6.49528">
        <ele>1690</ele>
        <time>2011-06-04T09:54:08Z</time>
      </trkpt>
      <trkpt lat="45.96541" lon="6.49529">
        <ele>1688</ele>
        <time>2011-06-04T09:54:11Z</time>
      </trkpt>
      <trkpt lat="45.9654" lon="6.49532">
        <ele>1687</ele>
        <time>2011-06-04T09:54:13Z</time>
      </trkpt>
      <trkpt lat="45.9654" lon="6.49537">
        <ele>1686</ele>
        <time>2011-06-04T09:54:16Z</time>
      </trkpt>
      <trkpt lat="45.9654" lon="6.49542">
        <ele>1685</ele>
        <time>2011-06-04T09:54:19Z</time>
      </trkpt>
      <trkpt lat="45.96537" lon="6.49544">
        <ele>1682</ele>
        <time>2011-06-04T09:54:24Z</time>
      </trkpt>
      <trkpt lat="45.96535" lon="6.49544">
        <ele>1681</ele>
        <time>2011-06-04T09:54:28Z</time>
      </trkpt>
      <trkpt lat="45.96533" lon="6.49542">
        <ele>1679</ele>
        <time>2011-06-04T09:54:30Z</time>
      </trkpt>
      <trkpt lat="45.96528" lon="6.49539">
        <ele>1677</ele>
        <time>2011-06-04T09:54:33Z</time>
      </trkpt>
      <trkpt lat="45.96523" lon="6.49535">
        <ele>1676</ele>
        <time>2011-06-04T09:54:35Z</time>
      </trkpt>
      <trkpt lat="45.96515" lon="6.49531">
        <ele>1674</ele>
        <time>2011-06-04T09:54:38Z</time>
      </trkpt>
      <trkpt lat="45.96511" lon="6.4953">
        <ele>1672</ele>
        <time>2011-06-04T09:54:40Z</time>
      </trkpt>
      <trkpt lat="45.96504" lon="6.49528">
        <ele>1671</ele>
        <time>2011-06-04T09:54:43Z</time>
      </trkpt>
      <trkpt lat="45.965" lon="6.49527">
        <ele>1670</ele>
        <time>2011-06-04T09:54:45Z</time>
      </trkpt>
      <trkpt lat="45.96495" lon="6.49523">
        <ele>1669</ele>
        <time>2011-06-04T09:54:49Z</time>
      </trkpt>
      <trkpt lat="45.96494" lon="6.49523">
        <ele>1668</ele>
        <time>2011-06-04T09:54:51Z</time>
      </trkpt>
      <trkpt lat="45.96488" lon="6.49522">
        <ele>1666</ele>
        <time>2011-06-04T09:54:54Z</time>
      </trkpt>
      <trkpt lat="45.96484" lon="6.49523">
        <ele>1666</ele>
        <time>2011-06-04T09:54:56Z</time>
      </trkpt>
      <trkpt lat="45.9648" lon="6.49524">
        <ele>1664</ele>
        <time>2011-06-04T09:54:58Z</time>
      </trkpt>
      <trkpt lat="45.96473" lon="6.49524">
        <ele>1663</ele>
        <time>2011-06-04T09:55:01Z</time>
      </trkpt>
      <trkpt lat="45.96467" lon="6.49522">
        <ele>1661</ele>
        <time>2011-06-04T09:55:03Z</time>
      </trkpt>
      <trkpt lat="45.96461" lon="6.49521">
        <ele>1660</ele>
        <time>2011-06-04T09:55:05Z</time>
      </trkpt>
      <trkpt lat="45.96456" lon="6.49523">
        <ele>1659</ele>
        <time>2011-06-04T09:55:07Z</time>
      </trkpt>
      <trkpt lat="45.96451" lon="6.49525">
        <ele>1658</ele>
        <time>2011-06-04T09:55:09Z</time>
      </trkpt>
      <trkpt lat="45.96447" lon="6.49527">
        <ele>1658</ele>
        <time>2011-06-04T09:55:11Z</time>
      </trkpt>
      <trkpt lat="45.96443" lon="6.49527">
        <ele>1657</ele>
        <time>2011-06-04T09:55:13Z</time>
      </trkpt>
      <trkpt lat="45.9644" lon="6.49526">
        <ele>1656</ele>
        <time>2011-06-04T09:55:15Z</time>
      </trkpt>
      <trkpt lat="45.96438" lon="6.49525">
        <ele>1655</ele>
        <time>2011-06-04T09:55:17Z</time>
      </trkpt>
      <trkpt lat="45.96435" lon="6.49524">
        <ele>1655</ele>
        <time>2011-06-04T09:55:20Z</time>
      </trkpt>
      <trkpt lat="45.96432" lon="6.49524">
        <ele>1655</ele>
        <time>2011-06-04T09:55:22Z</time>
      </trkpt>
      <trkpt lat="45.96427" lon="6.49523">
        <ele>1655</ele>
        <time>2011-06-04T09:55:25Z</time>
      </trkpt>
      <trkpt lat="45.96423" lon="6.49522">
        <ele>1654</ele>
        <time>2011-06-04T09:55:27Z</time>
      </trkpt>
      <trkpt lat="45.96418" lon="6.49521">
        <ele>1653</ele>
        <time>2011-06-04T09:55:29Z</time>
      </trkpt>
      <trkpt lat="45.96413" lon="6.49519">
        <ele>1652</ele>
        <time>2011-06-04T09:55:31Z</time>
      </trkpt>
      <trkpt lat="45.96409" lon="6.49517">
        <ele>1651</ele>
        <time>2011-06-04T09:55:33Z</time>
      </trkpt>
      <trkpt lat="45.96405" lon="6.49515">
        <ele>1651</ele>
        <time>2011-06-04T09:55:35Z</time>
      </trkpt>
      <trkpt lat="45.964" lon="6.49515">
        <ele>1650</ele>
        <time>2011-06-04T09:55:37Z</time>
      </trkpt>
      <trkpt lat="45.96395" lon="6.49516">
        <ele>1649</ele>
        <time>2011-06-04T09:55:39Z</time>
      </trkpt>
      <trkpt lat="45.96391" lon="6.49514">
        <ele>1648</ele>
        <time>2011-06-04T09:55:41Z</time>
      </trkpt>
      <trkpt lat="45.96385" lon="6.49512">
        <ele>1646</ele>
        <time>2011-06-04T09:55:43Z</time>
      </trkpt>
      <trkpt lat="45.9638" lon="6.4951">
        <ele>1645</ele>
        <time>2011-06-04T09:55:45Z</time>
      </trkpt>
      <trkpt lat="45.96375" lon="6.49509">
        <ele>1645</ele>
        <time>2011-06-04T09:55:47Z</time>
      </trkpt>
      <trkpt lat="45.9637" lon="6.49509">
        <ele>1644</ele>
        <time>2011-06-04T09:55:49Z</time>
      </trkpt>
      <trkpt lat="45.96365" lon="6.49511">
        <ele>1644</ele>
        <time>2011-06-04T09:55:51Z</time>
      </trkpt>
      <trkpt lat="45.9636" lon="6.49513">
        <ele>1644</ele>
        <time>2011-06-04T09:55:53Z</time>
      </trkpt>
      <trkpt lat="45.96354" lon="6.49512">
        <ele>1644</ele>
        <time>2011-06-04T09:55:55Z</time>
      </trkpt>
      <trkpt lat="45.9635" lon="6.49509">
        <ele>1643</ele>
        <time>2011-06-04T09:55:57Z</time>
      </trkpt>
      <trkpt lat="45.96346" lon="6.49505">
        <ele>1643</ele>
        <time>2011-06-04T09:56:00Z</time>
      </trkpt>
      <trkpt lat="45.96342" lon="6.49501">
        <ele>1643</ele>
        <time>2011-06-04T09:56:02Z</time>
      </trkpt>
      <trkpt lat="45.96336" lon="6.49496">
        <ele>1643</ele>
        <time>2011-06-04T09:56:05Z</time>
      </trkpt>
      <trkpt lat="45.9633" lon="6.49496">
        <ele>1643</ele>
        <time>2011-06-04T09:56:07Z</time>
      </trkpt>
      <trkpt lat="45.96322" lon="6.49494">
        <ele>1643</ele>
        <time>2011-06-04T09:56:10Z</time>
      </trkpt>
      <trkpt lat="45.96317" lon="6.4949">
        <ele>1643</ele>
        <time>2011-06-04T09:56:12Z</time>
      </trkpt>
      <trkpt lat="45.96312" lon="6.49486">
        <ele>1643</ele>
        <time>2011-06-04T09:56:14Z</time>
      </trkpt>
      <trkpt lat="45.96307" lon="6.49484">
        <ele>1643</ele>
        <time>2011-06-04T09:56:16Z</time>
      </trkpt>
      <trkpt lat="45.963" lon="6.49483">
        <ele>1643</ele>
        <time>2011-06-04T09:56:18Z</time>
      </trkpt>
      <trkpt lat="45.96294" lon="6.49481">
        <ele>1643</ele>
        <time>2011-06-04T09:56:20Z</time>
      </trkpt>
      <trkpt lat="45.96289" lon="6.49478">
        <ele>1643</ele>
        <time>2011-06-04T09:56:22Z</time>
      </trkpt>
      <trkpt lat="45.96283" lon="6.49475">
        <ele>1643</ele>
        <time>2011-06-04T09:56:24Z</time>
      </trkpt>
      <trkpt lat="45.96277" lon="6.49471">
        <ele>1643</ele>
        <time>2011-06-04T09:56:26Z</time>
      </trkpt>
      <trkpt lat="45.96272" lon="6.49468">
        <ele>1643</ele>
        <time>2011-06-04T09:56:28Z</time>
      </trkpt>
      <trkpt lat="45.96266" lon="6.49465">
        <ele>1643</ele>
        <time>2011-06-04T09:56:30Z</time>
      </trkpt>
      <trkpt lat="45.96261" lon="6.49462">
        <ele>1643</ele>
        <time>2011-06-04T09:56:32Z</time>
      </trkpt>
      <trkpt lat="45.96255" lon="6.49456">
        <ele>1643</ele>
        <time>2011-06-04T09:56:35Z</time>
      </trkpt>
      <trkpt lat="45.96252" lon="6.49453">
        <ele>1644</ele>
        <time>2011-06-04T09:56:37Z</time>
      </trkpt>
      <trkpt lat="45.96248" lon="6.49449">
        <ele>1645</ele>
        <time>2011-06-04T09:56:40Z</time>
      </trkpt>
      <trkpt lat="45.96245" lon="6.49446">
        <ele>1645</ele>
        <time>2011-06-04T09:56:57Z</time>
      </trkpt>
      <trkpt lat="45.96244" lon="6.49445">
        <ele>1645</ele>
        <time>2011-06-04T09:56:59Z</time>
      </trkpt>
      <trkpt lat="45.96234" lon="6.49444">
        <ele>1650</ele>
        <time>2011-06-04T09:57:12Z</time>
      </trkpt>
      <trkpt lat="45.9623" lon="6.49441">
        <ele>1650</ele>
        <time>2011-06-04T09:57:14Z</time>
      </trkpt>
      <trkpt lat="45.96227" lon="6.49436">
        <ele>1650</ele>
        <time>2011-06-04T09:57:16Z</time>
      </trkpt>
      <trkpt lat="45.96224" lon="6.49427">
        <ele>1650</ele>
        <time>2011-06-04T09:57:18Z</time>
      </trkpt>
      <trkpt lat="45.96222" lon="6.49418">
        <ele>1650</ele>
        <time>2011-06-04T09:57:20Z</time>
      </trkpt>
      <trkpt lat="45.96217" lon="6.49408">
        <ele>1649</ele>
        <time>2011-06-04T09:57:22Z</time>
      </trkpt>
      <trkpt lat="45.96212" lon="6.49396">
        <ele>1648</ele>
        <time>2011-06-04T09:57:24Z</time>
      </trkpt>
      <trkpt lat="45.96207" lon="6.49384">
        <ele>1647</ele>
        <time>2011-06-04T09:57:26Z</time>
      </trkpt>
      <trkpt lat="45.96201" lon="6.49371">
        <ele>1645</ele>
        <time>2011-06-04T09:57:28Z</time>
      </trkpt>
      <trkpt lat="45.96194" lon="6.49361">
        <ele>1643</ele>
        <time>2011-06-04T09:57:30Z</time>
      </trkpt>
      <trkpt lat="45.9619" lon="6.4935">
        <ele>1641</ele>
        <time>2011-06-04T09:57:32Z</time>
      </trkpt>
      <trkpt lat="45.96185" lon="6.49339">
        <ele>1639</ele>
        <time>2011-06-04T09:57:34Z</time>
      </trkpt>
      <trkpt lat="45.9618" lon="6.49328">
        <ele>1637</ele>
        <time>2011-06-04T09:57:36Z</time>
      </trkpt>
      <trkpt lat="45.96171" lon="6.49317">
        <ele>1635</ele>
        <time>2011-06-04T09:57:38Z</time>
      </trkpt>
      <trkpt lat="45.96162" lon="6.49304">
        <ele>1633</ele>
        <time>2011-06-04T09:57:40Z</time>
      </trkpt>
      <trkpt lat="45.96156" lon="6.49289">
        <ele>1631</ele>
        <time>2011-06-04T09:57:42Z</time>
      </trkpt>
      <trkpt lat="45.96151" lon="6.49276">
        <ele>1629</ele>
        <time>2011-06-04T09:57:44Z</time>
      </trkpt>
      <trkpt lat="45.96145" lon="6.49266">
        <ele>1626</ele>
        <time>2011-06-04T09:57:46Z</time>
      </trkpt>
      <trkpt lat="45.96137" lon="6.49255">
        <ele>1624</ele>
        <time>2011-06-04T09:57:48Z</time>
      </trkpt>
      <trkpt lat="45.96128" lon="6.49242">
        <ele>1621</ele>
        <time>2011-06-04T09:57:50Z</time>
      </trkpt>
      <trkpt lat="45.96118" lon="6.49227">
        <ele>1619</ele>
        <time>2011-06-04T09:57:52Z</time>
      </trkpt>
      <trkpt lat="45.96102" lon="6.49205">
        <ele>1616</ele>
        <time>2011-06-04T09:57:55Z</time>
      </trkpt>
      <trkpt lat="45.96095" lon="6.4919">
        <ele>1614</ele>
        <time>2011-06-04T09:57:57Z</time>
      </trkpt>
      <trkpt lat="45.96089" lon="6.49173">
        <ele>1612</ele>
        <time>2011-06-04T09:57:59Z</time>
      </trkpt>
      <trkpt lat="45.96084" lon="6.49158">
        <ele>1610</ele>
        <time>2011-06-04T09:58:01Z</time>
      </trkpt>
      <trkpt lat="45.96078" lon="6.49145">
        <ele>1608</ele>
        <time>2011-06-04T09:58:03Z</time>
      </trkpt>
      <trkpt lat="45.96073" lon="6.49135">
        <ele>1606</ele>
        <time>2011-06-04T09:58:05Z</time>
      </trkpt>
      <trkpt lat="45.96069" lon="6.49129">
        <ele>1603</ele>
        <time>2011-06-04T09:58:08Z</time>
      </trkpt>
      <trkpt lat="45.96067" lon="6.49127">
        <ele>1601</ele>
        <time>2011-06-04T09:58:10Z</time>
      </trkpt>
      <trkpt lat="45.96064" lon="6.49124">
        <ele>1599</ele>
        <time>2011-06-04T09:58:12Z</time>
      </trkpt>
      <trkpt lat="45.9606" lon="6.4912">
        <ele>1597</ele>
        <time>2011-06-04T09:58:14Z</time>
      </trkpt>
      <trkpt lat="45.96055" lon="6.49113">
        <ele>1595</ele>
        <time>2011-06-04T09:58:16Z</time>
      </trkpt>
      <trkpt lat="45.96049" lon="6.49107">
        <ele>1593</ele>
        <time>2011-06-04T09:58:18Z</time>
      </trkpt>
      <trkpt lat="45.96041" lon="6.49105">
        <ele>1591</ele>
        <time>2011-06-04T09:58:20Z</time>
      </trkpt>
      <trkpt lat="45.96027" lon="6.49107">
        <ele>1588</ele>
        <time>2011-06-04T09:58:23Z</time>
      </trkpt>
      <trkpt lat="45.96019" lon="6.4911">
        <ele>1588</ele>
        <time>2011-06-04T09:58:25Z</time>
      </trkpt>
      <trkpt lat="45.96013" lon="6.4911">
        <ele>1588</ele>
        <time>2011-06-04T09:58:27Z</time>
      </trkpt>
      <trkpt lat="45.96007" lon="6.49108">
        <ele>1588</ele>
        <time>2011-06-04T09:58:29Z</time>
      </trkpt>
      <trkpt lat="45.96002" lon="6.49103">
        <ele>1588</ele>
        <time>2011-06-04T09:58:31Z</time>
      </trkpt>
      <trkpt lat="45.95997" lon="6.49097">
        <ele>1588</ele>
        <time>2011-06-04T09:58:33Z</time>
      </trkpt>
      <trkpt lat="45.95993" lon="6.49095">
        <ele>1588</ele>
        <time>2011-06-04T09:58:35Z</time>
      </trkpt>
      <trkpt lat="45.9599" lon="6.49095">
        <ele>1588</ele>
        <time>2011-06-04T09:58:37Z</time>
      </trkpt>
      <trkpt lat="45.95987" lon="6.49097">
        <ele>1588</ele>
        <time>2011-06-04T09:58:39Z</time>
      </trkpt>
      <trkpt lat="45.95983" lon="6.49098">
        <ele>1589</ele>
        <time>2011-06-04T09:58:41Z</time>
      </trkpt>
      <trkpt lat="45.9598" lon="6.491">
        <ele>1590</ele>
        <time>2011-06-04T09:58:43Z</time>
      </trkpt>
      <trkpt lat="45.95977" lon="6.49104">
        <ele>1592</ele>
        <time>2011-06-04T09:58:45Z</time>
      </trkpt>
      <trkpt lat="45.95973" lon="6.49106">
        <ele>1593</ele>
        <time>2011-06-04T09:58:47Z</time>
      </trkpt>
      <trkpt lat="45.9597" lon="6.49108">
        <ele>1594</ele>
        <time>2011-06-04T09:58:49Z</time>
      </trkpt>
      <trkpt lat="45.95966" lon="6.49111">
        <ele>1595</ele>
        <time>2011-06-04T09:58:52Z</time>
      </trkpt>
      <trkpt lat="45.95964" lon="6.49113">
        <ele>1596</ele>
        <time>2011-06-04T09:58:54Z</time>
      </trkpt>
      <trkpt lat="45.95963" lon="6.49117">
        <ele>1598</ele>
        <time>2011-06-04T09:58:56Z</time>
      </trkpt>
      <trkpt lat="45.95962" lon="6.4912">
        <ele>1600</ele>
        <time>2011-06-04T09:58:58Z</time>
      </trkpt>
      <trkpt lat="45.95959" lon="6.49123">
        <ele>1602</ele>
        <time>2011-06-04T09:59:00Z</time>
      </trkpt>
      <trkpt lat="45.95955" lon="6.49126">
        <ele>1604</ele>
        <time>2011-06-04T09:59:02Z</time>
      </trkpt>
      <trkpt lat="45.95952" lon="6.49126">
        <ele>1606</ele>
        <time>2011-06-04T09:59:04Z</time>
      </trkpt>
      <trkpt lat="45.95949" lon="6.49126">
        <ele>1607</ele>
        <time>2011-06-04T09:59:06Z</time>
      </trkpt>
      <trkpt lat="45.95946" lon="6.49126">
        <ele>1608</ele>
        <time>2011-06-04T09:59:08Z</time>
      </trkpt>
      <trkpt lat="45.95941" lon="6.49125">
        <ele>1608</ele>
        <time>2011-06-04T09:59:10Z</time>
      </trkpt>
      <trkpt lat="45.95938" lon="6.49123">
        <ele>1608</ele>
        <time>2011-06-04T09:59:12Z</time>
      </trkpt>
      <trkpt lat="45.95935" lon="6.49122">
        <ele>1608</ele>
        <time>2011-06-04T09:59:14Z</time>
      </trkpt>
      <trkpt lat="45.95932" lon="6.49119">
        <ele>1609</ele>
        <time>2011-06-04T09:59:16Z</time>
      </trkpt>
      <trkpt lat="45.95929" lon="6.49116">
        <ele>1609</ele>
        <time>2011-06-04T09:59:18Z</time>
      </trkpt>
      <trkpt lat="45.95926" lon="6.49113">
        <ele>1609</ele>
        <time>2011-06-04T09:59:20Z</time>
      </trkpt>
      <trkpt lat="45.95922" lon="6.49109">
        <ele>1609</ele>
        <time>2011-06-04T09:59:22Z</time>
      </trkpt>
      <trkpt lat="45.95918" lon="6.49107">
        <ele>1609</ele>
        <time>2011-06-04T09:59:24Z</time>
      </trkpt>
      <trkpt lat="45.95915" lon="6.49105">
        <ele>1609</ele>
        <time>2011-06-04T09:59:26Z</time>
      </trkpt>
      <trkpt lat="45.95911" lon="6.49104">
        <ele>1609</ele>
        <time>2011-06-04T09:59:28Z</time>
      </trkpt>
      <trkpt lat="45.95905" lon="6.49104">
        <ele>1609</ele>
        <time>2011-06-04T09:59:31Z</time>
      </trkpt>
      <trkpt lat="45.95901" lon="6.49105">
        <ele>1609</ele>
        <time>2011-06-04T09:59:33Z</time>
      </trkpt>
      <trkpt lat="45.95896" lon="6.49105">
        <ele>1609</ele>
        <time>2011-06-04T09:59:35Z</time>
      </trkpt>
      <trkpt lat="45.95891" lon="6.49104">
        <ele>1609</ele>
        <time>2011-06-04T09:59:37Z</time>
      </trkpt>
      <trkpt lat="45.95888" lon="6.491">
        <ele>1609</ele>
        <time>2011-06-04T09:59:39Z</time>
      </trkpt>
      <trkpt lat="45.95886" lon="6.49095">
        <ele>1609</ele>
        <time>2011-06-04T09:59:41Z</time>
      </trkpt>
      <trkpt lat="45.95882" lon="6.49087">
        <ele>1609</ele>
        <time>2011-06-04T09:59:44Z</time>
      </trkpt>
      <trkpt lat="45.95879" lon="6.49081">
        <ele>1609</ele>
        <time>2011-06-04T09:59:46Z</time>
      </trkpt>
      <trkpt lat="45.95877" lon="6.49073">
        <ele>1609</ele>
        <time>2011-06-04T09:59:48Z</time>
      </trkpt>
      <trkpt lat="45.95875" lon="6.49065">
        <ele>1609</ele>
        <time>2011-06-04T09:59:50Z</time>
      </trkpt>
      <trkpt lat="45.95873" lon="6.49057">
        <ele>1609</ele>
        <time>2011-06-04T09:59:52Z</time>
      </trkpt>
      <trkpt lat="45.95871" lon="6.49049">
        <ele>1609</ele>
        <time>2011-06-04T09:59:54Z</time>
      </trkpt>
      <trkpt lat="45.9587" lon="6.49041">
        <ele>1610</ele>
        <time>2011-06-04T09:59:56Z</time>
      </trkpt>
      <trkpt lat="45.95869" lon="6.49033">
        <ele>1611</ele>
        <time>2011-06-04T09:59:58Z</time>
      </trkpt>
      <trkpt lat="45.95867" lon="6.49024">
        <ele>1613</ele>
        <time>2011-06-04T10:00:00Z</time>
      </trkpt>
      <trkpt lat="45.95866" lon="6.49017">
        <ele>1615</ele>
        <time>2011-06-04T10:00:02Z</time>
      </trkpt>
      <trkpt lat="45.95866" lon="6.4901">
        <ele>1616</ele>
        <time>2011-06-04T10:00:04Z</time>
      </trkpt>
      <trkpt lat="45.95864" lon="6.49005">
        <ele>1616</ele>
        <time>2011-06-04T10:00:06Z</time>
      </trkpt>
      <trkpt lat="45.95861" lon="6.49">
        <ele>1616</ele>
        <time>2011-06-04T10:00:08Z</time>
      </trkpt>
      <trkpt lat="45.95857" lon="6.48996">
        <ele>1616</ele>
        <time>2011-06-04T10:00:10Z</time>
      </trkpt>
      <trkpt lat="45.95854" lon="6.48992">
        <ele>1616</ele>
        <time>2011-06-04T10:00:12Z</time>
      </trkpt>
      <trkpt lat="45.95851" lon="6.48988">
        <ele>1616</ele>
        <time>2011-06-04T10:00:14Z</time>
      </trkpt>
      <trkpt lat="45.95849" lon="6.48984">
        <ele>1616</ele>
        <time>2011-06-04T10:00:16Z</time>
      </trkpt>
      <trkpt lat="45.95847" lon="6.48979">
        <ele>1617</ele>
        <time>2011-06-04T10:00:18Z</time>
      </trkpt>
      <trkpt lat="45.95845" lon="6.48974">
        <ele>1617</ele>
        <time>2011-06-04T10:00:20Z</time>
      </trkpt>
      <trkpt lat="45.95843" lon="6.48969">
        <ele>1617</ele>
        <time>2011-06-04T10:00:22Z</time>
      </trkpt>
      <trkpt lat="45.95842" lon="6.48963">
        <ele>1617</ele>
        <time>2011-06-04T10:00:24Z</time>
      </trkpt>
      <trkpt lat="45.95841" lon="6.48955">
        <ele>1617</ele>
        <time>2011-06-04T10:00:27Z</time>
      </trkpt>
      <trkpt lat="45.95841" lon="6.48949">
        <ele>1617</ele>
        <time>2011-06-04T10:00:29Z</time>
      </trkpt>
      <trkpt lat="45.9584" lon="6.48943">
        <ele>1617</ele>
        <time>2011-06-04T10:00:31Z</time>
      </trkpt>
      <trkpt lat="45.95839" lon="6.48937">
        <ele>1617</ele>
        <time>2011-06-04T10:00:33Z</time>
      </trkpt>
      <trkpt lat="45.95837" lon="6.48931">
        <ele>1617</ele>
        <time>2011-06-04T10:00:35Z</time>
      </trkpt>
      <trkpt lat="45.95835" lon="6.48924">
        <ele>1617</ele>
        <time>2011-06-04T10:00:37Z</time>
      </trkpt>
      <trkpt lat="45.95833" lon="6.48919">
        <ele>1618</ele>
        <time>2011-06-04T10:00:39Z</time>
      </trkpt>
      <trkpt lat="45.9583" lon="6.48914">
        <ele>1618</ele>
        <time>2011-06-04T10:00:41Z</time>
      </trkpt>
      <trkpt lat="45.95828" lon="6.48908">
        <ele>1618</ele>
        <time>2011-06-04T10:00:43Z</time>
      </trkpt>
      <trkpt lat="45.95826" lon="6.48902">
        <ele>1618</ele>
        <time>2011-06-04T10:00:45Z</time>
      </trkpt>
      <trkpt lat="45.95823" lon="6.48895">
        <ele>1618</ele>
        <time>2011-06-04T10:00:47Z</time>
      </trkpt>
      <trkpt lat="45.95821" lon="6.48888">
        <ele>1618</ele>
        <time>2011-06-04T10:00:49Z</time>
      </trkpt>
      <trkpt lat="45.9582" lon="6.4888">
        <ele>1619</ele>
        <time>2011-06-04T10:00:51Z</time>
      </trkpt>
      <trkpt lat="45.95819" lon="6.48871">
        <ele>1620</ele>
        <time>2011-06-04T10:00:53Z</time>
      </trkpt>
      <trkpt lat="45.95813" lon="6.48858">
        <ele>1620</ele>
        <time>2011-06-04T10:00:56Z</time>
      </trkpt>
      <trkpt lat="45.95806" lon="6.4885">
        <ele>1620</ele>
        <time>2011-06-04T10:00:58Z</time>
      </trkpt>
      <trkpt lat="45.958" lon="6.4884">
        <ele>1620</ele>
        <time>2011-06-04T10:01:00Z</time>
      </trkpt>
      <trkpt lat="45.95795" lon="6.48828">
        <ele>1620</ele>
        <time>2011-06-04T10:01:02Z</time>
      </trkpt>
      <trkpt lat="45.95791" lon="6.48813">
        <ele>1620</ele>
        <time>2011-06-04T10:01:04Z</time>
      </trkpt>
      <trkpt lat="45.95787" lon="6.488">
        <ele>1620</ele>
        <time>2011-06-04T10:01:06Z</time>
      </trkpt>
      <trkpt lat="45.95782" lon="6.48788">
        <ele>1620</ele>
        <time>2011-06-04T10:01:08Z</time>
      </trkpt>
      <trkpt lat="45.95776" lon="6.4878">
        <ele>1620</ele>
        <time>2011-06-04T10:01:10Z</time>
      </trkpt>
      <trkpt lat="45.95771" lon="6.48777">
        <ele>1619</ele>
        <time>2011-06-04T10:01:12Z</time>
      </trkpt>
      <trkpt lat="45.95766" lon="6.48777">
        <ele>1618</ele>
        <time>2011-06-04T10:01:14Z</time>
      </trkpt>
      <trkpt lat="45.9576" lon="6.48779">
        <ele>1618</ele>
        <time>2011-06-04T10:01:16Z</time>
      </trkpt>
      <trkpt lat="45.95756" lon="6.48781">
        <ele>1618</ele>
        <time>2011-06-04T10:01:18Z</time>
      </trkpt>
      <trkpt lat="45.95752" lon="6.48783">
        <ele>1618</ele>
        <time>2011-06-04T10:01:20Z</time>
      </trkpt>
      <trkpt lat="45.95747" lon="6.48786">
        <ele>1618</ele>
        <time>2011-06-04T10:01:22Z</time>
      </trkpt>
      <trkpt lat="45.95744" lon="6.48789">
        <ele>1618</ele>
        <time>2011-06-04T10:01:24Z</time>
      </trkpt>
      <trkpt lat="45.95742" lon="6.48794">
        <ele>1618</ele>
        <time>2011-06-04T10:01:26Z</time>
      </trkpt>
      <trkpt lat="45.95738" lon="6.48796">
        <ele>1621</ele>
        <time>2011-06-04T10:01:29Z</time>
      </trkpt>
      <trkpt lat="45.95734" lon="6.48796">
        <ele>1623</ele>
        <time>2011-06-04T10:01:31Z</time>
      </trkpt>
      <trkpt lat="45.95729" lon="6.48797">
        <ele>1623</ele>
        <time>2011-06-04T10:01:33Z</time>
      </trkpt>
      <trkpt lat="45.95725" lon="6.48796">
        <ele>1623</ele>
        <time>2011-06-04T10:01:35Z</time>
      </trkpt>
      <trkpt lat="45.95722" lon="6.48794">
        <ele>1623</ele>
        <time>2011-06-04T10:01:37Z</time>
      </trkpt>
      <trkpt lat="45.95716" lon="6.4879">
        <ele>1624</ele>
        <time>2011-06-04T10:01:40Z</time>
      </trkpt>
      <trkpt lat="45.95713" lon="6.48786">
        <ele>1624</ele>
        <time>2011-06-04T10:01:42Z</time>
      </trkpt>
      <trkpt lat="45.9571" lon="6.48784">
        <ele>1624</ele>
        <time>2011-06-04T10:01:44Z</time>
      </trkpt>
      <trkpt lat="45.95706" lon="6.48783">
        <ele>1624</ele>
        <time>2011-06-04T10:01:46Z</time>
      </trkpt>
      <trkpt lat="45.95702" lon="6.48782">
        <ele>1624</ele>
        <time>2011-06-04T10:01:48Z</time>
      </trkpt>
      <trkpt lat="45.95698" lon="6.48782">
        <ele>1624</ele>
        <time>2011-06-04T10:01:50Z</time>
      </trkpt>
      <trkpt lat="45.95694" lon="6.48783">
        <ele>1624</ele>
        <time>2011-06-04T10:01:52Z</time>
      </trkpt>
      <trkpt lat="45.95689" lon="6.48782">
        <ele>1624</ele>
        <time>2011-06-04T10:01:54Z</time>
      </trkpt>
      <trkpt lat="45.95685" lon="6.48781">
        <ele>1624</ele>
        <time>2011-06-04T10:01:56Z</time>
      </trkpt>
      <trkpt lat="45.95681" lon="6.48779">
        <ele>1624</ele>
        <time>2011-06-04T10:01:58Z</time>
      </trkpt>
      <trkpt lat="45.95677" lon="6.48777">
        <ele>1624</ele>
        <time>2011-06-04T10:02:00Z</time>
      </trkpt>
      <trkpt lat="45.95674" lon="6.48773">
        <ele>1624</ele>
        <time>2011-06-04T10:02:02Z</time>
      </trkpt>
      <trkpt lat="45.95671" lon="6.48769">
        <ele>1624</ele>
        <time>2011-06-04T10:02:04Z</time>
      </trkpt>
      <trkpt lat="45.95667" lon="6.48765">
        <ele>1624</ele>
        <time>2011-06-04T10:02:06Z</time>
      </trkpt>
      <trkpt lat="45.95663" lon="6.48761">
        <ele>1624</ele>
        <time>2011-06-04T10:02:08Z</time>
      </trkpt>
      <trkpt lat="45.95659" lon="6.48757">
        <ele>1624</ele>
        <time>2011-06-04T10:02:10Z</time>
      </trkpt>
      <trkpt lat="45.95655" lon="6.48753">
        <ele>1624</ele>
        <time>2011-06-04T10:02:12Z</time>
      </trkpt>
      <trkpt lat="45.9565" lon="6.48751">
        <ele>1624</ele>
        <time>2011-06-04T10:02:14Z</time>
      </trkpt>
      <trkpt lat="45.95645" lon="6.48748">
        <ele>1624</ele>
        <time>2011-06-04T10:02:16Z</time>
      </trkpt>
      <trkpt lat="45.9564" lon="6.48746">
        <ele>1624</ele>
        <time>2011-06-04T10:02:18Z</time>
      </trkpt>
      <trkpt lat="45.95634" lon="6.48744">
        <ele>1624</ele>
        <time>2011-06-04T10:02:20Z</time>
      </trkpt>
      <trkpt lat="45.95628" lon="6.48741">
        <ele>1624</ele>
        <time>2011-06-04T10:02:22Z</time>
      </trkpt>
      <trkpt lat="45.95621" lon="6.4874">
        <ele>1624</ele>
        <time>2011-06-04T10:02:24Z</time>
      </trkpt>
      <trkpt lat="45.95614" lon="6.48739">
        <ele>1624</ele>
        <time>2011-06-04T10:02:26Z</time>
      </trkpt>
      <trkpt lat="45.95607" lon="6.48739">
        <ele>1624</ele>
        <time>2011-06-04T10:02:28Z</time>
      </trkpt>
      <trkpt lat="45.95599" lon="6.48738">
        <ele>1624</ele>
        <time>2011-06-04T10:02:30Z</time>
      </trkpt>
      <trkpt lat="45.95591" lon="6.48735">
        <ele>1625</ele>
        <time>2011-06-04T10:02:32Z</time>
      </trkpt>
      <trkpt lat="45.95582" lon="6.4873">
        <ele>1625</ele>
        <time>2011-06-04T10:02:34Z</time>
      </trkpt>
      <trkpt lat="45.95574" lon="6.48725">
        <ele>1625</ele>
        <time>2011-06-04T10:02:36Z</time>
      </trkpt>
      <trkpt lat="45.95566" lon="6.48721">
        <ele>1625</ele>
        <time>2011-06-04T10:02:38Z</time>
      </trkpt>
      <trkpt lat="45.95557" lon="6.48718">
        <ele>1625</ele>
        <time>2011-06-04T10:02:40Z</time>
      </trkpt>
      <trkpt lat="45.95549" lon="6.48718">
        <ele>1625</ele>
        <time>2011-06-04T10:02:42Z</time>
      </trkpt>
      <trkpt lat="45.95541" lon="6.48721">
        <ele>1625</ele>
        <time>2011-06-04T10:02:44Z</time>
      </trkpt>
      <trkpt lat="45.95533" lon="6.48724">
        <ele>1625</ele>
        <time>2011-06-04T10:02:46Z</time>
      </trkpt>
      <trkpt lat="45.95524" lon="6.48725">
        <ele>1625</ele>
        <time>2011-06-04T10:02:48Z</time>
      </trkpt>
      <trkpt lat="45.95516" lon="6.48722">
        <ele>1625</ele>
        <time>2011-06-04T10:02:50Z</time>
      </trkpt>
      <trkpt lat="45.95507" lon="6.48718">
        <ele>1625</ele>
        <time>2011-06-04T10:02:52Z</time>
      </trkpt>
      <trkpt lat="45.95499" lon="6.48711">
        <ele>1625</ele>
        <time>2011-06-04T10:02:54Z</time>
      </trkpt>
      <trkpt lat="45.95493" lon="6.48703">
        <ele>1625</ele>
        <time>2011-06-04T10:02:56Z</time>
      </trkpt>
      <trkpt lat="45.95491" lon="6.48692">
        <ele>1625</ele>
        <time>2011-06-04T10:02:58Z</time>
      </trkpt>
      <trkpt lat="45.95489" lon="6.48681">
        <ele>1625</ele>
        <time>2011-06-04T10:03:00Z</time>
      </trkpt>
      <trkpt lat="45.95485" lon="6.48668">
        <ele>1625</ele>
        <time>2011-06-04T10:03:02Z</time>
      </trkpt>
      <trkpt lat="45.95478" lon="6.48658">
        <ele>1625</ele>
        <time>2011-06-04T10:03:04Z</time>
      </trkpt>
      <trkpt lat="45.95471" lon="6.48648">
        <ele>1625</ele>
        <time>2011-06-04T10:03:06Z</time>
      </trkpt>
      <trkpt lat="45.95465" lon="6.48637">
        <ele>1625</ele>
        <time>2011-06-04T10:03:08Z</time>
      </trkpt>
      <trkpt lat="45.9546" lon="6.48626">
        <ele>1625</ele>
        <time>2011-06-04T10:03:10Z</time>
      </trkpt>
      <trkpt lat="45.95454" lon="6.48614">
        <ele>1625</ele>
        <time>2011-06-04T10:03:12Z</time>
      </trkpt>
      <trkpt lat="45.95447" lon="6.48602">
        <ele>1625</ele>
        <time>2011-06-04T10:03:14Z</time>
      </trkpt>
      <trkpt lat="45.9544" lon="6.48591">
        <ele>1625</ele>
        <time>2011-06-04T10:03:16Z</time>
      </trkpt>
      <trkpt lat="45.95434" lon="6.48579">
        <ele>1625</ele>
        <time>2011-06-04T10:03:18Z</time>
      </trkpt>
      <trkpt lat="45.95428" lon="6.48564">
        <ele>1625</ele>
        <time>2011-06-04T10:03:20Z</time>
      </trkpt>
      <trkpt lat="45.95425" lon="6.48549">
        <ele>1625</ele>
        <time>2011-06-04T10:03:22Z</time>
      </trkpt>
      <trkpt lat="45.95422" lon="6.48532">
        <ele>1625</ele>
        <time>2011-06-04T10:03:24Z</time>
      </trkpt>
      <trkpt lat="45.95419" lon="6.48516">
        <ele>1625</ele>
        <time>2011-06-04T10:03:26Z</time>
      </trkpt>
      <trkpt lat="45.95415" lon="6.485">
        <ele>1625</ele>
        <time>2011-06-04T10:03:28Z</time>
      </trkpt>
      <trkpt lat="45.95412" lon="6.48483">
        <ele>1625</ele>
        <time>2011-06-04T10:03:30Z</time>
      </trkpt>
      <trkpt lat="45.95409" lon="6.48465">
        <ele>1625</ele>
        <time>2011-06-04T10:03:32Z</time>
      </trkpt>
      <trkpt lat="45.95405" lon="6.48448">
        <ele>1625</ele>
        <time>2011-06-04T10:03:34Z</time>
      </trkpt>
      <trkpt lat="45.95399" lon="6.48422">
        <ele>1625</ele>
        <time>2011-06-04T10:03:37Z</time>
      </trkpt>
      <trkpt lat="45.95393" lon="6.48406">
        <ele>1625</ele>
        <time>2011-06-04T10:03:39Z</time>
      </trkpt>
      <trkpt lat="45.95385" lon="6.4839">
        <ele>1625</ele>
        <time>2011-06-04T10:03:41Z</time>
      </trkpt>
      <trkpt lat="45.95379" lon="6.48374">
        <ele>1625</ele>
        <time>2011-06-04T10:03:43Z</time>
      </trkpt>
      <trkpt lat="45.95374" lon="6.48357">
        <ele>1625</ele>
        <time>2011-06-04T10:03:45Z</time>
      </trkpt>
      <trkpt lat="45.95368" lon="6.48333">
        <ele>1625</ele>
        <time>2011-06-04T10:03:48Z</time>
      </trkpt>
      <trkpt lat="45.95364" lon="6.48316">
        <ele>1624</ele>
        <time>2011-06-04T10:03:50Z</time>
      </trkpt>
      <trkpt lat="45.95359" lon="6.483">
        <ele>1622</ele>
        <time>2011-06-04T10:03:52Z</time>
      </trkpt>
      <trkpt lat="45.95353" lon="6.48288">
        <ele>1621</ele>
        <time>2011-06-04T10:03:54Z</time>
      </trkpt>
      <trkpt lat="45.95344" lon="6.48275">
        <ele>1619</ele>
        <time>2011-06-04T10:03:56Z</time>
      </trkpt>
      <trkpt lat="45.95335" lon="6.48262">
        <ele>1618</ele>
        <time>2011-06-04T10:03:58Z</time>
      </trkpt>
      <trkpt lat="45.95325" lon="6.4825">
        <ele>1617</ele>
        <time>2011-06-04T10:04:00Z</time>
      </trkpt>
      <trkpt lat="45.95316" lon="6.4824">
        <ele>1616</ele>
        <time>2011-06-04T10:04:02Z</time>
      </trkpt>
      <trkpt lat="45.95304" lon="6.48232">
        <ele>1614</ele>
        <time>2011-06-04T10:04:04Z</time>
      </trkpt>
      <trkpt lat="45.95291" lon="6.48226">
        <ele>1612</ele>
        <time>2011-06-04T10:04:06Z</time>
      </trkpt>
      <trkpt lat="45.95277" lon="6.48219">
        <ele>1610</ele>
        <time>2011-06-04T10:04:08Z</time>
      </trkpt>
      <trkpt lat="45.95263" lon="6.4821">
        <ele>1608</ele>
        <time>2011-06-04T10:04:10Z</time>
      </trkpt>
      <trkpt lat="45.9525" lon="6.48201">
        <ele>1606</ele>
        <time>2011-06-04T10:04:12Z</time>
      </trkpt>
      <trkpt lat="45.95239" lon="6.48192">
        <ele>1604</ele>
        <time>2011-06-04T10:04:14Z</time>
      </trkpt>
      <trkpt lat="45.95231" lon="6.48183">
        <ele>1602</ele>
        <time>2011-06-04T10:04:16Z</time>
      </trkpt>
      <trkpt lat="45.95221" lon="6.48179">
        <ele>1600</ele>
        <time>2011-06-04T10:04:18Z</time>
      </trkpt>
      <trkpt lat="45.95211" lon="6.4818">
        <ele>1599</ele>
        <time>2011-06-04T10:04:20Z</time>
      </trkpt>
      <trkpt lat="45.952" lon="6.48189">
        <ele>1599</ele>
        <time>2011-06-04T10:04:22Z</time>
      </trkpt>
      <trkpt lat="45.95188" lon="6.48199">
        <ele>1599</ele>
        <time>2011-06-04T10:04:24Z</time>
      </trkpt>
      <trkpt lat="45.95175" lon="6.48207">
        <ele>1599</ele>
        <time>2011-06-04T10:04:26Z</time>
      </trkpt>
      <trkpt lat="45.95163" lon="6.48211">
        <ele>1599</ele>
        <time>2011-06-04T10:04:28Z</time>
      </trkpt>
      <trkpt lat="45.95153" lon="6.48216">
        <ele>1599</ele>
        <time>2011-06-04T10:04:30Z</time>
      </trkpt>
      <trkpt lat="45.95145" lon="6.48225">
        <ele>1599</ele>
        <time>2011-06-04T10:04:32Z</time>
      </trkpt>
      <trkpt lat="45.95139" lon="6.48241">
        <ele>1599</ele>
        <time>2011-06-04T10:04:34Z</time>
      </trkpt>
      <trkpt lat="45.9513" lon="6.48254">
        <ele>1601</ele>
        <time>2011-06-04T10:04:36Z</time>
      </trkpt>
      <trkpt lat="45.9512" lon="6.48267">
        <ele>1603</ele>
        <time>2011-06-04T10:04:38Z</time>
      </trkpt>
      <trkpt lat="45.95111" lon="6.48278">
        <ele>1605</ele>
        <time>2011-06-04T10:04:40Z</time>
      </trkpt>
      <trkpt lat="45.95102" lon="6.48288">
        <ele>1607</ele>
        <time>2011-06-04T10:04:42Z</time>
      </trkpt>
      <trkpt lat="45.95093" lon="6.48291">
        <ele>1608</ele>
        <time>2011-06-04T10:04:44Z</time>
      </trkpt>
      <trkpt lat="45.95084" lon="6.48289">
        <ele>1608</ele>
        <time>2011-06-04T10:04:46Z</time>
      </trkpt>
      <trkpt lat="45.95071" lon="6.48285">
        <ele>1608</ele>
        <time>2011-06-04T10:04:49Z</time>
      </trkpt>
      <trkpt lat="45.95055" lon="6.48278">
        <ele>1608</ele>
        <time>2011-06-04T10:04:52Z</time>
      </trkpt>
      <trkpt lat="45.95038" lon="6.48267">
        <ele>1608</ele>
        <time>2011-06-04T10:04:55Z</time>
      </trkpt>
      <trkpt lat="45.95026" lon="6.48262">
        <ele>1606</ele>
        <time>2011-06-04T10:04:57Z</time>
      </trkpt>
      <trkpt lat="45.95013" lon="6.48259">
        <ele>1604</ele>
        <time>2011-06-04T10:04:59Z</time>
      </trkpt>
      <trkpt lat="45.95" lon="6.48264">
        <ele>1603</ele>
        <time>2011-06-04T10:05:01Z</time>
      </trkpt>
      <trkpt lat="45.94991" lon="6.48275">
        <ele>1601</ele>
        <time>2011-06-04T10:05:03Z</time>
      </trkpt>
      <trkpt lat="45.94987" lon="6.48291">
        <ele>1600</ele>
        <time>2011-06-04T10:05:05Z</time>
      </trkpt>
      <trkpt lat="45.94988" lon="6.48308">
        <ele>1600</ele>
        <time>2011-06-04T10:05:07Z</time>
      </trkpt>
      <trkpt lat="45.94996" lon="6.48321">
        <ele>1599</ele>
        <time>2011-06-04T10:05:09Z</time>
      </trkpt>
      <trkpt lat="45.95006" lon="6.48334">
        <ele>1597</ele>
        <time>2011-06-04T10:05:11Z</time>
      </trkpt>
      <trkpt lat="45.95018" lon="6.48344">
        <ele>1595</ele>
        <time>2011-06-04T10:05:13Z</time>
      </trkpt>
      <trkpt lat="45.95029" lon="6.48352">
        <ele>1593</ele>
        <time>2011-06-04T10:05:15Z</time>
      </trkpt>
      <trkpt lat="45.9504" lon="6.4836">
        <ele>1592</ele>
        <time>2011-06-04T10:05:17Z</time>
      </trkpt>
      <trkpt lat="45.95049" lon="6.48369">
        <ele>1591</ele>
        <time>2011-06-04T10:05:19Z</time>
      </trkpt>
      <trkpt lat="45.95057" lon="6.48379">
        <ele>1590</ele>
        <time>2011-06-04T10:05:21Z</time>
      </trkpt>
      <trkpt lat="45.95065" lon="6.48387">
        <ele>1589</ele>
        <time>2011-06-04T10:05:23Z</time>
      </trkpt>
      <trkpt lat="45.9507" lon="6.48396">
        <ele>1588</ele>
        <time>2011-06-04T10:05:25Z</time>
      </trkpt>
      <trkpt lat="45.95071" lon="6.48402">
        <ele>1587</ele>
        <time>2011-06-04T10:05:27Z</time>
      </trkpt>
      <trkpt lat="45.95072" lon="6.48403">
        <ele>1587</ele>
        <time>2011-06-04T10:05:29Z</time>
      </trkpt>
      <trkpt lat="45.95073" lon="6.48404">
        <ele>1587</ele>
        <time>2011-06-04T10:05:31Z</time>
      </trkpt>
      <trkpt lat="45.95075" lon="6.48405">
        <ele>1585</ele>
        <time>2011-06-04T10:05:34Z</time>
      </trkpt>
      <trkpt lat="45.95076" lon="6.48407">
        <ele>1584</ele>
        <time>2011-06-04T10:05:48Z</time>
      </trkpt>
      <trkpt lat="45.95075" lon="6.48406">
        <ele>1584</ele>
        <time>2011-06-04T10:05:55Z</time>
      </trkpt>
      <trkpt lat="45.95074" lon="6.48404">
        <ele>1584</ele>
        <time>2011-06-04T10:05:59Z</time>
      </trkpt>
      <trkpt lat="45.95074" lon="6.48406">
        <ele>1584</ele>
        <time>2011-06-04T10:06:05Z</time>
      </trkpt>
      <trkpt lat="45.95073" lon="6.48405">
        <ele>1584</ele>
        <time>2011-06-04T10:06:10Z</time>
      </trkpt>
      <trkpt lat="45.95071" lon="6.48405">
        <ele>1584</ele>
        <time>2011-06-04T10:06:14Z</time>
      </trkpt>
      <trkpt lat="45.9507" lon="6.48403">
        <ele>1585</ele>
        <time>2011-06-04T10:06:19Z</time>
      </trkpt>
      <trkpt lat="45.95068" lon="6.48401">
        <ele>1586</ele>
        <time>2011-06-04T10:06:21Z</time>
      </trkpt>
      <trkpt lat="45.95066" lon="6.484">
        <ele>1588</ele>
        <time>2011-06-04T10:06:23Z</time>
      </trkpt>
      <trkpt lat="45.95065" lon="6.48398">
        <ele>1590</ele>
        <time>2011-06-04T10:06:25Z</time>
      </trkpt>
      <trkpt lat="45.95064" lon="6.48397">
        <ele>1591</ele>
        <time>2011-06-04T10:06:33Z</time>
      </trkpt>
      <trkpt lat="45.95063" lon="6.48395">
        <ele>1591</ele>
        <time>2011-06-04T10:06:35Z</time>
      </trkpt>
      <trkpt lat="45.95063" lon="6.48394">
        <ele>1591</ele>
        <time>2011-06-04T10:06:37Z</time>
      </trkpt>
      <trkpt lat="45.95062" lon="6.48392">
        <ele>1589</ele>
        <time>2011-06-04T10:06:40Z</time>
      </trkpt>
      <trkpt lat="45.95063" lon="6.48392">
        <ele>1582</ele>
        <time>2011-06-04T10:06:51Z</time>
      </trkpt>
      <trkpt lat="45.95064" lon="6.48392">
        <ele>1579</ele>
        <time>2011-06-04T10:06:56Z</time>
      </trkpt>
      <trkpt lat="45.95065" lon="6.48394">
        <ele>1578</ele>
        <time>2011-06-04T10:06:58Z</time>
      </trkpt>
      <trkpt lat="45.95067" lon="6.48396">
        <ele>1574</ele>
        <time>2011-06-04T10:07:02Z</time>
      </trkpt>
      <trkpt lat="45.95068" lon="6.48399">
        <ele>1574</ele>
        <time>2011-06-04T10:07:04Z</time>
      </trkpt>
      <trkpt lat="45.95067" lon="6.48406">
        <ele>1574</ele>
        <time>2011-06-04T10:07:06Z</time>
      </trkpt>
      <trkpt lat="45.95056" lon="6.48417">
        <ele>1574</ele>
        <time>2011-06-04T10:07:09Z</time>
      </trkpt>
      <trkpt lat="45.95049" lon="6.48422">
        <ele>1574</ele>
        <time>2011-06-04T10:07:11Z</time>
      </trkpt>
      <trkpt lat="45.95045" lon="6.48432">
        <ele>1574</ele>
        <time>2011-06-04T10:07:13Z</time>
      </trkpt>
      <trkpt lat="45.95049" lon="6.48445">
        <ele>1573</ele>
        <time>2011-06-04T10:07:15Z</time>
      </trkpt>
      <trkpt lat="45.95058" lon="6.48456">
        <ele>1571</ele>
        <time>2011-06-04T10:07:17Z</time>
      </trkpt>
      <trkpt lat="45.95061" lon="6.48469">
        <ele>1569</ele>
        <time>2011-06-04T10:07:19Z</time>
      </trkpt>
      <trkpt lat="45.95054" lon="6.48477">
        <ele>1567</ele>
        <time>2011-06-04T10:07:21Z</time>
      </trkpt>
      <trkpt lat="45.95042" lon="6.48474">
        <ele>1566</ele>
        <time>2011-06-04T10:07:23Z</time>
      </trkpt>
      <trkpt lat="45.95027" lon="6.48471">
        <ele>1565</ele>
        <time>2011-06-04T10:07:25Z</time>
      </trkpt>
      <trkpt lat="45.95013" lon="6.4847">
        <ele>1565</ele>
        <time>2011-06-04T10:07:27Z</time>
      </trkpt>
      <trkpt lat="45.94998" lon="6.48472">
        <ele>1563</ele>
        <time>2011-06-04T10:07:29Z</time>
      </trkpt>
      <trkpt lat="45.94981" lon="6.48475">
        <ele>1562</ele>
        <time>2011-06-04T10:07:31Z</time>
      </trkpt>
      <trkpt lat="45.94968" lon="6.48474">
        <ele>1560</ele>
        <time>2011-06-04T10:07:33Z</time>
      </trkpt>
      <trkpt lat="45.94958" lon="6.48464">
        <ele>1559</ele>
        <time>2011-06-04T10:07:35Z</time>
      </trkpt>
      <trkpt lat="45.94951" lon="6.48443">
        <ele>1557</ele>
        <time>2011-06-04T10:07:37Z</time>
      </trkpt>
      <trkpt lat="45.94943" lon="6.48419">
        <ele>1556</ele>
        <time>2011-06-04T10:07:39Z</time>
      </trkpt>
      <trkpt lat="45.9493" lon="6.48402">
        <ele>1554</ele>
        <time>2011-06-04T10:07:41Z</time>
      </trkpt>
      <trkpt lat="45.94906" lon="6.4838">
        <ele>1551</ele>
        <time>2011-06-04T10:07:44Z</time>
      </trkpt>
      <trkpt lat="45.94887" lon="6.48361">
        <ele>1549</ele>
        <time>2011-06-04T10:07:46Z</time>
      </trkpt>
      <trkpt lat="45.94871" lon="6.48342">
        <ele>1547</ele>
        <time>2011-06-04T10:07:48Z</time>
      </trkpt>
      <trkpt lat="45.94857" lon="6.48326">
        <ele>1545</ele>
        <time>2011-06-04T10:07:50Z</time>
      </trkpt>
      <trkpt lat="45.94841" lon="6.4832">
        <ele>1543</ele>
        <time>2011-06-04T10:07:52Z</time>
      </trkpt>
      <trkpt lat="45.94823" lon="6.48317">
        <ele>1541</ele>
        <time>2011-06-04T10:07:54Z</time>
      </trkpt>
      <trkpt lat="45.94804" lon="6.48309">
        <ele>1539</ele>
        <time>2011-06-04T10:07:56Z</time>
      </trkpt>
      <trkpt lat="45.94785" lon="6.48298">
        <ele>1537</ele>
        <time>2011-06-04T10:07:58Z</time>
      </trkpt>
      <trkpt lat="45.94767" lon="6.48283">
        <ele>1535</ele>
        <time>2011-06-04T10:08:00Z</time>
      </trkpt>
      <trkpt lat="45.94743" lon="6.48259">
        <ele>1532</ele>
        <time>2011-06-04T10:08:03Z</time>
      </trkpt>
      <trkpt lat="45.94734" lon="6.48241">
        <ele>1529</ele>
        <time>2011-06-04T10:08:05Z</time>
      </trkpt>
      <trkpt lat="45.9473" lon="6.48216">
        <ele>1527</ele>
        <time>2011-06-04T10:08:07Z</time>
      </trkpt>
      <trkpt lat="45.9473" lon="6.48185">
        <ele>1525</ele>
        <time>2011-06-04T10:08:09Z</time>
      </trkpt>
      <trkpt lat="45.94733" lon="6.48151">
        <ele>1523</ele>
        <time>2011-06-04T10:08:11Z</time>
      </trkpt>
      <trkpt lat="45.94732" lon="6.48123">
        <ele>1521</ele>
        <time>2011-06-04T10:08:13Z</time>
      </trkpt>
      <trkpt lat="45.94726" lon="6.48101">
        <ele>1519</ele>
        <time>2011-06-04T10:08:15Z</time>
      </trkpt>
      <trkpt lat="45.94717" lon="6.48082">
        <ele>1517</ele>
        <time>2011-06-04T10:08:17Z</time>
      </trkpt>
      <trkpt lat="45.9471" lon="6.48066">
        <ele>1515</ele>
        <time>2011-06-04T10:08:19Z</time>
      </trkpt>
      <trkpt lat="45.94702" lon="6.48053">
        <ele>1513</ele>
        <time>2011-06-04T10:08:21Z</time>
      </trkpt>
      <trkpt lat="45.94694" lon="6.4804">
        <ele>1511</ele>
        <time>2011-06-04T10:08:23Z</time>
      </trkpt>
      <trkpt lat="45.94684" lon="6.48028">
        <ele>1509</ele>
        <time>2011-06-04T10:08:25Z</time>
      </trkpt>
      <trkpt lat="45.94675" lon="6.48014">
        <ele>1508</ele>
        <time>2011-06-04T10:08:27Z</time>
      </trkpt>
      <trkpt lat="45.94668" lon="6.47999">
        <ele>1508</ele>
        <time>2011-06-04T10:08:29Z</time>
      </trkpt>
      <trkpt lat="45.94661" lon="6.47971">
        <ele>1508</ele>
        <time>2011-06-04T10:08:32Z</time>
      </trkpt>
      <trkpt lat="45.94661" lon="6.4795">
        <ele>1508</ele>
        <time>2011-06-04T10:08:34Z</time>
      </trkpt>
      <trkpt lat="45.94661" lon="6.47931">
        <ele>1508</ele>
        <time>2011-06-04T10:08:36Z</time>
      </trkpt>
      <trkpt lat="45.9466" lon="6.47911">
        <ele>1508</ele>
        <time>2011-06-04T10:08:38Z</time>
      </trkpt>
      <trkpt lat="45.94658" lon="6.47892">
        <ele>1508</ele>
        <time>2011-06-04T10:08:40Z</time>
      </trkpt>
      <trkpt lat="45.94652" lon="6.47865">
        <ele>1508</ele>
        <time>2011-06-04T10:08:43Z</time>
      </trkpt>
      <trkpt lat="45.94646" lon="6.47851">
        <ele>1508</ele>
        <time>2011-06-04T10:08:45Z</time>
      </trkpt>
      <trkpt lat="45.94641" lon="6.47837">
        <ele>1508</ele>
        <time>2011-06-04T10:08:47Z</time>
      </trkpt>
      <trkpt lat="45.94639" lon="6.47823">
        <ele>1508</ele>
        <time>2011-06-04T10:08:49Z</time>
      </trkpt>
      <trkpt lat="45.9464" lon="6.4781">
        <ele>1508</ele>
        <time>2011-06-04T10:08:51Z</time>
      </trkpt>
      <trkpt lat="45.94641" lon="6.47786">
        <ele>1508</ele>
        <time>2011-06-04T10:08:54Z</time>
      </trkpt>
      <trkpt lat="45.94639" lon="6.47762">
        <ele>1508</ele>
        <time>2011-06-04T10:08:57Z</time>
      </trkpt>
      <trkpt lat="45.94633" lon="6.47747">
        <ele>1508</ele>
        <time>2011-06-04T10:08:59Z</time>
      </trkpt>
      <trkpt lat="45.94624" lon="6.47733">
        <ele>1508</ele>
        <time>2011-06-04T10:09:01Z</time>
      </trkpt>
      <trkpt lat="45.94617" lon="6.4772">
        <ele>1508</ele>
        <time>2011-06-04T10:09:03Z</time>
      </trkpt>
      <trkpt lat="45.94611" lon="6.47707">
        <ele>1508</ele>
        <time>2011-06-04T10:09:05Z</time>
      </trkpt>
      <trkpt lat="45.94605" lon="6.47694">
        <ele>1507</ele>
        <time>2011-06-04T10:09:07Z</time>
      </trkpt>
      <trkpt lat="45.94598" lon="6.47673">
        <ele>1507</ele>
        <time>2011-06-04T10:09:10Z</time>
      </trkpt>
      <trkpt lat="45.94598" lon="6.47656">
        <ele>1507</ele>
        <time>2011-06-04T10:09:12Z</time>
      </trkpt>
      <trkpt lat="45.94607" lon="6.47632">
        <ele>1507</ele>
        <time>2011-06-04T10:09:15Z</time>
      </trkpt>
      <trkpt lat="45.94615" lon="6.47616">
        <ele>1507</ele>
        <time>2011-06-04T10:09:17Z</time>
      </trkpt>
      <trkpt lat="45.94619" lon="6.47597">
        <ele>1507</ele>
        <time>2011-06-04T10:09:19Z</time>
      </trkpt>
      <trkpt lat="45.94627" lon="6.47567">
        <ele>1510</ele>
        <time>2011-06-04T10:09:22Z</time>
      </trkpt>
      <trkpt lat="45.94632" lon="6.4755">
        <ele>1510</ele>
        <time>2011-06-04T10:09:24Z</time>
      </trkpt>
      <trkpt lat="45.94627" lon="6.47537">
        <ele>1510</ele>
        <time>2011-06-04T10:09:26Z</time>
      </trkpt>
      <trkpt lat="45.94625" lon="6.47513">
        <ele>1510</ele>
        <time>2011-06-04T10:09:28Z</time>
      </trkpt>
      <trkpt lat="45.9463" lon="6.47489">
        <ele>1510</ele>
        <time>2011-06-04T10:09:30Z</time>
      </trkpt>
      <trkpt lat="45.94631" lon="6.4747">
        <ele>1510</ele>
        <time>2011-06-04T10:09:32Z</time>
      </trkpt>
      <trkpt lat="45.94627" lon="6.47427">
        <ele>1510</ele>
        <time>2011-06-04T10:09:35Z</time>
      </trkpt>
      <trkpt lat="45.94629" lon="6.47393">
        <ele>1510</ele>
        <time>2011-06-04T10:09:37Z</time>
      </trkpt>
      <trkpt lat="45.94633" lon="6.47362">
        <ele>1510</ele>
        <time>2011-06-04T10:09:39Z</time>
      </trkpt>
      <trkpt lat="45.94634" lon="6.47337">
        <ele>1510</ele>
        <time>2011-06-04T10:09:41Z</time>
      </trkpt>
      <trkpt lat="45.9463" lon="6.47313">
        <ele>1508</ele>
        <time>2011-06-04T10:09:43Z</time>
      </trkpt>
      <trkpt lat="45.94622" lon="6.47293">
        <ele>1506</ele>
        <time>2011-06-04T10:09:45Z</time>
      </trkpt>
      <trkpt lat="45.94617" lon="6.47272">
        <ele>1502</ele>
        <time>2011-06-04T10:09:47Z</time>
      </trkpt>
      <trkpt lat="45.94617" lon="6.47246">
        <ele>1500</ele>
        <time>2011-06-04T10:09:49Z</time>
      </trkpt>
      <trkpt lat="45.9462" lon="6.47215">
        <ele>1498</ele>
        <time>2011-06-04T10:09:51Z</time>
      </trkpt>
      <trkpt lat="45.94625" lon="6.47183">
        <ele>1496</ele>
        <time>2011-06-04T10:09:53Z</time>
      </trkpt>
      <trkpt lat="45.94636" lon="6.4715">
        <ele>1494</ele>
        <time>2011-06-04T10:09:55Z</time>
      </trkpt>
      <trkpt lat="45.94648" lon="6.47121">
        <ele>1492</ele>
        <time>2011-06-04T10:09:57Z</time>
      </trkpt>
      <trkpt lat="45.94658" lon="6.47094">
        <ele>1490</ele>
        <time>2011-06-04T10:09:59Z</time>
      </trkpt>
      <trkpt lat="45.94666" lon="6.47067">
        <ele>1488</ele>
        <time>2011-06-04T10:10:01Z</time>
      </trkpt>
      <trkpt lat="45.94674" lon="6.47041">
        <ele>1486</ele>
        <time>2011-06-04T10:10:03Z</time>
      </trkpt>
      <trkpt lat="45.94686" lon="6.47019">
        <ele>1484</ele>
        <time>2011-06-04T10:10:05Z</time>
      </trkpt>
      <trkpt lat="45.94705" lon="6.46991">
        <ele>1481</ele>
        <time>2011-06-04T10:10:08Z</time>
      </trkpt>
      <trkpt lat="45.94714" lon="6.4697">
        <ele>1480</ele>
        <time>2011-06-04T10:10:10Z</time>
      </trkpt>
      <trkpt lat="45.94724" lon="6.46944">
        <ele>1478</ele>
        <time>2011-06-04T10:10:13Z</time>
      </trkpt>
      <trkpt lat="45.94728" lon="6.46925">
        <ele>1476</ele>
        <time>2011-06-04T10:10:15Z</time>
      </trkpt>
      <trkpt lat="45.94738" lon="6.46897">
        <ele>1473</ele>
        <time>2011-06-04T10:10:18Z</time>
      </trkpt>
      <trkpt lat="45.94748" lon="6.46877">
        <ele>1471</ele>
        <time>2011-06-04T10:10:20Z</time>
      </trkpt>
      <trkpt lat="45.94756" lon="6.46858">
        <ele>1469</ele>
        <time>2011-06-04T10:10:22Z</time>
      </trkpt>
      <trkpt lat="45.94759" lon="6.46831">
        <ele>1466</ele>
        <time>2011-06-04T10:10:25Z</time>
      </trkpt>
      <trkpt lat="45.94761" lon="6.46807">
        <ele>1464</ele>
        <time>2011-06-04T10:10:27Z</time>
      </trkpt>
      <trkpt lat="45.94761" lon="6.46783">
        <ele>1461</ele>
        <time>2011-06-04T10:10:29Z</time>
      </trkpt>
      <trkpt lat="45.94761" lon="6.46762">
        <ele>1458</ele>
        <time>2011-06-04T10:10:31Z</time>
      </trkpt>
      <trkpt lat="45.9476" lon="6.4674">
        <ele>1456</ele>
        <time>2011-06-04T10:10:33Z</time>
      </trkpt>
      <trkpt lat="45.94759" lon="6.46718">
        <ele>1454</ele>
        <time>2011-06-04T10:10:35Z</time>
      </trkpt>
      <trkpt lat="45.94759" lon="6.46697">
        <ele>1452</ele>
        <time>2011-06-04T10:10:37Z</time>
      </trkpt>
      <trkpt lat="45.94758" lon="6.46677">
        <ele>1450</ele>
        <time>2011-06-04T10:10:39Z</time>
      </trkpt>
      <trkpt lat="45.94756" lon="6.46657">
        <ele>1447</ele>
        <time>2011-06-04T10:10:41Z</time>
      </trkpt>
      <trkpt lat="45.94757" lon="6.46635">
        <ele>1445</ele>
        <time>2011-06-04T10:10:43Z</time>
      </trkpt>
      <trkpt lat="45.94761" lon="6.46613">
        <ele>1443</ele>
        <time>2011-06-04T10:10:45Z</time>
      </trkpt>
      <trkpt lat="45.94768" lon="6.4659">
        <ele>1441</ele>
        <time>2011-06-04T10:10:47Z</time>
      </trkpt>
      <trkpt lat="45.94776" lon="6.4657">
        <ele>1439</ele>
        <time>2011-06-04T10:10:49Z</time>
      </trkpt>
      <trkpt lat="45.94786" lon="6.46552">
        <ele>1437</ele>
        <time>2011-06-04T10:10:51Z</time>
      </trkpt>
      <trkpt lat="45.94793" lon="6.46532">
        <ele>1435</ele>
        <time>2011-06-04T10:10:53Z</time>
      </trkpt>
      <trkpt lat="45.94795" lon="6.4651">
        <ele>1433</ele>
        <time>2011-06-04T10:10:55Z</time>
      </trkpt>
      <trkpt lat="45.94796" lon="6.46486">
        <ele>1431</ele>
        <time>2011-06-04T10:10:57Z</time>
      </trkpt>
      <trkpt lat="45.94788" lon="6.46461">
        <ele>1429</ele>
        <time>2011-06-04T10:10:59Z</time>
      </trkpt>
      <trkpt lat="45.94781" lon="6.46438">
        <ele>1427</ele>
        <time>2011-06-04T10:11:01Z</time>
      </trkpt>
      <trkpt lat="45.94773" lon="6.46412">
        <ele>1425</ele>
        <time>2011-06-04T10:11:03Z</time>
      </trkpt>
      <trkpt lat="45.9477" lon="6.46385">
        <ele>1424</ele>
        <time>2011-06-04T10:11:05Z</time>
      </trkpt>
      <trkpt lat="45.94763" lon="6.46357">
        <ele>1423</ele>
        <time>2011-06-04T10:11:07Z</time>
      </trkpt>
      <trkpt lat="45.94754" lon="6.46334">
        <ele>1421</ele>
        <time>2011-06-04T10:11:09Z</time>
      </trkpt>
      <trkpt lat="45.94741" lon="6.46308">
        <ele>1418</ele>
        <time>2011-06-04T10:11:12Z</time>
      </trkpt>
      <trkpt lat="45.94732" lon="6.46282">
        <ele>1416</ele>
        <time>2011-06-04T10:11:14Z</time>
      </trkpt>
      <trkpt lat="45.94722" lon="6.46253">
        <ele>1413</ele>
        <time>2011-06-04T10:11:16Z</time>
      </trkpt>
      <trkpt lat="45.94713" lon="6.46226">
        <ele>1409</ele>
        <time>2011-06-04T10:11:18Z</time>
      </trkpt>
      <trkpt lat="45.94703" lon="6.46202">
        <ele>1405</ele>
        <time>2011-06-04T10:11:20Z</time>
      </trkpt>
      <trkpt lat="45.94694" lon="6.4618">
        <ele>1401</ele>
        <time>2011-06-04T10:11:22Z</time>
      </trkpt>
      <trkpt lat="45.94691" lon="6.4616">
        <ele>1397</ele>
        <time>2011-06-04T10:11:24Z</time>
      </trkpt>
      <trkpt lat="45.9469" lon="6.46145">
        <ele>1393</ele>
        <time>2011-06-04T10:11:26Z</time>
      </trkpt>
      <trkpt lat="45.9469" lon="6.46136">
        <ele>1390</ele>
        <time>2011-06-04T10:11:28Z</time>
      </trkpt>
      <trkpt lat="45.94688" lon="6.4613">
        <ele>1385</ele>
        <time>2011-06-04T10:11:32Z</time>
      </trkpt>
      <trkpt lat="45.94686" lon="6.46133">
        <ele>1383</ele>
        <time>2011-06-04T10:11:34Z</time>
      </trkpt>
      <trkpt lat="45.94686" lon="6.46139">
        <ele>1381</ele>
        <time>2011-06-04T10:11:36Z</time>
      </trkpt>
      <trkpt lat="45.94687" lon="6.46151">
        <ele>1378</ele>
        <time>2011-06-04T10:11:39Z</time>
      </trkpt>
      <trkpt lat="45.94687" lon="6.4616">
        <ele>1378</ele>
        <time>2011-06-04T10:11:41Z</time>
      </trkpt>
      <trkpt lat="45.94688" lon="6.46175">
        <ele>1378</ele>
        <time>2011-06-04T10:11:44Z</time>
      </trkpt>
      <trkpt lat="45.94692" lon="6.46189">
        <ele>1378</ele>
        <time>2011-06-04T10:11:47Z</time>
      </trkpt>
      <trkpt lat="45.94694" lon="6.46198">
        <ele>1378</ele>
        <time>2011-06-04T10:11:49Z</time>
      </trkpt>
      <trkpt lat="45.94697" lon="6.46206">
        <ele>1378</ele>
        <time>2011-06-04T10:11:51Z</time>
      </trkpt>
      <trkpt lat="45.94699" lon="6.46216">
        <ele>1378</ele>
        <time>2011-06-04T10:11:53Z</time>
      </trkpt>
      <trkpt lat="45.947" lon="6.46235">
        <ele>1378</ele>
        <time>2011-06-04T10:11:56Z</time>
      </trkpt>
      <trkpt lat="45.94701" lon="6.46251">
        <ele>1378</ele>
        <time>2011-06-04T10:11:59Z</time>
      </trkpt>
      <trkpt lat="45.94702" lon="6.4626">
        <ele>1378</ele>
        <time>2011-06-04T10:12:01Z</time>
      </trkpt>
      <trkpt lat="45.94704" lon="6.46267">
        <ele>1378</ele>
        <time>2011-06-04T10:12:03Z</time>
      </trkpt>
      <trkpt lat="45.94707" lon="6.46275">
        <ele>1378</ele>
        <time>2011-06-04T10:12:05Z</time>
      </trkpt>
      <trkpt lat="45.9471" lon="6.46282">
        <ele>1379</ele>
        <time>2011-06-04T10:12:07Z</time>
      </trkpt>
      <trkpt lat="45.94713" lon="6.46293">
        <ele>1380</ele>
        <time>2011-06-04T10:12:10Z</time>
      </trkpt>
      <trkpt lat="45.94715" lon="6.46302">
        <ele>1381</ele>
        <time>2011-06-04T10:12:12Z</time>
      </trkpt>
      <trkpt lat="45.94718" lon="6.46314">
        <ele>1383</ele>
        <time>2011-06-04T10:12:15Z</time>
      </trkpt>
      <trkpt lat="45.9472" lon="6.46325">
        <ele>1385</ele>
        <time>2011-06-04T10:12:18Z</time>
      </trkpt>
      <trkpt lat="45.94721" lon="6.46333">
        <ele>1386</ele>
        <time>2011-06-04T10:12:20Z</time>
      </trkpt>
      <trkpt lat="45.94723" lon="6.46339">
        <ele>1388</ele>
        <time>2011-06-04T10:12:22Z</time>
      </trkpt>
      <trkpt lat="45.94725" lon="6.46347">
        <ele>1389</ele>
        <time>2011-06-04T10:12:24Z</time>
      </trkpt>
      <trkpt lat="45.94727" lon="6.46355">
        <ele>1389</ele>
        <time>2011-06-04T10:12:26Z</time>
      </trkpt>
      <trkpt lat="45.94727" lon="6.46366">
        <ele>1389</ele>
        <time>2011-06-04T10:12:28Z</time>
      </trkpt>
      <trkpt lat="45.94725" lon="6.46375">
        <ele>1389</ele>
        <time>2011-06-04T10:12:30Z</time>
      </trkpt>
      <trkpt lat="45.94721" lon="6.46385">
        <ele>1389</ele>
        <time>2011-06-04T10:12:32Z</time>
      </trkpt>
      <trkpt lat="45.94713" lon="6.46404">
        <ele>1389</ele>
        <time>2011-06-04T10:12:35Z</time>
      </trkpt>
      <trkpt lat="45.94704" lon="6.46417">
        <ele>1388</ele>
        <time>2011-06-04T10:12:37Z</time>
      </trkpt>
      <trkpt lat="45.94691" lon="6.46433">
        <ele>1387</ele>
        <time>2011-06-04T10:12:40Z</time>
      </trkpt>
      <trkpt lat="45.94681" lon="6.46443">
        <ele>1387</ele>
        <time>2011-06-04T10:12:42Z</time>
      </trkpt>
      <trkpt lat="45.94672" lon="6.46455">
        <ele>1385</ele>
        <time>2011-06-04T10:12:44Z</time>
      </trkpt>
      <trkpt lat="45.94663" lon="6.46474">
        <ele>1382</ele>
        <time>2011-06-04T10:12:47Z</time>
      </trkpt>
      <trkpt lat="45.94658" lon="6.46481">
        <ele>1380</ele>
        <time>2011-06-04T10:12:49Z</time>
      </trkpt>
      <trkpt lat="45.94653" lon="6.4648">
        <ele>1378</ele>
        <time>2011-06-04T10:12:51Z</time>
      </trkpt>
      <trkpt lat="45.94647" lon="6.46475">
        <ele>1377</ele>
        <time>2011-06-04T10:12:53Z</time>
      </trkpt>
      <trkpt lat="45.94642" lon="6.46468">
        <ele>1375</ele>
        <time>2011-06-04T10:12:55Z</time>
      </trkpt>
      <trkpt lat="45.94637" lon="6.46463">
        <ele>1373</ele>
        <time>2011-06-04T10:12:57Z</time>
      </trkpt>
      <trkpt lat="45.94634" lon="6.46463">
        <ele>1372</ele>
        <time>2011-06-04T10:13:00Z</time>
      </trkpt>
      <trkpt lat="45.94633" lon="6.46465">
        <ele>1370</ele>
        <time>2011-06-04T10:13:09Z</time>
      </trkpt>
      <trkpt lat="45.94633" lon="6.46466">
        <ele>1369</ele>
        <time>2011-06-04T10:13:12Z</time>
      </trkpt>
      <trkpt lat="45.94634" lon="6.4647">
        <ele>1369</ele>
        <time>2011-06-04T10:13:15Z</time>
      </trkpt>
      <trkpt lat="45.94635" lon="6.46472">
        <ele>1369</ele>
        <time>2011-06-04T10:13:21Z</time>
      </trkpt>
      <trkpt lat="45.94637" lon="6.46477">
        <ele>1369</ele>
        <time>2011-06-04T10:13:23Z</time>
      </trkpt>
      <trkpt lat="45.9464" lon="6.46486">
        <ele>1369</ele>
        <time>2011-06-04T10:13:25Z</time>
      </trkpt>
      <trkpt lat="45.94642" lon="6.46497">
        <ele>1369</ele>
        <time>2011-06-04T10:13:28Z</time>
      </trkpt>
      <trkpt lat="45.9464" lon="6.46506">
        <ele>1369</ele>
        <time>2011-06-04T10:13:31Z</time>
      </trkpt>
      <trkpt lat="45.94639" lon="6.46514">
        <ele>1369</ele>
        <time>2011-06-04T10:13:33Z</time>
      </trkpt>
      <trkpt lat="45.94636" lon="6.46521">
        <ele>1368</ele>
        <time>2011-06-04T10:13:35Z</time>
      </trkpt>
      <trkpt lat="45.94634" lon="6.46527">
        <ele>1366</ele>
        <time>2011-06-04T10:13:37Z</time>
      </trkpt>
      <trkpt lat="45.94632" lon="6.46532">
        <ele>1365</ele>
        <time>2011-06-04T10:13:39Z</time>
      </trkpt>
      <trkpt lat="45.94632" lon="6.46536">
        <ele>1365</ele>
        <time>2011-06-04T10:13:41Z</time>
      </trkpt>
      <trkpt lat="45.94634" lon="6.46537">
        <ele>1365</ele>
        <time>2011-06-04T10:13:43Z</time>
      </trkpt>
      <trkpt lat="45.94637" lon="6.46539">
        <ele>1365</ele>
        <time>2011-06-04T10:13:45Z</time>
      </trkpt>
      <trkpt lat="45.94641" lon="6.46538">
        <ele>1365</ele>
        <time>2011-06-04T10:13:47Z</time>
      </trkpt>
      <trkpt lat="45.94645" lon="6.46539">
        <ele>1365</ele>
        <time>2011-06-04T10:13:49Z</time>
      </trkpt>
      <trkpt lat="45.94648" lon="6.46541">
        <ele>1365</ele>
        <time>2011-06-04T10:13:51Z</time>
      </trkpt>
      <trkpt lat="45.94651" lon="6.46542">
        <ele>1365</ele>
        <time>2011-06-04T10:13:53Z</time>
      </trkpt>
      <trkpt lat="45.94651" lon="6.46544">
        <ele>1373</ele>
        <time>2011-06-04T10:14:08Z</time>
      </trkpt>
      <trkpt lat="45.94652" lon="6.46545">
        <ele>1378</ele>
        <time>2011-06-04T10:14:17Z</time>
      </trkpt>
      <trkpt lat="45.94652" lon="6.46545">
        <ele>1378</ele>
        <time>2011-06-04T10:14:17Z</time>
      </trkpt>
    </trkseg>
  </trk>
</gpx>